<?xml version="1.0" encoding="UTF-8" standalone="no" ?>
<gpx xmlns="http://www.topografix.com/GPX/1/1" xmlns:xsi="http://www.w3.org/2001/XMLSchema-instance" xsi:schemaLocation="http://www.topografix.com/GPX/1/1 http://www.topografix.com/GPX/1/1/gpx.xsd" version="1.1" creator="VisuGPX - https://www.visugpx.com">
  <metadata>
    <name>17/05/2022</name>
    <desc><![CDATA[boucle au départ du camping de Salagou pour effectuer le tour du lac]]></desc>
  </metadata>
  <trk>
    <name><![CDATA[17/05/2022_1]]></name>
    <trkseg>
      <trkpt lat="43.64544" lon="3.38825">
        <ele>143</ele>
        <time>2022-05-17T06:33:30Z</time>
      </trkpt>
      <trkpt lat="43.64547" lon="3.38817">
        <ele>142</ele>
        <time>2022-05-17T06:33:34Z</time>
      </trkpt>
      <trkpt lat="43.64546" lon="3.38807">
        <ele>141.6</ele>
        <time>2022-05-17T06:33:39Z</time>
      </trkpt>
      <trkpt lat="43.64544" lon="3.38805">
        <ele>141.4</ele>
        <time>2022-05-17T06:33:40Z</time>
      </trkpt>
      <trkpt lat="43.64535" lon="3.38802">
        <ele>141.6</ele>
        <time>2022-05-17T06:33:45Z</time>
      </trkpt>
      <trkpt lat="43.64527" lon="3.388">
        <ele>141.6</ele>
        <time>2022-05-17T06:33:51Z</time>
      </trkpt>
      <trkpt lat="43.64512" lon="3.38789">
        <ele>141.6</ele>
        <time>2022-05-17T06:34:00Z</time>
      </trkpt>
      <trkpt lat="43.64494" lon="3.38785">
        <ele>141.4</ele>
        <time>2022-05-17T06:34:07Z</time>
      </trkpt>
      <trkpt lat="43.64488" lon="3.38785">
        <ele>141.4</ele>
        <time>2022-05-17T06:34:09Z</time>
      </trkpt>
      <trkpt lat="43.64482" lon="3.3878">
        <ele>141.6</ele>
        <time>2022-05-17T06:34:11Z</time>
      </trkpt>
      <trkpt lat="43.6447" lon="3.38769">
        <ele>141.4</ele>
        <time>2022-05-17T06:34:14Z</time>
      </trkpt>
      <trkpt lat="43.6445" lon="3.38767">
        <ele>141.2</ele>
        <time>2022-05-17T06:34:18Z</time>
      </trkpt>
      <trkpt lat="43.64442" lon="3.38769">
        <ele>140.4</ele>
        <time>2022-05-17T06:34:20Z</time>
      </trkpt>
      <trkpt lat="43.64434" lon="3.38769">
        <ele>140</ele>
        <time>2022-05-17T06:34:23Z</time>
      </trkpt>
      <trkpt lat="43.64422" lon="3.38774">
        <ele>139.8</ele>
        <time>2022-05-17T06:34:28Z</time>
      </trkpt>
      <trkpt lat="43.64402" lon="3.38782">
        <ele>139.6</ele>
        <time>2022-05-17T06:34:36Z</time>
      </trkpt>
      <trkpt lat="43.64385" lon="3.38788">
        <ele>139.6</ele>
        <time>2022-05-17T06:34:44Z</time>
      </trkpt>
      <trkpt lat="43.64372" lon="3.38784">
        <ele>139.4</ele>
        <time>2022-05-17T06:34:50Z</time>
      </trkpt>
      <trkpt lat="43.64371" lon="3.3877">
        <ele>139.4</ele>
        <time>2022-05-17T06:34:54Z</time>
      </trkpt>
      <trkpt lat="43.64375" lon="3.38758">
        <ele>139.4</ele>
        <time>2022-05-17T06:34:58Z</time>
      </trkpt>
      <trkpt lat="43.64376" lon="3.38752">
        <ele>139.2</ele>
        <time>2022-05-17T06:35:02Z</time>
      </trkpt>
      <trkpt lat="43.64369" lon="3.38747">
        <ele>139.2</ele>
        <time>2022-05-17T06:35:06Z</time>
      </trkpt>
      <trkpt lat="43.64358" lon="3.38746">
        <ele>139</ele>
        <time>2022-05-17T06:35:11Z</time>
      </trkpt>
      <trkpt lat="43.64347" lon="3.38741">
        <ele>139.4</ele>
        <time>2022-05-17T06:35:18Z</time>
      </trkpt>
      <trkpt lat="43.64346" lon="3.3874">
        <ele>139.4</ele>
        <time>2022-05-17T06:35:19Z</time>
      </trkpt>
      <trkpt lat="43.64345" lon="3.38726">
        <ele>139.6</ele>
        <time>2022-05-17T06:35:26Z</time>
      </trkpt>
      <trkpt lat="43.64342" lon="3.38709">
        <ele>139.4</ele>
        <time>2022-05-17T06:35:32Z</time>
      </trkpt>
      <trkpt lat="43.64338" lon="3.38698">
        <ele>139</ele>
        <time>2022-05-17T06:35:37Z</time>
      </trkpt>
      <trkpt lat="43.64337" lon="3.38695">
        <ele>139</ele>
        <time>2022-05-17T06:35:38Z</time>
      </trkpt>
      <trkpt lat="43.64338" lon="3.38685">
        <ele>138.8</ele>
        <time>2022-05-17T06:35:41Z</time>
      </trkpt>
      <trkpt lat="43.64339" lon="3.38664">
        <ele>138.8</ele>
        <time>2022-05-17T06:35:48Z</time>
      </trkpt>
      <trkpt lat="43.64341" lon="3.38636">
        <ele>138.8</ele>
        <time>2022-05-17T06:35:55Z</time>
      </trkpt>
      <trkpt lat="43.64344" lon="3.38607">
        <ele>138.4</ele>
        <time>2022-05-17T06:36:02Z</time>
      </trkpt>
      <trkpt lat="43.64344" lon="3.38603">
        <ele>138.4</ele>
        <time>2022-05-17T06:36:03Z</time>
      </trkpt>
      <trkpt lat="43.6434" lon="3.38583">
        <ele>138.4</ele>
        <time>2022-05-17T06:36:09Z</time>
      </trkpt>
      <trkpt lat="43.64341" lon="3.38557">
        <ele>138.8</ele>
        <time>2022-05-17T06:36:16Z</time>
      </trkpt>
      <trkpt lat="43.64336" lon="3.38533">
        <ele>139</ele>
        <time>2022-05-17T06:36:23Z</time>
      </trkpt>
      <trkpt lat="43.6433" lon="3.38495">
        <ele>139.2</ele>
        <time>2022-05-17T06:36:32Z</time>
      </trkpt>
      <trkpt lat="43.6433" lon="3.3848">
        <ele>138.8</ele>
        <time>2022-05-17T06:36:37Z</time>
      </trkpt>
      <trkpt lat="43.64325" lon="3.38468">
        <ele>138.4</ele>
        <time>2022-05-17T06:36:43Z</time>
      </trkpt>
      <trkpt lat="43.64323" lon="3.38463">
        <ele>138.4</ele>
        <time>2022-05-17T06:36:45Z</time>
      </trkpt>
      <trkpt lat="43.64324" lon="3.38459">
        <ele>138.2</ele>
        <time>2022-05-17T06:36:47Z</time>
      </trkpt>
      <trkpt lat="43.64336" lon="3.38449">
        <ele>138</ele>
        <time>2022-05-17T06:36:53Z</time>
      </trkpt>
      <trkpt lat="43.64346" lon="3.38445">
        <ele>137.8</ele>
        <time>2022-05-17T06:36:57Z</time>
      </trkpt>
      <trkpt lat="43.64351" lon="3.38442">
        <ele>137.6</ele>
        <time>2022-05-17T06:37:00Z</time>
      </trkpt>
      <trkpt lat="43.64352" lon="3.3844">
        <ele>137.4</ele>
        <time>2022-05-17T06:37:01Z</time>
      </trkpt>
      <trkpt lat="43.64353" lon="3.38438">
        <ele>137.2</ele>
        <time>2022-05-17T06:37:03Z</time>
      </trkpt>
      <trkpt lat="43.64354" lon="3.38437">
        <ele>137</ele>
        <time>2022-05-17T06:37:05Z</time>
      </trkpt>
      <trkpt lat="43.64359" lon="3.3843">
        <ele>136.8</ele>
        <time>2022-05-17T06:37:13Z</time>
      </trkpt>
      <trkpt lat="43.64361" lon="3.38431">
        <ele>136.6</ele>
        <time>2022-05-17T06:37:24Z</time>
      </trkpt>
      <trkpt lat="43.64363" lon="3.38433">
        <ele>136.6</ele>
        <time>2022-05-17T06:37:28Z</time>
      </trkpt>
      <trkpt lat="43.64374" lon="3.38441">
        <ele>136.6</ele>
        <time>2022-05-17T06:37:34Z</time>
      </trkpt>
      <trkpt lat="43.64385" lon="3.3845">
        <ele>136.8</ele>
        <time>2022-05-17T06:37:41Z</time>
      </trkpt>
      <trkpt lat="43.64392" lon="3.38464">
        <ele>136.8</ele>
        <time>2022-05-17T06:37:48Z</time>
      </trkpt>
      <trkpt lat="43.64394" lon="3.38463">
        <ele>136.6</ele>
        <time>2022-05-17T06:37:55Z</time>
      </trkpt>
      <trkpt lat="43.64392" lon="3.38459">
        <ele>136.6</ele>
        <time>2022-05-17T06:38:01Z</time>
      </trkpt>
      <trkpt lat="43.6439" lon="3.38451">
        <ele>136.4</ele>
        <time>2022-05-17T06:38:07Z</time>
      </trkpt>
      <trkpt lat="43.64388" lon="3.38446">
        <ele>136.6</ele>
        <time>2022-05-17T06:38:14Z</time>
      </trkpt>
      <trkpt lat="43.64385" lon="3.38444">
        <ele>136.6</ele>
        <time>2022-05-17T06:38:18Z</time>
      </trkpt>
      <trkpt lat="43.64381" lon="3.38443">
        <ele>136.6</ele>
        <time>2022-05-17T06:38:20Z</time>
      </trkpt>
      <trkpt lat="43.64371" lon="3.38437">
        <ele>136.6</ele>
        <time>2022-05-17T06:38:27Z</time>
      </trkpt>
      <trkpt lat="43.64369" lon="3.38436">
        <ele>136.6</ele>
        <time>2022-05-17T06:38:29Z</time>
      </trkpt>
      <trkpt lat="43.64366" lon="3.38432">
        <ele>136.4</ele>
        <time>2022-05-17T06:38:33Z</time>
      </trkpt>
      <trkpt lat="43.64365" lon="3.38429">
        <ele>136.6</ele>
        <time>2022-05-17T06:39:06Z</time>
      </trkpt>
      <trkpt lat="43.64362" lon="3.38422">
        <ele>136.4</ele>
        <time>2022-05-17T06:39:21Z</time>
      </trkpt>
      <trkpt lat="43.64362" lon="3.38422">
        <ele>136.4</ele>
        <time>2022-05-17T06:39:28Z</time>
      </trkpt>
      <trkpt lat="43.64363" lon="3.38418">
        <ele>136.4</ele>
        <time>2022-05-17T06:39:47Z</time>
      </trkpt>
      <trkpt lat="43.64366" lon="3.38413">
        <ele>136.4</ele>
        <time>2022-05-17T06:39:50Z</time>
      </trkpt>
      <trkpt lat="43.64375" lon="3.384">
        <ele>136.6</ele>
        <time>2022-05-17T06:39:55Z</time>
      </trkpt>
      <trkpt lat="43.64389" lon="3.38383">
        <ele>136.6</ele>
        <time>2022-05-17T06:40:01Z</time>
      </trkpt>
      <trkpt lat="43.64401" lon="3.38361">
        <ele>136.8</ele>
        <time>2022-05-17T06:40:08Z</time>
      </trkpt>
      <trkpt lat="43.64412" lon="3.38329">
        <ele>137</ele>
        <time>2022-05-17T06:40:17Z</time>
      </trkpt>
      <trkpt lat="43.64415" lon="3.38309">
        <ele>137</ele>
        <time>2022-05-17T06:40:22Z</time>
      </trkpt>
      <trkpt lat="43.64424" lon="3.38278">
        <ele>136.6</ele>
        <time>2022-05-17T06:40:30Z</time>
      </trkpt>
      <trkpt lat="43.64425" lon="3.38256">
        <ele>136.4</ele>
        <time>2022-05-17T06:40:36Z</time>
      </trkpt>
      <trkpt lat="43.64424" lon="3.38243">
        <ele>136.4</ele>
        <time>2022-05-17T06:40:41Z</time>
      </trkpt>
      <trkpt lat="43.64423" lon="3.38226">
        <ele>136.4</ele>
        <time>2022-05-17T06:40:47Z</time>
      </trkpt>
      <trkpt lat="43.6442" lon="3.38212">
        <ele>136.4</ele>
        <time>2022-05-17T06:40:52Z</time>
      </trkpt>
      <trkpt lat="43.64419" lon="3.38207">
        <ele>136.2</ele>
        <time>2022-05-17T06:40:56Z</time>
      </trkpt>
      <trkpt lat="43.64419" lon="3.38207">
        <ele>136</ele>
        <time>2022-05-17T06:41:15Z</time>
      </trkpt>
      <trkpt lat="43.6442" lon="3.38205">
        <ele>136</ele>
        <time>2022-05-17T06:41:16Z</time>
      </trkpt>
      <trkpt lat="43.64422" lon="3.38183">
        <ele>135.8</ele>
        <time>2022-05-17T06:41:22Z</time>
      </trkpt>
      <trkpt lat="43.64426" lon="3.38162">
        <ele>136</ele>
        <time>2022-05-17T06:41:28Z</time>
      </trkpt>
      <trkpt lat="43.64428" lon="3.3813">
        <ele>136.2</ele>
        <time>2022-05-17T06:41:35Z</time>
      </trkpt>
      <trkpt lat="43.64432" lon="3.38108">
        <ele>136.4</ele>
        <time>2022-05-17T06:41:42Z</time>
      </trkpt>
      <trkpt lat="43.64437" lon="3.38085">
        <ele>136.8</ele>
        <time>2022-05-17T06:41:51Z</time>
      </trkpt>
      <trkpt lat="43.64441" lon="3.38074">
        <ele>136.8</ele>
        <time>2022-05-17T06:41:58Z</time>
      </trkpt>
      <trkpt lat="43.64443" lon="3.38071">
        <ele>136.8</ele>
        <time>2022-05-17T06:41:59Z</time>
      </trkpt>
      <trkpt lat="43.64443" lon="3.38067">
        <ele>136.8</ele>
        <time>2022-05-17T06:42:01Z</time>
      </trkpt>
      <trkpt lat="43.64441" lon="3.38065">
        <ele>136.6</ele>
        <time>2022-05-17T06:42:03Z</time>
      </trkpt>
      <trkpt lat="43.64442" lon="3.38041">
        <ele>136.6</ele>
        <time>2022-05-17T06:42:12Z</time>
      </trkpt>
      <trkpt lat="43.64447" lon="3.38028">
        <ele>136.4</ele>
        <time>2022-05-17T06:42:18Z</time>
      </trkpt>
      <trkpt lat="43.64454" lon="3.38006">
        <ele>136.6</ele>
        <time>2022-05-17T06:42:24Z</time>
      </trkpt>
      <trkpt lat="43.64456" lon="3.37981">
        <ele>136.8</ele>
        <time>2022-05-17T06:42:32Z</time>
      </trkpt>
      <trkpt lat="43.64451" lon="3.37977">
        <ele>136.8</ele>
        <time>2022-05-17T06:42:36Z</time>
      </trkpt>
      <trkpt lat="43.64437" lon="3.37972">
        <ele>136.8</ele>
        <time>2022-05-17T06:42:43Z</time>
      </trkpt>
      <trkpt lat="43.64431" lon="3.37974">
        <ele>137</ele>
        <time>2022-05-17T06:42:49Z</time>
      </trkpt>
      <trkpt lat="43.64426" lon="3.37976">
        <ele>137.4</ele>
        <time>2022-05-17T06:42:56Z</time>
      </trkpt>
      <trkpt lat="43.64426" lon="3.37976">
        <ele>137.6</ele>
        <time>2022-05-17T06:43:08Z</time>
      </trkpt>
      <trkpt lat="43.64423" lon="3.37979">
        <ele>137.6</ele>
        <time>2022-05-17T06:43:35Z</time>
      </trkpt>
      <trkpt lat="43.6442" lon="3.37982">
        <ele>138.2</ele>
        <time>2022-05-17T06:43:41Z</time>
      </trkpt>
      <trkpt lat="43.6442" lon="3.37985">
        <ele>138.4</ele>
        <time>2022-05-17T06:43:44Z</time>
      </trkpt>
      <trkpt lat="43.64418" lon="3.37989">
        <ele>138.4</ele>
        <time>2022-05-17T06:43:51Z</time>
      </trkpt>
      <trkpt lat="43.64418" lon="3.37989">
        <ele>138.4</ele>
        <time>2022-05-17T06:43:52Z</time>
      </trkpt>
      <trkpt lat="43.64417" lon="3.37989">
        <ele>138.4</ele>
        <time>2022-05-17T06:43:58Z</time>
      </trkpt>
      <trkpt lat="43.64413" lon="3.37995">
        <ele>138.4</ele>
        <time>2022-05-17T06:44:06Z</time>
      </trkpt>
      <trkpt lat="43.64399" lon="3.38012">
        <ele>138.8</ele>
        <time>2022-05-17T06:44:15Z</time>
      </trkpt>
      <trkpt lat="43.64394" lon="3.38014">
        <ele>139.2</ele>
        <time>2022-05-17T06:44:20Z</time>
      </trkpt>
      <trkpt lat="43.64394" lon="3.38014">
        <ele>139.2</ele>
        <time>2022-05-17T06:44:21Z</time>
      </trkpt>
      <trkpt lat="43.64395" lon="3.38017">
        <ele>139.8</ele>
        <time>2022-05-17T06:44:37Z</time>
      </trkpt>
      <trkpt lat="43.64397" lon="3.38027">
        <ele>139.6</ele>
        <time>2022-05-17T06:44:42Z</time>
      </trkpt>
      <trkpt lat="43.64395" lon="3.38036">
        <ele>139.2</ele>
        <time>2022-05-17T06:44:47Z</time>
      </trkpt>
      <trkpt lat="43.64396" lon="3.38037">
        <ele>139.2</ele>
        <time>2022-05-17T06:44:48Z</time>
      </trkpt>
      <trkpt lat="43.64396" lon="3.38035">
        <ele>138.8</ele>
        <time>2022-05-17T06:44:53Z</time>
      </trkpt>
      <trkpt lat="43.64397" lon="3.38032">
        <ele>138.8</ele>
        <time>2022-05-17T06:44:55Z</time>
      </trkpt>
      <trkpt lat="43.64398" lon="3.38024">
        <ele>138.8</ele>
        <time>2022-05-17T06:44:58Z</time>
      </trkpt>
      <trkpt lat="43.64401" lon="3.38006">
        <ele>139</ele>
        <time>2022-05-17T06:45:05Z</time>
      </trkpt>
      <trkpt lat="43.64397" lon="3.37998">
        <ele>139.2</ele>
        <time>2022-05-17T06:45:10Z</time>
      </trkpt>
      <trkpt lat="43.64389" lon="3.37991">
        <ele>138.6</ele>
        <time>2022-05-17T06:45:17Z</time>
      </trkpt>
      <trkpt lat="43.64388" lon="3.3799">
        <ele>138</ele>
        <time>2022-05-17T06:45:18Z</time>
      </trkpt>
      <trkpt lat="43.64387" lon="3.37989">
        <ele>137.8</ele>
        <time>2022-05-17T06:45:19Z</time>
      </trkpt>
      <trkpt lat="43.64386" lon="3.37986">
        <ele>137.2</ele>
        <time>2022-05-17T06:45:21Z</time>
      </trkpt>
      <trkpt lat="43.64386" lon="3.37984">
        <ele>137</ele>
        <time>2022-05-17T06:45:22Z</time>
      </trkpt>
      <trkpt lat="43.64385" lon="3.37983">
        <ele>136.8</ele>
        <time>2022-05-17T06:45:23Z</time>
      </trkpt>
      <trkpt lat="43.64379" lon="3.37979">
        <ele>136</ele>
        <time>2022-05-17T06:45:29Z</time>
      </trkpt>
      <trkpt lat="43.64378" lon="3.37978">
        <ele>135.8</ele>
        <time>2022-05-17T06:45:30Z</time>
      </trkpt>
      <trkpt lat="43.64377" lon="3.37978">
        <ele>135.8</ele>
        <time>2022-05-17T06:45:31Z</time>
      </trkpt>
      <trkpt lat="43.64376" lon="3.37977">
        <ele>135.8</ele>
        <time>2022-05-17T06:45:32Z</time>
      </trkpt>
      <trkpt lat="43.6437" lon="3.37969">
        <ele>135.8</ele>
        <time>2022-05-17T06:45:37Z</time>
      </trkpt>
      <trkpt lat="43.64368" lon="3.37963">
        <ele>135.8</ele>
        <time>2022-05-17T06:45:40Z</time>
      </trkpt>
      <trkpt lat="43.6437" lon="3.37959">
        <ele>136</ele>
        <time>2022-05-17T06:45:42Z</time>
      </trkpt>
      <trkpt lat="43.64372" lon="3.37955">
        <ele>136.2</ele>
        <time>2022-05-17T06:45:44Z</time>
      </trkpt>
      <trkpt lat="43.64376" lon="3.37948">
        <ele>136.4</ele>
        <time>2022-05-17T06:45:47Z</time>
      </trkpt>
      <trkpt lat="43.64384" lon="3.37932">
        <ele>137</ele>
        <time>2022-05-17T06:45:53Z</time>
      </trkpt>
      <trkpt lat="43.64384" lon="3.37917">
        <ele>137.4</ele>
        <time>2022-05-17T06:45:59Z</time>
      </trkpt>
      <trkpt lat="43.64381" lon="3.37905">
        <ele>137.4</ele>
        <time>2022-05-17T06:46:03Z</time>
      </trkpt>
      <trkpt lat="43.64379" lon="3.37898">
        <ele>137</ele>
        <time>2022-05-17T06:46:08Z</time>
      </trkpt>
      <trkpt lat="43.64379" lon="3.37897">
        <ele>136.4</ele>
        <time>2022-05-17T06:46:13Z</time>
      </trkpt>
      <trkpt lat="43.6438" lon="3.37897">
        <ele>136</ele>
        <time>2022-05-17T06:46:21Z</time>
      </trkpt>
      <trkpt lat="43.64381" lon="3.37897">
        <ele>135.8</ele>
        <time>2022-05-17T06:46:29Z</time>
      </trkpt>
      <trkpt lat="43.64383" lon="3.37891">
        <ele>135.8</ele>
        <time>2022-05-17T06:46:38Z</time>
      </trkpt>
      <trkpt lat="43.64384" lon="3.37888">
        <ele>135.8</ele>
        <time>2022-05-17T06:46:39Z</time>
      </trkpt>
      <trkpt lat="43.64393" lon="3.37868">
        <ele>135.8</ele>
        <time>2022-05-17T06:46:44Z</time>
      </trkpt>
      <trkpt lat="43.64396" lon="3.37862">
        <ele>136</ele>
        <time>2022-05-17T06:46:46Z</time>
      </trkpt>
      <trkpt lat="43.64397" lon="3.37856">
        <ele>136.2</ele>
        <time>2022-05-17T06:46:48Z</time>
      </trkpt>
      <trkpt lat="43.64398" lon="3.37836">
        <ele>136.8</ele>
        <time>2022-05-17T06:46:54Z</time>
      </trkpt>
      <trkpt lat="43.64399" lon="3.37831">
        <ele>136.8</ele>
        <time>2022-05-17T06:46:59Z</time>
      </trkpt>
      <trkpt lat="43.64402" lon="3.37823">
        <ele>136.4</ele>
        <time>2022-05-17T06:47:03Z</time>
      </trkpt>
      <trkpt lat="43.64408" lon="3.37808">
        <ele>136.2</ele>
        <time>2022-05-17T06:47:08Z</time>
      </trkpt>
      <trkpt lat="43.64416" lon="3.37784">
        <ele>136.2</ele>
        <time>2022-05-17T06:47:15Z</time>
      </trkpt>
      <trkpt lat="43.64418" lon="3.37763">
        <ele>136.4</ele>
        <time>2022-05-17T06:47:21Z</time>
      </trkpt>
      <trkpt lat="43.64419" lon="3.3776">
        <ele>136.4</ele>
        <time>2022-05-17T06:47:22Z</time>
      </trkpt>
      <trkpt lat="43.64419" lon="3.3774">
        <ele>136.6</ele>
        <time>2022-05-17T06:47:27Z</time>
      </trkpt>
      <trkpt lat="43.6442" lon="3.37719">
        <ele>136.6</ele>
        <time>2022-05-17T06:47:34Z</time>
      </trkpt>
      <trkpt lat="43.64421" lon="3.37704">
        <ele>136.4</ele>
        <time>2022-05-17T06:47:39Z</time>
      </trkpt>
      <trkpt lat="43.64427" lon="3.37681">
        <ele>136.4</ele>
        <time>2022-05-17T06:47:46Z</time>
      </trkpt>
      <trkpt lat="43.64434" lon="3.37662">
        <ele>136.8</ele>
        <time>2022-05-17T06:47:51Z</time>
      </trkpt>
      <trkpt lat="43.64434" lon="3.37658">
        <ele>136.8</ele>
        <time>2022-05-17T06:47:52Z</time>
      </trkpt>
      <trkpt lat="43.64432" lon="3.37644">
        <ele>137</ele>
        <time>2022-05-17T06:47:57Z</time>
      </trkpt>
      <trkpt lat="43.64431" lon="3.3764">
        <ele>137.2</ele>
        <time>2022-05-17T06:47:58Z</time>
      </trkpt>
      <trkpt lat="43.64428" lon="3.37623">
        <ele>137.2</ele>
        <time>2022-05-17T06:48:01Z</time>
      </trkpt>
      <trkpt lat="43.6443" lon="3.37608">
        <ele>137</ele>
        <time>2022-05-17T06:48:05Z</time>
      </trkpt>
      <trkpt lat="43.64432" lon="3.37604">
        <ele>136.8</ele>
        <time>2022-05-17T06:48:07Z</time>
      </trkpt>
      <trkpt lat="43.64435" lon="3.37599">
        <ele>136.8</ele>
        <time>2022-05-17T06:48:09Z</time>
      </trkpt>
      <trkpt lat="43.64446" lon="3.37573">
        <ele>136.8</ele>
        <time>2022-05-17T06:48:17Z</time>
      </trkpt>
      <trkpt lat="43.64452" lon="3.37551">
        <ele>136.8</ele>
        <time>2022-05-17T06:48:23Z</time>
      </trkpt>
      <trkpt lat="43.64457" lon="3.37529">
        <ele>136.6</ele>
        <time>2022-05-17T06:48:28Z</time>
      </trkpt>
      <trkpt lat="43.64463" lon="3.37504">
        <ele>136.2</ele>
        <time>2022-05-17T06:48:34Z</time>
      </trkpt>
      <trkpt lat="43.64472" lon="3.37471">
        <ele>136.4</ele>
        <time>2022-05-17T06:48:42Z</time>
      </trkpt>
      <trkpt lat="43.64474" lon="3.37462">
        <ele>136.4</ele>
        <time>2022-05-17T06:48:44Z</time>
      </trkpt>
      <trkpt lat="43.64478" lon="3.37441">
        <ele>136.6</ele>
        <time>2022-05-17T06:48:49Z</time>
      </trkpt>
      <trkpt lat="43.64476" lon="3.37405">
        <ele>136.4</ele>
        <time>2022-05-17T06:48:57Z</time>
      </trkpt>
      <trkpt lat="43.64479" lon="3.37386">
        <ele>136.4</ele>
        <time>2022-05-17T06:49:02Z</time>
      </trkpt>
      <trkpt lat="43.64475" lon="3.37366">
        <ele>136.4</ele>
        <time>2022-05-17T06:49:07Z</time>
      </trkpt>
      <trkpt lat="43.64464" lon="3.37347">
        <ele>136.6</ele>
        <time>2022-05-17T06:49:13Z</time>
      </trkpt>
      <trkpt lat="43.64456" lon="3.3733">
        <ele>136.8</ele>
        <time>2022-05-17T06:49:18Z</time>
      </trkpt>
      <trkpt lat="43.64441" lon="3.37313">
        <ele>136.6</ele>
        <time>2022-05-17T06:49:24Z</time>
      </trkpt>
      <trkpt lat="43.64432" lon="3.37289">
        <ele>136.4</ele>
        <time>2022-05-17T06:49:30Z</time>
      </trkpt>
      <trkpt lat="43.64428" lon="3.37268">
        <ele>136.2</ele>
        <time>2022-05-17T06:49:36Z</time>
      </trkpt>
      <trkpt lat="43.64423" lon="3.37242">
        <ele>136.6</ele>
        <time>2022-05-17T06:49:42Z</time>
      </trkpt>
      <trkpt lat="43.64414" lon="3.37224">
        <ele>136.6</ele>
        <time>2022-05-17T06:49:48Z</time>
      </trkpt>
      <trkpt lat="43.64396" lon="3.37205">
        <ele>136.6</ele>
        <time>2022-05-17T06:49:56Z</time>
      </trkpt>
      <trkpt lat="43.64381" lon="3.37189">
        <ele>136.8</ele>
        <time>2022-05-17T06:50:03Z</time>
      </trkpt>
      <trkpt lat="43.64379" lon="3.37186">
        <ele>136.8</ele>
        <time>2022-05-17T06:50:04Z</time>
      </trkpt>
      <trkpt lat="43.64375" lon="3.37185">
        <ele>136.6</ele>
        <time>2022-05-17T06:50:06Z</time>
      </trkpt>
      <trkpt lat="43.64373" lon="3.37183">
        <ele>136.6</ele>
        <time>2022-05-17T06:50:07Z</time>
      </trkpt>
      <trkpt lat="43.6437" lon="3.37176">
        <ele>136.2</ele>
        <time>2022-05-17T06:50:10Z</time>
      </trkpt>
      <trkpt lat="43.64364" lon="3.37167">
        <ele>136</ele>
        <time>2022-05-17T06:50:15Z</time>
      </trkpt>
      <trkpt lat="43.64358" lon="3.37153">
        <ele>136.2</ele>
        <time>2022-05-17T06:50:20Z</time>
      </trkpt>
      <trkpt lat="43.64358" lon="3.37145">
        <ele>136.4</ele>
        <time>2022-05-17T06:50:24Z</time>
      </trkpt>
      <trkpt lat="43.64358" lon="3.37146">
        <ele>136.4</ele>
        <time>2022-05-17T06:50:33Z</time>
      </trkpt>
      <trkpt lat="43.64356" lon="3.37149">
        <ele>136.4</ele>
        <time>2022-05-17T06:50:39Z</time>
      </trkpt>
      <trkpt lat="43.64348" lon="3.37145">
        <ele>136.4</ele>
        <time>2022-05-17T06:50:43Z</time>
      </trkpt>
      <trkpt lat="43.6433" lon="3.37136">
        <ele>137</ele>
        <time>2022-05-17T06:50:51Z</time>
      </trkpt>
      <trkpt lat="43.64321" lon="3.37124">
        <ele>137.8</ele>
        <time>2022-05-17T06:50:57Z</time>
      </trkpt>
      <trkpt lat="43.64319" lon="3.37122">
        <ele>138.2</ele>
        <time>2022-05-17T06:50:58Z</time>
      </trkpt>
      <trkpt lat="43.64312" lon="3.37109">
        <ele>139</ele>
        <time>2022-05-17T06:51:03Z</time>
      </trkpt>
      <trkpt lat="43.6431" lon="3.37105">
        <ele>139</ele>
        <time>2022-05-17T06:51:04Z</time>
      </trkpt>
      <trkpt lat="43.64305" lon="3.37082">
        <ele>139.4</ele>
        <time>2022-05-17T06:51:10Z</time>
      </trkpt>
      <trkpt lat="43.64301" lon="3.37052">
        <ele>139.4</ele>
        <time>2022-05-17T06:51:15Z</time>
      </trkpt>
      <trkpt lat="43.64297" lon="3.37021">
        <ele>138.8</ele>
        <time>2022-05-17T06:51:20Z</time>
      </trkpt>
      <trkpt lat="43.64301" lon="3.37008">
        <ele>138.4</ele>
        <time>2022-05-17T06:51:24Z</time>
      </trkpt>
      <trkpt lat="43.64304" lon="3.36979">
        <ele>138.6</ele>
        <time>2022-05-17T06:51:32Z</time>
      </trkpt>
      <trkpt lat="43.64307" lon="3.36947">
        <ele>139.2</ele>
        <time>2022-05-17T06:51:39Z</time>
      </trkpt>
      <trkpt lat="43.64308" lon="3.36913">
        <ele>139.2</ele>
        <time>2022-05-17T06:51:46Z</time>
      </trkpt>
      <trkpt lat="43.64307" lon="3.36863">
        <ele>139</ele>
        <time>2022-05-17T06:51:56Z</time>
      </trkpt>
      <trkpt lat="43.64311" lon="3.36838">
        <ele>139.2</ele>
        <time>2022-05-17T06:52:02Z</time>
      </trkpt>
      <trkpt lat="43.64309" lon="3.36817">
        <ele>139.4</ele>
        <time>2022-05-17T06:52:06Z</time>
      </trkpt>
      <trkpt lat="43.64307" lon="3.36811">
        <ele>139.4</ele>
        <time>2022-05-17T06:52:07Z</time>
      </trkpt>
      <trkpt lat="43.64299" lon="3.36791">
        <ele>139.4</ele>
        <time>2022-05-17T06:52:10Z</time>
      </trkpt>
      <trkpt lat="43.64295" lon="3.36779">
        <ele>139.4</ele>
        <time>2022-05-17T06:52:12Z</time>
      </trkpt>
      <trkpt lat="43.64291" lon="3.3677">
        <ele>139</ele>
        <time>2022-05-17T06:52:14Z</time>
      </trkpt>
      <trkpt lat="43.6429" lon="3.3676">
        <ele>138.6</ele>
        <time>2022-05-17T06:52:16Z</time>
      </trkpt>
      <trkpt lat="43.64295" lon="3.36737">
        <ele>138</ele>
        <time>2022-05-17T06:52:22Z</time>
      </trkpt>
      <trkpt lat="43.64306" lon="3.36706">
        <ele>138</ele>
        <time>2022-05-17T06:52:28Z</time>
      </trkpt>
      <trkpt lat="43.64308" lon="3.367">
        <ele>138</ele>
        <time>2022-05-17T06:52:29Z</time>
      </trkpt>
      <trkpt lat="43.64311" lon="3.36688">
        <ele>138</ele>
        <time>2022-05-17T06:52:31Z</time>
      </trkpt>
      <trkpt lat="43.64312" lon="3.36677">
        <ele>137.8</ele>
        <time>2022-05-17T06:52:33Z</time>
      </trkpt>
      <trkpt lat="43.64311" lon="3.36673">
        <ele>137.8</ele>
        <time>2022-05-17T06:52:34Z</time>
      </trkpt>
      <trkpt lat="43.64305" lon="3.36664">
        <ele>137.2</ele>
        <time>2022-05-17T06:52:37Z</time>
      </trkpt>
      <trkpt lat="43.64293" lon="3.36654">
        <ele>136.8</ele>
        <time>2022-05-17T06:52:42Z</time>
      </trkpt>
      <trkpt lat="43.64289" lon="3.36648">
        <ele>136.6</ele>
        <time>2022-05-17T06:52:44Z</time>
      </trkpt>
      <trkpt lat="43.64288" lon="3.36644">
        <ele>136.6</ele>
        <time>2022-05-17T06:52:45Z</time>
      </trkpt>
      <trkpt lat="43.64288" lon="3.3663">
        <ele>136.4</ele>
        <time>2022-05-17T06:52:48Z</time>
      </trkpt>
      <trkpt lat="43.64285" lon="3.36599">
        <ele>136.4</ele>
        <time>2022-05-17T06:52:55Z</time>
      </trkpt>
      <trkpt lat="43.64283" lon="3.36575">
        <ele>137</ele>
        <time>2022-05-17T06:53:01Z</time>
      </trkpt>
      <trkpt lat="43.64282" lon="3.36563">
        <ele>137.4</ele>
        <time>2022-05-17T06:53:05Z</time>
      </trkpt>
      <trkpt lat="43.64281" lon="3.36556">
        <ele>137.6</ele>
        <time>2022-05-17T06:53:12Z</time>
      </trkpt>
      <trkpt lat="43.64281" lon="3.36556">
        <ele>137.8</ele>
        <time>2022-05-17T06:53:16Z</time>
      </trkpt>
      <trkpt lat="43.64281" lon="3.36556">
        <ele>137.6</ele>
        <time>2022-05-17T06:53:22Z</time>
      </trkpt>
      <trkpt lat="43.64281" lon="3.36555">
        <ele>137</ele>
        <time>2022-05-17T06:53:47Z</time>
      </trkpt>
      <trkpt lat="43.64282" lon="3.36549">
        <ele>137</ele>
        <time>2022-05-17T06:53:50Z</time>
      </trkpt>
      <trkpt lat="43.6428" lon="3.36533">
        <ele>137</ele>
        <time>2022-05-17T06:53:54Z</time>
      </trkpt>
      <trkpt lat="43.6428" lon="3.36528">
        <ele>137</ele>
        <time>2022-05-17T06:53:55Z</time>
      </trkpt>
      <trkpt lat="43.64281" lon="3.36513">
        <ele>137</ele>
        <time>2022-05-17T06:53:58Z</time>
      </trkpt>
      <trkpt lat="43.64285" lon="3.36485">
        <ele>136.8</ele>
        <time>2022-05-17T06:54:05Z</time>
      </trkpt>
      <trkpt lat="43.64292" lon="3.36446">
        <ele>137</ele>
        <time>2022-05-17T06:54:14Z</time>
      </trkpt>
      <trkpt lat="43.64297" lon="3.36429">
        <ele>137</ele>
        <time>2022-05-17T06:54:19Z</time>
      </trkpt>
      <trkpt lat="43.64301" lon="3.36406">
        <ele>137.4</ele>
        <time>2022-05-17T06:54:26Z</time>
      </trkpt>
      <trkpt lat="43.6431" lon="3.36378">
        <ele>138.8</ele>
        <time>2022-05-17T06:54:35Z</time>
      </trkpt>
      <trkpt lat="43.64307" lon="3.36362">
        <ele>139.6</ele>
        <time>2022-05-17T06:54:42Z</time>
      </trkpt>
      <trkpt lat="43.64306" lon="3.36361">
        <ele>139.8</ele>
        <time>2022-05-17T06:54:43Z</time>
      </trkpt>
      <trkpt lat="43.64305" lon="3.36359">
        <ele>140</ele>
        <time>2022-05-17T06:54:44Z</time>
      </trkpt>
      <trkpt lat="43.64303" lon="3.36351">
        <ele>140.4</ele>
        <time>2022-05-17T06:54:47Z</time>
      </trkpt>
      <trkpt lat="43.64303" lon="3.36344">
        <ele>141</ele>
        <time>2022-05-17T06:54:50Z</time>
      </trkpt>
      <trkpt lat="43.64303" lon="3.36339">
        <ele>141.4</ele>
        <time>2022-05-17T06:54:52Z</time>
      </trkpt>
      <trkpt lat="43.64301" lon="3.36335">
        <ele>142</ele>
        <time>2022-05-17T06:54:54Z</time>
      </trkpt>
      <trkpt lat="43.64301" lon="3.36334">
        <ele>142.2</ele>
        <time>2022-05-17T06:54:55Z</time>
      </trkpt>
      <trkpt lat="43.643" lon="3.36333">
        <ele>142.4</ele>
        <time>2022-05-17T06:54:56Z</time>
      </trkpt>
      <trkpt lat="43.643" lon="3.36332">
        <ele>142.6</ele>
        <time>2022-05-17T06:54:57Z</time>
      </trkpt>
      <trkpt lat="43.64298" lon="3.36326">
        <ele>143.8</ele>
        <time>2022-05-17T06:55:00Z</time>
      </trkpt>
      <trkpt lat="43.64296" lon="3.36318">
        <ele>144.8</ele>
        <time>2022-05-17T06:55:04Z</time>
      </trkpt>
      <trkpt lat="43.64294" lon="3.3631">
        <ele>145.8</ele>
        <time>2022-05-17T06:55:08Z</time>
      </trkpt>
      <trkpt lat="43.64294" lon="3.36304">
        <ele>146.2</ele>
        <time>2022-05-17T06:55:11Z</time>
      </trkpt>
      <trkpt lat="43.64295" lon="3.3629">
        <ele>146.4</ele>
        <time>2022-05-17T06:55:16Z</time>
      </trkpt>
      <trkpt lat="43.64295" lon="3.36281">
        <ele>146.8</ele>
        <time>2022-05-17T06:55:20Z</time>
      </trkpt>
      <trkpt lat="43.64295" lon="3.3627">
        <ele>147.8</ele>
        <time>2022-05-17T06:55:25Z</time>
      </trkpt>
      <trkpt lat="43.64295" lon="3.36267">
        <ele>148</ele>
        <time>2022-05-17T06:55:26Z</time>
      </trkpt>
      <trkpt lat="43.64294" lon="3.36252">
        <ele>149.2</ele>
        <time>2022-05-17T06:55:34Z</time>
      </trkpt>
      <trkpt lat="43.64296" lon="3.3624">
        <ele>150.2</ele>
        <time>2022-05-17T06:55:40Z</time>
      </trkpt>
      <trkpt lat="43.64297" lon="3.36232">
        <ele>150.6</ele>
        <time>2022-05-17T06:55:44Z</time>
      </trkpt>
      <trkpt lat="43.64297" lon="3.36219">
        <ele>151.2</ele>
        <time>2022-05-17T06:55:50Z</time>
      </trkpt>
      <trkpt lat="43.64296" lon="3.36214">
        <ele>151.4</ele>
        <time>2022-05-17T06:55:52Z</time>
      </trkpt>
      <trkpt lat="43.64295" lon="3.362">
        <ele>151.8</ele>
        <time>2022-05-17T06:55:58Z</time>
      </trkpt>
      <trkpt lat="43.64296" lon="3.36198">
        <ele>151.8</ele>
        <time>2022-05-17T06:55:59Z</time>
      </trkpt>
      <trkpt lat="43.64303" lon="3.36188">
        <ele>152</ele>
        <time>2022-05-17T06:56:05Z</time>
      </trkpt>
      <trkpt lat="43.64312" lon="3.36177">
        <ele>151.8</ele>
        <time>2022-05-17T06:56:11Z</time>
      </trkpt>
      <trkpt lat="43.64315" lon="3.36174">
        <ele>152</ele>
        <time>2022-05-17T06:56:13Z</time>
      </trkpt>
      <trkpt lat="43.64317" lon="3.36169">
        <ele>152</ele>
        <time>2022-05-17T06:56:16Z</time>
      </trkpt>
      <trkpt lat="43.64323" lon="3.36165">
        <ele>152.2</ele>
        <time>2022-05-17T06:56:21Z</time>
      </trkpt>
      <trkpt lat="43.64324" lon="3.36164">
        <ele>152.4</ele>
        <time>2022-05-17T06:56:22Z</time>
      </trkpt>
      <trkpt lat="43.64332" lon="3.36164">
        <ele>152.6</ele>
        <time>2022-05-17T06:56:28Z</time>
      </trkpt>
      <trkpt lat="43.64334" lon="3.36163">
        <ele>152.6</ele>
        <time>2022-05-17T06:56:30Z</time>
      </trkpt>
      <trkpt lat="43.64334" lon="3.36163">
        <ele>152.6</ele>
        <time>2022-05-17T06:56:35Z</time>
      </trkpt>
      <trkpt lat="43.64334" lon="3.36163">
        <ele>152.6</ele>
        <time>2022-05-17T06:57:13Z</time>
      </trkpt>
      <trkpt lat="43.64339" lon="3.36161">
        <ele>152.6</ele>
        <time>2022-05-17T06:57:16Z</time>
      </trkpt>
      <trkpt lat="43.64349" lon="3.36156">
        <ele>152.6</ele>
        <time>2022-05-17T06:57:21Z</time>
      </trkpt>
      <trkpt lat="43.64359" lon="3.36144">
        <ele>152.6</ele>
        <time>2022-05-17T06:57:26Z</time>
      </trkpt>
      <trkpt lat="43.64375" lon="3.36128">
        <ele>152.6</ele>
        <time>2022-05-17T06:57:33Z</time>
      </trkpt>
      <trkpt lat="43.64391" lon="3.36114">
        <ele>152</ele>
        <time>2022-05-17T06:57:39Z</time>
      </trkpt>
      <trkpt lat="43.64415" lon="3.36093">
        <ele>151.2</ele>
        <time>2022-05-17T06:57:47Z</time>
      </trkpt>
      <trkpt lat="43.64446" lon="3.36072">
        <ele>150.2</ele>
        <time>2022-05-17T06:57:54Z</time>
      </trkpt>
      <trkpt lat="43.6446" lon="3.3606">
        <ele>149.6</ele>
        <time>2022-05-17T06:57:59Z</time>
      </trkpt>
      <trkpt lat="43.64478" lon="3.36046">
        <ele>149.2</ele>
        <time>2022-05-17T06:58:05Z</time>
      </trkpt>
      <trkpt lat="43.64503" lon="3.3603">
        <ele>148.4</ele>
        <time>2022-05-17T06:58:10Z</time>
      </trkpt>
      <trkpt lat="43.64508" lon="3.36027">
        <ele>148</ele>
        <time>2022-05-17T06:58:11Z</time>
      </trkpt>
      <trkpt lat="43.64527" lon="3.36018">
        <ele>147</ele>
        <time>2022-05-17T06:58:15Z</time>
      </trkpt>
      <trkpt lat="43.64537" lon="3.36016">
        <ele>146.6</ele>
        <time>2022-05-17T06:58:17Z</time>
      </trkpt>
      <trkpt lat="43.64556" lon="3.36016">
        <ele>146</ele>
        <time>2022-05-17T06:58:21Z</time>
      </trkpt>
      <trkpt lat="43.64564" lon="3.36014">
        <ele>145.6</ele>
        <time>2022-05-17T06:58:23Z</time>
      </trkpt>
      <trkpt lat="43.64579" lon="3.36003">
        <ele>145</ele>
        <time>2022-05-17T06:58:27Z</time>
      </trkpt>
      <trkpt lat="43.64582" lon="3.35998">
        <ele>144.8</ele>
        <time>2022-05-17T06:58:28Z</time>
      </trkpt>
      <trkpt lat="43.64592" lon="3.35979">
        <ele>144.4</ele>
        <time>2022-05-17T06:58:31Z</time>
      </trkpt>
      <trkpt lat="43.646" lon="3.3597">
        <ele>143.8</ele>
        <time>2022-05-17T06:58:33Z</time>
      </trkpt>
      <trkpt lat="43.64611" lon="3.35969">
        <ele>143.6</ele>
        <time>2022-05-17T06:58:35Z</time>
      </trkpt>
      <trkpt lat="43.64616" lon="3.35971">
        <ele>143.4</ele>
        <time>2022-05-17T06:58:36Z</time>
      </trkpt>
      <trkpt lat="43.6463" lon="3.35976">
        <ele>142.6</ele>
        <time>2022-05-17T06:58:39Z</time>
      </trkpt>
      <trkpt lat="43.64638" lon="3.35977">
        <ele>142.4</ele>
        <time>2022-05-17T06:58:41Z</time>
      </trkpt>
      <trkpt lat="43.64658" lon="3.35973">
        <ele>142.2</ele>
        <time>2022-05-17T06:58:47Z</time>
      </trkpt>
      <trkpt lat="43.64692" lon="3.35966">
        <ele>142.4</ele>
        <time>2022-05-17T06:58:57Z</time>
      </trkpt>
      <trkpt lat="43.64709" lon="3.35948">
        <ele>143</ele>
        <time>2022-05-17T06:59:04Z</time>
      </trkpt>
      <trkpt lat="43.64718" lon="3.3593">
        <ele>144</ele>
        <time>2022-05-17T06:59:10Z</time>
      </trkpt>
      <trkpt lat="43.64719" lon="3.35926">
        <ele>144.2</ele>
        <time>2022-05-17T06:59:11Z</time>
      </trkpt>
      <trkpt lat="43.64731" lon="3.35901">
        <ele>144.6</ele>
        <time>2022-05-17T06:59:20Z</time>
      </trkpt>
      <trkpt lat="43.64739" lon="3.35882">
        <ele>144.4</ele>
        <time>2022-05-17T06:59:26Z</time>
      </trkpt>
      <trkpt lat="43.64752" lon="3.35852">
        <ele>144.2</ele>
        <time>2022-05-17T06:59:34Z</time>
      </trkpt>
      <trkpt lat="43.64764" lon="3.35822">
        <ele>143.6</ele>
        <time>2022-05-17T06:59:42Z</time>
      </trkpt>
      <trkpt lat="43.64775" lon="3.35803">
        <ele>143</ele>
        <time>2022-05-17T06:59:47Z</time>
      </trkpt>
      <trkpt lat="43.64779" lon="3.35799">
        <ele>142.8</ele>
        <time>2022-05-17T06:59:48Z</time>
      </trkpt>
      <trkpt lat="43.64783" lon="3.35796">
        <ele>142.8</ele>
        <time>2022-05-17T06:59:49Z</time>
      </trkpt>
      <trkpt lat="43.64787" lon="3.35794">
        <ele>142.8</ele>
        <time>2022-05-17T06:59:50Z</time>
      </trkpt>
      <trkpt lat="43.64804" lon="3.35787">
        <ele>142</ele>
        <time>2022-05-17T06:59:53Z</time>
      </trkpt>
      <trkpt lat="43.6481" lon="3.35786">
        <ele>141.8</ele>
        <time>2022-05-17T06:59:54Z</time>
      </trkpt>
      <trkpt lat="43.64827" lon="3.35779">
        <ele>141</ele>
        <time>2022-05-17T06:59:57Z</time>
      </trkpt>
      <trkpt lat="43.64832" lon="3.35775">
        <ele>140.4</ele>
        <time>2022-05-17T06:59:58Z</time>
      </trkpt>
      <trkpt lat="43.64852" lon="3.3576">
        <ele>139.2</ele>
        <time>2022-05-17T07:00:02Z</time>
      </trkpt>
      <trkpt lat="43.64864" lon="3.35752">
        <ele>138.8</ele>
        <time>2022-05-17T07:00:05Z</time>
      </trkpt>
      <trkpt lat="43.64879" lon="3.35742">
        <ele>138</ele>
        <time>2022-05-17T07:00:10Z</time>
      </trkpt>
      <trkpt lat="43.64884" lon="3.35738">
        <ele>137.4</ele>
        <time>2022-05-17T07:00:12Z</time>
      </trkpt>
      <trkpt lat="43.64904" lon="3.35712">
        <ele>137</ele>
        <time>2022-05-17T07:00:20Z</time>
      </trkpt>
      <trkpt lat="43.64919" lon="3.35687">
        <ele>137</ele>
        <time>2022-05-17T07:00:28Z</time>
      </trkpt>
      <trkpt lat="43.64937" lon="3.35679">
        <ele>137</ele>
        <time>2022-05-17T07:00:34Z</time>
      </trkpt>
      <trkpt lat="43.64962" lon="3.3567">
        <ele>137</ele>
        <time>2022-05-17T07:00:43Z</time>
      </trkpt>
      <trkpt lat="43.64965" lon="3.35669">
        <ele>137</ele>
        <time>2022-05-17T07:00:45Z</time>
      </trkpt>
      <trkpt lat="43.64966" lon="3.35666">
        <ele>136.8</ele>
        <time>2022-05-17T07:00:47Z</time>
      </trkpt>
      <trkpt lat="43.64967" lon="3.35664">
        <ele>136.8</ele>
        <time>2022-05-17T07:00:48Z</time>
      </trkpt>
      <trkpt lat="43.6497" lon="3.35646">
        <ele>136.6</ele>
        <time>2022-05-17T07:00:54Z</time>
      </trkpt>
      <trkpt lat="43.64975" lon="3.35623">
        <ele>136.8</ele>
        <time>2022-05-17T07:01:01Z</time>
      </trkpt>
      <trkpt lat="43.6498" lon="3.35601">
        <ele>137</ele>
        <time>2022-05-17T07:01:08Z</time>
      </trkpt>
      <trkpt lat="43.64985" lon="3.3558">
        <ele>137</ele>
        <time>2022-05-17T07:01:15Z</time>
      </trkpt>
      <trkpt lat="43.64994" lon="3.35544">
        <ele>137.2</ele>
        <time>2022-05-17T07:01:26Z</time>
      </trkpt>
      <trkpt lat="43.64997" lon="3.35521">
        <ele>137</ele>
        <time>2022-05-17T07:01:32Z</time>
      </trkpt>
      <trkpt lat="43.64987" lon="3.35504">
        <ele>137</ele>
        <time>2022-05-17T07:01:38Z</time>
      </trkpt>
      <trkpt lat="43.64965" lon="3.35493">
        <ele>136.6</ele>
        <time>2022-05-17T07:01:46Z</time>
      </trkpt>
      <trkpt lat="43.64943" lon="3.35483">
        <ele>136.4</ele>
        <time>2022-05-17T07:01:54Z</time>
      </trkpt>
      <trkpt lat="43.64929" lon="3.3547">
        <ele>136.6</ele>
        <time>2022-05-17T07:02:00Z</time>
      </trkpt>
      <trkpt lat="43.6491" lon="3.35437">
        <ele>136.8</ele>
        <time>2022-05-17T07:02:09Z</time>
      </trkpt>
      <trkpt lat="43.6491" lon="3.35433">
        <ele>136.8</ele>
        <time>2022-05-17T07:02:10Z</time>
      </trkpt>
      <trkpt lat="43.64913" lon="3.35422">
        <ele>136.8</ele>
        <time>2022-05-17T07:02:12Z</time>
      </trkpt>
      <trkpt lat="43.64926" lon="3.35408">
        <ele>136.8</ele>
        <time>2022-05-17T07:02:16Z</time>
      </trkpt>
      <trkpt lat="43.64938" lon="3.35385">
        <ele>136.8</ele>
        <time>2022-05-17T07:02:21Z</time>
      </trkpt>
      <trkpt lat="43.64943" lon="3.35353">
        <ele>136.8</ele>
        <time>2022-05-17T07:02:27Z</time>
      </trkpt>
      <trkpt lat="43.64934" lon="3.35327">
        <ele>136.8</ele>
        <time>2022-05-17T07:02:33Z</time>
      </trkpt>
      <trkpt lat="43.64917" lon="3.35295">
        <ele>136.6</ele>
        <time>2022-05-17T07:02:41Z</time>
      </trkpt>
      <trkpt lat="43.64915" lon="3.35271">
        <ele>136.4</ele>
        <time>2022-05-17T07:02:46Z</time>
      </trkpt>
      <trkpt lat="43.64922" lon="3.35239">
        <ele>136.4</ele>
        <time>2022-05-17T07:02:53Z</time>
      </trkpt>
      <trkpt lat="43.64924" lon="3.35206">
        <ele>136.6</ele>
        <time>2022-05-17T07:03:00Z</time>
      </trkpt>
      <trkpt lat="43.64915" lon="3.35191">
        <ele>136.8</ele>
        <time>2022-05-17T07:03:04Z</time>
      </trkpt>
      <trkpt lat="43.64888" lon="3.35176">
        <ele>136.6</ele>
        <time>2022-05-17T07:03:11Z</time>
      </trkpt>
      <trkpt lat="43.64875" lon="3.35161">
        <ele>136.4</ele>
        <time>2022-05-17T07:03:16Z</time>
      </trkpt>
      <trkpt lat="43.64865" lon="3.35128">
        <ele>136.4</ele>
        <time>2022-05-17T07:03:23Z</time>
      </trkpt>
      <trkpt lat="43.64867" lon="3.35095">
        <ele>136.4</ele>
        <time>2022-05-17T07:03:29Z</time>
      </trkpt>
      <trkpt lat="43.64872" lon="3.35072">
        <ele>136.6</ele>
        <time>2022-05-17T07:03:34Z</time>
      </trkpt>
      <trkpt lat="43.64868" lon="3.35057">
        <ele>136.4</ele>
        <time>2022-05-17T07:03:38Z</time>
      </trkpt>
      <trkpt lat="43.64854" lon="3.35045">
        <ele>136.8</ele>
        <time>2022-05-17T07:03:43Z</time>
      </trkpt>
      <trkpt lat="43.64827" lon="3.35043">
        <ele>137</ele>
        <time>2022-05-17T07:03:51Z</time>
      </trkpt>
      <trkpt lat="43.64799" lon="3.35044">
        <ele>137.2</ele>
        <time>2022-05-17T07:03:59Z</time>
      </trkpt>
      <trkpt lat="43.64778" lon="3.35037">
        <ele>137.4</ele>
        <time>2022-05-17T07:04:05Z</time>
      </trkpt>
      <trkpt lat="43.64752" lon="3.35023">
        <ele>137.8</ele>
        <time>2022-05-17T07:04:13Z</time>
      </trkpt>
      <trkpt lat="43.64748" lon="3.35022">
        <ele>137.8</ele>
        <time>2022-05-17T07:04:14Z</time>
      </trkpt>
      <trkpt lat="43.64722" lon="3.35011">
        <ele>138</ele>
        <time>2022-05-17T07:04:22Z</time>
      </trkpt>
      <trkpt lat="43.64703" lon="3.3499">
        <ele>138.8</ele>
        <time>2022-05-17T07:04:30Z</time>
      </trkpt>
      <trkpt lat="43.647" lon="3.34985">
        <ele>139</ele>
        <time>2022-05-17T07:04:32Z</time>
      </trkpt>
      <trkpt lat="43.647" lon="3.34977">
        <ele>139</ele>
        <time>2022-05-17T07:04:34Z</time>
      </trkpt>
      <trkpt lat="43.64705" lon="3.34955">
        <ele>139</ele>
        <time>2022-05-17T07:04:39Z</time>
      </trkpt>
      <trkpt lat="43.64713" lon="3.34931">
        <ele>139</ele>
        <time>2022-05-17T07:04:45Z</time>
      </trkpt>
      <trkpt lat="43.64718" lon="3.34906">
        <ele>139.4</ele>
        <time>2022-05-17T07:04:51Z</time>
      </trkpt>
      <trkpt lat="43.64719" lon="3.34902">
        <ele>139.2</ele>
        <time>2022-05-17T07:04:52Z</time>
      </trkpt>
      <trkpt lat="43.64725" lon="3.34866">
        <ele>139.2</ele>
        <time>2022-05-17T07:05:01Z</time>
      </trkpt>
      <trkpt lat="43.64728" lon="3.34829">
        <ele>139.6</ele>
        <time>2022-05-17T07:05:10Z</time>
      </trkpt>
      <trkpt lat="43.6473" lon="3.34795">
        <ele>139.8</ele>
        <time>2022-05-17T07:05:17Z</time>
      </trkpt>
      <trkpt lat="43.64735" lon="3.3476">
        <ele>139.6</ele>
        <time>2022-05-17T07:05:25Z</time>
      </trkpt>
      <trkpt lat="43.64734" lon="3.3474">
        <ele>139.6</ele>
        <time>2022-05-17T07:05:30Z</time>
      </trkpt>
      <trkpt lat="43.64732" lon="3.34718">
        <ele>140</ele>
        <time>2022-05-17T07:05:35Z</time>
      </trkpt>
      <trkpt lat="43.64728" lon="3.34697">
        <ele>140.8</ele>
        <time>2022-05-17T07:05:40Z</time>
      </trkpt>
      <trkpt lat="43.64727" lon="3.3468">
        <ele>141</ele>
        <time>2022-05-17T07:05:44Z</time>
      </trkpt>
      <trkpt lat="43.64727" lon="3.34665">
        <ele>141.4</ele>
        <time>2022-05-17T07:05:48Z</time>
      </trkpt>
      <trkpt lat="43.64724" lon="3.34645">
        <ele>142</ele>
        <time>2022-05-17T07:05:54Z</time>
      </trkpt>
      <trkpt lat="43.64724" lon="3.34642">
        <ele>142.2</ele>
        <time>2022-05-17T07:05:55Z</time>
      </trkpt>
      <trkpt lat="43.64724" lon="3.34631">
        <ele>142.6</ele>
        <time>2022-05-17T07:05:59Z</time>
      </trkpt>
      <trkpt lat="43.64729" lon="3.34606">
        <ele>142.6</ele>
        <time>2022-05-17T07:06:04Z</time>
      </trkpt>
      <trkpt lat="43.64729" lon="3.3459">
        <ele>142.6</ele>
        <time>2022-05-17T07:06:08Z</time>
      </trkpt>
      <trkpt lat="43.64728" lon="3.34581">
        <ele>142.6</ele>
        <time>2022-05-17T07:06:11Z</time>
      </trkpt>
      <trkpt lat="43.64729" lon="3.34572">
        <ele>143</ele>
        <time>2022-05-17T07:06:15Z</time>
      </trkpt>
      <trkpt lat="43.64731" lon="3.34565">
        <ele>144</ele>
        <time>2022-05-17T07:06:19Z</time>
      </trkpt>
      <trkpt lat="43.64733" lon="3.34564">
        <ele>144.2</ele>
        <time>2022-05-17T07:06:20Z</time>
      </trkpt>
      <trkpt lat="43.64735" lon="3.3456">
        <ele>144.4</ele>
        <time>2022-05-17T07:06:22Z</time>
      </trkpt>
      <trkpt lat="43.64735" lon="3.34552">
        <ele>145</ele>
        <time>2022-05-17T07:06:25Z</time>
      </trkpt>
      <trkpt lat="43.64735" lon="3.34546">
        <ele>145.2</ele>
        <time>2022-05-17T07:06:27Z</time>
      </trkpt>
      <trkpt lat="43.64734" lon="3.34531">
        <ele>145.6</ele>
        <time>2022-05-17T07:06:32Z</time>
      </trkpt>
      <trkpt lat="43.64734" lon="3.34509">
        <ele>146</ele>
        <time>2022-05-17T07:06:37Z</time>
      </trkpt>
      <trkpt lat="43.64736" lon="3.34482">
        <ele>146</ele>
        <time>2022-05-17T07:06:45Z</time>
      </trkpt>
      <trkpt lat="43.64736" lon="3.34474">
        <ele>146.2</ele>
        <time>2022-05-17T07:06:48Z</time>
      </trkpt>
      <trkpt lat="43.64737" lon="3.34459">
        <ele>146.6</ele>
        <time>2022-05-17T07:06:52Z</time>
      </trkpt>
      <trkpt lat="43.64737" lon="3.3443">
        <ele>147</ele>
        <time>2022-05-17T07:07:01Z</time>
      </trkpt>
      <trkpt lat="43.64738" lon="3.34421">
        <ele>147.2</ele>
        <time>2022-05-17T07:07:04Z</time>
      </trkpt>
      <trkpt lat="43.64738" lon="3.34417">
        <ele>147.4</ele>
        <time>2022-05-17T07:07:05Z</time>
      </trkpt>
      <trkpt lat="43.64739" lon="3.34412">
        <ele>147.4</ele>
        <time>2022-05-17T07:07:06Z</time>
      </trkpt>
      <trkpt lat="43.6474" lon="3.34395">
        <ele>147.6</ele>
        <time>2022-05-17T07:07:10Z</time>
      </trkpt>
      <trkpt lat="43.6474" lon="3.34374">
        <ele>148.2</ele>
        <time>2022-05-17T07:07:17Z</time>
      </trkpt>
      <trkpt lat="43.6474" lon="3.34371">
        <ele>148.4</ele>
        <time>2022-05-17T07:07:18Z</time>
      </trkpt>
      <trkpt lat="43.64744" lon="3.34352">
        <ele>149</ele>
        <time>2022-05-17T07:07:25Z</time>
      </trkpt>
      <trkpt lat="43.64746" lon="3.34343">
        <ele>149.4</ele>
        <time>2022-05-17T07:07:29Z</time>
      </trkpt>
      <trkpt lat="43.64748" lon="3.34339">
        <ele>149.6</ele>
        <time>2022-05-17T07:07:31Z</time>
      </trkpt>
      <trkpt lat="43.64752" lon="3.34324">
        <ele>150.6</ele>
        <time>2022-05-17T07:07:37Z</time>
      </trkpt>
      <trkpt lat="43.64754" lon="3.3432">
        <ele>150.6</ele>
        <time>2022-05-17T07:07:39Z</time>
      </trkpt>
      <trkpt lat="43.64753" lon="3.34306">
        <ele>151.2</ele>
        <time>2022-05-17T07:07:44Z</time>
      </trkpt>
      <trkpt lat="43.6475" lon="3.34298">
        <ele>151.4</ele>
        <time>2022-05-17T07:07:46Z</time>
      </trkpt>
      <trkpt lat="43.64748" lon="3.34288">
        <ele>151.6</ele>
        <time>2022-05-17T07:07:49Z</time>
      </trkpt>
      <trkpt lat="43.64744" lon="3.34266">
        <ele>152</ele>
        <time>2022-05-17T07:07:56Z</time>
      </trkpt>
      <trkpt lat="43.64743" lon="3.34256">
        <ele>152.6</ele>
        <time>2022-05-17T07:08:00Z</time>
      </trkpt>
      <trkpt lat="43.64743" lon="3.34254">
        <ele>152.6</ele>
        <time>2022-05-17T07:08:01Z</time>
      </trkpt>
      <trkpt lat="43.64745" lon="3.3424">
        <ele>153.8</ele>
        <time>2022-05-17T07:08:07Z</time>
      </trkpt>
      <trkpt lat="43.64746" lon="3.34236">
        <ele>154.2</ele>
        <time>2022-05-17T07:08:09Z</time>
      </trkpt>
      <trkpt lat="43.64747" lon="3.34229">
        <ele>154.8</ele>
        <time>2022-05-17T07:08:12Z</time>
      </trkpt>
      <trkpt lat="43.64747" lon="3.34217">
        <ele>156</ele>
        <time>2022-05-17T07:08:18Z</time>
      </trkpt>
      <trkpt lat="43.64747" lon="3.34209">
        <ele>157</ele>
        <time>2022-05-17T07:08:22Z</time>
      </trkpt>
      <trkpt lat="43.64747" lon="3.34203">
        <ele>157.8</ele>
        <time>2022-05-17T07:08:25Z</time>
      </trkpt>
      <trkpt lat="43.64748" lon="3.34198">
        <ele>158.2</ele>
        <time>2022-05-17T07:08:28Z</time>
      </trkpt>
      <trkpt lat="43.64749" lon="3.34194">
        <ele>159</ele>
        <time>2022-05-17T07:08:32Z</time>
      </trkpt>
      <trkpt lat="43.64749" lon="3.34194">
        <ele>159.4</ele>
        <time>2022-05-17T07:08:35Z</time>
      </trkpt>
      <trkpt lat="43.64749" lon="3.34194">
        <ele>159.4</ele>
        <time>2022-05-17T07:09:41Z</time>
      </trkpt>
      <trkpt lat="43.64749" lon="3.34194">
        <ele>159.2</ele>
        <time>2022-05-17T07:10:17Z</time>
      </trkpt>
      <trkpt lat="43.64749" lon="3.34194">
        <ele>159.4</ele>
        <time>2022-05-17T07:10:48Z</time>
      </trkpt>
      <trkpt lat="43.64749" lon="3.34194">
        <ele>159.4</ele>
        <time>2022-05-17T07:11:20Z</time>
      </trkpt>
      <trkpt lat="43.64749" lon="3.34193">
        <ele>159.2</ele>
        <time>2022-05-17T07:11:51Z</time>
      </trkpt>
      <trkpt lat="43.64749" lon="3.34185">
        <ele>159.2</ele>
        <time>2022-05-17T07:11:54Z</time>
      </trkpt>
      <trkpt lat="43.64753" lon="3.34171">
        <ele>159.2</ele>
        <time>2022-05-17T07:11:58Z</time>
      </trkpt>
      <trkpt lat="43.64756" lon="3.34159">
        <ele>159.2</ele>
        <time>2022-05-17T07:12:01Z</time>
      </trkpt>
      <trkpt lat="43.64765" lon="3.3413">
        <ele>159.2</ele>
        <time>2022-05-17T07:12:10Z</time>
      </trkpt>
      <trkpt lat="43.6477" lon="3.34107">
        <ele>159.6</ele>
        <time>2022-05-17T07:12:18Z</time>
      </trkpt>
      <trkpt lat="43.64777" lon="3.34081">
        <ele>160.4</ele>
        <time>2022-05-17T07:12:27Z</time>
      </trkpt>
      <trkpt lat="43.64778" lon="3.34079">
        <ele>160.6</ele>
        <time>2022-05-17T07:12:28Z</time>
      </trkpt>
      <trkpt lat="43.6478" lon="3.34072">
        <ele>160.8</ele>
        <time>2022-05-17T07:12:32Z</time>
      </trkpt>
      <trkpt lat="43.6478" lon="3.3407">
        <ele>161</ele>
        <time>2022-05-17T07:12:33Z</time>
      </trkpt>
      <trkpt lat="43.64784" lon="3.34059">
        <ele>161</ele>
        <time>2022-05-17T07:12:39Z</time>
      </trkpt>
      <trkpt lat="43.64791" lon="3.34038">
        <ele>160.8</ele>
        <time>2022-05-17T07:12:46Z</time>
      </trkpt>
      <trkpt lat="43.64799" lon="3.34008">
        <ele>160.4</ele>
        <time>2022-05-17T07:12:52Z</time>
      </trkpt>
      <trkpt lat="43.64808" lon="3.33972">
        <ele>159.8</ele>
        <time>2022-05-17T07:12:59Z</time>
      </trkpt>
      <trkpt lat="43.6481" lon="3.33963">
        <ele>159.4</ele>
        <time>2022-05-17T07:13:01Z</time>
      </trkpt>
      <trkpt lat="43.64811" lon="3.33952">
        <ele>159.2</ele>
        <time>2022-05-17T07:13:04Z</time>
      </trkpt>
      <trkpt lat="43.64814" lon="3.33946">
        <ele>158.2</ele>
        <time>2022-05-17T07:13:07Z</time>
      </trkpt>
      <trkpt lat="43.64815" lon="3.33944">
        <ele>157.2</ele>
        <time>2022-05-17T07:13:09Z</time>
      </trkpt>
      <trkpt lat="43.64817" lon="3.33941">
        <ele>156.8</ele>
        <time>2022-05-17T07:13:11Z</time>
      </trkpt>
      <trkpt lat="43.64817" lon="3.33939">
        <ele>156.6</ele>
        <time>2022-05-17T07:13:12Z</time>
      </trkpt>
      <trkpt lat="43.64818" lon="3.33936">
        <ele>156.2</ele>
        <time>2022-05-17T07:13:14Z</time>
      </trkpt>
      <trkpt lat="43.64819" lon="3.33932">
        <ele>155.6</ele>
        <time>2022-05-17T07:13:16Z</time>
      </trkpt>
      <trkpt lat="43.64821" lon="3.33926">
        <ele>154.4</ele>
        <time>2022-05-17T07:13:19Z</time>
      </trkpt>
      <trkpt lat="43.64821" lon="3.33918">
        <ele>153.4</ele>
        <time>2022-05-17T07:13:21Z</time>
      </trkpt>
      <trkpt lat="43.64822" lon="3.33914">
        <ele>152.8</ele>
        <time>2022-05-17T07:13:22Z</time>
      </trkpt>
      <trkpt lat="43.64828" lon="3.33903">
        <ele>152</ele>
        <time>2022-05-17T07:13:26Z</time>
      </trkpt>
      <trkpt lat="43.64831" lon="3.33897">
        <ele>152</ele>
        <time>2022-05-17T07:13:29Z</time>
      </trkpt>
      <trkpt lat="43.64832" lon="3.33893">
        <ele>152.4</ele>
        <time>2022-05-17T07:13:31Z</time>
      </trkpt>
      <trkpt lat="43.64833" lon="3.33885">
        <ele>154</ele>
        <time>2022-05-17T07:13:36Z</time>
      </trkpt>
      <trkpt lat="43.64833" lon="3.3388">
        <ele>154.6</ele>
        <time>2022-05-17T07:13:39Z</time>
      </trkpt>
      <trkpt lat="43.64836" lon="3.33875">
        <ele>155</ele>
        <time>2022-05-17T07:13:44Z</time>
      </trkpt>
      <trkpt lat="43.64836" lon="3.33875">
        <ele>154.8</ele>
        <time>2022-05-17T07:13:47Z</time>
      </trkpt>
      <trkpt lat="43.64838" lon="3.33868">
        <ele>154.8</ele>
        <time>2022-05-17T07:14:09Z</time>
      </trkpt>
      <trkpt lat="43.64841" lon="3.33857">
        <ele>154.8</ele>
        <time>2022-05-17T07:14:16Z</time>
      </trkpt>
      <trkpt lat="43.64841" lon="3.33857">
        <ele>154.8</ele>
        <time>2022-05-17T07:14:23Z</time>
      </trkpt>
      <trkpt lat="43.64841" lon="3.33857">
        <ele>154.6</ele>
        <time>2022-05-17T07:14:36Z</time>
      </trkpt>
      <trkpt lat="43.64841" lon="3.33857">
        <ele>154.4</ele>
        <time>2022-05-17T07:14:47Z</time>
      </trkpt>
      <trkpt lat="43.64841" lon="3.33856">
        <ele>154.8</ele>
        <time>2022-05-17T07:15:34Z</time>
      </trkpt>
      <trkpt lat="43.64842" lon="3.33848">
        <ele>154.8</ele>
        <time>2022-05-17T07:15:37Z</time>
      </trkpt>
      <trkpt lat="43.64848" lon="3.33823">
        <ele>154.4</ele>
        <time>2022-05-17T07:15:44Z</time>
      </trkpt>
      <trkpt lat="43.64853" lon="3.33796">
        <ele>154.4</ele>
        <time>2022-05-17T07:15:49Z</time>
      </trkpt>
      <trkpt lat="43.64855" lon="3.33781">
        <ele>153.8</ele>
        <time>2022-05-17T07:15:52Z</time>
      </trkpt>
      <trkpt lat="43.64856" lon="3.33771">
        <ele>153.4</ele>
        <time>2022-05-17T07:15:54Z</time>
      </trkpt>
      <trkpt lat="43.64857" lon="3.33761">
        <ele>153.2</ele>
        <time>2022-05-17T07:15:56Z</time>
      </trkpt>
      <trkpt lat="43.64856" lon="3.33748">
        <ele>152.8</ele>
        <time>2022-05-17T07:15:58Z</time>
      </trkpt>
      <trkpt lat="43.64856" lon="3.3374">
        <ele>152.6</ele>
        <time>2022-05-17T07:15:59Z</time>
      </trkpt>
      <trkpt lat="43.64854" lon="3.33711">
        <ele>151.4</ele>
        <time>2022-05-17T07:16:03Z</time>
      </trkpt>
      <trkpt lat="43.64854" lon="3.33701">
        <ele>151.2</ele>
        <time>2022-05-17T07:16:04Z</time>
      </trkpt>
      <trkpt lat="43.64854" lon="3.33686">
        <ele>150.2</ele>
        <time>2022-05-17T07:16:06Z</time>
      </trkpt>
      <trkpt lat="43.64857" lon="3.33677">
        <ele>149.4</ele>
        <time>2022-05-17T07:16:08Z</time>
      </trkpt>
      <trkpt lat="43.64859" lon="3.33673">
        <ele>149</ele>
        <time>2022-05-17T07:16:09Z</time>
      </trkpt>
      <trkpt lat="43.64861" lon="3.33669">
        <ele>148.8</ele>
        <time>2022-05-17T07:16:10Z</time>
      </trkpt>
      <trkpt lat="43.64861" lon="3.33659">
        <ele>147.6</ele>
        <time>2022-05-17T07:16:12Z</time>
      </trkpt>
      <trkpt lat="43.64858" lon="3.33649">
        <ele>146.4</ele>
        <time>2022-05-17T07:16:14Z</time>
      </trkpt>
      <trkpt lat="43.64855" lon="3.33639">
        <ele>145.4</ele>
        <time>2022-05-17T07:16:16Z</time>
      </trkpt>
      <trkpt lat="43.64853" lon="3.33628">
        <ele>144.8</ele>
        <time>2022-05-17T07:16:18Z</time>
      </trkpt>
      <trkpt lat="43.64849" lon="3.33616">
        <ele>144.6</ele>
        <time>2022-05-17T07:16:22Z</time>
      </trkpt>
      <trkpt lat="43.64849" lon="3.33616">
        <ele>144.4</ele>
        <time>2022-05-17T07:16:29Z</time>
      </trkpt>
      <trkpt lat="43.64851" lon="3.3361">
        <ele>144.4</ele>
        <time>2022-05-17T07:16:39Z</time>
      </trkpt>
      <trkpt lat="43.64851" lon="3.33604">
        <ele>144.4</ele>
        <time>2022-05-17T07:16:41Z</time>
      </trkpt>
      <trkpt lat="43.6485" lon="3.33594">
        <ele>144.2</ele>
        <time>2022-05-17T07:16:44Z</time>
      </trkpt>
      <trkpt lat="43.6485" lon="3.33591">
        <ele>144.2</ele>
        <time>2022-05-17T07:16:45Z</time>
      </trkpt>
      <trkpt lat="43.64853" lon="3.33578">
        <ele>144</ele>
        <time>2022-05-17T07:16:48Z</time>
      </trkpt>
      <trkpt lat="43.64853" lon="3.33562">
        <ele>143.6</ele>
        <time>2022-05-17T07:16:53Z</time>
      </trkpt>
      <trkpt lat="43.64852" lon="3.33556">
        <ele>143.2</ele>
        <time>2022-05-17T07:16:55Z</time>
      </trkpt>
      <trkpt lat="43.64852" lon="3.33547">
        <ele>142.8</ele>
        <time>2022-05-17T07:16:57Z</time>
      </trkpt>
      <trkpt lat="43.64852" lon="3.33544">
        <ele>142.4</ele>
        <time>2022-05-17T07:16:58Z</time>
      </trkpt>
      <trkpt lat="43.64852" lon="3.33541">
        <ele>142</ele>
        <time>2022-05-17T07:16:59Z</time>
      </trkpt>
      <trkpt lat="43.64853" lon="3.33532">
        <ele>141.8</ele>
        <time>2022-05-17T07:17:03Z</time>
      </trkpt>
      <trkpt lat="43.6485" lon="3.33519">
        <ele>142.8</ele>
        <time>2022-05-17T07:17:09Z</time>
      </trkpt>
      <trkpt lat="43.64849" lon="3.33504">
        <ele>143.2</ele>
        <time>2022-05-17T07:17:13Z</time>
      </trkpt>
      <trkpt lat="43.64849" lon="3.33499">
        <ele>143.4</ele>
        <time>2022-05-17T07:17:14Z</time>
      </trkpt>
      <trkpt lat="43.64844" lon="3.33468">
        <ele>142.6</ele>
        <time>2022-05-17T07:17:20Z</time>
      </trkpt>
      <trkpt lat="43.64843" lon="3.33463">
        <ele>142.2</ele>
        <time>2022-05-17T07:17:22Z</time>
      </trkpt>
      <trkpt lat="43.64843" lon="3.3346">
        <ele>142</ele>
        <time>2022-05-17T07:17:23Z</time>
      </trkpt>
      <trkpt lat="43.64843" lon="3.33452">
        <ele>141.8</ele>
        <time>2022-05-17T07:17:25Z</time>
      </trkpt>
      <trkpt lat="43.64844" lon="3.33441">
        <ele>141.4</ele>
        <time>2022-05-17T07:17:29Z</time>
      </trkpt>
      <trkpt lat="43.64844" lon="3.33423">
        <ele>141.2</ele>
        <time>2022-05-17T07:17:35Z</time>
      </trkpt>
      <trkpt lat="43.64843" lon="3.33393">
        <ele>141.8</ele>
        <time>2022-05-17T07:17:44Z</time>
      </trkpt>
      <trkpt lat="43.64839" lon="3.33351">
        <ele>141.8</ele>
        <time>2022-05-17T07:17:53Z</time>
      </trkpt>
      <trkpt lat="43.64837" lon="3.33316">
        <ele>141.2</ele>
        <time>2022-05-17T07:18:00Z</time>
      </trkpt>
      <trkpt lat="43.64836" lon="3.33307">
        <ele>141</ele>
        <time>2022-05-17T07:18:02Z</time>
      </trkpt>
      <trkpt lat="43.64836" lon="3.33296">
        <ele>140.6</ele>
        <time>2022-05-17T07:18:06Z</time>
      </trkpt>
      <trkpt lat="43.64838" lon="3.33277">
        <ele>140.2</ele>
        <time>2022-05-17T07:18:14Z</time>
      </trkpt>
      <trkpt lat="43.64836" lon="3.33264">
        <ele>140.2</ele>
        <time>2022-05-17T07:18:17Z</time>
      </trkpt>
      <trkpt lat="43.64833" lon="3.33254">
        <ele>140</ele>
        <time>2022-05-17T07:18:19Z</time>
      </trkpt>
      <trkpt lat="43.64831" lon="3.33247">
        <ele>139.8</ele>
        <time>2022-05-17T07:18:21Z</time>
      </trkpt>
      <trkpt lat="43.64831" lon="3.33244">
        <ele>139.8</ele>
        <time>2022-05-17T07:18:22Z</time>
      </trkpt>
      <trkpt lat="43.64831" lon="3.3322">
        <ele>139.6</ele>
        <time>2022-05-17T07:18:29Z</time>
      </trkpt>
      <trkpt lat="43.64828" lon="3.33182">
        <ele>139.6</ele>
        <time>2022-05-17T07:18:38Z</time>
      </trkpt>
      <trkpt lat="43.64819" lon="3.3315">
        <ele>139.2</ele>
        <time>2022-05-17T07:18:44Z</time>
      </trkpt>
      <trkpt lat="43.64817" lon="3.33138">
        <ele>139</ele>
        <time>2022-05-17T07:18:46Z</time>
      </trkpt>
      <trkpt lat="43.64814" lon="3.33129">
        <ele>139</ele>
        <time>2022-05-17T07:18:48Z</time>
      </trkpt>
      <trkpt lat="43.648" lon="3.33104">
        <ele>138.6</ele>
        <time>2022-05-17T07:18:54Z</time>
      </trkpt>
      <trkpt lat="43.64793" lon="3.33095">
        <ele>138.2</ele>
        <time>2022-05-17T07:18:57Z</time>
      </trkpt>
      <trkpt lat="43.64789" lon="3.33091">
        <ele>138</ele>
        <time>2022-05-17T07:18:59Z</time>
      </trkpt>
      <trkpt lat="43.64782" lon="3.33077">
        <ele>137.6</ele>
        <time>2022-05-17T07:19:04Z</time>
      </trkpt>
      <trkpt lat="43.64772" lon="3.33062">
        <ele>138</ele>
        <time>2022-05-17T07:19:10Z</time>
      </trkpt>
      <trkpt lat="43.64762" lon="3.33051">
        <ele>138.2</ele>
        <time>2022-05-17T07:19:15Z</time>
      </trkpt>
      <trkpt lat="43.6476" lon="3.33049">
        <ele>138.2</ele>
        <time>2022-05-17T07:19:16Z</time>
      </trkpt>
      <trkpt lat="43.64758" lon="3.33042">
        <ele>138.4</ele>
        <time>2022-05-17T07:19:18Z</time>
      </trkpt>
      <trkpt lat="43.64757" lon="3.33041">
        <ele>138.4</ele>
        <time>2022-05-17T07:19:19Z</time>
      </trkpt>
      <trkpt lat="43.6475" lon="3.33033">
        <ele>139.4</ele>
        <time>2022-05-17T07:19:23Z</time>
      </trkpt>
      <trkpt lat="43.64748" lon="3.33031">
        <ele>139.4</ele>
        <time>2022-05-17T07:19:24Z</time>
      </trkpt>
      <trkpt lat="43.64735" lon="3.33011">
        <ele>139.2</ele>
        <time>2022-05-17T07:19:29Z</time>
      </trkpt>
      <trkpt lat="43.64732" lon="3.33008">
        <ele>139</ele>
        <time>2022-05-17T07:19:30Z</time>
      </trkpt>
      <trkpt lat="43.64709" lon="3.3299">
        <ele>138.2</ele>
        <time>2022-05-17T07:19:36Z</time>
      </trkpt>
      <trkpt lat="43.64705" lon="3.32989">
        <ele>138</ele>
        <time>2022-05-17T07:19:37Z</time>
      </trkpt>
      <trkpt lat="43.64701" lon="3.32989">
        <ele>138</ele>
        <time>2022-05-17T07:19:38Z</time>
      </trkpt>
      <trkpt lat="43.64691" lon="3.3299">
        <ele>137.8</ele>
        <time>2022-05-17T07:19:40Z</time>
      </trkpt>
      <trkpt lat="43.64686" lon="3.32992">
        <ele>137.8</ele>
        <time>2022-05-17T07:19:41Z</time>
      </trkpt>
      <trkpt lat="43.64666" lon="3.33003">
        <ele>137.4</ele>
        <time>2022-05-17T07:19:46Z</time>
      </trkpt>
      <trkpt lat="43.6465" lon="3.3301">
        <ele>137.2</ele>
        <time>2022-05-17T07:19:51Z</time>
      </trkpt>
      <trkpt lat="43.64639" lon="3.3301">
        <ele>137.2</ele>
        <time>2022-05-17T07:19:55Z</time>
      </trkpt>
      <trkpt lat="43.64627" lon="3.33011">
        <ele>137.2</ele>
        <time>2022-05-17T07:19:59Z</time>
      </trkpt>
      <trkpt lat="43.6462" lon="3.33013">
        <ele>137</ele>
        <time>2022-05-17T07:20:02Z</time>
      </trkpt>
      <trkpt lat="43.64618" lon="3.33012">
        <ele>137</ele>
        <time>2022-05-17T07:20:03Z</time>
      </trkpt>
      <trkpt lat="43.64617" lon="3.3301">
        <ele>137</ele>
        <time>2022-05-17T07:20:04Z</time>
      </trkpt>
      <trkpt lat="43.64613" lon="3.33007">
        <ele>137.2</ele>
        <time>2022-05-17T07:20:06Z</time>
      </trkpt>
      <trkpt lat="43.64607" lon="3.33003">
        <ele>137.2</ele>
        <time>2022-05-17T07:20:09Z</time>
      </trkpt>
      <trkpt lat="43.64592" lon="3.32992">
        <ele>137.4</ele>
        <time>2022-05-17T07:20:15Z</time>
      </trkpt>
      <trkpt lat="43.64581" lon="3.32984">
        <ele>138</ele>
        <time>2022-05-17T07:20:21Z</time>
      </trkpt>
      <trkpt lat="43.64579" lon="3.32983">
        <ele>138.2</ele>
        <time>2022-05-17T07:20:22Z</time>
      </trkpt>
      <trkpt lat="43.64572" lon="3.32979">
        <ele>139</ele>
        <time>2022-05-17T07:20:27Z</time>
      </trkpt>
      <trkpt lat="43.64571" lon="3.32979">
        <ele>139.2</ele>
        <time>2022-05-17T07:20:30Z</time>
      </trkpt>
      <trkpt lat="43.64571" lon="3.32979">
        <ele>139.4</ele>
        <time>2022-05-17T07:20:34Z</time>
      </trkpt>
      <trkpt lat="43.64571" lon="3.32977">
        <ele>139.4</ele>
        <time>2022-05-17T07:21:16Z</time>
      </trkpt>
      <trkpt lat="43.64569" lon="3.32972">
        <ele>139.4</ele>
        <time>2022-05-17T07:21:18Z</time>
      </trkpt>
      <trkpt lat="43.64562" lon="3.32958">
        <ele>139.4</ele>
        <time>2022-05-17T07:21:22Z</time>
      </trkpt>
      <trkpt lat="43.64553" lon="3.32941">
        <ele>139.4</ele>
        <time>2022-05-17T07:21:27Z</time>
      </trkpt>
      <trkpt lat="43.64553" lon="3.32939">
        <ele>139.6</ele>
        <time>2022-05-17T07:21:28Z</time>
      </trkpt>
      <trkpt lat="43.64549" lon="3.32933">
        <ele>139.6</ele>
        <time>2022-05-17T07:21:30Z</time>
      </trkpt>
      <trkpt lat="43.64547" lon="3.32929">
        <ele>139.8</ele>
        <time>2022-05-17T07:21:31Z</time>
      </trkpt>
      <trkpt lat="43.64544" lon="3.32926">
        <ele>140.2</ele>
        <time>2022-05-17T07:21:33Z</time>
      </trkpt>
      <trkpt lat="43.64541" lon="3.32923">
        <ele>140.6</ele>
        <time>2022-05-17T07:21:35Z</time>
      </trkpt>
      <trkpt lat="43.64526" lon="3.32906">
        <ele>141</ele>
        <time>2022-05-17T07:21:41Z</time>
      </trkpt>
      <trkpt lat="43.64505" lon="3.32876">
        <ele>140</ele>
        <time>2022-05-17T07:21:48Z</time>
      </trkpt>
      <trkpt lat="43.64497" lon="3.32864">
        <ele>139.6</ele>
        <time>2022-05-17T07:21:50Z</time>
      </trkpt>
      <trkpt lat="43.6449" lon="3.32853">
        <ele>139.4</ele>
        <time>2022-05-17T07:21:52Z</time>
      </trkpt>
      <trkpt lat="43.64486" lon="3.32848">
        <ele>139</ele>
        <time>2022-05-17T07:21:53Z</time>
      </trkpt>
      <trkpt lat="43.64476" lon="3.32838">
        <ele>138.6</ele>
        <time>2022-05-17T07:21:56Z</time>
      </trkpt>
      <trkpt lat="43.64466" lon="3.32834">
        <ele>138.2</ele>
        <time>2022-05-17T07:22:00Z</time>
      </trkpt>
      <trkpt lat="43.64466" lon="3.32834">
        <ele>138</ele>
        <time>2022-05-17T07:22:03Z</time>
      </trkpt>
      <trkpt lat="43.64465" lon="3.32831">
        <ele>137.8</ele>
        <time>2022-05-17T07:22:12Z</time>
      </trkpt>
      <trkpt lat="43.64464" lon="3.32825">
        <ele>137.6</ele>
        <time>2022-05-17T07:22:14Z</time>
      </trkpt>
      <trkpt lat="43.64463" lon="3.32821">
        <ele>137.6</ele>
        <time>2022-05-17T07:22:16Z</time>
      </trkpt>
      <trkpt lat="43.64462" lon="3.32816">
        <ele>137.4</ele>
        <time>2022-05-17T07:22:18Z</time>
      </trkpt>
      <trkpt lat="43.64461" lon="3.32812">
        <ele>137.2</ele>
        <time>2022-05-17T07:22:20Z</time>
      </trkpt>
      <trkpt lat="43.6446" lon="3.3281">
        <ele>137</ele>
        <time>2022-05-17T07:22:21Z</time>
      </trkpt>
      <trkpt lat="43.64457" lon="3.32807">
        <ele>136.8</ele>
        <time>2022-05-17T07:22:23Z</time>
      </trkpt>
      <trkpt lat="43.64449" lon="3.32796">
        <ele>137.2</ele>
        <time>2022-05-17T07:22:30Z</time>
      </trkpt>
      <trkpt lat="43.64435" lon="3.32792">
        <ele>138</ele>
        <time>2022-05-17T07:22:37Z</time>
      </trkpt>
      <trkpt lat="43.64433" lon="3.32793">
        <ele>138.2</ele>
        <time>2022-05-17T07:22:38Z</time>
      </trkpt>
      <trkpt lat="43.64416" lon="3.32795">
        <ele>138.8</ele>
        <time>2022-05-17T07:22:46Z</time>
      </trkpt>
      <trkpt lat="43.64403" lon="3.32791">
        <ele>139.2</ele>
        <time>2022-05-17T07:22:51Z</time>
      </trkpt>
      <trkpt lat="43.64398" lon="3.32788">
        <ele>139.4</ele>
        <time>2022-05-17T07:22:53Z</time>
      </trkpt>
      <trkpt lat="43.64384" lon="3.32776">
        <ele>139.8</ele>
        <time>2022-05-17T07:22:59Z</time>
      </trkpt>
      <trkpt lat="43.64367" lon="3.32771">
        <ele>139.8</ele>
        <time>2022-05-17T07:23:05Z</time>
      </trkpt>
      <trkpt lat="43.64349" lon="3.32764">
        <ele>140</ele>
        <time>2022-05-17T07:23:12Z</time>
      </trkpt>
      <trkpt lat="43.64332" lon="3.32766">
        <ele>140.2</ele>
        <time>2022-05-17T07:23:18Z</time>
      </trkpt>
      <trkpt lat="43.64321" lon="3.32778">
        <ele>140</ele>
        <time>2022-05-17T07:23:22Z</time>
      </trkpt>
      <trkpt lat="43.64311" lon="3.32777">
        <ele>139.8</ele>
        <time>2022-05-17T07:23:26Z</time>
      </trkpt>
      <trkpt lat="43.64304" lon="3.32763">
        <ele>139.4</ele>
        <time>2022-05-17T07:23:30Z</time>
      </trkpt>
      <trkpt lat="43.643" lon="3.32757">
        <ele>139.2</ele>
        <time>2022-05-17T07:23:32Z</time>
      </trkpt>
      <trkpt lat="43.64298" lon="3.32756">
        <ele>139.2</ele>
        <time>2022-05-17T07:23:33Z</time>
      </trkpt>
      <trkpt lat="43.64295" lon="3.32756">
        <ele>139.2</ele>
        <time>2022-05-17T07:23:34Z</time>
      </trkpt>
      <trkpt lat="43.64287" lon="3.32757">
        <ele>139</ele>
        <time>2022-05-17T07:23:37Z</time>
      </trkpt>
      <trkpt lat="43.64281" lon="3.32751">
        <ele>138.2</ele>
        <time>2022-05-17T07:23:40Z</time>
      </trkpt>
      <trkpt lat="43.64278" lon="3.32746">
        <ele>137.6</ele>
        <time>2022-05-17T07:23:42Z</time>
      </trkpt>
      <trkpt lat="43.6427" lon="3.32743">
        <ele>137.2</ele>
        <time>2022-05-17T07:23:46Z</time>
      </trkpt>
      <trkpt lat="43.64266" lon="3.32742">
        <ele>137</ele>
        <time>2022-05-17T07:23:48Z</time>
      </trkpt>
      <trkpt lat="43.64252" lon="3.32737">
        <ele>137.4</ele>
        <time>2022-05-17T07:23:56Z</time>
      </trkpt>
      <trkpt lat="43.64243" lon="3.32734">
        <ele>138</ele>
        <time>2022-05-17T07:24:00Z</time>
      </trkpt>
      <trkpt lat="43.64235" lon="3.3273">
        <ele>138.6</ele>
        <time>2022-05-17T07:24:04Z</time>
      </trkpt>
      <trkpt lat="43.64233" lon="3.32728">
        <ele>138.8</ele>
        <time>2022-05-17T07:24:05Z</time>
      </trkpt>
      <trkpt lat="43.64227" lon="3.32724">
        <ele>138.8</ele>
        <time>2022-05-17T07:24:09Z</time>
      </trkpt>
      <trkpt lat="43.64225" lon="3.32723">
        <ele>138.8</ele>
        <time>2022-05-17T07:24:10Z</time>
      </trkpt>
      <trkpt lat="43.64221" lon="3.32723">
        <ele>138.8</ele>
        <time>2022-05-17T07:24:14Z</time>
      </trkpt>
      <trkpt lat="43.64219" lon="3.32723">
        <ele>138.8</ele>
        <time>2022-05-17T07:24:25Z</time>
      </trkpt>
      <trkpt lat="43.64219" lon="3.32723">
        <ele>139</ele>
        <time>2022-05-17T07:24:31Z</time>
      </trkpt>
      <trkpt lat="43.64219" lon="3.32723">
        <ele>139.2</ele>
        <time>2022-05-17T07:24:40Z</time>
      </trkpt>
      <trkpt lat="43.64214" lon="3.32722">
        <ele>139.2</ele>
        <time>2022-05-17T07:24:45Z</time>
      </trkpt>
      <trkpt lat="43.64206" lon="3.32709">
        <ele>139</ele>
        <time>2022-05-17T07:24:49Z</time>
      </trkpt>
      <trkpt lat="43.64195" lon="3.32697">
        <ele>138.4</ele>
        <time>2022-05-17T07:24:54Z</time>
      </trkpt>
      <trkpt lat="43.64191" lon="3.32692">
        <ele>138</ele>
        <time>2022-05-17T07:24:56Z</time>
      </trkpt>
      <trkpt lat="43.64187" lon="3.32692">
        <ele>137.6</ele>
        <time>2022-05-17T07:24:58Z</time>
      </trkpt>
      <trkpt lat="43.64181" lon="3.32692">
        <ele>137.4</ele>
        <time>2022-05-17T07:25:01Z</time>
      </trkpt>
      <trkpt lat="43.64179" lon="3.32691">
        <ele>137.4</ele>
        <time>2022-05-17T07:25:02Z</time>
      </trkpt>
      <trkpt lat="43.64178" lon="3.32689">
        <ele>137.4</ele>
        <time>2022-05-17T07:25:03Z</time>
      </trkpt>
      <trkpt lat="43.64175" lon="3.32686">
        <ele>137.4</ele>
        <time>2022-05-17T07:25:06Z</time>
      </trkpt>
      <trkpt lat="43.64174" lon="3.32685">
        <ele>137.4</ele>
        <time>2022-05-17T07:25:14Z</time>
      </trkpt>
      <trkpt lat="43.64174" lon="3.32685">
        <ele>137.2</ele>
        <time>2022-05-17T07:26:40Z</time>
      </trkpt>
      <trkpt lat="43.64174" lon="3.32685">
        <ele>137</ele>
        <time>2022-05-17T07:26:53Z</time>
      </trkpt>
      <trkpt lat="43.64175" lon="3.32686">
        <ele>136.8</ele>
        <time>2022-05-17T07:27:04Z</time>
      </trkpt>
      <trkpt lat="43.6418" lon="3.32689">
        <ele>136.8</ele>
        <time>2022-05-17T07:27:10Z</time>
      </trkpt>
      <trkpt lat="43.64181" lon="3.32689">
        <ele>136.8</ele>
        <time>2022-05-17T07:27:11Z</time>
      </trkpt>
      <trkpt lat="43.64184" lon="3.32688">
        <ele>136.8</ele>
        <time>2022-05-17T07:27:13Z</time>
      </trkpt>
      <trkpt lat="43.64186" lon="3.32688">
        <ele>136.8</ele>
        <time>2022-05-17T07:27:14Z</time>
      </trkpt>
      <trkpt lat="43.64192" lon="3.32695">
        <ele>136.6</ele>
        <time>2022-05-17T07:27:18Z</time>
      </trkpt>
      <trkpt lat="43.64198" lon="3.32703">
        <ele>136.8</ele>
        <time>2022-05-17T07:27:23Z</time>
      </trkpt>
      <trkpt lat="43.642" lon="3.32705">
        <ele>136.8</ele>
        <time>2022-05-17T07:27:25Z</time>
      </trkpt>
      <trkpt lat="43.64201" lon="3.32709">
        <ele>137</ele>
        <time>2022-05-17T07:27:28Z</time>
      </trkpt>
      <trkpt lat="43.64201" lon="3.32709">
        <ele>137.4</ele>
        <time>2022-05-17T07:27:33Z</time>
      </trkpt>
      <trkpt lat="43.64201" lon="3.32709">
        <ele>137.4</ele>
        <time>2022-05-17T07:27:43Z</time>
      </trkpt>
      <trkpt lat="43.64201" lon="3.32709">
        <ele>137.4</ele>
        <time>2022-05-17T07:28:14Z</time>
      </trkpt>
      <trkpt lat="43.64195" lon="3.32703">
        <ele>137.6</ele>
        <time>2022-05-17T07:28:17Z</time>
      </trkpt>
      <trkpt lat="43.64187" lon="3.32691">
        <ele>137.4</ele>
        <time>2022-05-17T07:28:21Z</time>
      </trkpt>
      <trkpt lat="43.64185" lon="3.32691">
        <ele>137.4</ele>
        <time>2022-05-17T07:28:22Z</time>
      </trkpt>
      <trkpt lat="43.64182" lon="3.32692">
        <ele>137.4</ele>
        <time>2022-05-17T07:28:24Z</time>
      </trkpt>
      <trkpt lat="43.64178" lon="3.3269">
        <ele>137.2</ele>
        <time>2022-05-17T07:28:26Z</time>
      </trkpt>
      <trkpt lat="43.64175" lon="3.32688">
        <ele>137.2</ele>
        <time>2022-05-17T07:28:28Z</time>
      </trkpt>
      <trkpt lat="43.64173" lon="3.32684">
        <ele>137.4</ele>
        <time>2022-05-17T07:28:31Z</time>
      </trkpt>
      <trkpt lat="43.64168" lon="3.32676">
        <ele>137.6</ele>
        <time>2022-05-17T07:28:37Z</time>
      </trkpt>
      <trkpt lat="43.64154" lon="3.3266">
        <ele>137.6</ele>
        <time>2022-05-17T07:28:44Z</time>
      </trkpt>
      <trkpt lat="43.64146" lon="3.32645">
        <ele>137.8</ele>
        <time>2022-05-17T07:28:50Z</time>
      </trkpt>
      <trkpt lat="43.64135" lon="3.32628">
        <ele>137.8</ele>
        <time>2022-05-17T07:28:56Z</time>
      </trkpt>
      <trkpt lat="43.64123" lon="3.326">
        <ele>137.6</ele>
        <time>2022-05-17T07:29:06Z</time>
      </trkpt>
      <trkpt lat="43.64108" lon="3.32572">
        <ele>137.8</ele>
        <time>2022-05-17T07:29:15Z</time>
      </trkpt>
      <trkpt lat="43.64092" lon="3.3255">
        <ele>137.8</ele>
        <time>2022-05-17T07:29:23Z</time>
      </trkpt>
      <trkpt lat="43.64085" lon="3.32531">
        <ele>137.8</ele>
        <time>2022-05-17T07:29:29Z</time>
      </trkpt>
      <trkpt lat="43.64073" lon="3.32502">
        <ele>138</ele>
        <time>2022-05-17T07:29:38Z</time>
      </trkpt>
      <trkpt lat="43.64071" lon="3.32498">
        <ele>138.2</ele>
        <time>2022-05-17T07:29:39Z</time>
      </trkpt>
      <trkpt lat="43.64054" lon="3.32475">
        <ele>138.6</ele>
        <time>2022-05-17T07:29:48Z</time>
      </trkpt>
      <trkpt lat="43.64039" lon="3.32462">
        <ele>138.8</ele>
        <time>2022-05-17T07:29:55Z</time>
      </trkpt>
      <trkpt lat="43.64017" lon="3.32462">
        <ele>139</ele>
        <time>2022-05-17T07:30:03Z</time>
      </trkpt>
      <trkpt lat="43.64007" lon="3.3246">
        <ele>139.2</ele>
        <time>2022-05-17T07:30:08Z</time>
      </trkpt>
      <trkpt lat="43.64007" lon="3.3246">
        <ele>139.2</ele>
        <time>2022-05-17T07:30:09Z</time>
      </trkpt>
      <trkpt lat="43.64005" lon="3.3246">
        <ele>139</ele>
        <time>2022-05-17T07:30:25Z</time>
      </trkpt>
      <trkpt lat="43.63994" lon="3.3246">
        <ele>139</ele>
        <time>2022-05-17T07:30:29Z</time>
      </trkpt>
      <trkpt lat="43.63989" lon="3.3246">
        <ele>139.2</ele>
        <time>2022-05-17T07:30:31Z</time>
      </trkpt>
      <trkpt lat="43.63981" lon="3.3246">
        <ele>139.6</ele>
        <time>2022-05-17T07:30:37Z</time>
      </trkpt>
      <trkpt lat="43.63979" lon="3.32458">
        <ele>139.8</ele>
        <time>2022-05-17T07:30:43Z</time>
      </trkpt>
      <trkpt lat="43.63978" lon="3.32457">
        <ele>139.8</ele>
        <time>2022-05-17T07:30:44Z</time>
      </trkpt>
      <trkpt lat="43.63978" lon="3.32454">
        <ele>139.8</ele>
        <time>2022-05-17T07:30:45Z</time>
      </trkpt>
      <trkpt lat="43.6398" lon="3.32447">
        <ele>139.8</ele>
        <time>2022-05-17T07:30:48Z</time>
      </trkpt>
      <trkpt lat="43.63984" lon="3.32444">
        <ele>139.8</ele>
        <time>2022-05-17T07:30:51Z</time>
      </trkpt>
      <trkpt lat="43.63987" lon="3.32445">
        <ele>139.8</ele>
        <time>2022-05-17T07:30:53Z</time>
      </trkpt>
      <trkpt lat="43.6399" lon="3.32446">
        <ele>139.8</ele>
        <time>2022-05-17T07:30:56Z</time>
      </trkpt>
      <trkpt lat="43.63991" lon="3.32445">
        <ele>139.8</ele>
        <time>2022-05-17T07:30:58Z</time>
      </trkpt>
      <trkpt lat="43.63996" lon="3.32444">
        <ele>140</ele>
        <time>2022-05-17T07:31:24Z</time>
      </trkpt>
      <trkpt lat="43.64" lon="3.32442">
        <ele>140</ele>
        <time>2022-05-17T07:31:27Z</time>
      </trkpt>
      <trkpt lat="43.64008" lon="3.32439">
        <ele>140</ele>
        <time>2022-05-17T07:31:32Z</time>
      </trkpt>
      <trkpt lat="43.64014" lon="3.32433">
        <ele>139.8</ele>
        <time>2022-05-17T07:31:37Z</time>
      </trkpt>
      <trkpt lat="43.64019" lon="3.32433">
        <ele>139.8</ele>
        <time>2022-05-17T07:31:40Z</time>
      </trkpt>
      <trkpt lat="43.64032" lon="3.32429">
        <ele>139.8</ele>
        <time>2022-05-17T07:31:48Z</time>
      </trkpt>
      <trkpt lat="43.64034" lon="3.32428">
        <ele>139.8</ele>
        <time>2022-05-17T07:31:50Z</time>
      </trkpt>
      <trkpt lat="43.64039" lon="3.32425">
        <ele>139.8</ele>
        <time>2022-05-17T07:31:54Z</time>
      </trkpt>
      <trkpt lat="43.64044" lon="3.32423">
        <ele>139.8</ele>
        <time>2022-05-17T07:32:00Z</time>
      </trkpt>
      <trkpt lat="43.64046" lon="3.32423">
        <ele>139.8</ele>
        <time>2022-05-17T07:32:01Z</time>
      </trkpt>
      <trkpt lat="43.64052" lon="3.32422">
        <ele>139.6</ele>
        <time>2022-05-17T07:32:08Z</time>
      </trkpt>
      <trkpt lat="43.64055" lon="3.32423">
        <ele>139.4</ele>
        <time>2022-05-17T07:32:14Z</time>
      </trkpt>
      <trkpt lat="43.64056" lon="3.32424">
        <ele>139.4</ele>
        <time>2022-05-17T07:32:15Z</time>
      </trkpt>
      <trkpt lat="43.64067" lon="3.32427">
        <ele>139</ele>
        <time>2022-05-17T07:32:21Z</time>
      </trkpt>
      <trkpt lat="43.64083" lon="3.32433">
        <ele>138.6</ele>
        <time>2022-05-17T07:32:30Z</time>
      </trkpt>
      <trkpt lat="43.64104" lon="3.32437">
        <ele>138.2</ele>
        <time>2022-05-17T07:32:37Z</time>
      </trkpt>
      <trkpt lat="43.64123" lon="3.32437">
        <ele>138.2</ele>
        <time>2022-05-17T07:32:44Z</time>
      </trkpt>
      <trkpt lat="43.64143" lon="3.32445">
        <ele>138.6</ele>
        <time>2022-05-17T07:32:52Z</time>
      </trkpt>
      <trkpt lat="43.64162" lon="3.32455">
        <ele>138.8</ele>
        <time>2022-05-17T07:33:00Z</time>
      </trkpt>
      <trkpt lat="43.64179" lon="3.32466">
        <ele>139</ele>
        <time>2022-05-17T07:33:07Z</time>
      </trkpt>
      <trkpt lat="43.64201" lon="3.32479">
        <ele>139.4</ele>
        <time>2022-05-17T07:33:15Z</time>
      </trkpt>
      <trkpt lat="43.64231" lon="3.32494">
        <ele>139.4</ele>
        <time>2022-05-17T07:33:24Z</time>
      </trkpt>
      <trkpt lat="43.64254" lon="3.32505">
        <ele>139.2</ele>
        <time>2022-05-17T07:33:32Z</time>
      </trkpt>
      <trkpt lat="43.64266" lon="3.32512">
        <ele>139.2</ele>
        <time>2022-05-17T07:33:36Z</time>
      </trkpt>
      <trkpt lat="43.64282" lon="3.3252">
        <ele>139.2</ele>
        <time>2022-05-17T07:33:41Z</time>
      </trkpt>
      <trkpt lat="43.64314" lon="3.32534">
        <ele>139.6</ele>
        <time>2022-05-17T07:33:51Z</time>
      </trkpt>
      <trkpt lat="43.64343" lon="3.3254">
        <ele>139</ele>
        <time>2022-05-17T07:34:00Z</time>
      </trkpt>
      <trkpt lat="43.64358" lon="3.32537">
        <ele>138.8</ele>
        <time>2022-05-17T07:34:06Z</time>
      </trkpt>
      <trkpt lat="43.64367" lon="3.32537">
        <ele>138.4</ele>
        <time>2022-05-17T07:34:12Z</time>
      </trkpt>
      <trkpt lat="43.64374" lon="3.32537">
        <ele>138.4</ele>
        <time>2022-05-17T07:34:17Z</time>
      </trkpt>
      <trkpt lat="43.64377" lon="3.3254">
        <ele>138.4</ele>
        <time>2022-05-17T07:34:19Z</time>
      </trkpt>
      <trkpt lat="43.64382" lon="3.32541">
        <ele>138.4</ele>
        <time>2022-05-17T07:34:22Z</time>
      </trkpt>
      <trkpt lat="43.64388" lon="3.3254">
        <ele>138.6</ele>
        <time>2022-05-17T07:34:25Z</time>
      </trkpt>
      <trkpt lat="43.64389" lon="3.3254">
        <ele>138.6</ele>
        <time>2022-05-17T07:34:26Z</time>
      </trkpt>
      <trkpt lat="43.64393" lon="3.32542">
        <ele>138.8</ele>
        <time>2022-05-17T07:34:30Z</time>
      </trkpt>
      <trkpt lat="43.64405" lon="3.3254">
        <ele>138.8</ele>
        <time>2022-05-17T07:34:37Z</time>
      </trkpt>
      <trkpt lat="43.64406" lon="3.32539">
        <ele>138.8</ele>
        <time>2022-05-17T07:34:38Z</time>
      </trkpt>
      <trkpt lat="43.64414" lon="3.32536">
        <ele>138.4</ele>
        <time>2022-05-17T07:34:43Z</time>
      </trkpt>
      <trkpt lat="43.64425" lon="3.3253">
        <ele>138.4</ele>
        <time>2022-05-17T07:34:48Z</time>
      </trkpt>
      <trkpt lat="43.6444" lon="3.32521">
        <ele>138.6</ele>
        <time>2022-05-17T07:34:55Z</time>
      </trkpt>
      <trkpt lat="43.64455" lon="3.32516">
        <ele>138.6</ele>
        <time>2022-05-17T07:35:02Z</time>
      </trkpt>
      <trkpt lat="43.64468" lon="3.32512">
        <ele>138.6</ele>
        <time>2022-05-17T07:35:08Z</time>
      </trkpt>
      <trkpt lat="43.64475" lon="3.32511">
        <ele>138.6</ele>
        <time>2022-05-17T07:35:12Z</time>
      </trkpt>
      <trkpt lat="43.6449" lon="3.32506">
        <ele>138.6</ele>
        <time>2022-05-17T07:35:19Z</time>
      </trkpt>
      <trkpt lat="43.64507" lon="3.32498">
        <ele>138.4</ele>
        <time>2022-05-17T07:35:27Z</time>
      </trkpt>
      <trkpt lat="43.64527" lon="3.32482">
        <ele>138.4</ele>
        <time>2022-05-17T07:35:37Z</time>
      </trkpt>
      <trkpt lat="43.64545" lon="3.32479">
        <ele>138.4</ele>
        <time>2022-05-17T07:35:44Z</time>
      </trkpt>
      <trkpt lat="43.64565" lon="3.32486">
        <ele>138.4</ele>
        <time>2022-05-17T07:35:53Z</time>
      </trkpt>
      <trkpt lat="43.64577" lon="3.32488">
        <ele>138.4</ele>
        <time>2022-05-17T07:35:58Z</time>
      </trkpt>
      <trkpt lat="43.64592" lon="3.3249">
        <ele>138.2</ele>
        <time>2022-05-17T07:36:04Z</time>
      </trkpt>
      <trkpt lat="43.64606" lon="3.32497">
        <ele>138</ele>
        <time>2022-05-17T07:36:11Z</time>
      </trkpt>
      <trkpt lat="43.6461" lon="3.32498">
        <ele>137.8</ele>
        <time>2022-05-17T07:36:13Z</time>
      </trkpt>
      <trkpt lat="43.64617" lon="3.325">
        <ele>137.8</ele>
        <time>2022-05-17T07:36:18Z</time>
      </trkpt>
      <trkpt lat="43.64628" lon="3.32502">
        <ele>137.6</ele>
        <time>2022-05-17T07:36:25Z</time>
      </trkpt>
      <trkpt lat="43.64644" lon="3.32504">
        <ele>137.6</ele>
        <time>2022-05-17T07:36:33Z</time>
      </trkpt>
      <trkpt lat="43.64661" lon="3.32503">
        <ele>137.6</ele>
        <time>2022-05-17T07:36:42Z</time>
      </trkpt>
      <trkpt lat="43.64678" lon="3.32503">
        <ele>138</ele>
        <time>2022-05-17T07:36:50Z</time>
      </trkpt>
      <trkpt lat="43.64699" lon="3.32502">
        <ele>138.2</ele>
        <time>2022-05-17T07:37:00Z</time>
      </trkpt>
      <trkpt lat="43.64723" lon="3.32497">
        <ele>138.6</ele>
        <time>2022-05-17T07:37:10Z</time>
      </trkpt>
      <trkpt lat="43.64741" lon="3.32486">
        <ele>138.8</ele>
        <time>2022-05-17T07:37:17Z</time>
      </trkpt>
      <trkpt lat="43.64743" lon="3.32484">
        <ele>138.8</ele>
        <time>2022-05-17T07:37:18Z</time>
      </trkpt>
      <trkpt lat="43.64757" lon="3.32459">
        <ele>139.4</ele>
        <time>2022-05-17T07:37:27Z</time>
      </trkpt>
      <trkpt lat="43.64764" lon="3.32436">
        <ele>139.8</ele>
        <time>2022-05-17T07:37:35Z</time>
      </trkpt>
      <trkpt lat="43.64767" lon="3.32428">
        <ele>140</ele>
        <time>2022-05-17T07:37:38Z</time>
      </trkpt>
      <trkpt lat="43.64775" lon="3.32407">
        <ele>140.2</ele>
        <time>2022-05-17T07:37:45Z</time>
      </trkpt>
      <trkpt lat="43.64789" lon="3.32391">
        <ele>140.4</ele>
        <time>2022-05-17T07:37:52Z</time>
      </trkpt>
      <trkpt lat="43.64807" lon="3.32392">
        <ele>140.6</ele>
        <time>2022-05-17T07:37:58Z</time>
      </trkpt>
      <trkpt lat="43.6482" lon="3.32399">
        <ele>140.8</ele>
        <time>2022-05-17T07:38:04Z</time>
      </trkpt>
      <trkpt lat="43.64825" lon="3.32402">
        <ele>141</ele>
        <time>2022-05-17T07:38:06Z</time>
      </trkpt>
      <trkpt lat="43.64846" lon="3.32415">
        <ele>141.6</ele>
        <time>2022-05-17T07:38:14Z</time>
      </trkpt>
      <trkpt lat="43.64869" lon="3.32433">
        <ele>141.4</ele>
        <time>2022-05-17T07:38:21Z</time>
      </trkpt>
      <trkpt lat="43.64903" lon="3.32461">
        <ele>141</ele>
        <time>2022-05-17T07:38:31Z</time>
      </trkpt>
      <trkpt lat="43.6493" lon="3.32479">
        <ele>140.6</ele>
        <time>2022-05-17T07:38:39Z</time>
      </trkpt>
      <trkpt lat="43.6496" lon="3.32488">
        <ele>140.6</ele>
        <time>2022-05-17T07:38:47Z</time>
      </trkpt>
      <trkpt lat="43.64994" lon="3.32504">
        <ele>140.6</ele>
        <time>2022-05-17T07:38:56Z</time>
      </trkpt>
      <trkpt lat="43.65019" lon="3.32521">
        <ele>140.6</ele>
        <time>2022-05-17T07:39:04Z</time>
      </trkpt>
      <trkpt lat="43.65046" lon="3.32536">
        <ele>141</ele>
        <time>2022-05-17T07:39:13Z</time>
      </trkpt>
      <trkpt lat="43.65071" lon="3.32539">
        <ele>141</ele>
        <time>2022-05-17T07:39:21Z</time>
      </trkpt>
      <trkpt lat="43.65093" lon="3.3253">
        <ele>140.8</ele>
        <time>2022-05-17T07:39:28Z</time>
      </trkpt>
      <trkpt lat="43.65106" lon="3.32506">
        <ele>140.8</ele>
        <time>2022-05-17T07:39:34Z</time>
      </trkpt>
      <trkpt lat="43.6512" lon="3.32466">
        <ele>140.2</ele>
        <time>2022-05-17T07:39:42Z</time>
      </trkpt>
      <trkpt lat="43.65123" lon="3.32461">
        <ele>140.2</ele>
        <time>2022-05-17T07:39:43Z</time>
      </trkpt>
      <trkpt lat="43.6513" lon="3.32452">
        <ele>139.8</ele>
        <time>2022-05-17T07:39:45Z</time>
      </trkpt>
      <trkpt lat="43.65139" lon="3.32445">
        <ele>139.8</ele>
        <time>2022-05-17T07:39:47Z</time>
      </trkpt>
      <trkpt lat="43.65143" lon="3.32442">
        <ele>139.6</ele>
        <time>2022-05-17T07:39:48Z</time>
      </trkpt>
      <trkpt lat="43.65166" lon="3.32431">
        <ele>139.4</ele>
        <time>2022-05-17T07:39:53Z</time>
      </trkpt>
      <trkpt lat="43.65176" lon="3.32416">
        <ele>139.2</ele>
        <time>2022-05-17T07:39:57Z</time>
      </trkpt>
      <trkpt lat="43.65184" lon="3.32387">
        <ele>139.4</ele>
        <time>2022-05-17T07:40:03Z</time>
      </trkpt>
      <trkpt lat="43.65195" lon="3.32344">
        <ele>139.6</ele>
        <time>2022-05-17T07:40:12Z</time>
      </trkpt>
      <trkpt lat="43.65196" lon="3.32325">
        <ele>139.8</ele>
        <time>2022-05-17T07:40:17Z</time>
      </trkpt>
      <trkpt lat="43.65196" lon="3.32295">
        <ele>140.4</ele>
        <time>2022-05-17T07:40:24Z</time>
      </trkpt>
      <trkpt lat="43.65199" lon="3.32273">
        <ele>141</ele>
        <time>2022-05-17T07:40:29Z</time>
      </trkpt>
      <trkpt lat="43.652" lon="3.32269">
        <ele>141</ele>
        <time>2022-05-17T07:40:30Z</time>
      </trkpt>
      <trkpt lat="43.65206" lon="3.32245">
        <ele>141.4</ele>
        <time>2022-05-17T07:40:36Z</time>
      </trkpt>
      <trkpt lat="43.65211" lon="3.32228">
        <ele>142</ele>
        <time>2022-05-17T07:40:41Z</time>
      </trkpt>
      <trkpt lat="43.65212" lon="3.32221">
        <ele>142.2</ele>
        <time>2022-05-17T07:40:43Z</time>
      </trkpt>
      <trkpt lat="43.65218" lon="3.32193">
        <ele>143</ele>
        <time>2022-05-17T07:40:51Z</time>
      </trkpt>
      <trkpt lat="43.65219" lon="3.3219">
        <ele>143.2</ele>
        <time>2022-05-17T07:40:52Z</time>
      </trkpt>
      <trkpt lat="43.65228" lon="3.32164">
        <ele>144</ele>
        <time>2022-05-17T07:41:00Z</time>
      </trkpt>
      <trkpt lat="43.65229" lon="3.32161">
        <ele>144.2</ele>
        <time>2022-05-17T07:41:01Z</time>
      </trkpt>
      <trkpt lat="43.65244" lon="3.32136">
        <ele>144.8</ele>
        <time>2022-05-17T07:41:10Z</time>
      </trkpt>
      <trkpt lat="43.65251" lon="3.32137">
        <ele>145</ele>
        <time>2022-05-17T07:41:13Z</time>
      </trkpt>
      <trkpt lat="43.65253" lon="3.3214">
        <ele>145</ele>
        <time>2022-05-17T07:41:14Z</time>
      </trkpt>
      <trkpt lat="43.65256" lon="3.32151">
        <ele>145</ele>
        <time>2022-05-17T07:41:19Z</time>
      </trkpt>
      <trkpt lat="43.65258" lon="3.32156">
        <ele>145</ele>
        <time>2022-05-17T07:41:22Z</time>
      </trkpt>
      <trkpt lat="43.65258" lon="3.32161">
        <ele>144.8</ele>
        <time>2022-05-17T07:41:25Z</time>
      </trkpt>
      <trkpt lat="43.65258" lon="3.32163">
        <ele>144.8</ele>
        <time>2022-05-17T07:41:26Z</time>
      </trkpt>
      <trkpt lat="43.65259" lon="3.32168">
        <ele>144.2</ele>
        <time>2022-05-17T07:41:30Z</time>
      </trkpt>
      <trkpt lat="43.65259" lon="3.32168">
        <ele>144</ele>
        <time>2022-05-17T07:42:10Z</time>
      </trkpt>
      <trkpt lat="43.65262" lon="3.32178">
        <ele>143.8</ele>
        <time>2022-05-17T07:42:13Z</time>
      </trkpt>
      <trkpt lat="43.6527" lon="3.32206">
        <ele>143.8</ele>
        <time>2022-05-17T07:42:19Z</time>
      </trkpt>
      <trkpt lat="43.6528" lon="3.32241">
        <ele>143.4</ele>
        <time>2022-05-17T07:42:26Z</time>
      </trkpt>
      <trkpt lat="43.65293" lon="3.32283">
        <ele>143.2</ele>
        <time>2022-05-17T07:42:34Z</time>
      </trkpt>
      <trkpt lat="43.65307" lon="3.32334">
        <ele>143</ele>
        <time>2022-05-17T07:42:43Z</time>
      </trkpt>
      <trkpt lat="43.6531" lon="3.32345">
        <ele>143</ele>
        <time>2022-05-17T07:42:45Z</time>
      </trkpt>
      <trkpt lat="43.65327" lon="3.32402">
        <ele>142.6</ele>
        <time>2022-05-17T07:42:55Z</time>
      </trkpt>
      <trkpt lat="43.65334" lon="3.32428">
        <ele>142</ele>
        <time>2022-05-17T07:43:01Z</time>
      </trkpt>
      <trkpt lat="43.65335" lon="3.3243">
        <ele>141.8</ele>
        <time>2022-05-17T07:43:03Z</time>
      </trkpt>
      <trkpt lat="43.65335" lon="3.3243">
        <ele>141.8</ele>
        <time>2022-05-17T07:43:05Z</time>
      </trkpt>
      <trkpt lat="43.65335" lon="3.3243">
        <ele>141.4</ele>
        <time>2022-05-17T07:43:19Z</time>
      </trkpt>
      <trkpt lat="43.65335" lon="3.32432">
        <ele>141.2</ele>
        <time>2022-05-17T07:43:38Z</time>
      </trkpt>
      <trkpt lat="43.65336" lon="3.32438">
        <ele>141.2</ele>
        <time>2022-05-17T07:43:40Z</time>
      </trkpt>
      <trkpt lat="43.65332" lon="3.32465">
        <ele>141.2</ele>
        <time>2022-05-17T07:43:47Z</time>
      </trkpt>
      <trkpt lat="43.65323" lon="3.32498">
        <ele>141.4</ele>
        <time>2022-05-17T07:43:55Z</time>
      </trkpt>
      <trkpt lat="43.65311" lon="3.32539">
        <ele>141.4</ele>
        <time>2022-05-17T07:44:04Z</time>
      </trkpt>
      <trkpt lat="43.65307" lon="3.32568">
        <ele>141.4</ele>
        <time>2022-05-17T07:44:11Z</time>
      </trkpt>
      <trkpt lat="43.6531" lon="3.32602">
        <ele>141.4</ele>
        <time>2022-05-17T07:44:18Z</time>
      </trkpt>
      <trkpt lat="43.65316" lon="3.3264">
        <ele>141</ele>
        <time>2022-05-17T07:44:25Z</time>
      </trkpt>
      <trkpt lat="43.65319" lon="3.32656">
        <ele>140.8</ele>
        <time>2022-05-17T07:44:28Z</time>
      </trkpt>
      <trkpt lat="43.65324" lon="3.32688">
        <ele>140</ele>
        <time>2022-05-17T07:44:34Z</time>
      </trkpt>
      <trkpt lat="43.65327" lon="3.32699">
        <ele>139.8</ele>
        <time>2022-05-17T07:44:36Z</time>
      </trkpt>
      <trkpt lat="43.65329" lon="3.32716">
        <ele>139.2</ele>
        <time>2022-05-17T07:44:39Z</time>
      </trkpt>
      <trkpt lat="43.65334" lon="3.32744">
        <ele>138.8</ele>
        <time>2022-05-17T07:44:44Z</time>
      </trkpt>
      <trkpt lat="43.65342" lon="3.32782">
        <ele>138.4</ele>
        <time>2022-05-17T07:44:51Z</time>
      </trkpt>
      <trkpt lat="43.65348" lon="3.32821">
        <ele>138.4</ele>
        <time>2022-05-17T07:44:59Z</time>
      </trkpt>
      <trkpt lat="43.65354" lon="3.32856">
        <ele>138.2</ele>
        <time>2022-05-17T07:45:07Z</time>
      </trkpt>
      <trkpt lat="43.65362" lon="3.32882">
        <ele>138</ele>
        <time>2022-05-17T07:45:14Z</time>
      </trkpt>
      <trkpt lat="43.65365" lon="3.32887">
        <ele>137.8</ele>
        <time>2022-05-17T07:45:16Z</time>
      </trkpt>
      <trkpt lat="43.65379" lon="3.32905">
        <ele>137.4</ele>
        <time>2022-05-17T07:45:23Z</time>
      </trkpt>
      <trkpt lat="43.65391" lon="3.32924">
        <ele>137.2</ele>
        <time>2022-05-17T07:45:30Z</time>
      </trkpt>
      <trkpt lat="43.65399" lon="3.32936">
        <ele>136.8</ele>
        <time>2022-05-17T07:45:35Z</time>
      </trkpt>
      <trkpt lat="43.65402" lon="3.32939">
        <ele>136.8</ele>
        <time>2022-05-17T07:45:37Z</time>
      </trkpt>
      <trkpt lat="43.65414" lon="3.32953">
        <ele>136.8</ele>
        <time>2022-05-17T07:45:44Z</time>
      </trkpt>
      <trkpt lat="43.65432" lon="3.32971">
        <ele>136.8</ele>
        <time>2022-05-17T07:45:53Z</time>
      </trkpt>
      <trkpt lat="43.6545" lon="3.32988">
        <ele>136.8</ele>
        <time>2022-05-17T07:46:01Z</time>
      </trkpt>
      <trkpt lat="43.6546" lon="3.32998">
        <ele>136.8</ele>
        <time>2022-05-17T07:46:07Z</time>
      </trkpt>
      <trkpt lat="43.65469" lon="3.33008">
        <ele>136.8</ele>
        <time>2022-05-17T07:46:14Z</time>
      </trkpt>
      <trkpt lat="43.65475" lon="3.33016">
        <ele>136.6</ele>
        <time>2022-05-17T07:46:21Z</time>
      </trkpt>
      <trkpt lat="43.65475" lon="3.33016">
        <ele>136.4</ele>
        <time>2022-05-17T07:46:42Z</time>
      </trkpt>
      <trkpt lat="43.65475" lon="3.33016">
        <ele>136.4</ele>
        <time>2022-05-17T07:46:52Z</time>
      </trkpt>
      <trkpt lat="43.6547" lon="3.3301">
        <ele>136.4</ele>
        <time>2022-05-17T07:46:56Z</time>
      </trkpt>
      <trkpt lat="43.65468" lon="3.33006">
        <ele>136.4</ele>
        <time>2022-05-17T07:46:58Z</time>
      </trkpt>
      <trkpt lat="43.65467" lon="3.33">
        <ele>136.4</ele>
        <time>2022-05-17T07:47:01Z</time>
      </trkpt>
      <trkpt lat="43.65471" lon="3.32999">
        <ele>136.4</ele>
        <time>2022-05-17T07:47:05Z</time>
      </trkpt>
      <trkpt lat="43.6548" lon="3.32997">
        <ele>137.2</ele>
        <time>2022-05-17T07:47:12Z</time>
      </trkpt>
      <trkpt lat="43.65483" lon="3.32996">
        <ele>137.4</ele>
        <time>2022-05-17T07:47:14Z</time>
      </trkpt>
      <trkpt lat="43.65485" lon="3.32998">
        <ele>138</ele>
        <time>2022-05-17T07:47:16Z</time>
      </trkpt>
      <trkpt lat="43.65487" lon="3.33">
        <ele>138.2</ele>
        <time>2022-05-17T07:47:17Z</time>
      </trkpt>
      <trkpt lat="43.6549" lon="3.33006">
        <ele>138.8</ele>
        <time>2022-05-17T07:47:20Z</time>
      </trkpt>
      <trkpt lat="43.65492" lon="3.33006">
        <ele>139</ele>
        <time>2022-05-17T07:47:21Z</time>
      </trkpt>
      <trkpt lat="43.65493" lon="3.33008">
        <ele>139.2</ele>
        <time>2022-05-17T07:47:24Z</time>
      </trkpt>
      <trkpt lat="43.65493" lon="3.33008">
        <ele>138.8</ele>
        <time>2022-05-17T07:47:51Z</time>
      </trkpt>
      <trkpt lat="43.65496" lon="3.33015">
        <ele>139</ele>
        <time>2022-05-17T07:48:03Z</time>
      </trkpt>
      <trkpt lat="43.65507" lon="3.33029">
        <ele>139.4</ele>
        <time>2022-05-17T07:48:09Z</time>
      </trkpt>
      <trkpt lat="43.65514" lon="3.33037">
        <ele>140</ele>
        <time>2022-05-17T07:48:14Z</time>
      </trkpt>
      <trkpt lat="43.65514" lon="3.33039">
        <ele>140.2</ele>
        <time>2022-05-17T07:48:15Z</time>
      </trkpt>
      <trkpt lat="43.65517" lon="3.33046">
        <ele>140.6</ele>
        <time>2022-05-17T07:48:18Z</time>
      </trkpt>
      <trkpt lat="43.65521" lon="3.33054">
        <ele>140.6</ele>
        <time>2022-05-17T07:48:21Z</time>
      </trkpt>
      <trkpt lat="43.65522" lon="3.33056">
        <ele>140.6</ele>
        <time>2022-05-17T07:48:22Z</time>
      </trkpt>
      <trkpt lat="43.65524" lon="3.3306">
        <ele>140.6</ele>
        <time>2022-05-17T07:48:24Z</time>
      </trkpt>
      <trkpt lat="43.65524" lon="3.33063">
        <ele>140.4</ele>
        <time>2022-05-17T07:48:25Z</time>
      </trkpt>
      <trkpt lat="43.65526" lon="3.33071">
        <ele>140.2</ele>
        <time>2022-05-17T07:48:28Z</time>
      </trkpt>
      <trkpt lat="43.65528" lon="3.33074">
        <ele>139.8</ele>
        <time>2022-05-17T07:48:30Z</time>
      </trkpt>
      <trkpt lat="43.65533" lon="3.33081">
        <ele>139</ele>
        <time>2022-05-17T07:48:34Z</time>
      </trkpt>
      <trkpt lat="43.65535" lon="3.33083">
        <ele>139</ele>
        <time>2022-05-17T07:48:35Z</time>
      </trkpt>
      <trkpt lat="43.65543" lon="3.33093">
        <ele>138.8</ele>
        <time>2022-05-17T07:48:40Z</time>
      </trkpt>
      <trkpt lat="43.65545" lon="3.33094">
        <ele>139.2</ele>
        <time>2022-05-17T07:48:44Z</time>
      </trkpt>
      <trkpt lat="43.65546" lon="3.33096">
        <ele>140</ele>
        <time>2022-05-17T07:48:47Z</time>
      </trkpt>
      <trkpt lat="43.65548" lon="3.33099">
        <ele>140.4</ele>
        <time>2022-05-17T07:48:54Z</time>
      </trkpt>
      <trkpt lat="43.65548" lon="3.331">
        <ele>140.4</ele>
        <time>2022-05-17T07:48:59Z</time>
      </trkpt>
      <trkpt lat="43.65549" lon="3.331">
        <ele>140.8</ele>
        <time>2022-05-17T07:49:05Z</time>
      </trkpt>
      <trkpt lat="43.65549" lon="3.331">
        <ele>141</ele>
        <time>2022-05-17T07:49:08Z</time>
      </trkpt>
      <trkpt lat="43.65552" lon="3.33106">
        <ele>141</ele>
        <time>2022-05-17T07:49:15Z</time>
      </trkpt>
      <trkpt lat="43.65555" lon="3.33112">
        <ele>141</ele>
        <time>2022-05-17T07:49:17Z</time>
      </trkpt>
      <trkpt lat="43.65561" lon="3.3312">
        <ele>141</ele>
        <time>2022-05-17T07:49:20Z</time>
      </trkpt>
      <trkpt lat="43.65563" lon="3.33121">
        <ele>141</ele>
        <time>2022-05-17T07:49:21Z</time>
      </trkpt>
      <trkpt lat="43.65567" lon="3.33125">
        <ele>141</ele>
        <time>2022-05-17T07:49:23Z</time>
      </trkpt>
      <trkpt lat="43.65577" lon="3.33131">
        <ele>141.2</ele>
        <time>2022-05-17T07:49:28Z</time>
      </trkpt>
      <trkpt lat="43.65584" lon="3.33138">
        <ele>141.6</ele>
        <time>2022-05-17T07:49:33Z</time>
      </trkpt>
      <trkpt lat="43.65584" lon="3.33141">
        <ele>141.8</ele>
        <time>2022-05-17T07:49:34Z</time>
      </trkpt>
      <trkpt lat="43.65585" lon="3.33149">
        <ele>141.8</ele>
        <time>2022-05-17T07:49:37Z</time>
      </trkpt>
      <trkpt lat="43.65587" lon="3.33154">
        <ele>141.6</ele>
        <time>2022-05-17T07:49:39Z</time>
      </trkpt>
      <trkpt lat="43.65588" lon="3.33156">
        <ele>141.6</ele>
        <time>2022-05-17T07:49:40Z</time>
      </trkpt>
      <trkpt lat="43.65595" lon="3.3317">
        <ele>140.6</ele>
        <time>2022-05-17T07:49:44Z</time>
      </trkpt>
      <trkpt lat="43.656" lon="3.33176">
        <ele>139.6</ele>
        <time>2022-05-17T07:49:47Z</time>
      </trkpt>
      <trkpt lat="43.65601" lon="3.33177">
        <ele>139.4</ele>
        <time>2022-05-17T07:49:48Z</time>
      </trkpt>
      <trkpt lat="43.65603" lon="3.33177">
        <ele>139.2</ele>
        <time>2022-05-17T07:49:49Z</time>
      </trkpt>
      <trkpt lat="43.65604" lon="3.33177">
        <ele>139.2</ele>
        <time>2022-05-17T07:49:52Z</time>
      </trkpt>
      <trkpt lat="43.65605" lon="3.33174">
        <ele>139.4</ele>
        <time>2022-05-17T07:49:57Z</time>
      </trkpt>
      <trkpt lat="43.65606" lon="3.33174">
        <ele>140</ele>
        <time>2022-05-17T07:50:06Z</time>
      </trkpt>
      <trkpt lat="43.65606" lon="3.33174">
        <ele>140.4</ele>
        <time>2022-05-17T07:50:34Z</time>
      </trkpt>
      <trkpt lat="43.65608" lon="3.33174">
        <ele>140.4</ele>
        <time>2022-05-17T07:51:02Z</time>
      </trkpt>
      <trkpt lat="43.6561" lon="3.33173">
        <ele>140.2</ele>
        <time>2022-05-17T07:54:30Z</time>
      </trkpt>
      <trkpt lat="43.65614" lon="3.33179">
        <ele>140.2</ele>
        <time>2022-05-17T07:54:32Z</time>
      </trkpt>
      <trkpt lat="43.65618" lon="3.33192">
        <ele>139.8</ele>
        <time>2022-05-17T07:54:35Z</time>
      </trkpt>
      <trkpt lat="43.65618" lon="3.33196">
        <ele>139.6</ele>
        <time>2022-05-17T07:54:36Z</time>
      </trkpt>
      <trkpt lat="43.65626" lon="3.33216">
        <ele>139.4</ele>
        <time>2022-05-17T07:54:40Z</time>
      </trkpt>
      <trkpt lat="43.65637" lon="3.3323">
        <ele>138.6</ele>
        <time>2022-05-17T07:54:44Z</time>
      </trkpt>
      <trkpt lat="43.6564" lon="3.33233">
        <ele>138.4</ele>
        <time>2022-05-17T07:54:45Z</time>
      </trkpt>
      <trkpt lat="43.65647" lon="3.33247">
        <ele>137.8</ele>
        <time>2022-05-17T07:54:50Z</time>
      </trkpt>
      <trkpt lat="43.65649" lon="3.33251">
        <ele>137.6</ele>
        <time>2022-05-17T07:54:52Z</time>
      </trkpt>
      <trkpt lat="43.65651" lon="3.33256">
        <ele>137.4</ele>
        <time>2022-05-17T07:54:55Z</time>
      </trkpt>
      <trkpt lat="43.65651" lon="3.33257">
        <ele>137.4</ele>
        <time>2022-05-17T07:54:56Z</time>
      </trkpt>
      <trkpt lat="43.65648" lon="3.33265">
        <ele>137.4</ele>
        <time>2022-05-17T07:55:00Z</time>
      </trkpt>
      <trkpt lat="43.65647" lon="3.33269">
        <ele>137.4</ele>
        <time>2022-05-17T07:55:02Z</time>
      </trkpt>
      <trkpt lat="43.65647" lon="3.33274">
        <ele>137.4</ele>
        <time>2022-05-17T07:55:04Z</time>
      </trkpt>
      <trkpt lat="43.65648" lon="3.33276">
        <ele>137.6</ele>
        <time>2022-05-17T07:55:05Z</time>
      </trkpt>
      <trkpt lat="43.65652" lon="3.33282">
        <ele>138.2</ele>
        <time>2022-05-17T07:55:09Z</time>
      </trkpt>
      <trkpt lat="43.65653" lon="3.33286">
        <ele>138.6</ele>
        <time>2022-05-17T07:55:11Z</time>
      </trkpt>
      <trkpt lat="43.65657" lon="3.33296">
        <ele>139.8</ele>
        <time>2022-05-17T07:55:17Z</time>
      </trkpt>
      <trkpt lat="43.65658" lon="3.33299">
        <ele>140</ele>
        <time>2022-05-17T07:55:19Z</time>
      </trkpt>
      <trkpt lat="43.65663" lon="3.33306">
        <ele>140.6</ele>
        <time>2022-05-17T07:55:25Z</time>
      </trkpt>
      <trkpt lat="43.65663" lon="3.33308">
        <ele>140.8</ele>
        <time>2022-05-17T07:55:26Z</time>
      </trkpt>
      <trkpt lat="43.65667" lon="3.3332">
        <ele>140.8</ele>
        <time>2022-05-17T07:55:30Z</time>
      </trkpt>
      <trkpt lat="43.65675" lon="3.33332">
        <ele>140.6</ele>
        <time>2022-05-17T07:55:35Z</time>
      </trkpt>
      <trkpt lat="43.65676" lon="3.33337">
        <ele>140.2</ele>
        <time>2022-05-17T07:55:37Z</time>
      </trkpt>
      <trkpt lat="43.65679" lon="3.33339">
        <ele>139.4</ele>
        <time>2022-05-17T07:55:39Z</time>
      </trkpt>
      <trkpt lat="43.6569" lon="3.33345">
        <ele>138.8</ele>
        <time>2022-05-17T07:55:46Z</time>
      </trkpt>
      <trkpt lat="43.65695" lon="3.33346">
        <ele>138.8</ele>
        <time>2022-05-17T07:55:49Z</time>
      </trkpt>
      <trkpt lat="43.65697" lon="3.33346">
        <ele>138.8</ele>
        <time>2022-05-17T07:55:51Z</time>
      </trkpt>
      <trkpt lat="43.65699" lon="3.33347">
        <ele>138.8</ele>
        <time>2022-05-17T07:55:52Z</time>
      </trkpt>
      <trkpt lat="43.6571" lon="3.3336">
        <ele>138.6</ele>
        <time>2022-05-17T07:55:58Z</time>
      </trkpt>
      <trkpt lat="43.65711" lon="3.33362">
        <ele>138.6</ele>
        <time>2022-05-17T07:55:59Z</time>
      </trkpt>
      <trkpt lat="43.65713" lon="3.33364">
        <ele>138.4</ele>
        <time>2022-05-17T07:56:00Z</time>
      </trkpt>
      <trkpt lat="43.65719" lon="3.33372">
        <ele>138.2</ele>
        <time>2022-05-17T07:56:04Z</time>
      </trkpt>
      <trkpt lat="43.65728" lon="3.33388">
        <ele>138.2</ele>
        <time>2022-05-17T07:56:10Z</time>
      </trkpt>
      <trkpt lat="43.6573" lon="3.33391">
        <ele>138.2</ele>
        <time>2022-05-17T07:56:11Z</time>
      </trkpt>
      <trkpt lat="43.65738" lon="3.33401">
        <ele>138.2</ele>
        <time>2022-05-17T07:56:17Z</time>
      </trkpt>
      <trkpt lat="43.6574" lon="3.334">
        <ele>138.4</ele>
        <time>2022-05-17T07:56:22Z</time>
      </trkpt>
      <trkpt lat="43.65741" lon="3.33402">
        <ele>138.6</ele>
        <time>2022-05-17T07:56:24Z</time>
      </trkpt>
      <trkpt lat="43.65747" lon="3.33406">
        <ele>138.8</ele>
        <time>2022-05-17T07:56:27Z</time>
      </trkpt>
      <trkpt lat="43.65753" lon="3.33412">
        <ele>139.6</ele>
        <time>2022-05-17T07:56:33Z</time>
      </trkpt>
      <trkpt lat="43.65753" lon="3.33412">
        <ele>139.8</ele>
        <time>2022-05-17T07:56:36Z</time>
      </trkpt>
      <trkpt lat="43.65754" lon="3.33414">
        <ele>140.2</ele>
        <time>2022-05-17T07:56:40Z</time>
      </trkpt>
      <trkpt lat="43.65754" lon="3.33414">
        <ele>140.6</ele>
        <time>2022-05-17T07:56:42Z</time>
      </trkpt>
      <trkpt lat="43.65754" lon="3.33414">
        <ele>140.6</ele>
        <time>2022-05-17T07:56:46Z</time>
      </trkpt>
      <trkpt lat="43.65754" lon="3.33414">
        <ele>140.8</ele>
        <time>2022-05-17T07:56:50Z</time>
      </trkpt>
      <trkpt lat="43.65758" lon="3.33418">
        <ele>141</ele>
        <time>2022-05-17T07:56:53Z</time>
      </trkpt>
      <trkpt lat="43.65768" lon="3.33426">
        <ele>141.6</ele>
        <time>2022-05-17T07:56:59Z</time>
      </trkpt>
      <trkpt lat="43.6577" lon="3.33428">
        <ele>141.8</ele>
        <time>2022-05-17T07:57:01Z</time>
      </trkpt>
      <trkpt lat="43.65777" lon="3.33431">
        <ele>142</ele>
        <time>2022-05-17T07:57:05Z</time>
      </trkpt>
      <trkpt lat="43.65781" lon="3.33435">
        <ele>142.2</ele>
        <time>2022-05-17T07:57:07Z</time>
      </trkpt>
      <trkpt lat="43.65786" lon="3.33437">
        <ele>142.2</ele>
        <time>2022-05-17T07:57:09Z</time>
      </trkpt>
      <trkpt lat="43.65794" lon="3.33438">
        <ele>142</ele>
        <time>2022-05-17T07:57:12Z</time>
      </trkpt>
      <trkpt lat="43.65797" lon="3.3344">
        <ele>142</ele>
        <time>2022-05-17T07:57:13Z</time>
      </trkpt>
      <trkpt lat="43.65817" lon="3.33444">
        <ele>141.6</ele>
        <time>2022-05-17T07:57:18Z</time>
      </trkpt>
      <trkpt lat="43.65827" lon="3.3345">
        <ele>140.6</ele>
        <time>2022-05-17T07:57:21Z</time>
      </trkpt>
      <trkpt lat="43.65829" lon="3.3345">
        <ele>140</ele>
        <time>2022-05-17T07:57:22Z</time>
      </trkpt>
      <trkpt lat="43.65831" lon="3.3345">
        <ele>140</ele>
        <time>2022-05-17T07:57:23Z</time>
      </trkpt>
      <trkpt lat="43.65837" lon="3.3345">
        <ele>139</ele>
        <time>2022-05-17T07:57:28Z</time>
      </trkpt>
      <trkpt lat="43.65838" lon="3.3345">
        <ele>138.8</ele>
        <time>2022-05-17T07:57:29Z</time>
      </trkpt>
      <trkpt lat="43.65841" lon="3.33449">
        <ele>138</ele>
        <time>2022-05-17T07:57:38Z</time>
      </trkpt>
      <trkpt lat="43.65841" lon="3.33449">
        <ele>137.8</ele>
        <time>2022-05-17T07:57:39Z</time>
      </trkpt>
      <trkpt lat="43.65842" lon="3.33451">
        <ele>137</ele>
        <time>2022-05-17T07:57:46Z</time>
      </trkpt>
      <trkpt lat="43.65843" lon="3.33452">
        <ele>136.6</ele>
        <time>2022-05-17T07:57:53Z</time>
      </trkpt>
      <trkpt lat="43.65845" lon="3.33453">
        <ele>136.2</ele>
        <time>2022-05-17T07:58:17Z</time>
      </trkpt>
      <trkpt lat="43.6585" lon="3.33447">
        <ele>136.2</ele>
        <time>2022-05-17T07:58:20Z</time>
      </trkpt>
      <trkpt lat="43.6585" lon="3.33447">
        <ele>136.8</ele>
        <time>2022-05-17T07:58:24Z</time>
      </trkpt>
      <trkpt lat="43.65852" lon="3.33445">
        <ele>137.8</ele>
        <time>2022-05-17T07:58:45Z</time>
      </trkpt>
      <trkpt lat="43.65854" lon="3.33445">
        <ele>138.8</ele>
        <time>2022-05-17T07:58:54Z</time>
      </trkpt>
      <trkpt lat="43.65859" lon="3.33443">
        <ele>140</ele>
        <time>2022-05-17T07:59:01Z</time>
      </trkpt>
      <trkpt lat="43.65863" lon="3.33442">
        <ele>140.8</ele>
        <time>2022-05-17T07:59:08Z</time>
      </trkpt>
      <trkpt lat="43.65867" lon="3.33441">
        <ele>141.2</ele>
        <time>2022-05-17T07:59:11Z</time>
      </trkpt>
      <trkpt lat="43.6587" lon="3.3344">
        <ele>141.4</ele>
        <time>2022-05-17T07:59:14Z</time>
      </trkpt>
      <trkpt lat="43.65872" lon="3.33441">
        <ele>141.4</ele>
        <time>2022-05-17T07:59:21Z</time>
      </trkpt>
      <trkpt lat="43.65872" lon="3.33441">
        <ele>141</ele>
        <time>2022-05-17T07:59:34Z</time>
      </trkpt>
      <trkpt lat="43.65872" lon="3.33441">
        <ele>141</ele>
        <time>2022-05-17T07:59:35Z</time>
      </trkpt>
      <trkpt lat="43.65872" lon="3.33441">
        <ele>141</ele>
        <time>2022-05-17T08:00:08Z</time>
      </trkpt>
      <trkpt lat="43.65873" lon="3.33441">
        <ele>141.2</ele>
        <time>2022-05-17T08:00:39Z</time>
      </trkpt>
      <trkpt lat="43.65878" lon="3.33439">
        <ele>141</ele>
        <time>2022-05-17T08:00:45Z</time>
      </trkpt>
      <trkpt lat="43.65881" lon="3.33438">
        <ele>140.6</ele>
        <time>2022-05-17T08:00:51Z</time>
      </trkpt>
      <trkpt lat="43.65881" lon="3.33438">
        <ele>140.8</ele>
        <time>2022-05-17T08:01:00Z</time>
      </trkpt>
      <trkpt lat="43.65883" lon="3.33441">
        <ele>140.6</ele>
        <time>2022-05-17T08:01:33Z</time>
      </trkpt>
      <trkpt lat="43.65883" lon="3.33444">
        <ele>141</ele>
        <time>2022-05-17T08:01:54Z</time>
      </trkpt>
      <trkpt lat="43.65883" lon="3.33444">
        <ele>139.8</ele>
        <time>2022-05-17T08:02:01Z</time>
      </trkpt>
      <trkpt lat="43.65883" lon="3.33448">
        <ele>138.6</ele>
        <time>2022-05-17T08:02:08Z</time>
      </trkpt>
      <trkpt lat="43.65881" lon="3.33451">
        <ele>137.6</ele>
        <time>2022-05-17T08:02:23Z</time>
      </trkpt>
      <trkpt lat="43.65881" lon="3.33452">
        <ele>136.8</ele>
        <time>2022-05-17T08:02:32Z</time>
      </trkpt>
      <trkpt lat="43.65881" lon="3.33452">
        <ele>136.2</ele>
        <time>2022-05-17T08:02:42Z</time>
      </trkpt>
      <trkpt lat="43.65882" lon="3.33453">
        <ele>136.2</ele>
        <time>2022-05-17T08:02:58Z</time>
      </trkpt>
      <trkpt lat="43.65882" lon="3.33453">
        <ele>136.4</ele>
        <time>2022-05-17T08:03:01Z</time>
      </trkpt>
      <trkpt lat="43.65884" lon="3.33457">
        <ele>137</ele>
        <time>2022-05-17T08:03:39Z</time>
      </trkpt>
      <trkpt lat="43.65884" lon="3.33457">
        <ele>137</ele>
        <time>2022-05-17T08:03:48Z</time>
      </trkpt>
      <trkpt lat="43.65889" lon="3.33459">
        <ele>137.2</ele>
        <time>2022-05-17T08:04:40Z</time>
      </trkpt>
      <trkpt lat="43.65891" lon="3.3346">
        <ele>137.6</ele>
        <time>2022-05-17T08:04:47Z</time>
      </trkpt>
      <trkpt lat="43.65896" lon="3.33466">
        <ele>137.8</ele>
        <time>2022-05-17T08:05:30Z</time>
      </trkpt>
      <trkpt lat="43.65903" lon="3.33474">
        <ele>137.8</ele>
        <time>2022-05-17T08:05:35Z</time>
      </trkpt>
      <trkpt lat="43.65906" lon="3.33477">
        <ele>138</ele>
        <time>2022-05-17T08:05:37Z</time>
      </trkpt>
      <trkpt lat="43.65911" lon="3.33481">
        <ele>138.2</ele>
        <time>2022-05-17T08:05:40Z</time>
      </trkpt>
      <trkpt lat="43.65914" lon="3.33487">
        <ele>138.2</ele>
        <time>2022-05-17T08:05:43Z</time>
      </trkpt>
      <trkpt lat="43.65918" lon="3.33502">
        <ele>138.4</ele>
        <time>2022-05-17T08:05:48Z</time>
      </trkpt>
      <trkpt lat="43.65921" lon="3.33507">
        <ele>138.6</ele>
        <time>2022-05-17T08:05:50Z</time>
      </trkpt>
      <trkpt lat="43.65928" lon="3.33515">
        <ele>138.8</ele>
        <time>2022-05-17T08:05:56Z</time>
      </trkpt>
      <trkpt lat="43.65931" lon="3.33518">
        <ele>138.8</ele>
        <time>2022-05-17T08:05:58Z</time>
      </trkpt>
      <trkpt lat="43.65938" lon="3.33527">
        <ele>139.6</ele>
        <time>2022-05-17T08:06:04Z</time>
      </trkpt>
      <trkpt lat="43.65948" lon="3.33532">
        <ele>140</ele>
        <time>2022-05-17T08:06:10Z</time>
      </trkpt>
      <trkpt lat="43.65948" lon="3.33532">
        <ele>140.2</ele>
        <time>2022-05-17T08:06:11Z</time>
      </trkpt>
      <trkpt lat="43.65956" lon="3.33528">
        <ele>141.2</ele>
        <time>2022-05-17T08:06:17Z</time>
      </trkpt>
      <trkpt lat="43.65957" lon="3.33527">
        <ele>141.2</ele>
        <time>2022-05-17T08:06:18Z</time>
      </trkpt>
      <trkpt lat="43.65962" lon="3.33521">
        <ele>142</ele>
        <time>2022-05-17T08:06:23Z</time>
      </trkpt>
      <trkpt lat="43.65964" lon="3.33521">
        <ele>142</ele>
        <time>2022-05-17T08:06:24Z</time>
      </trkpt>
      <trkpt lat="43.65966" lon="3.33521">
        <ele>142.4</ele>
        <time>2022-05-17T08:06:25Z</time>
      </trkpt>
      <trkpt lat="43.65972" lon="3.33523">
        <ele>143.6</ele>
        <time>2022-05-17T08:06:30Z</time>
      </trkpt>
      <trkpt lat="43.65974" lon="3.33524">
        <ele>143.8</ele>
        <time>2022-05-17T08:06:31Z</time>
      </trkpt>
      <trkpt lat="43.65984" lon="3.33528">
        <ele>144.8</ele>
        <time>2022-05-17T08:06:37Z</time>
      </trkpt>
      <trkpt lat="43.65988" lon="3.33528">
        <ele>145</ele>
        <time>2022-05-17T08:06:39Z</time>
      </trkpt>
      <trkpt lat="43.65998" lon="3.33533">
        <ele>146</ele>
        <time>2022-05-17T08:06:45Z</time>
      </trkpt>
      <trkpt lat="43.66009" lon="3.33538">
        <ele>147</ele>
        <time>2022-05-17T08:06:51Z</time>
      </trkpt>
      <trkpt lat="43.6601" lon="3.33538">
        <ele>147</ele>
        <time>2022-05-17T08:06:52Z</time>
      </trkpt>
      <trkpt lat="43.66014" lon="3.3354">
        <ele>147.4</ele>
        <time>2022-05-17T08:06:54Z</time>
      </trkpt>
      <trkpt lat="43.6602" lon="3.33539">
        <ele>148</ele>
        <time>2022-05-17T08:06:58Z</time>
      </trkpt>
      <trkpt lat="43.66032" lon="3.33536">
        <ele>148.6</ele>
        <time>2022-05-17T08:07:04Z</time>
      </trkpt>
      <trkpt lat="43.66044" lon="3.33543">
        <ele>148.8</ele>
        <time>2022-05-17T08:07:09Z</time>
      </trkpt>
      <trkpt lat="43.66056" lon="3.33551">
        <ele>149</ele>
        <time>2022-05-17T08:07:15Z</time>
      </trkpt>
      <trkpt lat="43.66058" lon="3.33552">
        <ele>149.2</ele>
        <time>2022-05-17T08:07:16Z</time>
      </trkpt>
      <trkpt lat="43.66071" lon="3.33558">
        <ele>149.6</ele>
        <time>2022-05-17T08:07:24Z</time>
      </trkpt>
      <trkpt lat="43.66081" lon="3.33559">
        <ele>150.2</ele>
        <time>2022-05-17T08:07:29Z</time>
      </trkpt>
      <trkpt lat="43.66087" lon="3.3356">
        <ele>150.6</ele>
        <time>2022-05-17T08:07:32Z</time>
      </trkpt>
      <trkpt lat="43.66109" lon="3.33562">
        <ele>151</ele>
        <time>2022-05-17T08:07:41Z</time>
      </trkpt>
      <trkpt lat="43.66121" lon="3.33568">
        <ele>151.2</ele>
        <time>2022-05-17T08:07:46Z</time>
      </trkpt>
      <trkpt lat="43.66127" lon="3.33589">
        <ele>151.6</ele>
        <time>2022-05-17T08:07:53Z</time>
      </trkpt>
      <trkpt lat="43.66131" lon="3.336">
        <ele>152.2</ele>
        <time>2022-05-17T08:07:58Z</time>
      </trkpt>
      <trkpt lat="43.66134" lon="3.33604">
        <ele>152.6</ele>
        <time>2022-05-17T08:08:00Z</time>
      </trkpt>
      <trkpt lat="43.66145" lon="3.3361">
        <ele>153.4</ele>
        <time>2022-05-17T08:08:06Z</time>
      </trkpt>
      <trkpt lat="43.66159" lon="3.33612">
        <ele>154.4</ele>
        <time>2022-05-17T08:08:13Z</time>
      </trkpt>
      <trkpt lat="43.66161" lon="3.33612">
        <ele>154.6</ele>
        <time>2022-05-17T08:08:14Z</time>
      </trkpt>
      <trkpt lat="43.66173" lon="3.33613">
        <ele>155.6</ele>
        <time>2022-05-17T08:08:20Z</time>
      </trkpt>
      <trkpt lat="43.66175" lon="3.33613">
        <ele>155.6</ele>
        <time>2022-05-17T08:08:21Z</time>
      </trkpt>
      <trkpt lat="43.6619" lon="3.33613">
        <ele>156</ele>
        <time>2022-05-17T08:08:28Z</time>
      </trkpt>
      <trkpt lat="43.66206" lon="3.33613">
        <ele>156</ele>
        <time>2022-05-17T08:08:33Z</time>
      </trkpt>
      <trkpt lat="43.66213" lon="3.33616">
        <ele>156</ele>
        <time>2022-05-17T08:08:34Z</time>
      </trkpt>
      <trkpt lat="43.66223" lon="3.33621">
        <ele>155.6</ele>
        <time>2022-05-17T08:08:36Z</time>
      </trkpt>
      <trkpt lat="43.66237" lon="3.33624">
        <ele>155.2</ele>
        <time>2022-05-17T08:08:39Z</time>
      </trkpt>
      <trkpt lat="43.66247" lon="3.33628">
        <ele>154.8</ele>
        <time>2022-05-17T08:08:43Z</time>
      </trkpt>
      <trkpt lat="43.66254" lon="3.33631">
        <ele>155.2</ele>
        <time>2022-05-17T08:08:49Z</time>
      </trkpt>
      <trkpt lat="43.66257" lon="3.33633">
        <ele>155.4</ele>
        <time>2022-05-17T08:08:54Z</time>
      </trkpt>
      <trkpt lat="43.66257" lon="3.33633">
        <ele>155.4</ele>
        <time>2022-05-17T08:09:24Z</time>
      </trkpt>
      <trkpt lat="43.66257" lon="3.33632">
        <ele>155.6</ele>
        <time>2022-05-17T08:09:28Z</time>
      </trkpt>
      <trkpt lat="43.66257" lon="3.33631">
        <ele>155.6</ele>
        <time>2022-05-17T08:09:29Z</time>
      </trkpt>
      <trkpt lat="43.66259" lon="3.33628">
        <ele>155.6</ele>
        <time>2022-05-17T08:09:31Z</time>
      </trkpt>
      <trkpt lat="43.66263" lon="3.33623">
        <ele>156</ele>
        <time>2022-05-17T08:09:35Z</time>
      </trkpt>
      <trkpt lat="43.66266" lon="3.33623">
        <ele>156</ele>
        <time>2022-05-17T08:09:37Z</time>
      </trkpt>
      <trkpt lat="43.66275" lon="3.33625">
        <ele>156.6</ele>
        <time>2022-05-17T08:09:43Z</time>
      </trkpt>
      <trkpt lat="43.66288" lon="3.33625">
        <ele>157.8</ele>
        <time>2022-05-17T08:09:50Z</time>
      </trkpt>
      <trkpt lat="43.66291" lon="3.33625">
        <ele>158</ele>
        <time>2022-05-17T08:09:52Z</time>
      </trkpt>
      <trkpt lat="43.66313" lon="3.33624">
        <ele>158.8</ele>
        <time>2022-05-17T08:10:05Z</time>
      </trkpt>
      <trkpt lat="43.66317" lon="3.33624">
        <ele>158.8</ele>
        <time>2022-05-17T08:10:07Z</time>
      </trkpt>
      <trkpt lat="43.6633" lon="3.33622">
        <ele>159.2</ele>
        <time>2022-05-17T08:10:14Z</time>
      </trkpt>
      <trkpt lat="43.6635" lon="3.33616">
        <ele>159.2</ele>
        <time>2022-05-17T08:10:22Z</time>
      </trkpt>
      <trkpt lat="43.66365" lon="3.33613">
        <ele>159.2</ele>
        <time>2022-05-17T08:10:29Z</time>
      </trkpt>
      <trkpt lat="43.66366" lon="3.33612">
        <ele>159.2</ele>
        <time>2022-05-17T08:10:30Z</time>
      </trkpt>
      <trkpt lat="43.66378" lon="3.33607">
        <ele>159.6</ele>
        <time>2022-05-17T08:10:36Z</time>
      </trkpt>
      <trkpt lat="43.66386" lon="3.33602">
        <ele>159.8</ele>
        <time>2022-05-17T08:10:40Z</time>
      </trkpt>
      <trkpt lat="43.66391" lon="3.33601">
        <ele>159.8</ele>
        <time>2022-05-17T08:10:42Z</time>
      </trkpt>
      <trkpt lat="43.66394" lon="3.33604">
        <ele>159.8</ele>
        <time>2022-05-17T08:10:44Z</time>
      </trkpt>
      <trkpt lat="43.66395" lon="3.33608">
        <ele>159.8</ele>
        <time>2022-05-17T08:10:46Z</time>
      </trkpt>
      <trkpt lat="43.66395" lon="3.3361">
        <ele>159.6</ele>
        <time>2022-05-17T08:10:51Z</time>
      </trkpt>
      <trkpt lat="43.66394" lon="3.3361">
        <ele>159.4</ele>
        <time>2022-05-17T08:11:01Z</time>
      </trkpt>
      <trkpt lat="43.66389" lon="3.33617">
        <ele>159.4</ele>
        <time>2022-05-17T08:11:03Z</time>
      </trkpt>
      <trkpt lat="43.66386" lon="3.3363">
        <ele>159.2</ele>
        <time>2022-05-17T08:11:05Z</time>
      </trkpt>
      <trkpt lat="43.66385" lon="3.33638">
        <ele>159.2</ele>
        <time>2022-05-17T08:11:06Z</time>
      </trkpt>
      <trkpt lat="43.66384" lon="3.33658">
        <ele>158.6</ele>
        <time>2022-05-17T08:11:08Z</time>
      </trkpt>
      <trkpt lat="43.66384" lon="3.33691">
        <ele>158</ele>
        <time>2022-05-17T08:11:11Z</time>
      </trkpt>
      <trkpt lat="43.66386" lon="3.33702">
        <ele>157.4</ele>
        <time>2022-05-17T08:11:12Z</time>
      </trkpt>
      <trkpt lat="43.66386" lon="3.33713">
        <ele>157.2</ele>
        <time>2022-05-17T08:11:13Z</time>
      </trkpt>
      <trkpt lat="43.66385" lon="3.33725">
        <ele>156.2</ele>
        <time>2022-05-17T08:11:14Z</time>
      </trkpt>
      <trkpt lat="43.66382" lon="3.33736">
        <ele>155.8</ele>
        <time>2022-05-17T08:11:15Z</time>
      </trkpt>
      <trkpt lat="43.66377" lon="3.33747">
        <ele>154.8</ele>
        <time>2022-05-17T08:11:16Z</time>
      </trkpt>
      <trkpt lat="43.66373" lon="3.33759">
        <ele>154.4</ele>
        <time>2022-05-17T08:11:17Z</time>
      </trkpt>
      <trkpt lat="43.66369" lon="3.33772">
        <ele>153.8</ele>
        <time>2022-05-17T08:11:18Z</time>
      </trkpt>
      <trkpt lat="43.66367" lon="3.33783">
        <ele>153.2</ele>
        <time>2022-05-17T08:11:19Z</time>
      </trkpt>
      <trkpt lat="43.66364" lon="3.338">
        <ele>152</ele>
        <time>2022-05-17T08:11:20Z</time>
      </trkpt>
      <trkpt lat="43.66362" lon="3.33814">
        <ele>151.2</ele>
        <time>2022-05-17T08:11:21Z</time>
      </trkpt>
      <trkpt lat="43.66358" lon="3.33826">
        <ele>151</ele>
        <time>2022-05-17T08:11:22Z</time>
      </trkpt>
      <trkpt lat="43.66354" lon="3.33833">
        <ele>150.4</ele>
        <time>2022-05-17T08:11:23Z</time>
      </trkpt>
      <trkpt lat="43.66341" lon="3.33841">
        <ele>149.2</ele>
        <time>2022-05-17T08:11:25Z</time>
      </trkpt>
      <trkpt lat="43.66333" lon="3.33846">
        <ele>148.8</ele>
        <time>2022-05-17T08:11:26Z</time>
      </trkpt>
      <trkpt lat="43.66328" lon="3.33852">
        <ele>147.4</ele>
        <time>2022-05-17T08:11:27Z</time>
      </trkpt>
      <trkpt lat="43.66324" lon="3.3386">
        <ele>146.8</ele>
        <time>2022-05-17T08:11:28Z</time>
      </trkpt>
      <trkpt lat="43.66319" lon="3.33866">
        <ele>146</ele>
        <time>2022-05-17T08:11:29Z</time>
      </trkpt>
      <trkpt lat="43.66314" lon="3.33871">
        <ele>145.8</ele>
        <time>2022-05-17T08:11:30Z</time>
      </trkpt>
      <trkpt lat="43.66299" lon="3.33877">
        <ele>144.8</ele>
        <time>2022-05-17T08:11:33Z</time>
      </trkpt>
      <trkpt lat="43.66286" lon="3.33889">
        <ele>144.2</ele>
        <time>2022-05-17T08:11:37Z</time>
      </trkpt>
      <trkpt lat="43.66278" lon="3.33911">
        <ele>144.2</ele>
        <time>2022-05-17T08:11:43Z</time>
      </trkpt>
      <trkpt lat="43.66264" lon="3.33957">
        <ele>143.8</ele>
        <time>2022-05-17T08:11:52Z</time>
      </trkpt>
      <trkpt lat="43.66256" lon="3.33965">
        <ele>143.6</ele>
        <time>2022-05-17T08:11:54Z</time>
      </trkpt>
      <trkpt lat="43.66252" lon="3.33966">
        <ele>143.4</ele>
        <time>2022-05-17T08:11:55Z</time>
      </trkpt>
      <trkpt lat="43.66239" lon="3.33962">
        <ele>142.8</ele>
        <time>2022-05-17T08:11:58Z</time>
      </trkpt>
      <trkpt lat="43.66235" lon="3.33959">
        <ele>142.6</ele>
        <time>2022-05-17T08:11:59Z</time>
      </trkpt>
      <trkpt lat="43.66216" lon="3.33949">
        <ele>141.6</ele>
        <time>2022-05-17T08:12:04Z</time>
      </trkpt>
      <trkpt lat="43.66209" lon="3.33946">
        <ele>141.4</ele>
        <time>2022-05-17T08:12:06Z</time>
      </trkpt>
      <trkpt lat="43.66197" lon="3.3395">
        <ele>141</ele>
        <time>2022-05-17T08:12:09Z</time>
      </trkpt>
      <trkpt lat="43.66187" lon="3.3396">
        <ele>140.4</ele>
        <time>2022-05-17T08:12:12Z</time>
      </trkpt>
      <trkpt lat="43.66179" lon="3.33969">
        <ele>140</ele>
        <time>2022-05-17T08:12:15Z</time>
      </trkpt>
      <trkpt lat="43.6617" lon="3.33982">
        <ele>139.6</ele>
        <time>2022-05-17T08:12:21Z</time>
      </trkpt>
      <trkpt lat="43.66161" lon="3.33991">
        <ele>139.6</ele>
        <time>2022-05-17T08:12:27Z</time>
      </trkpt>
      <trkpt lat="43.66152" lon="3.34003">
        <ele>140</ele>
        <time>2022-05-17T08:12:35Z</time>
      </trkpt>
      <trkpt lat="43.66146" lon="3.34012">
        <ele>140.8</ele>
        <time>2022-05-17T08:12:43Z</time>
      </trkpt>
      <trkpt lat="43.66145" lon="3.34014">
        <ele>140.8</ele>
        <time>2022-05-17T08:12:49Z</time>
      </trkpt>
      <trkpt lat="43.66143" lon="3.34017">
        <ele>140.6</ele>
        <time>2022-05-17T08:13:52Z</time>
      </trkpt>
      <trkpt lat="43.66141" lon="3.34019">
        <ele>140.6</ele>
        <time>2022-05-17T08:13:54Z</time>
      </trkpt>
      <trkpt lat="43.66127" lon="3.34031">
        <ele>140.4</ele>
        <time>2022-05-17T08:14:01Z</time>
      </trkpt>
      <trkpt lat="43.66127" lon="3.34033">
        <ele>140.2</ele>
        <time>2022-05-17T08:14:02Z</time>
      </trkpt>
      <trkpt lat="43.66127" lon="3.34034">
        <ele>140.2</ele>
        <time>2022-05-17T08:14:05Z</time>
      </trkpt>
      <trkpt lat="43.66127" lon="3.34034">
        <ele>140</ele>
        <time>2022-05-17T08:14:18Z</time>
      </trkpt>
      <trkpt lat="43.66127" lon="3.34034">
        <ele>140</ele>
        <time>2022-05-17T08:14:39Z</time>
      </trkpt>
      <trkpt lat="43.66127" lon="3.34034">
        <ele>140.2</ele>
        <time>2022-05-17T08:15:06Z</time>
      </trkpt>
      <trkpt lat="43.66131" lon="3.34031">
        <ele>140.2</ele>
        <time>2022-05-17T08:15:09Z</time>
      </trkpt>
      <trkpt lat="43.66139" lon="3.34021">
        <ele>140.2</ele>
        <time>2022-05-17T08:15:16Z</time>
      </trkpt>
      <trkpt lat="43.66152" lon="3.34004">
        <ele>141</ele>
        <time>2022-05-17T08:15:25Z</time>
      </trkpt>
      <trkpt lat="43.66166" lon="3.33989">
        <ele>140.8</ele>
        <time>2022-05-17T08:15:31Z</time>
      </trkpt>
      <trkpt lat="43.66175" lon="3.33985">
        <ele>140.2</ele>
        <time>2022-05-17T08:15:36Z</time>
      </trkpt>
      <trkpt lat="43.66181" lon="3.33997">
        <ele>139.8</ele>
        <time>2022-05-17T08:15:42Z</time>
      </trkpt>
      <trkpt lat="43.66188" lon="3.34013">
        <ele>141.2</ele>
        <time>2022-05-17T08:15:50Z</time>
      </trkpt>
      <trkpt lat="43.66189" lon="3.34015">
        <ele>141.4</ele>
        <time>2022-05-17T08:15:51Z</time>
      </trkpt>
      <trkpt lat="43.66193" lon="3.34025">
        <ele>142.4</ele>
        <time>2022-05-17T08:15:56Z</time>
      </trkpt>
      <trkpt lat="43.66194" lon="3.34027">
        <ele>142.8</ele>
        <time>2022-05-17T08:15:58Z</time>
      </trkpt>
      <trkpt lat="43.66194" lon="3.34028">
        <ele>143</ele>
        <time>2022-05-17T08:15:59Z</time>
      </trkpt>
      <trkpt lat="43.66193" lon="3.34029">
        <ele>143.6</ele>
        <time>2022-05-17T08:16:02Z</time>
      </trkpt>
      <trkpt lat="43.66193" lon="3.34029">
        <ele>144</ele>
        <time>2022-05-17T08:16:05Z</time>
      </trkpt>
      <trkpt lat="43.66193" lon="3.34029">
        <ele>144.2</ele>
        <time>2022-05-17T08:16:15Z</time>
      </trkpt>
      <trkpt lat="43.66194" lon="3.34028">
        <ele>144.2</ele>
        <time>2022-05-17T08:16:16Z</time>
      </trkpt>
      <trkpt lat="43.66191" lon="3.34022">
        <ele>144</ele>
        <time>2022-05-17T08:16:19Z</time>
      </trkpt>
      <trkpt lat="43.66185" lon="3.34005">
        <ele>143.4</ele>
        <time>2022-05-17T08:16:25Z</time>
      </trkpt>
      <trkpt lat="43.6618" lon="3.33992">
        <ele>142.8</ele>
        <time>2022-05-17T08:16:29Z</time>
      </trkpt>
      <trkpt lat="43.66179" lon="3.33986">
        <ele>142.6</ele>
        <time>2022-05-17T08:16:30Z</time>
      </trkpt>
      <trkpt lat="43.66179" lon="3.33979">
        <ele>142.4</ele>
        <time>2022-05-17T08:16:31Z</time>
      </trkpt>
      <trkpt lat="43.66185" lon="3.33967">
        <ele>141.8</ele>
        <time>2022-05-17T08:16:33Z</time>
      </trkpt>
      <trkpt lat="43.66189" lon="3.33962">
        <ele>141.4</ele>
        <time>2022-05-17T08:16:34Z</time>
      </trkpt>
      <trkpt lat="43.66204" lon="3.33948">
        <ele>140.6</ele>
        <time>2022-05-17T08:16:38Z</time>
      </trkpt>
      <trkpt lat="43.66207" lon="3.33947">
        <ele>140.4</ele>
        <time>2022-05-17T08:16:39Z</time>
      </trkpt>
      <trkpt lat="43.66215" lon="3.33948">
        <ele>140.2</ele>
        <time>2022-05-17T08:16:41Z</time>
      </trkpt>
      <trkpt lat="43.66236" lon="3.33959">
        <ele>140.4</ele>
        <time>2022-05-17T08:16:48Z</time>
      </trkpt>
      <trkpt lat="43.66256" lon="3.33965">
        <ele>141.2</ele>
        <time>2022-05-17T08:16:54Z</time>
      </trkpt>
      <trkpt lat="43.66265" lon="3.33957">
        <ele>141.4</ele>
        <time>2022-05-17T08:16:57Z</time>
      </trkpt>
      <trkpt lat="43.66267" lon="3.33954">
        <ele>141.6</ele>
        <time>2022-05-17T08:16:58Z</time>
      </trkpt>
      <trkpt lat="43.66275" lon="3.33929">
        <ele>142</ele>
        <time>2022-05-17T08:17:05Z</time>
      </trkpt>
      <trkpt lat="43.66281" lon="3.33915">
        <ele>142.6</ele>
        <time>2022-05-17T08:17:10Z</time>
      </trkpt>
      <trkpt lat="43.66282" lon="3.33911">
        <ele>142.8</ele>
        <time>2022-05-17T08:17:12Z</time>
      </trkpt>
      <trkpt lat="43.66279" lon="3.3391">
        <ele>143</ele>
        <time>2022-05-17T08:17:14Z</time>
      </trkpt>
      <trkpt lat="43.66277" lon="3.3392">
        <ele>143</ele>
        <time>2022-05-17T08:17:18Z</time>
      </trkpt>
      <trkpt lat="43.66277" lon="3.33923">
        <ele>143</ele>
        <time>2022-05-17T08:17:19Z</time>
      </trkpt>
      <trkpt lat="43.66281" lon="3.33925">
        <ele>143</ele>
        <time>2022-05-17T08:17:21Z</time>
      </trkpt>
      <trkpt lat="43.66295" lon="3.33932">
        <ele>143.6</ele>
        <time>2022-05-17T08:17:28Z</time>
      </trkpt>
      <trkpt lat="43.66297" lon="3.33933">
        <ele>144</ele>
        <time>2022-05-17T08:17:29Z</time>
      </trkpt>
      <trkpt lat="43.66302" lon="3.33937">
        <ele>144.8</ele>
        <time>2022-05-17T08:17:32Z</time>
      </trkpt>
      <trkpt lat="43.66308" lon="3.3394">
        <ele>146</ele>
        <time>2022-05-17T08:17:36Z</time>
      </trkpt>
      <trkpt lat="43.66315" lon="3.33943">
        <ele>147</ele>
        <time>2022-05-17T08:17:41Z</time>
      </trkpt>
      <trkpt lat="43.66319" lon="3.33944">
        <ele>147.6</ele>
        <time>2022-05-17T08:17:44Z</time>
      </trkpt>
      <trkpt lat="43.66319" lon="3.33944">
        <ele>148.2</ele>
        <time>2022-05-17T08:17:47Z</time>
      </trkpt>
      <trkpt lat="43.66319" lon="3.33944">
        <ele>148.4</ele>
        <time>2022-05-17T08:17:48Z</time>
      </trkpt>
      <trkpt lat="43.66324" lon="3.33945">
        <ele>148.6</ele>
        <time>2022-05-17T08:17:52Z</time>
      </trkpt>
      <trkpt lat="43.6634" lon="3.33947">
        <ele>149.6</ele>
        <time>2022-05-17T08:17:59Z</time>
      </trkpt>
      <trkpt lat="43.6635" lon="3.33948">
        <ele>150.8</ele>
        <time>2022-05-17T08:18:06Z</time>
      </trkpt>
      <trkpt lat="43.6635" lon="3.33948">
        <ele>151.4</ele>
        <time>2022-05-17T08:18:27Z</time>
      </trkpt>
      <trkpt lat="43.66351" lon="3.33948">
        <ele>151.4</ele>
        <time>2022-05-17T08:20:33Z</time>
      </trkpt>
      <trkpt lat="43.66357" lon="3.33948">
        <ele>151.4</ele>
        <time>2022-05-17T08:20:36Z</time>
      </trkpt>
      <trkpt lat="43.66372" lon="3.33947">
        <ele>151.2</ele>
        <time>2022-05-17T08:20:41Z</time>
      </trkpt>
      <trkpt lat="43.6639" lon="3.33947">
        <ele>151</ele>
        <time>2022-05-17T08:20:46Z</time>
      </trkpt>
      <trkpt lat="43.66396" lon="3.33938">
        <ele>150.2</ele>
        <time>2022-05-17T08:20:49Z</time>
      </trkpt>
      <trkpt lat="43.66399" lon="3.33933">
        <ele>150</ele>
        <time>2022-05-17T08:20:51Z</time>
      </trkpt>
      <trkpt lat="43.66407" lon="3.3392">
        <ele>150.2</ele>
        <time>2022-05-17T08:20:57Z</time>
      </trkpt>
      <trkpt lat="43.66413" lon="3.33911">
        <ele>151.4</ele>
        <time>2022-05-17T08:21:02Z</time>
      </trkpt>
      <trkpt lat="43.66415" lon="3.33907">
        <ele>151.6</ele>
        <time>2022-05-17T08:21:04Z</time>
      </trkpt>
      <trkpt lat="43.6642" lon="3.33899">
        <ele>152.6</ele>
        <time>2022-05-17T08:21:08Z</time>
      </trkpt>
      <trkpt lat="43.66422" lon="3.33894">
        <ele>153</ele>
        <time>2022-05-17T08:21:11Z</time>
      </trkpt>
      <trkpt lat="43.66424" lon="3.33891">
        <ele>153.8</ele>
        <time>2022-05-17T08:21:13Z</time>
      </trkpt>
      <trkpt lat="43.66429" lon="3.33889">
        <ele>155</ele>
        <time>2022-05-17T08:21:17Z</time>
      </trkpt>
      <trkpt lat="43.6643" lon="3.33889">
        <ele>155</ele>
        <time>2022-05-17T08:21:18Z</time>
      </trkpt>
      <trkpt lat="43.6644" lon="3.33886">
        <ele>156</ele>
        <time>2022-05-17T08:21:24Z</time>
      </trkpt>
      <trkpt lat="43.66443" lon="3.33884">
        <ele>156.2</ele>
        <time>2022-05-17T08:21:26Z</time>
      </trkpt>
      <trkpt lat="43.6646" lon="3.33885">
        <ele>156.4</ele>
        <time>2022-05-17T08:21:33Z</time>
      </trkpt>
      <trkpt lat="43.66467" lon="3.33884">
        <ele>156.4</ele>
        <time>2022-05-17T08:21:35Z</time>
      </trkpt>
      <trkpt lat="43.66472" lon="3.33879">
        <ele>156.6</ele>
        <time>2022-05-17T08:21:37Z</time>
      </trkpt>
      <trkpt lat="43.66484" lon="3.33867">
        <ele>156.2</ele>
        <time>2022-05-17T08:21:43Z</time>
      </trkpt>
      <trkpt lat="43.66492" lon="3.33856">
        <ele>156.6</ele>
        <time>2022-05-17T08:21:49Z</time>
      </trkpt>
      <trkpt lat="43.66499" lon="3.33849">
        <ele>157.2</ele>
        <time>2022-05-17T08:21:54Z</time>
      </trkpt>
      <trkpt lat="43.66501" lon="3.33848">
        <ele>157.2</ele>
        <time>2022-05-17T08:21:55Z</time>
      </trkpt>
      <trkpt lat="43.66509" lon="3.33844">
        <ele>158</ele>
        <time>2022-05-17T08:22:00Z</time>
      </trkpt>
      <trkpt lat="43.6651" lon="3.33843">
        <ele>158.2</ele>
        <time>2022-05-17T08:22:01Z</time>
      </trkpt>
      <trkpt lat="43.66517" lon="3.33836">
        <ele>159.4</ele>
        <time>2022-05-17T08:22:06Z</time>
      </trkpt>
      <trkpt lat="43.6652" lon="3.33834">
        <ele>160</ele>
        <time>2022-05-17T08:22:08Z</time>
      </trkpt>
      <trkpt lat="43.66521" lon="3.33834">
        <ele>160.4</ele>
        <time>2022-05-17T08:22:09Z</time>
      </trkpt>
      <trkpt lat="43.66528" lon="3.33831">
        <ele>161.4</ele>
        <time>2022-05-17T08:22:14Z</time>
      </trkpt>
      <trkpt lat="43.66529" lon="3.3383">
        <ele>161.4</ele>
        <time>2022-05-17T08:22:15Z</time>
      </trkpt>
      <trkpt lat="43.66533" lon="3.33827">
        <ele>162.4</ele>
        <time>2022-05-17T08:22:18Z</time>
      </trkpt>
      <trkpt lat="43.66538" lon="3.33824">
        <ele>163.2</ele>
        <time>2022-05-17T08:22:22Z</time>
      </trkpt>
      <trkpt lat="43.6654" lon="3.33825">
        <ele>163.4</ele>
        <time>2022-05-17T08:22:23Z</time>
      </trkpt>
      <trkpt lat="43.66541" lon="3.33825">
        <ele>164</ele>
        <time>2022-05-17T08:22:24Z</time>
      </trkpt>
      <trkpt lat="43.66546" lon="3.33828">
        <ele>164.6</ele>
        <time>2022-05-17T08:22:27Z</time>
      </trkpt>
      <trkpt lat="43.66551" lon="3.33829">
        <ele>165.6</ele>
        <time>2022-05-17T08:22:30Z</time>
      </trkpt>
      <trkpt lat="43.66552" lon="3.3383">
        <ele>165.8</ele>
        <time>2022-05-17T08:22:31Z</time>
      </trkpt>
      <trkpt lat="43.66556" lon="3.33831">
        <ele>166.6</ele>
        <time>2022-05-17T08:22:34Z</time>
      </trkpt>
      <trkpt lat="43.66558" lon="3.3383">
        <ele>166.8</ele>
        <time>2022-05-17T08:22:35Z</time>
      </trkpt>
      <trkpt lat="43.66559" lon="3.3383">
        <ele>166.8</ele>
        <time>2022-05-17T08:22:36Z</time>
      </trkpt>
      <trkpt lat="43.66562" lon="3.33829">
        <ele>167.8</ele>
        <time>2022-05-17T08:22:40Z</time>
      </trkpt>
      <trkpt lat="43.66562" lon="3.33829">
        <ele>167.8</ele>
        <time>2022-05-17T08:22:41Z</time>
      </trkpt>
      <trkpt lat="43.66562" lon="3.33829">
        <ele>168.4</ele>
        <time>2022-05-17T08:22:48Z</time>
      </trkpt>
      <trkpt lat="43.66562" lon="3.33829">
        <ele>168.8</ele>
        <time>2022-05-17T08:22:59Z</time>
      </trkpt>
      <trkpt lat="43.66567" lon="3.33829">
        <ele>169.2</ele>
        <time>2022-05-17T08:23:27Z</time>
      </trkpt>
      <trkpt lat="43.66573" lon="3.33828">
        <ele>170</ele>
        <time>2022-05-17T08:23:33Z</time>
      </trkpt>
      <trkpt lat="43.66574" lon="3.33829">
        <ele>170.4</ele>
        <time>2022-05-17T08:23:37Z</time>
      </trkpt>
      <trkpt lat="43.66577" lon="3.33827">
        <ele>171.4</ele>
        <time>2022-05-17T08:23:42Z</time>
      </trkpt>
      <trkpt lat="43.66579" lon="3.33827">
        <ele>172</ele>
        <time>2022-05-17T08:23:45Z</time>
      </trkpt>
      <trkpt lat="43.6658" lon="3.33827">
        <ele>172.4</ele>
        <time>2022-05-17T08:23:48Z</time>
      </trkpt>
      <trkpt lat="43.66585" lon="3.33827">
        <ele>172.8</ele>
        <time>2022-05-17T08:23:53Z</time>
      </trkpt>
      <trkpt lat="43.66587" lon="3.33826">
        <ele>173.4</ele>
        <time>2022-05-17T08:23:59Z</time>
      </trkpt>
      <trkpt lat="43.66588" lon="3.33826">
        <ele>173.4</ele>
        <time>2022-05-17T08:24:00Z</time>
      </trkpt>
      <trkpt lat="43.66596" lon="3.33823">
        <ele>174.4</ele>
        <time>2022-05-17T08:24:09Z</time>
      </trkpt>
      <trkpt lat="43.66597" lon="3.33823">
        <ele>174.6</ele>
        <time>2022-05-17T08:24:10Z</time>
      </trkpt>
      <trkpt lat="43.66606" lon="3.33823">
        <ele>175.6</ele>
        <time>2022-05-17T08:24:19Z</time>
      </trkpt>
      <trkpt lat="43.6661" lon="3.3382">
        <ele>176.2</ele>
        <time>2022-05-17T08:24:26Z</time>
      </trkpt>
      <trkpt lat="43.66616" lon="3.33819">
        <ele>176.4</ele>
        <time>2022-05-17T08:24:36Z</time>
      </trkpt>
      <trkpt lat="43.66621" lon="3.3382">
        <ele>176.8</ele>
        <time>2022-05-17T08:24:42Z</time>
      </trkpt>
      <trkpt lat="43.66623" lon="3.3382">
        <ele>177.4</ele>
        <time>2022-05-17T08:24:45Z</time>
      </trkpt>
      <trkpt lat="43.66627" lon="3.3382">
        <ele>178</ele>
        <time>2022-05-17T08:24:49Z</time>
      </trkpt>
      <trkpt lat="43.66632" lon="3.3382">
        <ele>178.4</ele>
        <time>2022-05-17T08:24:53Z</time>
      </trkpt>
      <trkpt lat="43.6664" lon="3.3382">
        <ele>179</ele>
        <time>2022-05-17T08:25:01Z</time>
      </trkpt>
      <trkpt lat="43.66643" lon="3.33822">
        <ele>179.2</ele>
        <time>2022-05-17T08:25:04Z</time>
      </trkpt>
      <trkpt lat="43.66644" lon="3.33822">
        <ele>179.6</ele>
        <time>2022-05-17T08:25:08Z</time>
      </trkpt>
      <trkpt lat="43.66645" lon="3.33822">
        <ele>180</ele>
        <time>2022-05-17T08:25:21Z</time>
      </trkpt>
      <trkpt lat="43.66645" lon="3.33822">
        <ele>180.2</ele>
        <time>2022-05-17T08:26:47Z</time>
      </trkpt>
      <trkpt lat="43.66645" lon="3.33822">
        <ele>180.2</ele>
        <time>2022-05-17T08:27:15Z</time>
      </trkpt>
      <trkpt lat="43.66645" lon="3.33822">
        <ele>181.2</ele>
        <time>2022-05-17T08:29:09Z</time>
      </trkpt>
      <trkpt lat="43.66649" lon="3.33817">
        <ele>181.2</ele>
        <time>2022-05-17T08:29:11Z</time>
      </trkpt>
      <trkpt lat="43.66659" lon="3.33798">
        <ele>181.2</ele>
        <time>2022-05-17T08:29:18Z</time>
      </trkpt>
      <trkpt lat="43.66666" lon="3.3379">
        <ele>181.4</ele>
        <time>2022-05-17T08:29:23Z</time>
      </trkpt>
      <trkpt lat="43.66669" lon="3.33786">
        <ele>181.6</ele>
        <time>2022-05-17T08:29:25Z</time>
      </trkpt>
      <trkpt lat="43.66682" lon="3.33772">
        <ele>182.4</ele>
        <time>2022-05-17T08:29:34Z</time>
      </trkpt>
      <trkpt lat="43.66689" lon="3.33762">
        <ele>183.8</ele>
        <time>2022-05-17T08:29:40Z</time>
      </trkpt>
      <trkpt lat="43.66695" lon="3.33742">
        <ele>184.6</ele>
        <time>2022-05-17T08:29:48Z</time>
      </trkpt>
      <trkpt lat="43.66696" lon="3.33739">
        <ele>184.8</ele>
        <time>2022-05-17T08:29:49Z</time>
      </trkpt>
      <trkpt lat="43.66706" lon="3.33728">
        <ele>185.2</ele>
        <time>2022-05-17T08:29:54Z</time>
      </trkpt>
      <trkpt lat="43.66721" lon="3.33712">
        <ele>185.8</ele>
        <time>2022-05-17T08:30:03Z</time>
      </trkpt>
      <trkpt lat="43.66736" lon="3.33695">
        <ele>186.2</ele>
        <time>2022-05-17T08:30:10Z</time>
      </trkpt>
      <trkpt lat="43.66754" lon="3.3368">
        <ele>186</ele>
        <time>2022-05-17T08:30:14Z</time>
      </trkpt>
      <trkpt lat="43.66758" lon="3.33676">
        <ele>186</ele>
        <time>2022-05-17T08:30:15Z</time>
      </trkpt>
      <trkpt lat="43.66768" lon="3.33658">
        <ele>185.2</ele>
        <time>2022-05-17T08:30:18Z</time>
      </trkpt>
      <trkpt lat="43.66773" lon="3.33646">
        <ele>184.6</ele>
        <time>2022-05-17T08:30:20Z</time>
      </trkpt>
      <trkpt lat="43.66774" lon="3.3364">
        <ele>183.4</ele>
        <time>2022-05-17T08:30:22Z</time>
      </trkpt>
      <trkpt lat="43.66774" lon="3.33623">
        <ele>182.4</ele>
        <time>2022-05-17T08:30:28Z</time>
      </trkpt>
      <trkpt lat="43.66779" lon="3.33596">
        <ele>182.2</ele>
        <time>2022-05-17T08:30:36Z</time>
      </trkpt>
      <trkpt lat="43.66789" lon="3.33576">
        <ele>182.4</ele>
        <time>2022-05-17T08:30:44Z</time>
      </trkpt>
      <trkpt lat="43.6679" lon="3.33575">
        <ele>182.4</ele>
        <time>2022-05-17T08:30:45Z</time>
      </trkpt>
      <trkpt lat="43.66794" lon="3.33573">
        <ele>182.2</ele>
        <time>2022-05-17T08:30:48Z</time>
      </trkpt>
      <trkpt lat="43.66794" lon="3.33573">
        <ele>182.2</ele>
        <time>2022-05-17T08:30:52Z</time>
      </trkpt>
      <trkpt lat="43.66794" lon="3.33573">
        <ele>181.6</ele>
        <time>2022-05-17T08:31:24Z</time>
      </trkpt>
      <trkpt lat="43.66799" lon="3.3357">
        <ele>182</ele>
        <time>2022-05-17T08:32:47Z</time>
      </trkpt>
      <trkpt lat="43.66811" lon="3.33569">
        <ele>182</ele>
        <time>2022-05-17T08:32:53Z</time>
      </trkpt>
      <trkpt lat="43.66826" lon="3.33565">
        <ele>182.6</ele>
        <time>2022-05-17T08:33:01Z</time>
      </trkpt>
      <trkpt lat="43.66829" lon="3.33564">
        <ele>183.2</ele>
        <time>2022-05-17T08:33:03Z</time>
      </trkpt>
      <trkpt lat="43.66833" lon="3.33563">
        <ele>184.2</ele>
        <time>2022-05-17T08:33:06Z</time>
      </trkpt>
      <trkpt lat="43.6685" lon="3.33562">
        <ele>185</ele>
        <time>2022-05-17T08:33:16Z</time>
      </trkpt>
      <trkpt lat="43.66865" lon="3.33562">
        <ele>185</ele>
        <time>2022-05-17T08:33:21Z</time>
      </trkpt>
      <trkpt lat="43.66882" lon="3.33559">
        <ele>185</ele>
        <time>2022-05-17T08:33:26Z</time>
      </trkpt>
      <trkpt lat="43.66885" lon="3.33557">
        <ele>185</ele>
        <time>2022-05-17T08:33:27Z</time>
      </trkpt>
      <trkpt lat="43.66894" lon="3.33555">
        <ele>184.8</ele>
        <time>2022-05-17T08:33:30Z</time>
      </trkpt>
      <trkpt lat="43.66914" lon="3.33552">
        <ele>184.6</ele>
        <time>2022-05-17T08:33:37Z</time>
      </trkpt>
      <trkpt lat="43.6693" lon="3.33553">
        <ele>184.4</ele>
        <time>2022-05-17T08:33:43Z</time>
      </trkpt>
      <trkpt lat="43.66953" lon="3.33554">
        <ele>184.2</ele>
        <time>2022-05-17T08:33:51Z</time>
      </trkpt>
      <trkpt lat="43.66967" lon="3.33556">
        <ele>184.2</ele>
        <time>2022-05-17T08:33:56Z</time>
      </trkpt>
      <trkpt lat="43.6698" lon="3.33557">
        <ele>184.2</ele>
        <time>2022-05-17T08:33:59Z</time>
      </trkpt>
      <trkpt lat="43.66989" lon="3.33557">
        <ele>184</ele>
        <time>2022-05-17T08:34:01Z</time>
      </trkpt>
      <trkpt lat="43.67011" lon="3.33564">
        <ele>183.4</ele>
        <time>2022-05-17T08:34:06Z</time>
      </trkpt>
      <trkpt lat="43.67017" lon="3.33562">
        <ele>183.2</ele>
        <time>2022-05-17T08:34:08Z</time>
      </trkpt>
      <trkpt lat="43.67019" lon="3.33561">
        <ele>183.2</ele>
        <time>2022-05-17T08:34:09Z</time>
      </trkpt>
      <trkpt lat="43.67019" lon="3.33556">
        <ele>183</ele>
        <time>2022-05-17T08:34:11Z</time>
      </trkpt>
      <trkpt lat="43.67019" lon="3.33552">
        <ele>182.8</ele>
        <time>2022-05-17T08:34:13Z</time>
      </trkpt>
      <trkpt lat="43.67019" lon="3.33548">
        <ele>181.8</ele>
        <time>2022-05-17T08:34:15Z</time>
      </trkpt>
      <trkpt lat="43.67022" lon="3.33539">
        <ele>180.6</ele>
        <time>2022-05-17T08:34:19Z</time>
      </trkpt>
      <trkpt lat="43.6703" lon="3.3353">
        <ele>179.8</ele>
        <time>2022-05-17T08:34:22Z</time>
      </trkpt>
      <trkpt lat="43.67035" lon="3.33528">
        <ele>179</ele>
        <time>2022-05-17T08:34:23Z</time>
      </trkpt>
      <trkpt lat="43.67044" lon="3.33523">
        <ele>177.4</ele>
        <time>2022-05-17T08:34:26Z</time>
      </trkpt>
      <trkpt lat="43.67047" lon="3.33521">
        <ele>177.2</ele>
        <time>2022-05-17T08:34:27Z</time>
      </trkpt>
      <trkpt lat="43.67055" lon="3.33521">
        <ele>176.4</ele>
        <time>2022-05-17T08:34:30Z</time>
      </trkpt>
      <trkpt lat="43.67058" lon="3.33521">
        <ele>176.2</ele>
        <time>2022-05-17T08:34:31Z</time>
      </trkpt>
      <trkpt lat="43.67061" lon="3.33522">
        <ele>174.8</ele>
        <time>2022-05-17T08:34:33Z</time>
      </trkpt>
      <trkpt lat="43.67061" lon="3.33522">
        <ele>173.8</ele>
        <time>2022-05-17T08:34:35Z</time>
      </trkpt>
      <trkpt lat="43.67061" lon="3.33522">
        <ele>172.6</ele>
        <time>2022-05-17T08:34:37Z</time>
      </trkpt>
      <trkpt lat="43.67061" lon="3.33522">
        <ele>171.6</ele>
        <time>2022-05-17T08:34:52Z</time>
      </trkpt>
      <trkpt lat="43.67069" lon="3.33521">
        <ele>171.2</ele>
        <time>2022-05-17T08:35:42Z</time>
      </trkpt>
      <trkpt lat="43.67081" lon="3.33521">
        <ele>170.4</ele>
        <time>2022-05-17T08:35:46Z</time>
      </trkpt>
      <trkpt lat="43.67084" lon="3.33521">
        <ele>170.2</ele>
        <time>2022-05-17T08:35:47Z</time>
      </trkpt>
      <trkpt lat="43.67094" lon="3.33519">
        <ele>169.2</ele>
        <time>2022-05-17T08:35:50Z</time>
      </trkpt>
      <trkpt lat="43.671" lon="3.33517">
        <ele>169</ele>
        <time>2022-05-17T08:35:53Z</time>
      </trkpt>
      <trkpt lat="43.67111" lon="3.33514">
        <ele>168</ele>
        <time>2022-05-17T08:35:58Z</time>
      </trkpt>
      <trkpt lat="43.67115" lon="3.33512">
        <ele>167.8</ele>
        <time>2022-05-17T08:35:59Z</time>
      </trkpt>
      <trkpt lat="43.67132" lon="3.33506">
        <ele>167</ele>
        <time>2022-05-17T08:36:04Z</time>
      </trkpt>
      <trkpt lat="43.67146" lon="3.33504">
        <ele>165.8</ele>
        <time>2022-05-17T08:36:08Z</time>
      </trkpt>
      <trkpt lat="43.6715" lon="3.33502">
        <ele>165.2</ele>
        <time>2022-05-17T08:36:09Z</time>
      </trkpt>
      <trkpt lat="43.67152" lon="3.33501">
        <ele>164.8</ele>
        <time>2022-05-17T08:36:10Z</time>
      </trkpt>
      <trkpt lat="43.67159" lon="3.33497">
        <ele>163.4</ele>
        <time>2022-05-17T08:36:14Z</time>
      </trkpt>
      <trkpt lat="43.67169" lon="3.33493">
        <ele>162.4</ele>
        <time>2022-05-17T08:36:19Z</time>
      </trkpt>
      <trkpt lat="43.6717" lon="3.33492">
        <ele>162</ele>
        <time>2022-05-17T08:36:20Z</time>
      </trkpt>
      <trkpt lat="43.67176" lon="3.33487">
        <ele>161.4</ele>
        <time>2022-05-17T08:36:24Z</time>
      </trkpt>
      <trkpt lat="43.67179" lon="3.33487">
        <ele>161</ele>
        <time>2022-05-17T08:36:26Z</time>
      </trkpt>
      <trkpt lat="43.67186" lon="3.33494">
        <ele>160.4</ele>
        <time>2022-05-17T08:36:31Z</time>
      </trkpt>
      <trkpt lat="43.67193" lon="3.33499">
        <ele>160.2</ele>
        <time>2022-05-17T08:36:34Z</time>
      </trkpt>
      <trkpt lat="43.67206" lon="3.3351">
        <ele>160.8</ele>
        <time>2022-05-17T08:36:40Z</time>
      </trkpt>
      <trkpt lat="43.67208" lon="3.33511">
        <ele>161</ele>
        <time>2022-05-17T08:36:41Z</time>
      </trkpt>
      <trkpt lat="43.67217" lon="3.33511">
        <ele>161.4</ele>
        <time>2022-05-17T08:36:44Z</time>
      </trkpt>
      <trkpt lat="43.67219" lon="3.33513">
        <ele>161.4</ele>
        <time>2022-05-17T08:36:45Z</time>
      </trkpt>
      <trkpt lat="43.67224" lon="3.33518">
        <ele>161.4</ele>
        <time>2022-05-17T08:36:47Z</time>
      </trkpt>
      <trkpt lat="43.67233" lon="3.33513">
        <ele>161.4</ele>
        <time>2022-05-17T08:36:51Z</time>
      </trkpt>
      <trkpt lat="43.67246" lon="3.33502">
        <ele>160.2</ele>
        <time>2022-05-17T08:36:56Z</time>
      </trkpt>
      <trkpt lat="43.67255" lon="3.335">
        <ele>158.8</ele>
        <time>2022-05-17T08:36:59Z</time>
      </trkpt>
      <trkpt lat="43.67265" lon="3.33503">
        <ele>157.6</ele>
        <time>2022-05-17T08:37:02Z</time>
      </trkpt>
      <trkpt lat="43.67272" lon="3.33513">
        <ele>156.2</ele>
        <time>2022-05-17T08:37:05Z</time>
      </trkpt>
      <trkpt lat="43.67274" lon="3.33517">
        <ele>155.6</ele>
        <time>2022-05-17T08:37:06Z</time>
      </trkpt>
      <trkpt lat="43.67276" lon="3.33519">
        <ele>155.2</ele>
        <time>2022-05-17T08:37:07Z</time>
      </trkpt>
      <trkpt lat="43.67278" lon="3.33521">
        <ele>154.8</ele>
        <time>2022-05-17T08:37:08Z</time>
      </trkpt>
      <trkpt lat="43.6728" lon="3.33522">
        <ele>154.8</ele>
        <time>2022-05-17T08:37:09Z</time>
      </trkpt>
      <trkpt lat="43.67293" lon="3.33528">
        <ele>154.2</ele>
        <time>2022-05-17T08:37:15Z</time>
      </trkpt>
      <trkpt lat="43.67306" lon="3.33543">
        <ele>154.4</ele>
        <time>2022-05-17T08:37:21Z</time>
      </trkpt>
      <trkpt lat="43.67312" lon="3.33553">
        <ele>154.4</ele>
        <time>2022-05-17T08:37:24Z</time>
      </trkpt>
      <trkpt lat="43.67314" lon="3.33554">
        <ele>154.2</ele>
        <time>2022-05-17T08:37:25Z</time>
      </trkpt>
      <trkpt lat="43.67325" lon="3.33558">
        <ele>154.2</ele>
        <time>2022-05-17T08:37:30Z</time>
      </trkpt>
      <trkpt lat="43.67333" lon="3.33569">
        <ele>154.6</ele>
        <time>2022-05-17T08:37:35Z</time>
      </trkpt>
      <trkpt lat="43.67347" lon="3.3359">
        <ele>155</ele>
        <time>2022-05-17T08:37:42Z</time>
      </trkpt>
      <trkpt lat="43.67355" lon="3.33607">
        <ele>155.4</ele>
        <time>2022-05-17T08:37:47Z</time>
      </trkpt>
      <trkpt lat="43.67369" lon="3.33622">
        <ele>156.2</ele>
        <time>2022-05-17T08:37:54Z</time>
      </trkpt>
      <trkpt lat="43.67373" lon="3.33636">
        <ele>157.4</ele>
        <time>2022-05-17T08:37:58Z</time>
      </trkpt>
      <trkpt lat="43.67375" lon="3.33642">
        <ele>158</ele>
        <time>2022-05-17T08:38:00Z</time>
      </trkpt>
      <trkpt lat="43.67379" lon="3.33648">
        <ele>158.4</ele>
        <time>2022-05-17T08:38:04Z</time>
      </trkpt>
      <trkpt lat="43.6739" lon="3.33641">
        <ele>158.4</ele>
        <time>2022-05-17T08:38:08Z</time>
      </trkpt>
      <trkpt lat="43.67401" lon="3.33642">
        <ele>158.2</ele>
        <time>2022-05-17T08:38:12Z</time>
      </trkpt>
      <trkpt lat="43.67413" lon="3.33637">
        <ele>156.4</ele>
        <time>2022-05-17T08:38:18Z</time>
      </trkpt>
      <trkpt lat="43.67426" lon="3.3363">
        <ele>155.2</ele>
        <time>2022-05-17T08:38:23Z</time>
      </trkpt>
      <trkpt lat="43.67433" lon="3.33629">
        <ele>154.2</ele>
        <time>2022-05-17T08:38:26Z</time>
      </trkpt>
      <trkpt lat="43.67437" lon="3.33628">
        <ele>153.6</ele>
        <time>2022-05-17T08:38:28Z</time>
      </trkpt>
      <trkpt lat="43.67441" lon="3.33625">
        <ele>153</ele>
        <time>2022-05-17T08:38:31Z</time>
      </trkpt>
      <trkpt lat="43.67446" lon="3.33624">
        <ele>152.2</ele>
        <time>2022-05-17T08:38:35Z</time>
      </trkpt>
      <trkpt lat="43.67448" lon="3.33624">
        <ele>151.8</ele>
        <time>2022-05-17T08:38:36Z</time>
      </trkpt>
      <trkpt lat="43.67456" lon="3.33624">
        <ele>150.8</ele>
        <time>2022-05-17T08:38:39Z</time>
      </trkpt>
      <trkpt lat="43.67462" lon="3.33624">
        <ele>150</ele>
        <time>2022-05-17T08:38:41Z</time>
      </trkpt>
      <trkpt lat="43.67465" lon="3.33623">
        <ele>149.4</ele>
        <time>2022-05-17T08:38:42Z</time>
      </trkpt>
      <trkpt lat="43.67469" lon="3.33621">
        <ele>148.2</ele>
        <time>2022-05-17T08:38:44Z</time>
      </trkpt>
      <trkpt lat="43.67472" lon="3.3362">
        <ele>147.2</ele>
        <time>2022-05-17T08:38:46Z</time>
      </trkpt>
      <trkpt lat="43.67474" lon="3.33619">
        <ele>146.8</ele>
        <time>2022-05-17T08:38:47Z</time>
      </trkpt>
      <trkpt lat="43.67478" lon="3.33622">
        <ele>145.6</ele>
        <time>2022-05-17T08:38:50Z</time>
      </trkpt>
      <trkpt lat="43.6748" lon="3.33623">
        <ele>145.2</ele>
        <time>2022-05-17T08:38:51Z</time>
      </trkpt>
      <trkpt lat="43.67483" lon="3.33627">
        <ele>144.6</ele>
        <time>2022-05-17T08:38:53Z</time>
      </trkpt>
      <trkpt lat="43.67485" lon="3.33627">
        <ele>144.2</ele>
        <time>2022-05-17T08:38:54Z</time>
      </trkpt>
      <trkpt lat="43.67485" lon="3.33627">
        <ele>143.2</ele>
        <time>2022-05-17T08:38:56Z</time>
      </trkpt>
      <trkpt lat="43.67489" lon="3.33627">
        <ele>142.8</ele>
        <time>2022-05-17T08:39:02Z</time>
      </trkpt>
      <trkpt lat="43.67495" lon="3.33627">
        <ele>143.4</ele>
        <time>2022-05-17T08:39:10Z</time>
      </trkpt>
      <trkpt lat="43.67496" lon="3.33628">
        <ele>143.6</ele>
        <time>2022-05-17T08:39:11Z</time>
      </trkpt>
      <trkpt lat="43.67497" lon="3.3363">
        <ele>144.4</ele>
        <time>2022-05-17T08:39:15Z</time>
      </trkpt>
      <trkpt lat="43.67497" lon="3.3363">
        <ele>144.6</ele>
        <time>2022-05-17T08:39:16Z</time>
      </trkpt>
      <trkpt lat="43.675" lon="3.33635">
        <ele>145</ele>
        <time>2022-05-17T08:39:23Z</time>
      </trkpt>
      <trkpt lat="43.67502" lon="3.33642">
        <ele>145.8</ele>
        <time>2022-05-17T08:39:31Z</time>
      </trkpt>
      <trkpt lat="43.67504" lon="3.33645">
        <ele>146.4</ele>
        <time>2022-05-17T08:39:39Z</time>
      </trkpt>
      <trkpt lat="43.67504" lon="3.33648">
        <ele>146.6</ele>
        <time>2022-05-17T08:39:43Z</time>
      </trkpt>
      <trkpt lat="43.67505" lon="3.33653">
        <ele>146.6</ele>
        <time>2022-05-17T08:39:45Z</time>
      </trkpt>
      <trkpt lat="43.67505" lon="3.33666">
        <ele>147</ele>
        <time>2022-05-17T08:39:50Z</time>
      </trkpt>
      <trkpt lat="43.67504" lon="3.33671">
        <ele>147.4</ele>
        <time>2022-05-17T08:39:52Z</time>
      </trkpt>
      <trkpt lat="43.67505" lon="3.33682">
        <ele>148</ele>
        <time>2022-05-17T08:39:56Z</time>
      </trkpt>
      <trkpt lat="43.6751" lon="3.33689">
        <ele>148.2</ele>
        <time>2022-05-17T08:39:59Z</time>
      </trkpt>
      <trkpt lat="43.6752" lon="3.33707">
        <ele>147.6</ele>
        <time>2022-05-17T08:40:05Z</time>
      </trkpt>
      <trkpt lat="43.67525" lon="3.33719">
        <ele>146.8</ele>
        <time>2022-05-17T08:40:08Z</time>
      </trkpt>
      <trkpt lat="43.6753" lon="3.33727">
        <ele>145.8</ele>
        <time>2022-05-17T08:40:11Z</time>
      </trkpt>
      <trkpt lat="43.67531" lon="3.33729">
        <ele>145.8</ele>
        <time>2022-05-17T08:40:12Z</time>
      </trkpt>
      <trkpt lat="43.67534" lon="3.33743">
        <ele>145.8</ele>
        <time>2022-05-17T08:40:18Z</time>
      </trkpt>
      <trkpt lat="43.67533" lon="3.33752">
        <ele>147.4</ele>
        <time>2022-05-17T08:40:22Z</time>
      </trkpt>
      <trkpt lat="43.67533" lon="3.33759">
        <ele>148.4</ele>
        <time>2022-05-17T08:40:25Z</time>
      </trkpt>
      <trkpt lat="43.67534" lon="3.33766">
        <ele>149.2</ele>
        <time>2022-05-17T08:40:28Z</time>
      </trkpt>
      <trkpt lat="43.67534" lon="3.33767">
        <ele>149.8</ele>
        <time>2022-05-17T08:40:29Z</time>
      </trkpt>
      <trkpt lat="43.67537" lon="3.33773">
        <ele>151</ele>
        <time>2022-05-17T08:40:33Z</time>
      </trkpt>
      <trkpt lat="43.6754" lon="3.3378">
        <ele>152</ele>
        <time>2022-05-17T08:40:37Z</time>
      </trkpt>
      <trkpt lat="43.67542" lon="3.33783">
        <ele>152.2</ele>
        <time>2022-05-17T08:40:39Z</time>
      </trkpt>
      <trkpt lat="43.67544" lon="3.33787">
        <ele>153.4</ele>
        <time>2022-05-17T08:40:42Z</time>
      </trkpt>
      <trkpt lat="43.67546" lon="3.338">
        <ele>154.2</ele>
        <time>2022-05-17T08:40:48Z</time>
      </trkpt>
      <trkpt lat="43.67545" lon="3.33808">
        <ele>154.4</ele>
        <time>2022-05-17T08:40:51Z</time>
      </trkpt>
      <trkpt lat="43.67543" lon="3.33813">
        <ele>154.4</ele>
        <time>2022-05-17T08:40:53Z</time>
      </trkpt>
      <trkpt lat="43.67543" lon="3.33817">
        <ele>154.4</ele>
        <time>2022-05-17T08:40:55Z</time>
      </trkpt>
      <trkpt lat="43.67546" lon="3.33823">
        <ele>154.2</ele>
        <time>2022-05-17T08:40:57Z</time>
      </trkpt>
      <trkpt lat="43.67555" lon="3.33828">
        <ele>154.2</ele>
        <time>2022-05-17T08:41:01Z</time>
      </trkpt>
      <trkpt lat="43.67556" lon="3.33831">
        <ele>154.2</ele>
        <time>2022-05-17T08:41:02Z</time>
      </trkpt>
      <trkpt lat="43.67555" lon="3.33838">
        <ele>154.4</ele>
        <time>2022-05-17T08:41:05Z</time>
      </trkpt>
      <trkpt lat="43.67554" lon="3.33844">
        <ele>155.6</ele>
        <time>2022-05-17T08:41:08Z</time>
      </trkpt>
      <trkpt lat="43.67554" lon="3.33846">
        <ele>155.8</ele>
        <time>2022-05-17T08:41:09Z</time>
      </trkpt>
      <trkpt lat="43.67557" lon="3.33852">
        <ele>156</ele>
        <time>2022-05-17T08:41:11Z</time>
      </trkpt>
      <trkpt lat="43.67564" lon="3.33859">
        <ele>156.6</ele>
        <time>2022-05-17T08:41:16Z</time>
      </trkpt>
      <trkpt lat="43.67566" lon="3.3386">
        <ele>156.6</ele>
        <time>2022-05-17T08:41:17Z</time>
      </trkpt>
      <trkpt lat="43.67568" lon="3.33863">
        <ele>156.8</ele>
        <time>2022-05-17T08:41:19Z</time>
      </trkpt>
      <trkpt lat="43.67568" lon="3.33867">
        <ele>157.4</ele>
        <time>2022-05-17T08:41:21Z</time>
      </trkpt>
      <trkpt lat="43.67568" lon="3.33871">
        <ele>157.6</ele>
        <time>2022-05-17T08:41:23Z</time>
      </trkpt>
      <trkpt lat="43.67565" lon="3.33882">
        <ele>158.6</ele>
        <time>2022-05-17T08:41:29Z</time>
      </trkpt>
      <trkpt lat="43.67563" lon="3.33885">
        <ele>158.8</ele>
        <time>2022-05-17T08:41:31Z</time>
      </trkpt>
      <trkpt lat="43.67563" lon="3.33887">
        <ele>159</ele>
        <time>2022-05-17T08:41:32Z</time>
      </trkpt>
      <trkpt lat="43.67561" lon="3.33894">
        <ele>159.4</ele>
        <time>2022-05-17T08:41:35Z</time>
      </trkpt>
      <trkpt lat="43.67562" lon="3.33898">
        <ele>159.8</ele>
        <time>2022-05-17T08:41:37Z</time>
      </trkpt>
      <trkpt lat="43.67564" lon="3.33913">
        <ele>160.8</ele>
        <time>2022-05-17T08:41:44Z</time>
      </trkpt>
      <trkpt lat="43.67564" lon="3.33916">
        <ele>161</ele>
        <time>2022-05-17T08:41:45Z</time>
      </trkpt>
      <trkpt lat="43.67566" lon="3.33931">
        <ele>161.6</ele>
        <time>2022-05-17T08:41:52Z</time>
      </trkpt>
      <trkpt lat="43.67567" lon="3.33939">
        <ele>162</ele>
        <time>2022-05-17T08:41:55Z</time>
      </trkpt>
      <trkpt lat="43.67569" lon="3.33949">
        <ele>162.4</ele>
        <time>2022-05-17T08:41:59Z</time>
      </trkpt>
      <trkpt lat="43.67571" lon="3.33965">
        <ele>162.2</ele>
        <time>2022-05-17T08:42:07Z</time>
      </trkpt>
      <trkpt lat="43.67571" lon="3.33965">
        <ele>162.2</ele>
        <time>2022-05-17T08:42:28Z</time>
      </trkpt>
      <trkpt lat="43.67575" lon="3.33974">
        <ele>162</ele>
        <time>2022-05-17T08:43:17Z</time>
      </trkpt>
      <trkpt lat="43.67589" lon="3.33989">
        <ele>161.6</ele>
        <time>2022-05-17T08:43:22Z</time>
      </trkpt>
      <trkpt lat="43.67596" lon="3.33995">
        <ele>161.2</ele>
        <time>2022-05-17T08:43:24Z</time>
      </trkpt>
      <trkpt lat="43.67607" lon="3.34007">
        <ele>160.8</ele>
        <time>2022-05-17T08:43:27Z</time>
      </trkpt>
      <trkpt lat="43.6761" lon="3.34012">
        <ele>160.2</ele>
        <time>2022-05-17T08:43:28Z</time>
      </trkpt>
      <trkpt lat="43.67614" lon="3.34017">
        <ele>160.2</ele>
        <time>2022-05-17T08:43:29Z</time>
      </trkpt>
      <trkpt lat="43.67625" lon="3.34037">
        <ele>159</ele>
        <time>2022-05-17T08:43:33Z</time>
      </trkpt>
      <trkpt lat="43.67632" lon="3.34048">
        <ele>158.2</ele>
        <time>2022-05-17T08:43:35Z</time>
      </trkpt>
      <trkpt lat="43.67636" lon="3.34053">
        <ele>158</ele>
        <time>2022-05-17T08:43:36Z</time>
      </trkpt>
      <trkpt lat="43.67644" lon="3.34061">
        <ele>157</ele>
        <time>2022-05-17T08:43:38Z</time>
      </trkpt>
      <trkpt lat="43.67648" lon="3.34064">
        <ele>156.2</ele>
        <time>2022-05-17T08:43:39Z</time>
      </trkpt>
      <trkpt lat="43.67654" lon="3.34067">
        <ele>155.2</ele>
        <time>2022-05-17T08:43:41Z</time>
      </trkpt>
      <trkpt lat="43.67657" lon="3.34067">
        <ele>155</ele>
        <time>2022-05-17T08:43:42Z</time>
      </trkpt>
      <trkpt lat="43.67664" lon="3.34064">
        <ele>153.4</ele>
        <time>2022-05-17T08:43:45Z</time>
      </trkpt>
      <trkpt lat="43.67666" lon="3.34065">
        <ele>153.2</ele>
        <time>2022-05-17T08:43:46Z</time>
      </trkpt>
      <trkpt lat="43.67672" lon="3.34072">
        <ele>152.4</ele>
        <time>2022-05-17T08:43:50Z</time>
      </trkpt>
      <trkpt lat="43.67673" lon="3.34073">
        <ele>152.4</ele>
        <time>2022-05-17T08:43:51Z</time>
      </trkpt>
      <trkpt lat="43.67673" lon="3.34073">
        <ele>151.2</ele>
        <time>2022-05-17T08:43:58Z</time>
      </trkpt>
      <trkpt lat="43.6768" lon="3.34076">
        <ele>151</ele>
        <time>2022-05-17T08:44:06Z</time>
      </trkpt>
      <trkpt lat="43.67691" lon="3.34082">
        <ele>150.8</ele>
        <time>2022-05-17T08:44:10Z</time>
      </trkpt>
      <trkpt lat="43.67692" lon="3.34084">
        <ele>150.6</ele>
        <time>2022-05-17T08:44:11Z</time>
      </trkpt>
      <trkpt lat="43.67692" lon="3.34086">
        <ele>150.4</ele>
        <time>2022-05-17T08:44:12Z</time>
      </trkpt>
      <trkpt lat="43.67694" lon="3.34089">
        <ele>149.6</ele>
        <time>2022-05-17T08:44:13Z</time>
      </trkpt>
      <trkpt lat="43.67696" lon="3.34093">
        <ele>149</ele>
        <time>2022-05-17T08:44:14Z</time>
      </trkpt>
      <trkpt lat="43.67704" lon="3.34104">
        <ele>148.2</ele>
        <time>2022-05-17T08:44:16Z</time>
      </trkpt>
      <trkpt lat="43.67712" lon="3.34119">
        <ele>147.2</ele>
        <time>2022-05-17T08:44:18Z</time>
      </trkpt>
      <trkpt lat="43.6772" lon="3.34129">
        <ele>146.4</ele>
        <time>2022-05-17T08:44:20Z</time>
      </trkpt>
      <trkpt lat="43.67724" lon="3.34131">
        <ele>146</ele>
        <time>2022-05-17T08:44:21Z</time>
      </trkpt>
      <trkpt lat="43.67727" lon="3.34132">
        <ele>144.6</ele>
        <time>2022-05-17T08:44:22Z</time>
      </trkpt>
      <trkpt lat="43.6773" lon="3.34135">
        <ele>144.2</ele>
        <time>2022-05-17T08:44:23Z</time>
      </trkpt>
      <trkpt lat="43.67732" lon="3.34139">
        <ele>143</ele>
        <time>2022-05-17T08:44:24Z</time>
      </trkpt>
      <trkpt lat="43.67735" lon="3.34147">
        <ele>142.2</ele>
        <time>2022-05-17T08:44:26Z</time>
      </trkpt>
      <trkpt lat="43.67737" lon="3.3415">
        <ele>142</ele>
        <time>2022-05-17T08:44:27Z</time>
      </trkpt>
      <trkpt lat="43.67741" lon="3.34153">
        <ele>141.6</ele>
        <time>2022-05-17T08:44:28Z</time>
      </trkpt>
      <trkpt lat="43.67746" lon="3.34164">
        <ele>141</ele>
        <time>2022-05-17T08:44:30Z</time>
      </trkpt>
      <trkpt lat="43.67748" lon="3.34171">
        <ele>140.6</ele>
        <time>2022-05-17T08:44:31Z</time>
      </trkpt>
      <trkpt lat="43.67755" lon="3.34191">
        <ele>139.2</ele>
        <time>2022-05-17T08:44:34Z</time>
      </trkpt>
      <trkpt lat="43.67758" lon="3.34199">
        <ele>138</ele>
        <time>2022-05-17T08:44:36Z</time>
      </trkpt>
      <trkpt lat="43.67764" lon="3.34206">
        <ele>136.8</ele>
        <time>2022-05-17T08:44:39Z</time>
      </trkpt>
      <trkpt lat="43.67767" lon="3.3421">
        <ele>136.6</ele>
        <time>2022-05-17T08:44:40Z</time>
      </trkpt>
      <trkpt lat="43.67775" lon="3.34225">
        <ele>135.6</ele>
        <time>2022-05-17T08:44:43Z</time>
      </trkpt>
      <trkpt lat="43.67777" lon="3.34231">
        <ele>135.2</ele>
        <time>2022-05-17T08:44:44Z</time>
      </trkpt>
      <trkpt lat="43.67784" lon="3.34249">
        <ele>134.6</ele>
        <time>2022-05-17T08:44:47Z</time>
      </trkpt>
      <trkpt lat="43.67786" lon="3.34254">
        <ele>134.4</ele>
        <time>2022-05-17T08:44:48Z</time>
      </trkpt>
      <trkpt lat="43.67789" lon="3.34264">
        <ele>133.8</ele>
        <time>2022-05-17T08:44:50Z</time>
      </trkpt>
      <trkpt lat="43.67788" lon="3.34278">
        <ele>133.6</ele>
        <time>2022-05-17T08:44:52Z</time>
      </trkpt>
      <trkpt lat="43.67789" lon="3.34298">
        <ele>132.2</ele>
        <time>2022-05-17T08:44:55Z</time>
      </trkpt>
      <trkpt lat="43.67789" lon="3.34304">
        <ele>132</ele>
        <time>2022-05-17T08:44:56Z</time>
      </trkpt>
      <trkpt lat="43.67788" lon="3.3431">
        <ele>131.6</ele>
        <time>2022-05-17T08:44:57Z</time>
      </trkpt>
      <trkpt lat="43.67789" lon="3.34324">
        <ele>131.2</ele>
        <time>2022-05-17T08:44:59Z</time>
      </trkpt>
      <trkpt lat="43.67791" lon="3.34331">
        <ele>131</ele>
        <time>2022-05-17T08:45:00Z</time>
      </trkpt>
      <trkpt lat="43.67791" lon="3.34338">
        <ele>130.4</ele>
        <time>2022-05-17T08:45:01Z</time>
      </trkpt>
      <trkpt lat="43.67791" lon="3.34352">
        <ele>130</ele>
        <time>2022-05-17T08:45:03Z</time>
      </trkpt>
      <trkpt lat="43.6779" lon="3.34361">
        <ele>129.2</ele>
        <time>2022-05-17T08:45:05Z</time>
      </trkpt>
      <trkpt lat="43.67789" lon="3.34365">
        <ele>129</ele>
        <time>2022-05-17T08:45:06Z</time>
      </trkpt>
      <trkpt lat="43.67787" lon="3.34376">
        <ele>128</ele>
        <time>2022-05-17T08:45:09Z</time>
      </trkpt>
      <trkpt lat="43.67786" lon="3.3438">
        <ele>127.8</ele>
        <time>2022-05-17T08:45:10Z</time>
      </trkpt>
      <trkpt lat="43.67776" lon="3.34422">
        <ele>127.6</ele>
        <time>2022-05-17T08:45:19Z</time>
      </trkpt>
      <trkpt lat="43.67773" lon="3.34449">
        <ele>128.2</ele>
        <time>2022-05-17T08:45:25Z</time>
      </trkpt>
      <trkpt lat="43.67768" lon="3.34461">
        <ele>129</ele>
        <time>2022-05-17T08:45:29Z</time>
      </trkpt>
      <trkpt lat="43.67767" lon="3.34463">
        <ele>129</ele>
        <time>2022-05-17T08:45:30Z</time>
      </trkpt>
      <trkpt lat="43.67762" lon="3.34478">
        <ele>130</ele>
        <time>2022-05-17T08:45:37Z</time>
      </trkpt>
      <trkpt lat="43.6776" lon="3.34481">
        <ele>130</ele>
        <time>2022-05-17T08:45:39Z</time>
      </trkpt>
      <trkpt lat="43.67754" lon="3.34488">
        <ele>130.4</ele>
        <time>2022-05-17T08:45:45Z</time>
      </trkpt>
      <trkpt lat="43.67753" lon="3.34488">
        <ele>130.4</ele>
        <time>2022-05-17T08:45:51Z</time>
      </trkpt>
      <trkpt lat="43.67752" lon="3.34488">
        <ele>129.8</ele>
        <time>2022-05-17T08:46:50Z</time>
      </trkpt>
      <trkpt lat="43.67746" lon="3.34489">
        <ele>130</ele>
        <time>2022-05-17T08:46:53Z</time>
      </trkpt>
      <trkpt lat="43.67724" lon="3.34497">
        <ele>131</ele>
        <time>2022-05-17T08:47:02Z</time>
      </trkpt>
      <trkpt lat="43.67722" lon="3.34498">
        <ele>131</ele>
        <time>2022-05-17T08:47:03Z</time>
      </trkpt>
      <trkpt lat="43.67714" lon="3.34504">
        <ele>131.2</ele>
        <time>2022-05-17T08:47:07Z</time>
      </trkpt>
      <trkpt lat="43.67702" lon="3.34513">
        <ele>132</ele>
        <time>2022-05-17T08:47:13Z</time>
      </trkpt>
      <trkpt lat="43.67698" lon="3.34515">
        <ele>132</ele>
        <time>2022-05-17T08:47:15Z</time>
      </trkpt>
      <trkpt lat="43.67688" lon="3.34521">
        <ele>133.2</ele>
        <time>2022-05-17T08:47:22Z</time>
      </trkpt>
      <trkpt lat="43.67677" lon="3.34534">
        <ele>133.6</ele>
        <time>2022-05-17T08:47:27Z</time>
      </trkpt>
      <trkpt lat="43.67666" lon="3.3455">
        <ele>133.6</ele>
        <time>2022-05-17T08:47:33Z</time>
      </trkpt>
      <trkpt lat="43.67657" lon="3.34554">
        <ele>133.6</ele>
        <time>2022-05-17T08:47:38Z</time>
      </trkpt>
      <trkpt lat="43.67647" lon="3.34566">
        <ele>133.8</ele>
        <time>2022-05-17T08:47:44Z</time>
      </trkpt>
      <trkpt lat="43.67638" lon="3.34584">
        <ele>134</ele>
        <time>2022-05-17T08:47:51Z</time>
      </trkpt>
      <trkpt lat="43.67636" lon="3.34587">
        <ele>134</ele>
        <time>2022-05-17T08:47:53Z</time>
      </trkpt>
      <trkpt lat="43.67634" lon="3.34587">
        <ele>134.2</ele>
        <time>2022-05-17T08:47:54Z</time>
      </trkpt>
      <trkpt lat="43.67632" lon="3.34587">
        <ele>134.2</ele>
        <time>2022-05-17T08:47:55Z</time>
      </trkpt>
      <trkpt lat="43.67619" lon="3.34588">
        <ele>135.2</ele>
        <time>2022-05-17T08:48:02Z</time>
      </trkpt>
      <trkpt lat="43.67607" lon="3.34598">
        <ele>136</ele>
        <time>2022-05-17T08:48:09Z</time>
      </trkpt>
      <trkpt lat="43.67602" lon="3.34603">
        <ele>136.2</ele>
        <time>2022-05-17T08:48:12Z</time>
      </trkpt>
      <trkpt lat="43.67593" lon="3.34611">
        <ele>136.8</ele>
        <time>2022-05-17T08:48:17Z</time>
      </trkpt>
      <trkpt lat="43.67585" lon="3.34617">
        <ele>137.4</ele>
        <time>2022-05-17T08:48:21Z</time>
      </trkpt>
      <trkpt lat="43.67576" lon="3.34625">
        <ele>138</ele>
        <time>2022-05-17T08:48:26Z</time>
      </trkpt>
      <trkpt lat="43.67565" lon="3.34638">
        <ele>138.4</ele>
        <time>2022-05-17T08:48:33Z</time>
      </trkpt>
      <trkpt lat="43.67555" lon="3.3466">
        <ele>139.2</ele>
        <time>2022-05-17T08:48:41Z</time>
      </trkpt>
      <trkpt lat="43.67541" lon="3.34695">
        <ele>139.2</ele>
        <time>2022-05-17T08:48:51Z</time>
      </trkpt>
      <trkpt lat="43.67529" lon="3.34708">
        <ele>139.2</ele>
        <time>2022-05-17T08:48:55Z</time>
      </trkpt>
      <trkpt lat="43.67523" lon="3.34724">
        <ele>138.8</ele>
        <time>2022-05-17T08:49:00Z</time>
      </trkpt>
      <trkpt lat="43.67516" lon="3.34732">
        <ele>139.2</ele>
        <time>2022-05-17T08:49:04Z</time>
      </trkpt>
      <trkpt lat="43.67514" lon="3.34737">
        <ele>139.8</ele>
        <time>2022-05-17T08:49:06Z</time>
      </trkpt>
      <trkpt lat="43.67514" lon="3.3474">
        <ele>140</ele>
        <time>2022-05-17T08:49:07Z</time>
      </trkpt>
      <trkpt lat="43.67514" lon="3.34742">
        <ele>140.2</ele>
        <time>2022-05-17T08:49:08Z</time>
      </trkpt>
      <trkpt lat="43.67514" lon="3.3476">
        <ele>140.8</ele>
        <time>2022-05-17T08:49:12Z</time>
      </trkpt>
      <trkpt lat="43.67514" lon="3.34766">
        <ele>140.8</ele>
        <time>2022-05-17T08:49:13Z</time>
      </trkpt>
      <trkpt lat="43.67512" lon="3.34777">
        <ele>140.8</ele>
        <time>2022-05-17T08:49:15Z</time>
      </trkpt>
      <trkpt lat="43.67511" lon="3.348">
        <ele>140.6</ele>
        <time>2022-05-17T08:49:18Z</time>
      </trkpt>
      <trkpt lat="43.67511" lon="3.34808">
        <ele>140.6</ele>
        <time>2022-05-17T08:49:19Z</time>
      </trkpt>
      <trkpt lat="43.67513" lon="3.34831">
        <ele>139.8</ele>
        <time>2022-05-17T08:49:23Z</time>
      </trkpt>
      <trkpt lat="43.67513" lon="3.34836">
        <ele>139.6</ele>
        <time>2022-05-17T08:49:24Z</time>
      </trkpt>
      <trkpt lat="43.67509" lon="3.34856">
        <ele>139.4</ele>
        <time>2022-05-17T08:49:29Z</time>
      </trkpt>
      <trkpt lat="43.67497" lon="3.34879">
        <ele>139.6</ele>
        <time>2022-05-17T08:49:35Z</time>
      </trkpt>
      <trkpt lat="43.67487" lon="3.34889">
        <ele>140</ele>
        <time>2022-05-17T08:49:40Z</time>
      </trkpt>
      <trkpt lat="43.67473" lon="3.34897">
        <ele>140.8</ele>
        <time>2022-05-17T08:49:46Z</time>
      </trkpt>
      <trkpt lat="43.6746" lon="3.34908">
        <ele>142</ele>
        <time>2022-05-17T08:49:53Z</time>
      </trkpt>
      <trkpt lat="43.67451" lon="3.3492">
        <ele>143.2</ele>
        <time>2022-05-17T08:49:59Z</time>
      </trkpt>
      <trkpt lat="43.67449" lon="3.34923">
        <ele>143.2</ele>
        <time>2022-05-17T08:50:00Z</time>
      </trkpt>
      <trkpt lat="43.67447" lon="3.34942">
        <ele>143.4</ele>
        <time>2022-05-17T08:50:05Z</time>
      </trkpt>
      <trkpt lat="43.67445" lon="3.3497">
        <ele>143</ele>
        <time>2022-05-17T08:50:11Z</time>
      </trkpt>
      <trkpt lat="43.67442" lon="3.34993">
        <ele>142.6</ele>
        <time>2022-05-17T08:50:15Z</time>
      </trkpt>
      <trkpt lat="43.67443" lon="3.35009">
        <ele>142</ele>
        <time>2022-05-17T08:50:18Z</time>
      </trkpt>
      <trkpt lat="43.67445" lon="3.3502">
        <ele>141.6</ele>
        <time>2022-05-17T08:50:21Z</time>
      </trkpt>
      <trkpt lat="43.67446" lon="3.35052">
        <ele>141.4</ele>
        <time>2022-05-17T08:50:28Z</time>
      </trkpt>
      <trkpt lat="43.67442" lon="3.35087">
        <ele>141.2</ele>
        <time>2022-05-17T08:50:33Z</time>
      </trkpt>
      <trkpt lat="43.6744" lon="3.35094">
        <ele>141</ele>
        <time>2022-05-17T08:50:34Z</time>
      </trkpt>
      <trkpt lat="43.67438" lon="3.35107">
        <ele>140.8</ele>
        <time>2022-05-17T08:50:36Z</time>
      </trkpt>
      <trkpt lat="43.67434" lon="3.35121">
        <ele>140.4</ele>
        <time>2022-05-17T08:50:38Z</time>
      </trkpt>
      <trkpt lat="43.67431" lon="3.35126">
        <ele>140.4</ele>
        <time>2022-05-17T08:50:39Z</time>
      </trkpt>
      <trkpt lat="43.67426" lon="3.35134">
        <ele>140.2</ele>
        <time>2022-05-17T08:50:41Z</time>
      </trkpt>
      <trkpt lat="43.67421" lon="3.35138">
        <ele>140</ele>
        <time>2022-05-17T08:50:42Z</time>
      </trkpt>
      <trkpt lat="43.67412" lon="3.35148">
        <ele>140</ele>
        <time>2022-05-17T08:50:44Z</time>
      </trkpt>
      <trkpt lat="43.67405" lon="3.35159">
        <ele>139.8</ele>
        <time>2022-05-17T08:50:46Z</time>
      </trkpt>
      <trkpt lat="43.67404" lon="3.35163">
        <ele>139.6</ele>
        <time>2022-05-17T08:50:47Z</time>
      </trkpt>
      <trkpt lat="43.67402" lon="3.3517">
        <ele>139.6</ele>
        <time>2022-05-17T08:50:48Z</time>
      </trkpt>
      <trkpt lat="43.67397" lon="3.3519">
        <ele>138.6</ele>
        <time>2022-05-17T08:50:51Z</time>
      </trkpt>
      <trkpt lat="43.67396" lon="3.35194">
        <ele>138.2</ele>
        <time>2022-05-17T08:50:52Z</time>
      </trkpt>
      <trkpt lat="43.67387" lon="3.3521">
        <ele>137.6</ele>
        <time>2022-05-17T08:50:56Z</time>
      </trkpt>
      <trkpt lat="43.67382" lon="3.35213">
        <ele>137.6</ele>
        <time>2022-05-17T08:50:58Z</time>
      </trkpt>
      <trkpt lat="43.67374" lon="3.35221">
        <ele>137.8</ele>
        <time>2022-05-17T08:51:02Z</time>
      </trkpt>
      <trkpt lat="43.67361" lon="3.35235">
        <ele>138.2</ele>
        <time>2022-05-17T08:51:09Z</time>
      </trkpt>
      <trkpt lat="43.67353" lon="3.35241">
        <ele>138.2</ele>
        <time>2022-05-17T08:51:14Z</time>
      </trkpt>
      <trkpt lat="43.67352" lon="3.35243">
        <ele>138.2</ele>
        <time>2022-05-17T08:51:15Z</time>
      </trkpt>
      <trkpt lat="43.67337" lon="3.35259">
        <ele>138</ele>
        <time>2022-05-17T08:51:22Z</time>
      </trkpt>
      <trkpt lat="43.67325" lon="3.3527">
        <ele>138</ele>
        <time>2022-05-17T08:51:28Z</time>
      </trkpt>
      <trkpt lat="43.6731" lon="3.35281">
        <ele>138.2</ele>
        <time>2022-05-17T08:51:35Z</time>
      </trkpt>
      <trkpt lat="43.67299" lon="3.35294">
        <ele>138.6</ele>
        <time>2022-05-17T08:51:41Z</time>
      </trkpt>
      <trkpt lat="43.67296" lon="3.35298">
        <ele>138.8</ele>
        <time>2022-05-17T08:51:43Z</time>
      </trkpt>
      <trkpt lat="43.67282" lon="3.35311">
        <ele>139.4</ele>
        <time>2022-05-17T08:51:49Z</time>
      </trkpt>
      <trkpt lat="43.67264" lon="3.35324">
        <ele>139.8</ele>
        <time>2022-05-17T08:51:56Z</time>
      </trkpt>
      <trkpt lat="43.67262" lon="3.35327">
        <ele>139.8</ele>
        <time>2022-05-17T08:51:57Z</time>
      </trkpt>
      <trkpt lat="43.67251" lon="3.35332">
        <ele>140.2</ele>
        <time>2022-05-17T08:52:02Z</time>
      </trkpt>
      <trkpt lat="43.67217" lon="3.35344">
        <ele>140.8</ele>
        <time>2022-05-17T08:52:15Z</time>
      </trkpt>
      <trkpt lat="43.67192" lon="3.35351">
        <ele>141.8</ele>
        <time>2022-05-17T08:52:23Z</time>
      </trkpt>
      <trkpt lat="43.67184" lon="3.35354">
        <ele>142</ele>
        <time>2022-05-17T08:52:26Z</time>
      </trkpt>
      <trkpt lat="43.67156" lon="3.35364">
        <ele>142.4</ele>
        <time>2022-05-17T08:52:35Z</time>
      </trkpt>
      <trkpt lat="43.67142" lon="3.3537">
        <ele>142.6</ele>
        <time>2022-05-17T08:52:40Z</time>
      </trkpt>
      <trkpt lat="43.67141" lon="3.35372">
        <ele>142.6</ele>
        <time>2022-05-17T08:52:41Z</time>
      </trkpt>
      <trkpt lat="43.67139" lon="3.35374">
        <ele>142.6</ele>
        <time>2022-05-17T08:52:42Z</time>
      </trkpt>
      <trkpt lat="43.67132" lon="3.35378">
        <ele>142.6</ele>
        <time>2022-05-17T08:52:44Z</time>
      </trkpt>
      <trkpt lat="43.67108" lon="3.35384">
        <ele>142.4</ele>
        <time>2022-05-17T08:52:52Z</time>
      </trkpt>
      <trkpt lat="43.67089" lon="3.35395">
        <ele>142.4</ele>
        <time>2022-05-17T08:52:59Z</time>
      </trkpt>
      <trkpt lat="43.67072" lon="3.35408">
        <ele>142.4</ele>
        <time>2022-05-17T08:53:06Z</time>
      </trkpt>
      <trkpt lat="43.67064" lon="3.35421">
        <ele>142.2</ele>
        <time>2022-05-17T08:53:11Z</time>
      </trkpt>
      <trkpt lat="43.67059" lon="3.35433">
        <ele>142</ele>
        <time>2022-05-17T08:53:17Z</time>
      </trkpt>
      <trkpt lat="43.67055" lon="3.35446">
        <ele>142</ele>
        <time>2022-05-17T08:53:23Z</time>
      </trkpt>
      <trkpt lat="43.67048" lon="3.35462">
        <ele>142.2</ele>
        <time>2022-05-17T08:53:32Z</time>
      </trkpt>
      <trkpt lat="43.67047" lon="3.35467">
        <ele>142.4</ele>
        <time>2022-05-17T08:53:35Z</time>
      </trkpt>
      <trkpt lat="43.67044" lon="3.35469">
        <ele>142.4</ele>
        <time>2022-05-17T08:53:37Z</time>
      </trkpt>
      <trkpt lat="43.67038" lon="3.35482">
        <ele>142.2</ele>
        <time>2022-05-17T08:53:44Z</time>
      </trkpt>
      <trkpt lat="43.67033" lon="3.35495">
        <ele>142</ele>
        <time>2022-05-17T08:53:50Z</time>
      </trkpt>
      <trkpt lat="43.67024" lon="3.35503">
        <ele>142</ele>
        <time>2022-05-17T08:53:53Z</time>
      </trkpt>
      <trkpt lat="43.67021" lon="3.35508">
        <ele>141.8</ele>
        <time>2022-05-17T08:53:54Z</time>
      </trkpt>
      <trkpt lat="43.67007" lon="3.35523">
        <ele>141.4</ele>
        <time>2022-05-17T08:53:58Z</time>
      </trkpt>
      <trkpt lat="43.66994" lon="3.35521">
        <ele>141</ele>
        <time>2022-05-17T08:54:01Z</time>
      </trkpt>
      <trkpt lat="43.6699" lon="3.3552">
        <ele>140.8</ele>
        <time>2022-05-17T08:54:02Z</time>
      </trkpt>
      <trkpt lat="43.66972" lon="3.35521">
        <ele>140</ele>
        <time>2022-05-17T08:54:07Z</time>
      </trkpt>
      <trkpt lat="43.6697" lon="3.35521">
        <ele>139.8</ele>
        <time>2022-05-17T08:54:08Z</time>
      </trkpt>
      <trkpt lat="43.66955" lon="3.35523">
        <ele>139.6</ele>
        <time>2022-05-17T08:54:13Z</time>
      </trkpt>
      <trkpt lat="43.6693" lon="3.35528">
        <ele>139.8</ele>
        <time>2022-05-17T08:54:22Z</time>
      </trkpt>
      <trkpt lat="43.66927" lon="3.3553">
        <ele>139.8</ele>
        <time>2022-05-17T08:54:23Z</time>
      </trkpt>
      <trkpt lat="43.66921" lon="3.35539">
        <ele>140</ele>
        <time>2022-05-17T08:54:26Z</time>
      </trkpt>
      <trkpt lat="43.66906" lon="3.35573">
        <ele>140.2</ele>
        <time>2022-05-17T08:54:35Z</time>
      </trkpt>
      <trkpt lat="43.66893" lon="3.35604">
        <ele>140.4</ele>
        <time>2022-05-17T08:54:44Z</time>
      </trkpt>
      <trkpt lat="43.6688" lon="3.35635">
        <ele>140.4</ele>
        <time>2022-05-17T08:54:51Z</time>
      </trkpt>
      <trkpt lat="43.66861" lon="3.35665">
        <ele>140.2</ele>
        <time>2022-05-17T08:55:00Z</time>
      </trkpt>
      <trkpt lat="43.66849" lon="3.35685">
        <ele>140.2</ele>
        <time>2022-05-17T08:55:06Z</time>
      </trkpt>
      <trkpt lat="43.66844" lon="3.35695">
        <ele>140.2</ele>
        <time>2022-05-17T08:55:08Z</time>
      </trkpt>
      <trkpt lat="43.66838" lon="3.35702">
        <ele>140.2</ele>
        <time>2022-05-17T08:55:10Z</time>
      </trkpt>
      <trkpt lat="43.66827" lon="3.35716">
        <ele>140.2</ele>
        <time>2022-05-17T08:55:15Z</time>
      </trkpt>
      <trkpt lat="43.66823" lon="3.35722">
        <ele>140.6</ele>
        <time>2022-05-17T08:55:17Z</time>
      </trkpt>
      <trkpt lat="43.66814" lon="3.35726">
        <ele>141</ele>
        <time>2022-05-17T08:55:20Z</time>
      </trkpt>
      <trkpt lat="43.66798" lon="3.35738">
        <ele>140.8</ele>
        <time>2022-05-17T08:55:24Z</time>
      </trkpt>
      <trkpt lat="43.66787" lon="3.35745">
        <ele>140.6</ele>
        <time>2022-05-17T08:55:28Z</time>
      </trkpt>
      <trkpt lat="43.66773" lon="3.35749">
        <ele>140.8</ele>
        <time>2022-05-17T08:55:35Z</time>
      </trkpt>
      <trkpt lat="43.66769" lon="3.35752">
        <ele>141</ele>
        <time>2022-05-17T08:55:37Z</time>
      </trkpt>
      <trkpt lat="43.66764" lon="3.35756">
        <ele>141.2</ele>
        <time>2022-05-17T08:55:40Z</time>
      </trkpt>
      <trkpt lat="43.66763" lon="3.35758">
        <ele>141.2</ele>
        <time>2022-05-17T08:55:41Z</time>
      </trkpt>
      <trkpt lat="43.66759" lon="3.35763">
        <ele>142.4</ele>
        <time>2022-05-17T08:55:44Z</time>
      </trkpt>
      <trkpt lat="43.66753" lon="3.3577">
        <ele>143.4</ele>
        <time>2022-05-17T08:55:48Z</time>
      </trkpt>
      <trkpt lat="43.66753" lon="3.35772">
        <ele>143.6</ele>
        <time>2022-05-17T08:55:49Z</time>
      </trkpt>
      <trkpt lat="43.66752" lon="3.35773">
        <ele>143.6</ele>
        <time>2022-05-17T08:55:50Z</time>
      </trkpt>
      <trkpt lat="43.66747" lon="3.35788">
        <ele>143.8</ele>
        <time>2022-05-17T08:55:55Z</time>
      </trkpt>
      <trkpt lat="43.66744" lon="3.35793">
        <ele>143.8</ele>
        <time>2022-05-17T08:55:56Z</time>
      </trkpt>
      <trkpt lat="43.66734" lon="3.35802">
        <ele>143.8</ele>
        <time>2022-05-17T08:55:58Z</time>
      </trkpt>
      <trkpt lat="43.66717" lon="3.35823">
        <ele>142</ele>
        <time>2022-05-17T08:56:02Z</time>
      </trkpt>
      <trkpt lat="43.66713" lon="3.3583">
        <ele>141</ele>
        <time>2022-05-17T08:56:05Z</time>
      </trkpt>
      <trkpt lat="43.66709" lon="3.35833">
        <ele>140.8</ele>
        <time>2022-05-17T08:56:06Z</time>
      </trkpt>
      <trkpt lat="43.66698" lon="3.35848">
        <ele>139.8</ele>
        <time>2022-05-17T08:56:11Z</time>
      </trkpt>
      <trkpt lat="43.66684" lon="3.35866">
        <ele>139.2</ele>
        <time>2022-05-17T08:56:18Z</time>
      </trkpt>
      <trkpt lat="43.66669" lon="3.35884">
        <ele>139.2</ele>
        <time>2022-05-17T08:56:24Z</time>
      </trkpt>
      <trkpt lat="43.66657" lon="3.35902">
        <ele>139.2</ele>
        <time>2022-05-17T08:56:32Z</time>
      </trkpt>
      <trkpt lat="43.66654" lon="3.35906">
        <ele>139.4</ele>
        <time>2022-05-17T08:56:34Z</time>
      </trkpt>
      <trkpt lat="43.66649" lon="3.35907">
        <ele>139.4</ele>
        <time>2022-05-17T08:56:37Z</time>
      </trkpt>
      <trkpt lat="43.66643" lon="3.35912">
        <ele>139.6</ele>
        <time>2022-05-17T08:56:41Z</time>
      </trkpt>
      <trkpt lat="43.66641" lon="3.35917">
        <ele>139.6</ele>
        <time>2022-05-17T08:56:43Z</time>
      </trkpt>
      <trkpt lat="43.66633" lon="3.35932">
        <ele>139.4</ele>
        <time>2022-05-17T08:56:48Z</time>
      </trkpt>
      <trkpt lat="43.66627" lon="3.35948">
        <ele>139.2</ele>
        <time>2022-05-17T08:56:53Z</time>
      </trkpt>
      <trkpt lat="43.66626" lon="3.35954">
        <ele>139.4</ele>
        <time>2022-05-17T08:56:55Z</time>
      </trkpt>
      <trkpt lat="43.66618" lon="3.35971">
        <ele>139.6</ele>
        <time>2022-05-17T08:56:59Z</time>
      </trkpt>
      <trkpt lat="43.66603" lon="3.35996">
        <ele>139.8</ele>
        <time>2022-05-17T08:57:05Z</time>
      </trkpt>
      <trkpt lat="43.66593" lon="3.36006">
        <ele>139.8</ele>
        <time>2022-05-17T08:57:10Z</time>
      </trkpt>
      <trkpt lat="43.66582" lon="3.36022">
        <ele>140</ele>
        <time>2022-05-17T08:57:15Z</time>
      </trkpt>
      <trkpt lat="43.66585" lon="3.36045">
        <ele>140.4</ele>
        <time>2022-05-17T08:57:21Z</time>
      </trkpt>
      <trkpt lat="43.66594" lon="3.36062">
        <ele>140.8</ele>
        <time>2022-05-17T08:57:27Z</time>
      </trkpt>
      <trkpt lat="43.666" lon="3.36066">
        <ele>141</ele>
        <time>2022-05-17T08:57:30Z</time>
      </trkpt>
      <trkpt lat="43.66607" lon="3.36072">
        <ele>141.6</ele>
        <time>2022-05-17T08:57:35Z</time>
      </trkpt>
      <trkpt lat="43.66615" lon="3.36088">
        <ele>142</ele>
        <time>2022-05-17T08:57:42Z</time>
      </trkpt>
      <trkpt lat="43.66621" lon="3.36101">
        <ele>141.4</ele>
        <time>2022-05-17T08:57:48Z</time>
      </trkpt>
      <trkpt lat="43.66628" lon="3.36124">
        <ele>140</ele>
        <time>2022-05-17T08:57:55Z</time>
      </trkpt>
      <trkpt lat="43.66627" lon="3.36137">
        <ele>139.6</ele>
        <time>2022-05-17T08:57:58Z</time>
      </trkpt>
      <trkpt lat="43.66626" lon="3.3614">
        <ele>139.6</ele>
        <time>2022-05-17T08:57:59Z</time>
      </trkpt>
      <trkpt lat="43.66624" lon="3.36143">
        <ele>139.6</ele>
        <time>2022-05-17T08:58:00Z</time>
      </trkpt>
      <trkpt lat="43.66621" lon="3.36146">
        <ele>139.8</ele>
        <time>2022-05-17T08:58:02Z</time>
      </trkpt>
      <trkpt lat="43.66618" lon="3.3616">
        <ele>140.4</ele>
        <time>2022-05-17T08:58:07Z</time>
      </trkpt>
      <trkpt lat="43.6662" lon="3.36185">
        <ele>140.4</ele>
        <time>2022-05-17T08:58:12Z</time>
      </trkpt>
      <trkpt lat="43.66621" lon="3.36191">
        <ele>140.2</ele>
        <time>2022-05-17T08:58:14Z</time>
      </trkpt>
      <trkpt lat="43.66624" lon="3.36197">
        <ele>139.6</ele>
        <time>2022-05-17T08:58:16Z</time>
      </trkpt>
      <trkpt lat="43.66633" lon="3.36211">
        <ele>139.2</ele>
        <time>2022-05-17T08:58:22Z</time>
      </trkpt>
      <trkpt lat="43.66635" lon="3.36214">
        <ele>139.2</ele>
        <time>2022-05-17T08:58:23Z</time>
      </trkpt>
      <trkpt lat="43.66636" lon="3.36228">
        <ele>139.2</ele>
        <time>2022-05-17T08:58:27Z</time>
      </trkpt>
      <trkpt lat="43.66635" lon="3.36231">
        <ele>139.2</ele>
        <time>2022-05-17T08:58:29Z</time>
      </trkpt>
      <trkpt lat="43.66633" lon="3.36234">
        <ele>139.2</ele>
        <time>2022-05-17T08:58:31Z</time>
      </trkpt>
      <trkpt lat="43.66631" lon="3.36234">
        <ele>139.2</ele>
        <time>2022-05-17T08:58:32Z</time>
      </trkpt>
      <trkpt lat="43.66629" lon="3.36234">
        <ele>139.2</ele>
        <time>2022-05-17T08:58:33Z</time>
      </trkpt>
      <trkpt lat="43.66626" lon="3.36238">
        <ele>139.4</ele>
        <time>2022-05-17T08:58:36Z</time>
      </trkpt>
      <trkpt lat="43.66626" lon="3.36241">
        <ele>139.4</ele>
        <time>2022-05-17T08:58:40Z</time>
      </trkpt>
      <trkpt lat="43.66625" lon="3.36242">
        <ele>139.4</ele>
        <time>2022-05-17T08:58:55Z</time>
      </trkpt>
      <trkpt lat="43.66615" lon="3.36251">
        <ele>139.4</ele>
        <time>2022-05-17T08:58:59Z</time>
      </trkpt>
      <trkpt lat="43.66613" lon="3.36251">
        <ele>139.4</ele>
        <time>2022-05-17T08:59:00Z</time>
      </trkpt>
      <trkpt lat="43.66609" lon="3.36253">
        <ele>139.2</ele>
        <time>2022-05-17T08:59:03Z</time>
      </trkpt>
      <trkpt lat="43.66608" lon="3.36255">
        <ele>139.2</ele>
        <time>2022-05-17T08:59:05Z</time>
      </trkpt>
      <trkpt lat="43.66608" lon="3.36255">
        <ele>139</ele>
        <time>2022-05-17T08:59:09Z</time>
      </trkpt>
      <trkpt lat="43.66608" lon="3.36254">
        <ele>139</ele>
        <time>2022-05-17T08:59:10Z</time>
      </trkpt>
      <trkpt lat="43.6661" lon="3.36254">
        <ele>138.8</ele>
        <time>2022-05-17T08:59:16Z</time>
      </trkpt>
      <trkpt lat="43.6661" lon="3.36255">
        <ele>138.6</ele>
        <time>2022-05-17T08:59:38Z</time>
      </trkpt>
      <trkpt lat="43.66611" lon="3.36257">
        <ele>139.2</ele>
        <time>2022-05-17T08:59:50Z</time>
      </trkpt>
      <trkpt lat="43.6661" lon="3.36261">
        <ele>140</ele>
        <time>2022-05-17T08:59:56Z</time>
      </trkpt>
      <trkpt lat="43.6661" lon="3.36263">
        <ele>140.2</ele>
        <time>2022-05-17T08:59:58Z</time>
      </trkpt>
      <trkpt lat="43.66605" lon="3.36267">
        <ele>141.2</ele>
        <time>2022-05-17T09:00:06Z</time>
      </trkpt>
      <trkpt lat="43.66605" lon="3.36268">
        <ele>141.4</ele>
        <time>2022-05-17T09:00:07Z</time>
      </trkpt>
      <trkpt lat="43.66602" lon="3.36269">
        <ele>141.8</ele>
        <time>2022-05-17T09:00:13Z</time>
      </trkpt>
      <trkpt lat="43.66584" lon="3.36274">
        <ele>141.8</ele>
        <time>2022-05-17T09:00:19Z</time>
      </trkpt>
      <trkpt lat="43.66576" lon="3.36278">
        <ele>141.8</ele>
        <time>2022-05-17T09:00:23Z</time>
      </trkpt>
      <trkpt lat="43.66567" lon="3.3628">
        <ele>141.8</ele>
        <time>2022-05-17T09:00:28Z</time>
      </trkpt>
      <trkpt lat="43.66558" lon="3.36291">
        <ele>141.8</ele>
        <time>2022-05-17T09:00:34Z</time>
      </trkpt>
      <trkpt lat="43.66549" lon="3.36311">
        <ele>141.8</ele>
        <time>2022-05-17T09:00:40Z</time>
      </trkpt>
      <trkpt lat="43.66544" lon="3.3634">
        <ele>141.4</ele>
        <time>2022-05-17T09:00:46Z</time>
      </trkpt>
      <trkpt lat="43.66545" lon="3.36365">
        <ele>141.2</ele>
        <time>2022-05-17T09:00:52Z</time>
      </trkpt>
      <trkpt lat="43.66549" lon="3.36387">
        <ele>141</ele>
        <time>2022-05-17T09:00:58Z</time>
      </trkpt>
      <trkpt lat="43.66553" lon="3.36417">
        <ele>140.6</ele>
        <time>2022-05-17T09:01:06Z</time>
      </trkpt>
      <trkpt lat="43.66548" lon="3.36432">
        <ele>140.4</ele>
        <time>2022-05-17T09:01:10Z</time>
      </trkpt>
      <trkpt lat="43.66543" lon="3.36443">
        <ele>140.2</ele>
        <time>2022-05-17T09:01:14Z</time>
      </trkpt>
      <trkpt lat="43.6654" lon="3.36448">
        <ele>140.2</ele>
        <time>2022-05-17T09:01:16Z</time>
      </trkpt>
      <trkpt lat="43.66533" lon="3.36462">
        <ele>140.2</ele>
        <time>2022-05-17T09:01:22Z</time>
      </trkpt>
      <trkpt lat="43.66531" lon="3.36469">
        <ele>140.2</ele>
        <time>2022-05-17T09:01:25Z</time>
      </trkpt>
      <trkpt lat="43.66531" lon="3.3647">
        <ele>140.2</ele>
        <time>2022-05-17T09:01:26Z</time>
      </trkpt>
      <trkpt lat="43.6653" lon="3.36472">
        <ele>140.4</ele>
        <time>2022-05-17T09:01:27Z</time>
      </trkpt>
      <trkpt lat="43.66525" lon="3.36485">
        <ele>140.4</ele>
        <time>2022-05-17T09:01:32Z</time>
      </trkpt>
      <trkpt lat="43.66513" lon="3.36501">
        <ele>141</ele>
        <time>2022-05-17T09:01:39Z</time>
      </trkpt>
      <trkpt lat="43.66508" lon="3.36507">
        <ele>141.2</ele>
        <time>2022-05-17T09:01:41Z</time>
      </trkpt>
      <trkpt lat="43.66499" lon="3.36521">
        <ele>141.6</ele>
        <time>2022-05-17T09:01:45Z</time>
      </trkpt>
      <trkpt lat="43.66492" lon="3.36544">
        <ele>141.8</ele>
        <time>2022-05-17T09:01:50Z</time>
      </trkpt>
      <trkpt lat="43.6649" lon="3.36576">
        <ele>141.6</ele>
        <time>2022-05-17T09:01:57Z</time>
      </trkpt>
      <trkpt lat="43.6649" lon="3.36586">
        <ele>141.4</ele>
        <time>2022-05-17T09:01:59Z</time>
      </trkpt>
      <trkpt lat="43.66486" lon="3.36594">
        <ele>141.2</ele>
        <time>2022-05-17T09:02:01Z</time>
      </trkpt>
      <trkpt lat="43.66474" lon="3.36605">
        <ele>140.4</ele>
        <time>2022-05-17T09:02:06Z</time>
      </trkpt>
      <trkpt lat="43.66468" lon="3.36613">
        <ele>140.4</ele>
        <time>2022-05-17T09:02:10Z</time>
      </trkpt>
      <trkpt lat="43.66459" lon="3.36641">
        <ele>142</ele>
        <time>2022-05-17T09:02:19Z</time>
      </trkpt>
      <trkpt lat="43.66457" lon="3.36645">
        <ele>142</ele>
        <time>2022-05-17T09:02:20Z</time>
      </trkpt>
      <trkpt lat="43.66454" lon="3.36668">
        <ele>142.6</ele>
        <time>2022-05-17T09:02:25Z</time>
      </trkpt>
      <trkpt lat="43.66447" lon="3.36693">
        <ele>142.6</ele>
        <time>2022-05-17T09:02:30Z</time>
      </trkpt>
      <trkpt lat="43.66437" lon="3.36718">
        <ele>142.8</ele>
        <time>2022-05-17T09:02:36Z</time>
      </trkpt>
      <trkpt lat="43.66433" lon="3.36737">
        <ele>143</ele>
        <time>2022-05-17T09:02:40Z</time>
      </trkpt>
      <trkpt lat="43.66429" lon="3.3675">
        <ele>143.2</ele>
        <time>2022-05-17T09:02:43Z</time>
      </trkpt>
      <trkpt lat="43.66424" lon="3.3678">
        <ele>143.6</ele>
        <time>2022-05-17T09:02:50Z</time>
      </trkpt>
      <trkpt lat="43.66423" lon="3.36793">
        <ele>143.8</ele>
        <time>2022-05-17T09:02:52Z</time>
      </trkpt>
      <trkpt lat="43.66424" lon="3.36808">
        <ele>143.6</ele>
        <time>2022-05-17T09:02:54Z</time>
      </trkpt>
      <trkpt lat="43.66424" lon="3.36816">
        <ele>143.6</ele>
        <time>2022-05-17T09:02:55Z</time>
      </trkpt>
      <trkpt lat="43.66423" lon="3.36831">
        <ele>143.6</ele>
        <time>2022-05-17T09:02:57Z</time>
      </trkpt>
      <trkpt lat="43.66421" lon="3.36838">
        <ele>143.6</ele>
        <time>2022-05-17T09:02:58Z</time>
      </trkpt>
      <trkpt lat="43.66419" lon="3.36845">
        <ele>143.4</ele>
        <time>2022-05-17T09:02:59Z</time>
      </trkpt>
      <trkpt lat="43.6641" lon="3.36859">
        <ele>143</ele>
        <time>2022-05-17T09:03:02Z</time>
      </trkpt>
      <trkpt lat="43.66396" lon="3.36885">
        <ele>142.4</ele>
        <time>2022-05-17T09:03:09Z</time>
      </trkpt>
      <trkpt lat="43.66388" lon="3.36902">
        <ele>143</ele>
        <time>2022-05-17T09:03:14Z</time>
      </trkpt>
      <trkpt lat="43.66379" lon="3.36916">
        <ele>143.4</ele>
        <time>2022-05-17T09:03:18Z</time>
      </trkpt>
      <trkpt lat="43.66374" lon="3.36927">
        <ele>144.2</ele>
        <time>2022-05-17T09:03:22Z</time>
      </trkpt>
      <trkpt lat="43.6637" lon="3.36939">
        <ele>145.2</ele>
        <time>2022-05-17T09:03:26Z</time>
      </trkpt>
      <trkpt lat="43.66363" lon="3.36959">
        <ele>145.2</ele>
        <time>2022-05-17T09:03:34Z</time>
      </trkpt>
      <trkpt lat="43.66359" lon="3.36977">
        <ele>144.6</ele>
        <time>2022-05-17T09:03:40Z</time>
      </trkpt>
      <trkpt lat="43.66355" lon="3.36992">
        <ele>144.2</ele>
        <time>2022-05-17T09:03:45Z</time>
      </trkpt>
      <trkpt lat="43.66354" lon="3.36994">
        <ele>144.2</ele>
        <time>2022-05-17T09:03:46Z</time>
      </trkpt>
      <trkpt lat="43.6635" lon="3.37004">
        <ele>143.8</ele>
        <time>2022-05-17T09:03:50Z</time>
      </trkpt>
      <trkpt lat="43.66347" lon="3.37005">
        <ele>143.6</ele>
        <time>2022-05-17T09:03:51Z</time>
      </trkpt>
      <trkpt lat="43.66343" lon="3.37007">
        <ele>143.4</ele>
        <time>2022-05-17T09:03:53Z</time>
      </trkpt>
      <trkpt lat="43.66341" lon="3.37009">
        <ele>143</ele>
        <time>2022-05-17T09:03:54Z</time>
      </trkpt>
      <trkpt lat="43.66337" lon="3.37013">
        <ele>142.6</ele>
        <time>2022-05-17T09:03:56Z</time>
      </trkpt>
      <trkpt lat="43.66334" lon="3.37018">
        <ele>141.8</ele>
        <time>2022-05-17T09:04:01Z</time>
      </trkpt>
      <trkpt lat="43.66332" lon="3.37021">
        <ele>140.8</ele>
        <time>2022-05-17T09:04:08Z</time>
      </trkpt>
      <trkpt lat="43.66331" lon="3.37025">
        <ele>140.6</ele>
        <time>2022-05-17T09:04:14Z</time>
      </trkpt>
      <trkpt lat="43.66326" lon="3.37034">
        <ele>140.4</ele>
        <time>2022-05-17T09:04:19Z</time>
      </trkpt>
      <trkpt lat="43.66323" lon="3.37038">
        <ele>140.6</ele>
        <time>2022-05-17T09:04:24Z</time>
      </trkpt>
      <trkpt lat="43.66321" lon="3.3704">
        <ele>141</ele>
        <time>2022-05-17T09:04:30Z</time>
      </trkpt>
      <trkpt lat="43.66319" lon="3.37043">
        <ele>141.2</ele>
        <time>2022-05-17T09:04:37Z</time>
      </trkpt>
      <trkpt lat="43.66313" lon="3.37045">
        <ele>141.4</ele>
        <time>2022-05-17T09:04:44Z</time>
      </trkpt>
      <trkpt lat="43.66302" lon="3.37059">
        <ele>141.6</ele>
        <time>2022-05-17T09:04:50Z</time>
      </trkpt>
      <trkpt lat="43.66297" lon="3.37066">
        <ele>141.8</ele>
        <time>2022-05-17T09:04:53Z</time>
      </trkpt>
      <trkpt lat="43.66294" lon="3.3707">
        <ele>142</ele>
        <time>2022-05-17T09:04:55Z</time>
      </trkpt>
      <trkpt lat="43.6629" lon="3.37079">
        <ele>142.4</ele>
        <time>2022-05-17T09:04:58Z</time>
      </trkpt>
      <trkpt lat="43.66285" lon="3.37088">
        <ele>143</ele>
        <time>2022-05-17T09:05:01Z</time>
      </trkpt>
      <trkpt lat="43.66281" lon="3.37101">
        <ele>143.4</ele>
        <time>2022-05-17T09:05:05Z</time>
      </trkpt>
      <trkpt lat="43.66282" lon="3.37119">
        <ele>144</ele>
        <time>2022-05-17T09:05:10Z</time>
      </trkpt>
      <trkpt lat="43.66283" lon="3.37127">
        <ele>144.2</ele>
        <time>2022-05-17T09:05:12Z</time>
      </trkpt>
      <trkpt lat="43.66286" lon="3.37147">
        <ele>144.2</ele>
        <time>2022-05-17T09:05:18Z</time>
      </trkpt>
      <trkpt lat="43.6629" lon="3.37164">
        <ele>144</ele>
        <time>2022-05-17T09:05:25Z</time>
      </trkpt>
      <trkpt lat="43.66292" lon="3.37167">
        <ele>144</ele>
        <time>2022-05-17T09:05:32Z</time>
      </trkpt>
      <trkpt lat="43.66296" lon="3.37171">
        <ele>144</ele>
        <time>2022-05-17T09:05:38Z</time>
      </trkpt>
      <trkpt lat="43.66307" lon="3.3718">
        <ele>144.2</ele>
        <time>2022-05-17T09:05:44Z</time>
      </trkpt>
      <trkpt lat="43.66319" lon="3.37198">
        <ele>145.2</ele>
        <time>2022-05-17T09:05:51Z</time>
      </trkpt>
      <trkpt lat="43.66323" lon="3.37204">
        <ele>145.4</ele>
        <time>2022-05-17T09:05:53Z</time>
      </trkpt>
      <trkpt lat="43.66335" lon="3.37222">
        <ele>146.2</ele>
        <time>2022-05-17T09:06:00Z</time>
      </trkpt>
      <trkpt lat="43.66337" lon="3.37226">
        <ele>146.8</ele>
        <time>2022-05-17T09:06:02Z</time>
      </trkpt>
      <trkpt lat="43.66343" lon="3.37233">
        <ele>147.4</ele>
        <time>2022-05-17T09:06:06Z</time>
      </trkpt>
      <trkpt lat="43.6635" lon="3.37241">
        <ele>148.4</ele>
        <time>2022-05-17T09:06:11Z</time>
      </trkpt>
      <trkpt lat="43.66352" lon="3.37243">
        <ele>148.6</ele>
        <time>2022-05-17T09:06:12Z</time>
      </trkpt>
      <trkpt lat="43.66364" lon="3.3725">
        <ele>149.6</ele>
        <time>2022-05-17T09:06:18Z</time>
      </trkpt>
      <trkpt lat="43.66365" lon="3.37251">
        <ele>149.8</ele>
        <time>2022-05-17T09:06:19Z</time>
      </trkpt>
      <trkpt lat="43.66375" lon="3.3725">
        <ele>150.8</ele>
        <time>2022-05-17T09:06:25Z</time>
      </trkpt>
      <trkpt lat="43.66377" lon="3.37251">
        <ele>151</ele>
        <time>2022-05-17T09:06:26Z</time>
      </trkpt>
      <trkpt lat="43.66383" lon="3.37253">
        <ele>151.4</ele>
        <time>2022-05-17T09:06:29Z</time>
      </trkpt>
      <trkpt lat="43.66388" lon="3.37259">
        <ele>152</ele>
        <time>2022-05-17T09:06:32Z</time>
      </trkpt>
      <trkpt lat="43.66394" lon="3.37264">
        <ele>153.4</ele>
        <time>2022-05-17T09:06:36Z</time>
      </trkpt>
      <trkpt lat="43.66402" lon="3.37269">
        <ele>154</ele>
        <time>2022-05-17T09:06:41Z</time>
      </trkpt>
      <trkpt lat="43.66404" lon="3.3727">
        <ele>154.4</ele>
        <time>2022-05-17T09:06:43Z</time>
      </trkpt>
      <trkpt lat="43.6641" lon="3.37272">
        <ele>155</ele>
        <time>2022-05-17T09:06:47Z</time>
      </trkpt>
      <trkpt lat="43.66413" lon="3.37273">
        <ele>155.4</ele>
        <time>2022-05-17T09:06:50Z</time>
      </trkpt>
      <trkpt lat="43.66415" lon="3.37276">
        <ele>156</ele>
        <time>2022-05-17T09:06:53Z</time>
      </trkpt>
      <trkpt lat="43.66415" lon="3.37276">
        <ele>156.4</ele>
        <time>2022-05-17T09:06:55Z</time>
      </trkpt>
      <trkpt lat="43.66416" lon="3.37278">
        <ele>156.6</ele>
        <time>2022-05-17T09:06:59Z</time>
      </trkpt>
      <trkpt lat="43.66421" lon="3.37284">
        <ele>157.4</ele>
        <time>2022-05-17T09:07:07Z</time>
      </trkpt>
      <trkpt lat="43.66422" lon="3.37285">
        <ele>157.6</ele>
        <time>2022-05-17T09:07:09Z</time>
      </trkpt>
      <trkpt lat="43.66425" lon="3.37288">
        <ele>158</ele>
        <time>2022-05-17T09:07:14Z</time>
      </trkpt>
      <trkpt lat="43.66427" lon="3.37288">
        <ele>158.6</ele>
        <time>2022-05-17T09:07:19Z</time>
      </trkpt>
      <trkpt lat="43.66428" lon="3.37288">
        <ele>159.8</ele>
        <time>2022-05-17T09:07:28Z</time>
      </trkpt>
      <trkpt lat="43.66435" lon="3.3729">
        <ele>160.8</ele>
        <time>2022-05-17T09:07:39Z</time>
      </trkpt>
      <trkpt lat="43.66436" lon="3.37291">
        <ele>161.4</ele>
        <time>2022-05-17T09:07:46Z</time>
      </trkpt>
      <trkpt lat="43.66436" lon="3.37291">
        <ele>161.6</ele>
        <time>2022-05-17T09:07:48Z</time>
      </trkpt>
      <trkpt lat="43.66436" lon="3.37291">
        <ele>161.6</ele>
        <time>2022-05-17T09:08:38Z</time>
      </trkpt>
      <trkpt lat="43.6644" lon="3.37296">
        <ele>161.4</ele>
        <time>2022-05-17T09:09:10Z</time>
      </trkpt>
      <trkpt lat="43.66452" lon="3.37301">
        <ele>162</ele>
        <time>2022-05-17T09:09:17Z</time>
      </trkpt>
      <trkpt lat="43.66454" lon="3.37302">
        <ele>162.2</ele>
        <time>2022-05-17T09:09:18Z</time>
      </trkpt>
      <trkpt lat="43.66462" lon="3.37304">
        <ele>163.4</ele>
        <time>2022-05-17T09:09:23Z</time>
      </trkpt>
      <trkpt lat="43.66463" lon="3.37304">
        <ele>163.8</ele>
        <time>2022-05-17T09:09:24Z</time>
      </trkpt>
      <trkpt lat="43.66468" lon="3.37304">
        <ele>164.2</ele>
        <time>2022-05-17T09:09:27Z</time>
      </trkpt>
      <trkpt lat="43.6647" lon="3.37306">
        <ele>164.6</ele>
        <time>2022-05-17T09:09:29Z</time>
      </trkpt>
      <trkpt lat="43.66472" lon="3.37309">
        <ele>165.2</ele>
        <time>2022-05-17T09:09:31Z</time>
      </trkpt>
      <trkpt lat="43.66474" lon="3.37312">
        <ele>165.8</ele>
        <time>2022-05-17T09:09:33Z</time>
      </trkpt>
      <trkpt lat="43.66478" lon="3.37318">
        <ele>167</ele>
        <time>2022-05-17T09:09:38Z</time>
      </trkpt>
      <trkpt lat="43.66486" lon="3.37319">
        <ele>168.4</ele>
        <time>2022-05-17T09:09:44Z</time>
      </trkpt>
      <trkpt lat="43.66491" lon="3.37321">
        <ele>169.2</ele>
        <time>2022-05-17T09:09:48Z</time>
      </trkpt>
      <trkpt lat="43.66492" lon="3.37322">
        <ele>169.4</ele>
        <time>2022-05-17T09:09:49Z</time>
      </trkpt>
      <trkpt lat="43.66498" lon="3.37329">
        <ele>170.4</ele>
        <time>2022-05-17T09:09:55Z</time>
      </trkpt>
      <trkpt lat="43.66498" lon="3.3733">
        <ele>170.4</ele>
        <time>2022-05-17T09:09:56Z</time>
      </trkpt>
      <trkpt lat="43.66502" lon="3.37338">
        <ele>171.6</ele>
        <time>2022-05-17T09:10:02Z</time>
      </trkpt>
      <trkpt lat="43.66505" lon="3.37343">
        <ele>172.8</ele>
        <time>2022-05-17T09:10:06Z</time>
      </trkpt>
      <trkpt lat="43.66509" lon="3.37346">
        <ele>173.8</ele>
        <time>2022-05-17T09:10:10Z</time>
      </trkpt>
      <trkpt lat="43.66518" lon="3.37341">
        <ele>174.8</ele>
        <time>2022-05-17T09:10:17Z</time>
      </trkpt>
      <trkpt lat="43.66519" lon="3.3734">
        <ele>174.8</ele>
        <time>2022-05-17T09:10:18Z</time>
      </trkpt>
      <trkpt lat="43.66528" lon="3.3733">
        <ele>176</ele>
        <time>2022-05-17T09:10:26Z</time>
      </trkpt>
      <trkpt lat="43.66538" lon="3.37321">
        <ele>177.2</ele>
        <time>2022-05-17T09:10:34Z</time>
      </trkpt>
      <trkpt lat="43.66541" lon="3.37317">
        <ele>177.4</ele>
        <time>2022-05-17T09:10:37Z</time>
      </trkpt>
      <trkpt lat="43.6655" lon="3.37313">
        <ele>178.2</ele>
        <time>2022-05-17T09:10:42Z</time>
      </trkpt>
      <trkpt lat="43.66553" lon="3.37312">
        <ele>178.4</ele>
        <time>2022-05-17T09:10:44Z</time>
      </trkpt>
      <trkpt lat="43.66558" lon="3.37312">
        <ele>179</ele>
        <time>2022-05-17T09:10:47Z</time>
      </trkpt>
      <trkpt lat="43.66562" lon="3.3731">
        <ele>179.2</ele>
        <time>2022-05-17T09:10:49Z</time>
      </trkpt>
      <trkpt lat="43.6657" lon="3.37307">
        <ele>180.4</ele>
        <time>2022-05-17T09:10:55Z</time>
      </trkpt>
      <trkpt lat="43.66572" lon="3.37305">
        <ele>180.6</ele>
        <time>2022-05-17T09:10:57Z</time>
      </trkpt>
      <trkpt lat="43.6658" lon="3.37299">
        <ele>181.4</ele>
        <time>2022-05-17T09:11:02Z</time>
      </trkpt>
      <trkpt lat="43.66583" lon="3.37296">
        <ele>181.8</ele>
        <time>2022-05-17T09:11:04Z</time>
      </trkpt>
      <trkpt lat="43.66592" lon="3.37287">
        <ele>182.6</ele>
        <time>2022-05-17T09:11:11Z</time>
      </trkpt>
      <trkpt lat="43.66594" lon="3.37284">
        <ele>183</ele>
        <time>2022-05-17T09:11:14Z</time>
      </trkpt>
      <trkpt lat="43.66601" lon="3.37285">
        <ele>183.8</ele>
        <time>2022-05-17T09:11:19Z</time>
      </trkpt>
      <trkpt lat="43.66602" lon="3.37286">
        <ele>183.8</ele>
        <time>2022-05-17T09:11:20Z</time>
      </trkpt>
      <trkpt lat="43.66602" lon="3.37288">
        <ele>184</ele>
        <time>2022-05-17T09:11:21Z</time>
      </trkpt>
      <trkpt lat="43.66601" lon="3.37291">
        <ele>184.4</ele>
        <time>2022-05-17T09:11:23Z</time>
      </trkpt>
      <trkpt lat="43.66599" lon="3.37292">
        <ele>184.8</ele>
        <time>2022-05-17T09:11:25Z</time>
      </trkpt>
      <trkpt lat="43.66593" lon="3.37295">
        <ele>185.8</ele>
        <time>2022-05-17T09:11:33Z</time>
      </trkpt>
      <trkpt lat="43.66593" lon="3.37295">
        <ele>185.8</ele>
        <time>2022-05-17T09:11:37Z</time>
      </trkpt>
      <trkpt lat="43.66593" lon="3.37295">
        <ele>186.4</ele>
        <time>2022-05-17T09:13:14Z</time>
      </trkpt>
      <trkpt lat="43.66593" lon="3.37295">
        <ele>186.4</ele>
        <time>2022-05-17T09:13:58Z</time>
      </trkpt>
      <trkpt lat="43.66589" lon="3.37301">
        <ele>186</ele>
        <time>2022-05-17T09:14:23Z</time>
      </trkpt>
      <trkpt lat="43.66577" lon="3.37316">
        <ele>185.8</ele>
        <time>2022-05-17T09:14:30Z</time>
      </trkpt>
      <trkpt lat="43.66564" lon="3.37332">
        <ele>185.6</ele>
        <time>2022-05-17T09:14:36Z</time>
      </trkpt>
      <trkpt lat="43.66552" lon="3.37347">
        <ele>185.6</ele>
        <time>2022-05-17T09:14:42Z</time>
      </trkpt>
      <trkpt lat="43.66539" lon="3.37364">
        <ele>185.6</ele>
        <time>2022-05-17T09:14:48Z</time>
      </trkpt>
      <trkpt lat="43.66527" lon="3.37388">
        <ele>185.4</ele>
        <time>2022-05-17T09:14:55Z</time>
      </trkpt>
      <trkpt lat="43.66516" lon="3.37408">
        <ele>185.4</ele>
        <time>2022-05-17T09:15:01Z</time>
      </trkpt>
      <trkpt lat="43.66499" lon="3.3742">
        <ele>185.4</ele>
        <time>2022-05-17T09:15:07Z</time>
      </trkpt>
      <trkpt lat="43.66473" lon="3.37438">
        <ele>185</ele>
        <time>2022-05-17T09:15:16Z</time>
      </trkpt>
      <trkpt lat="43.66458" lon="3.37461">
        <ele>185.2</ele>
        <time>2022-05-17T09:15:23Z</time>
      </trkpt>
      <trkpt lat="43.66447" lon="3.37497">
        <ele>185.2</ele>
        <time>2022-05-17T09:15:31Z</time>
      </trkpt>
      <trkpt lat="43.66443" lon="3.37514">
        <ele>185.2</ele>
        <time>2022-05-17T09:15:36Z</time>
      </trkpt>
      <trkpt lat="43.66442" lon="3.37516">
        <ele>184.8</ele>
        <time>2022-05-17T09:15:37Z</time>
      </trkpt>
      <trkpt lat="43.6644" lon="3.37523">
        <ele>185</ele>
        <time>2022-05-17T09:15:40Z</time>
      </trkpt>
      <trkpt lat="43.66434" lon="3.37539">
        <ele>185.2</ele>
        <time>2022-05-17T09:15:47Z</time>
      </trkpt>
      <trkpt lat="43.66429" lon="3.37558">
        <ele>185.2</ele>
        <time>2022-05-17T09:15:53Z</time>
      </trkpt>
      <trkpt lat="43.66422" lon="3.37592">
        <ele>185.2</ele>
        <time>2022-05-17T09:16:01Z</time>
      </trkpt>
      <trkpt lat="43.66416" lon="3.37628">
        <ele>185.4</ele>
        <time>2022-05-17T09:16:09Z</time>
      </trkpt>
      <trkpt lat="43.66413" lon="3.37653">
        <ele>185.4</ele>
        <time>2022-05-17T09:16:15Z</time>
      </trkpt>
      <trkpt lat="43.66414" lon="3.37695">
        <ele>185.4</ele>
        <time>2022-05-17T09:16:24Z</time>
      </trkpt>
      <trkpt lat="43.66419" lon="3.37736">
        <ele>184.8</ele>
        <time>2022-05-17T09:16:33Z</time>
      </trkpt>
      <trkpt lat="43.6642" lon="3.37741">
        <ele>184.6</ele>
        <time>2022-05-17T09:16:34Z</time>
      </trkpt>
      <trkpt lat="43.66427" lon="3.37772">
        <ele>184.6</ele>
        <time>2022-05-17T09:16:41Z</time>
      </trkpt>
      <trkpt lat="43.66439" lon="3.37804">
        <ele>184.6</ele>
        <time>2022-05-17T09:16:48Z</time>
      </trkpt>
      <trkpt lat="43.66462" lon="3.37854">
        <ele>184.2</ele>
        <time>2022-05-17T09:16:59Z</time>
      </trkpt>
      <trkpt lat="43.66482" lon="3.37893">
        <ele>184</ele>
        <time>2022-05-17T09:17:08Z</time>
      </trkpt>
      <trkpt lat="43.66495" lon="3.37919">
        <ele>184</ele>
        <time>2022-05-17T09:17:14Z</time>
      </trkpt>
      <trkpt lat="43.66496" lon="3.37929">
        <ele>184</ele>
        <time>2022-05-17T09:17:16Z</time>
      </trkpt>
      <trkpt lat="43.66494" lon="3.37933">
        <ele>184.2</ele>
        <time>2022-05-17T09:17:17Z</time>
      </trkpt>
      <trkpt lat="43.66492" lon="3.37936">
        <ele>184.2</ele>
        <time>2022-05-17T09:17:18Z</time>
      </trkpt>
      <trkpt lat="43.66486" lon="3.37939">
        <ele>184.2</ele>
        <time>2022-05-17T09:17:20Z</time>
      </trkpt>
      <trkpt lat="43.66444" lon="3.37945">
        <ele>185</ele>
        <time>2022-05-17T09:17:31Z</time>
      </trkpt>
      <trkpt lat="43.66412" lon="3.37951">
        <ele>184.8</ele>
        <time>2022-05-17T09:17:39Z</time>
      </trkpt>
      <trkpt lat="43.66378" lon="3.37958">
        <ele>184.8</ele>
        <time>2022-05-17T09:17:48Z</time>
      </trkpt>
      <trkpt lat="43.66358" lon="3.37967">
        <ele>184.6</ele>
        <time>2022-05-17T09:17:54Z</time>
      </trkpt>
      <trkpt lat="43.66335" lon="3.37991">
        <ele>184.4</ele>
        <time>2022-05-17T09:18:02Z</time>
      </trkpt>
      <trkpt lat="43.66318" lon="3.38013">
        <ele>184.8</ele>
        <time>2022-05-17T09:18:09Z</time>
      </trkpt>
      <trkpt lat="43.66301" lon="3.38042">
        <ele>185</ele>
        <time>2022-05-17T09:18:16Z</time>
      </trkpt>
      <trkpt lat="43.66279" lon="3.38072">
        <ele>185.4</ele>
        <time>2022-05-17T09:18:24Z</time>
      </trkpt>
      <trkpt lat="43.66265" lon="3.38103">
        <ele>185.6</ele>
        <time>2022-05-17T09:18:31Z</time>
      </trkpt>
      <trkpt lat="43.6625" lon="3.38154">
        <ele>185.6</ele>
        <time>2022-05-17T09:18:41Z</time>
      </trkpt>
      <trkpt lat="43.66239" lon="3.38192">
        <ele>185.4</ele>
        <time>2022-05-17T09:18:48Z</time>
      </trkpt>
      <trkpt lat="43.66237" lon="3.38227">
        <ele>184.8</ele>
        <time>2022-05-17T09:18:54Z</time>
      </trkpt>
      <trkpt lat="43.66239" lon="3.38273">
        <ele>184.6</ele>
        <time>2022-05-17T09:19:02Z</time>
      </trkpt>
      <trkpt lat="43.66248" lon="3.38308">
        <ele>184.4</ele>
        <time>2022-05-17T09:19:09Z</time>
      </trkpt>
      <trkpt lat="43.66257" lon="3.38343">
        <ele>184.4</ele>
        <time>2022-05-17T09:19:16Z</time>
      </trkpt>
      <trkpt lat="43.66254" lon="3.38373">
        <ele>184.8</ele>
        <time>2022-05-17T09:19:22Z</time>
      </trkpt>
      <trkpt lat="43.66253" lon="3.38402">
        <ele>185.6</ele>
        <time>2022-05-17T09:19:28Z</time>
      </trkpt>
      <trkpt lat="43.66254" lon="3.38416">
        <ele>185.8</ele>
        <time>2022-05-17T09:19:31Z</time>
      </trkpt>
      <trkpt lat="43.66258" lon="3.38433">
        <ele>186.2</ele>
        <time>2022-05-17T09:19:35Z</time>
      </trkpt>
      <trkpt lat="43.66262" lon="3.38462">
        <ele>186.8</ele>
        <time>2022-05-17T09:19:42Z</time>
      </trkpt>
      <trkpt lat="43.66263" lon="3.38478">
        <ele>187.8</ele>
        <time>2022-05-17T09:19:46Z</time>
      </trkpt>
      <trkpt lat="43.66261" lon="3.38486">
        <ele>188.2</ele>
        <time>2022-05-17T09:19:48Z</time>
      </trkpt>
      <trkpt lat="43.66256" lon="3.38505">
        <ele>188.8</ele>
        <time>2022-05-17T09:19:53Z</time>
      </trkpt>
      <trkpt lat="43.66252" lon="3.38516">
        <ele>189.2</ele>
        <time>2022-05-17T09:19:56Z</time>
      </trkpt>
      <trkpt lat="43.66249" lon="3.38535">
        <ele>190</ele>
        <time>2022-05-17T09:20:01Z</time>
      </trkpt>
      <trkpt lat="43.66247" lon="3.38562">
        <ele>191.2</ele>
        <time>2022-05-17T09:20:08Z</time>
      </trkpt>
      <trkpt lat="43.66247" lon="3.3857">
        <ele>191.4</ele>
        <time>2022-05-17T09:20:10Z</time>
      </trkpt>
      <trkpt lat="43.66249" lon="3.38596">
        <ele>192.2</ele>
        <time>2022-05-17T09:20:17Z</time>
      </trkpt>
      <trkpt lat="43.6625" lon="3.38607">
        <ele>192.6</ele>
        <time>2022-05-17T09:20:20Z</time>
      </trkpt>
      <trkpt lat="43.6625" lon="3.38624">
        <ele>193.4</ele>
        <time>2022-05-17T09:20:25Z</time>
      </trkpt>
      <trkpt lat="43.66251" lon="3.3863">
        <ele>193.6</ele>
        <time>2022-05-17T09:20:27Z</time>
      </trkpt>
      <trkpt lat="43.66251" lon="3.38656">
        <ele>194.6</ele>
        <time>2022-05-17T09:20:34Z</time>
      </trkpt>
      <trkpt lat="43.66252" lon="3.38664">
        <ele>194.8</ele>
        <time>2022-05-17T09:20:36Z</time>
      </trkpt>
      <trkpt lat="43.66257" lon="3.38692">
        <ele>195.6</ele>
        <time>2022-05-17T09:20:44Z</time>
      </trkpt>
      <trkpt lat="43.66265" lon="3.38715">
        <ele>196.4</ele>
        <time>2022-05-17T09:20:51Z</time>
      </trkpt>
      <trkpt lat="43.66273" lon="3.38732">
        <ele>196.8</ele>
        <time>2022-05-17T09:20:56Z</time>
      </trkpt>
      <trkpt lat="43.6628" lon="3.3874">
        <ele>196.8</ele>
        <time>2022-05-17T09:20:59Z</time>
      </trkpt>
      <trkpt lat="43.66287" lon="3.38755">
        <ele>197</ele>
        <time>2022-05-17T09:21:04Z</time>
      </trkpt>
      <trkpt lat="43.66285" lon="3.38763">
        <ele>197.2</ele>
        <time>2022-05-17T09:21:06Z</time>
      </trkpt>
      <trkpt lat="43.66281" lon="3.38768">
        <ele>197.8</ele>
        <time>2022-05-17T09:21:08Z</time>
      </trkpt>
      <trkpt lat="43.66272" lon="3.38784">
        <ele>198.6</ele>
        <time>2022-05-17T09:21:14Z</time>
      </trkpt>
      <trkpt lat="43.66271" lon="3.38786">
        <ele>198.8</ele>
        <time>2022-05-17T09:21:15Z</time>
      </trkpt>
      <trkpt lat="43.66266" lon="3.388">
        <ele>199.4</ele>
        <time>2022-05-17T09:21:20Z</time>
      </trkpt>
      <trkpt lat="43.66264" lon="3.38809">
        <ele>200</ele>
        <time>2022-05-17T09:21:23Z</time>
      </trkpt>
      <trkpt lat="43.6626" lon="3.38822">
        <ele>200.4</ele>
        <time>2022-05-17T09:21:27Z</time>
      </trkpt>
      <trkpt lat="43.66255" lon="3.38828">
        <ele>200.8</ele>
        <time>2022-05-17T09:21:30Z</time>
      </trkpt>
      <trkpt lat="43.66252" lon="3.38833">
        <ele>201</ele>
        <time>2022-05-17T09:21:32Z</time>
      </trkpt>
      <trkpt lat="43.66244" lon="3.3885">
        <ele>201.8</ele>
        <time>2022-05-17T09:21:38Z</time>
      </trkpt>
      <trkpt lat="43.66242" lon="3.38856">
        <ele>202.2</ele>
        <time>2022-05-17T09:21:40Z</time>
      </trkpt>
      <trkpt lat="43.66234" lon="3.38877">
        <ele>203</ele>
        <time>2022-05-17T09:21:47Z</time>
      </trkpt>
      <trkpt lat="43.66233" lon="3.3888">
        <ele>203</ele>
        <time>2022-05-17T09:21:48Z</time>
      </trkpt>
      <trkpt lat="43.66224" lon="3.38899">
        <ele>203.6</ele>
        <time>2022-05-17T09:21:55Z</time>
      </trkpt>
      <trkpt lat="43.6622" lon="3.38909">
        <ele>204</ele>
        <time>2022-05-17T09:21:59Z</time>
      </trkpt>
      <trkpt lat="43.66219" lon="3.38912">
        <ele>204</ele>
        <time>2022-05-17T09:22:00Z</time>
      </trkpt>
      <trkpt lat="43.66211" lon="3.38928">
        <ele>204.6</ele>
        <time>2022-05-17T09:22:06Z</time>
      </trkpt>
      <trkpt lat="43.66204" lon="3.38941">
        <ele>205.4</ele>
        <time>2022-05-17T09:22:11Z</time>
      </trkpt>
      <trkpt lat="43.66201" lon="3.38946">
        <ele>205.6</ele>
        <time>2022-05-17T09:22:13Z</time>
      </trkpt>
      <trkpt lat="43.66194" lon="3.38965">
        <ele>206.4</ele>
        <time>2022-05-17T09:22:20Z</time>
      </trkpt>
      <trkpt lat="43.66193" lon="3.38967">
        <ele>206.4</ele>
        <time>2022-05-17T09:22:21Z</time>
      </trkpt>
      <trkpt lat="43.66185" lon="3.38989">
        <ele>207</ele>
        <time>2022-05-17T09:22:29Z</time>
      </trkpt>
      <trkpt lat="43.66181" lon="3.39005">
        <ele>207.4</ele>
        <time>2022-05-17T09:22:36Z</time>
      </trkpt>
      <trkpt lat="43.66179" lon="3.39011">
        <ele>207.6</ele>
        <time>2022-05-17T09:22:39Z</time>
      </trkpt>
      <trkpt lat="43.66179" lon="3.39013">
        <ele>207.6</ele>
        <time>2022-05-17T09:22:40Z</time>
      </trkpt>
      <trkpt lat="43.66177" lon="3.39022">
        <ele>208</ele>
        <time>2022-05-17T09:22:45Z</time>
      </trkpt>
      <trkpt lat="43.66175" lon="3.39031">
        <ele>208.4</ele>
        <time>2022-05-17T09:22:50Z</time>
      </trkpt>
      <trkpt lat="43.66175" lon="3.39033">
        <ele>208.6</ele>
        <time>2022-05-17T09:22:51Z</time>
      </trkpt>
      <trkpt lat="43.66175" lon="3.39036">
        <ele>208.8</ele>
        <time>2022-05-17T09:22:53Z</time>
      </trkpt>
      <trkpt lat="43.66173" lon="3.39047">
        <ele>208.8</ele>
        <time>2022-05-17T09:22:58Z</time>
      </trkpt>
      <trkpt lat="43.66174" lon="3.39052">
        <ele>209</ele>
        <time>2022-05-17T09:23:00Z</time>
      </trkpt>
      <trkpt lat="43.66174" lon="3.39055">
        <ele>209</ele>
        <time>2022-05-17T09:23:02Z</time>
      </trkpt>
      <trkpt lat="43.66173" lon="3.39061">
        <ele>209.2</ele>
        <time>2022-05-17T09:23:05Z</time>
      </trkpt>
      <trkpt lat="43.6617" lon="3.39079">
        <ele>209.6</ele>
        <time>2022-05-17T09:23:12Z</time>
      </trkpt>
      <trkpt lat="43.66169" lon="3.39081">
        <ele>209.6</ele>
        <time>2022-05-17T09:23:13Z</time>
      </trkpt>
      <trkpt lat="43.66165" lon="3.39097">
        <ele>210</ele>
        <time>2022-05-17T09:23:19Z</time>
      </trkpt>
      <trkpt lat="43.66163" lon="3.39111">
        <ele>210.2</ele>
        <time>2022-05-17T09:23:25Z</time>
      </trkpt>
      <trkpt lat="43.66161" lon="3.39118">
        <ele>210.6</ele>
        <time>2022-05-17T09:23:28Z</time>
      </trkpt>
      <trkpt lat="43.6616" lon="3.39132">
        <ele>210.6</ele>
        <time>2022-05-17T09:23:33Z</time>
      </trkpt>
      <trkpt lat="43.66159" lon="3.39149">
        <ele>211.2</ele>
        <time>2022-05-17T09:23:40Z</time>
      </trkpt>
      <trkpt lat="43.66158" lon="3.39157">
        <ele>211.4</ele>
        <time>2022-05-17T09:23:43Z</time>
      </trkpt>
      <trkpt lat="43.66158" lon="3.39165">
        <ele>211.8</ele>
        <time>2022-05-17T09:23:46Z</time>
      </trkpt>
      <trkpt lat="43.66159" lon="3.39177">
        <ele>212.6</ele>
        <time>2022-05-17T09:23:51Z</time>
      </trkpt>
      <trkpt lat="43.6616" lon="3.39184">
        <ele>212.8</ele>
        <time>2022-05-17T09:23:54Z</time>
      </trkpt>
      <trkpt lat="43.66165" lon="3.39196">
        <ele>213.6</ele>
        <time>2022-05-17T09:24:00Z</time>
      </trkpt>
      <trkpt lat="43.66166" lon="3.39198">
        <ele>213.8</ele>
        <time>2022-05-17T09:24:01Z</time>
      </trkpt>
      <trkpt lat="43.66168" lon="3.39208">
        <ele>214.6</ele>
        <time>2022-05-17T09:24:05Z</time>
      </trkpt>
      <trkpt lat="43.6617" lon="3.39214">
        <ele>215.2</ele>
        <time>2022-05-17T09:24:08Z</time>
      </trkpt>
      <trkpt lat="43.66171" lon="3.39221">
        <ele>215.6</ele>
        <time>2022-05-17T09:24:11Z</time>
      </trkpt>
      <trkpt lat="43.66173" lon="3.39228">
        <ele>216.2</ele>
        <time>2022-05-17T09:24:14Z</time>
      </trkpt>
      <trkpt lat="43.66173" lon="3.39235">
        <ele>216.8</ele>
        <time>2022-05-17T09:24:17Z</time>
      </trkpt>
      <trkpt lat="43.66173" lon="3.39247">
        <ele>217.6</ele>
        <time>2022-05-17T09:24:22Z</time>
      </trkpt>
      <trkpt lat="43.66173" lon="3.39251">
        <ele>217.8</ele>
        <time>2022-05-17T09:24:24Z</time>
      </trkpt>
      <trkpt lat="43.66171" lon="3.39264">
        <ele>218.4</ele>
        <time>2022-05-17T09:24:29Z</time>
      </trkpt>
      <trkpt lat="43.66169" lon="3.39272">
        <ele>219</ele>
        <time>2022-05-17T09:24:32Z</time>
      </trkpt>
      <trkpt lat="43.66163" lon="3.39283">
        <ele>219.8</ele>
        <time>2022-05-17T09:24:37Z</time>
      </trkpt>
      <trkpt lat="43.6616" lon="3.39289">
        <ele>220.2</ele>
        <time>2022-05-17T09:24:40Z</time>
      </trkpt>
      <trkpt lat="43.66156" lon="3.393">
        <ele>220.6</ele>
        <time>2022-05-17T09:24:45Z</time>
      </trkpt>
      <trkpt lat="43.66152" lon="3.39311">
        <ele>221.2</ele>
        <time>2022-05-17T09:24:50Z</time>
      </trkpt>
      <trkpt lat="43.66149" lon="3.39317">
        <ele>221.8</ele>
        <time>2022-05-17T09:24:53Z</time>
      </trkpt>
      <trkpt lat="43.66146" lon="3.39321">
        <ele>222.4</ele>
        <time>2022-05-17T09:24:55Z</time>
      </trkpt>
      <trkpt lat="43.6614" lon="3.39331">
        <ele>222.8</ele>
        <time>2022-05-17T09:25:00Z</time>
      </trkpt>
      <trkpt lat="43.66135" lon="3.39343">
        <ele>223.4</ele>
        <time>2022-05-17T09:25:05Z</time>
      </trkpt>
      <trkpt lat="43.66131" lon="3.39353">
        <ele>223.8</ele>
        <time>2022-05-17T09:25:08Z</time>
      </trkpt>
      <trkpt lat="43.66126" lon="3.39366">
        <ele>224</ele>
        <time>2022-05-17T09:25:13Z</time>
      </trkpt>
      <trkpt lat="43.66124" lon="3.3937">
        <ele>224</ele>
        <time>2022-05-17T09:25:15Z</time>
      </trkpt>
      <trkpt lat="43.66115" lon="3.39385">
        <ele>224.4</ele>
        <time>2022-05-17T09:25:23Z</time>
      </trkpt>
      <trkpt lat="43.66113" lon="3.39387">
        <ele>224.4</ele>
        <time>2022-05-17T09:25:24Z</time>
      </trkpt>
      <trkpt lat="43.66108" lon="3.39396">
        <ele>224.6</ele>
        <time>2022-05-17T09:25:30Z</time>
      </trkpt>
      <trkpt lat="43.661" lon="3.39411">
        <ele>225</ele>
        <time>2022-05-17T09:25:39Z</time>
      </trkpt>
      <trkpt lat="43.66098" lon="3.39424">
        <ele>225.4</ele>
        <time>2022-05-17T09:25:45Z</time>
      </trkpt>
      <trkpt lat="43.66098" lon="3.39426">
        <ele>225.4</ele>
        <time>2022-05-17T09:25:46Z</time>
      </trkpt>
      <trkpt lat="43.66099" lon="3.39435">
        <ele>225.6</ele>
        <time>2022-05-17T09:25:50Z</time>
      </trkpt>
      <trkpt lat="43.66099" lon="3.39438">
        <ele>225.6</ele>
        <time>2022-05-17T09:25:52Z</time>
      </trkpt>
      <trkpt lat="43.66103" lon="3.39446">
        <ele>225.4</ele>
        <time>2022-05-17T09:25:57Z</time>
      </trkpt>
      <trkpt lat="43.66104" lon="3.39446">
        <ele>225.4</ele>
        <time>2022-05-17T09:25:58Z</time>
      </trkpt>
      <trkpt lat="43.66107" lon="3.39447">
        <ele>225.4</ele>
        <time>2022-05-17T09:26:05Z</time>
      </trkpt>
      <trkpt lat="43.66107" lon="3.39447">
        <ele>226.2</ele>
        <time>2022-05-17T09:26:27Z</time>
      </trkpt>
      <trkpt lat="43.66107" lon="3.39447">
        <ele>226</ele>
        <time>2022-05-17T09:27:50Z</time>
      </trkpt>
      <trkpt lat="43.66112" lon="3.39451">
        <ele>226</ele>
        <time>2022-05-17T09:27:53Z</time>
      </trkpt>
      <trkpt lat="43.66127" lon="3.39466">
        <ele>225.6</ele>
        <time>2022-05-17T09:28:00Z</time>
      </trkpt>
      <trkpt lat="43.66144" lon="3.39476">
        <ele>225.2</ele>
        <time>2022-05-17T09:28:05Z</time>
      </trkpt>
      <trkpt lat="43.66172" lon="3.39481">
        <ele>224.8</ele>
        <time>2022-05-17T09:28:11Z</time>
      </trkpt>
      <trkpt lat="43.66183" lon="3.39483">
        <ele>224.6</ele>
        <time>2022-05-17T09:28:13Z</time>
      </trkpt>
      <trkpt lat="43.66208" lon="3.3949">
        <ele>223.6</ele>
        <time>2022-05-17T09:28:17Z</time>
      </trkpt>
      <trkpt lat="43.66213" lon="3.39492">
        <ele>223.6</ele>
        <time>2022-05-17T09:28:18Z</time>
      </trkpt>
      <trkpt lat="43.66221" lon="3.39496">
        <ele>223.4</ele>
        <time>2022-05-17T09:28:19Z</time>
      </trkpt>
      <trkpt lat="43.66234" lon="3.39501">
        <ele>223</ele>
        <time>2022-05-17T09:28:21Z</time>
      </trkpt>
      <trkpt lat="43.66259" lon="3.39508">
        <ele>222.4</ele>
        <time>2022-05-17T09:28:24Z</time>
      </trkpt>
      <trkpt lat="43.66284" lon="3.39517">
        <ele>221.4</ele>
        <time>2022-05-17T09:28:27Z</time>
      </trkpt>
      <trkpt lat="43.66309" lon="3.39524">
        <ele>220.2</ele>
        <time>2022-05-17T09:28:30Z</time>
      </trkpt>
      <trkpt lat="43.66326" lon="3.39523">
        <ele>219.2</ele>
        <time>2022-05-17T09:28:32Z</time>
      </trkpt>
      <trkpt lat="43.66334" lon="3.39521">
        <ele>219</ele>
        <time>2022-05-17T09:28:33Z</time>
      </trkpt>
      <trkpt lat="43.66361" lon="3.39513">
        <ele>218.2</ele>
        <time>2022-05-17T09:28:36Z</time>
      </trkpt>
      <trkpt lat="43.66368" lon="3.39512">
        <ele>218</ele>
        <time>2022-05-17T09:28:37Z</time>
      </trkpt>
      <trkpt lat="43.66373" lon="3.39514">
        <ele>217.6</ele>
        <time>2022-05-17T09:28:38Z</time>
      </trkpt>
      <trkpt lat="43.66378" lon="3.39517">
        <ele>216.8</ele>
        <time>2022-05-17T09:28:39Z</time>
      </trkpt>
      <trkpt lat="43.6638" lon="3.39521">
        <ele>216.2</ele>
        <time>2022-05-17T09:28:40Z</time>
      </trkpt>
      <trkpt lat="43.6638" lon="3.39525">
        <ele>215</ele>
        <time>2022-05-17T09:28:41Z</time>
      </trkpt>
      <trkpt lat="43.66378" lon="3.39528">
        <ele>214.6</ele>
        <time>2022-05-17T09:28:42Z</time>
      </trkpt>
      <trkpt lat="43.66375" lon="3.39531">
        <ele>214</ele>
        <time>2022-05-17T09:28:43Z</time>
      </trkpt>
      <trkpt lat="43.66367" lon="3.39538">
        <ele>213.6</ele>
        <time>2022-05-17T09:28:46Z</time>
      </trkpt>
      <trkpt lat="43.66346" lon="3.39556">
        <ele>213.6</ele>
        <time>2022-05-17T09:28:53Z</time>
      </trkpt>
      <trkpt lat="43.66341" lon="3.39578">
        <ele>213.6</ele>
        <time>2022-05-17T09:28:58Z</time>
      </trkpt>
      <trkpt lat="43.66329" lon="3.396">
        <ele>213.8</ele>
        <time>2022-05-17T09:29:04Z</time>
      </trkpt>
      <trkpt lat="43.66316" lon="3.39601">
        <ele>214.2</ele>
        <time>2022-05-17T09:29:08Z</time>
      </trkpt>
      <trkpt lat="43.66301" lon="3.39604">
        <ele>215</ele>
        <time>2022-05-17T09:29:13Z</time>
      </trkpt>
      <trkpt lat="43.66299" lon="3.39605">
        <ele>215</ele>
        <time>2022-05-17T09:29:14Z</time>
      </trkpt>
      <trkpt lat="43.66283" lon="3.39614">
        <ele>215.6</ele>
        <time>2022-05-17T09:29:21Z</time>
      </trkpt>
      <trkpt lat="43.66274" lon="3.39622">
        <ele>216</ele>
        <time>2022-05-17T09:29:25Z</time>
      </trkpt>
      <trkpt lat="43.66259" lon="3.39635">
        <ele>216.4</ele>
        <time>2022-05-17T09:29:32Z</time>
      </trkpt>
      <trkpt lat="43.66247" lon="3.39637">
        <ele>216.8</ele>
        <time>2022-05-17T09:29:38Z</time>
      </trkpt>
      <trkpt lat="43.66228" lon="3.39646">
        <ele>216.8</ele>
        <time>2022-05-17T09:29:45Z</time>
      </trkpt>
      <trkpt lat="43.66221" lon="3.3967">
        <ele>216.6</ele>
        <time>2022-05-17T09:29:50Z</time>
      </trkpt>
      <trkpt lat="43.66208" lon="3.39692">
        <ele>216.4</ele>
        <time>2022-05-17T09:29:56Z</time>
      </trkpt>
      <trkpt lat="43.66195" lon="3.39704">
        <ele>216.8</ele>
        <time>2022-05-17T09:30:02Z</time>
      </trkpt>
      <trkpt lat="43.66189" lon="3.39708">
        <ele>217.2</ele>
        <time>2022-05-17T09:30:04Z</time>
      </trkpt>
      <trkpt lat="43.66171" lon="3.39717">
        <ele>217.4</ele>
        <time>2022-05-17T09:30:10Z</time>
      </trkpt>
      <trkpt lat="43.6614" lon="3.39714">
        <ele>217.6</ele>
        <time>2022-05-17T09:30:20Z</time>
      </trkpt>
      <trkpt lat="43.66125" lon="3.39723">
        <ele>218</ele>
        <time>2022-05-17T09:30:26Z</time>
      </trkpt>
      <trkpt lat="43.66109" lon="3.39741">
        <ele>218</ele>
        <time>2022-05-17T09:30:33Z</time>
      </trkpt>
      <trkpt lat="43.66095" lon="3.3977">
        <ele>218</ele>
        <time>2022-05-17T09:30:40Z</time>
      </trkpt>
      <trkpt lat="43.66077" lon="3.39786">
        <ele>217.8</ele>
        <time>2022-05-17T09:30:46Z</time>
      </trkpt>
      <trkpt lat="43.66057" lon="3.398">
        <ele>218</ele>
        <time>2022-05-17T09:30:53Z</time>
      </trkpt>
      <trkpt lat="43.66041" lon="3.39816">
        <ele>218.4</ele>
        <time>2022-05-17T09:30:59Z</time>
      </trkpt>
      <trkpt lat="43.66039" lon="3.3982">
        <ele>218.6</ele>
        <time>2022-05-17T09:31:00Z</time>
      </trkpt>
      <trkpt lat="43.66019" lon="3.39839">
        <ele>218.6</ele>
        <time>2022-05-17T09:31:07Z</time>
      </trkpt>
      <trkpt lat="43.66009" lon="3.39844">
        <ele>218.8</ele>
        <time>2022-05-17T09:31:11Z</time>
      </trkpt>
      <trkpt lat="43.65997" lon="3.39851">
        <ele>219.4</ele>
        <time>2022-05-17T09:31:18Z</time>
      </trkpt>
      <trkpt lat="43.65979" lon="3.39863">
        <ele>220.2</ele>
        <time>2022-05-17T09:31:28Z</time>
      </trkpt>
      <trkpt lat="43.65967" lon="3.39874">
        <ele>220.4</ele>
        <time>2022-05-17T09:31:33Z</time>
      </trkpt>
      <trkpt lat="43.65948" lon="3.39885">
        <ele>220.4</ele>
        <time>2022-05-17T09:31:40Z</time>
      </trkpt>
      <trkpt lat="43.65926" lon="3.399">
        <ele>220.6</ele>
        <time>2022-05-17T09:31:48Z</time>
      </trkpt>
      <trkpt lat="43.6591" lon="3.39917">
        <ele>220.4</ele>
        <time>2022-05-17T09:31:55Z</time>
      </trkpt>
      <trkpt lat="43.65899" lon="3.39934">
        <ele>220.6</ele>
        <time>2022-05-17T09:32:01Z</time>
      </trkpt>
      <trkpt lat="43.65898" lon="3.39934">
        <ele>220.2</ele>
        <time>2022-05-17T09:32:02Z</time>
      </trkpt>
      <trkpt lat="43.65893" lon="3.39933">
        <ele>220.4</ele>
        <time>2022-05-17T09:32:04Z</time>
      </trkpt>
      <trkpt lat="43.65888" lon="3.39937">
        <ele>220.4</ele>
        <time>2022-05-17T09:32:06Z</time>
      </trkpt>
      <trkpt lat="43.65875" lon="3.3994">
        <ele>220</ele>
        <time>2022-05-17T09:32:11Z</time>
      </trkpt>
      <trkpt lat="43.65869" lon="3.39942">
        <ele>219.2</ele>
        <time>2022-05-17T09:32:14Z</time>
      </trkpt>
      <trkpt lat="43.65869" lon="3.39943">
        <ele>219</ele>
        <time>2022-05-17T09:32:15Z</time>
      </trkpt>
      <trkpt lat="43.65869" lon="3.39944">
        <ele>218.6</ele>
        <time>2022-05-17T09:32:19Z</time>
      </trkpt>
      <trkpt lat="43.65869" lon="3.39948">
        <ele>218.2</ele>
        <time>2022-05-17T09:32:28Z</time>
      </trkpt>
      <trkpt lat="43.65872" lon="3.39948">
        <ele>218.2</ele>
        <time>2022-05-17T09:32:30Z</time>
      </trkpt>
      <trkpt lat="43.65873" lon="3.39947">
        <ele>218.2</ele>
        <time>2022-05-17T09:32:31Z</time>
      </trkpt>
      <trkpt lat="43.65878" lon="3.39946">
        <ele>218.2</ele>
        <time>2022-05-17T09:32:34Z</time>
      </trkpt>
      <trkpt lat="43.6588" lon="3.39948">
        <ele>218.2</ele>
        <time>2022-05-17T09:32:35Z</time>
      </trkpt>
      <trkpt lat="43.65883" lon="3.39957">
        <ele>218.6</ele>
        <time>2022-05-17T09:32:38Z</time>
      </trkpt>
      <trkpt lat="43.6589" lon="3.39974">
        <ele>218.8</ele>
        <time>2022-05-17T09:32:43Z</time>
      </trkpt>
      <trkpt lat="43.65896" lon="3.40002">
        <ele>219.2</ele>
        <time>2022-05-17T09:32:49Z</time>
      </trkpt>
      <trkpt lat="43.65905" lon="3.40041">
        <ele>219.2</ele>
        <time>2022-05-17T09:32:57Z</time>
      </trkpt>
      <trkpt lat="43.65919" lon="3.40069">
        <ele>218.6</ele>
        <time>2022-05-17T09:33:03Z</time>
      </trkpt>
      <trkpt lat="43.65945" lon="3.40108">
        <ele>217.8</ele>
        <time>2022-05-17T09:33:11Z</time>
      </trkpt>
      <trkpt lat="43.65967" lon="3.40134">
        <ele>217.8</ele>
        <time>2022-05-17T09:33:17Z</time>
      </trkpt>
      <trkpt lat="43.65971" lon="3.40139">
        <ele>217.6</ele>
        <time>2022-05-17T09:33:18Z</time>
      </trkpt>
      <trkpt lat="43.65983" lon="3.40155">
        <ele>217.4</ele>
        <time>2022-05-17T09:33:22Z</time>
      </trkpt>
      <trkpt lat="43.65986" lon="3.4016">
        <ele>217.2</ele>
        <time>2022-05-17T09:33:23Z</time>
      </trkpt>
      <trkpt lat="43.65996" lon="3.40208">
        <ele>217</ele>
        <time>2022-05-17T09:33:30Z</time>
      </trkpt>
      <trkpt lat="43.65998" lon="3.40221">
        <ele>217</ele>
        <time>2022-05-17T09:33:32Z</time>
      </trkpt>
      <trkpt lat="43.66005" lon="3.40242">
        <ele>217</ele>
        <time>2022-05-17T09:33:35Z</time>
      </trkpt>
      <trkpt lat="43.6601" lon="3.40254">
        <ele>217</ele>
        <time>2022-05-17T09:33:37Z</time>
      </trkpt>
      <trkpt lat="43.66019" lon="3.4029">
        <ele>217</ele>
        <time>2022-05-17T09:33:42Z</time>
      </trkpt>
      <trkpt lat="43.66025" lon="3.40355">
        <ele>217</ele>
        <time>2022-05-17T09:33:50Z</time>
      </trkpt>
      <trkpt lat="43.66025" lon="3.40382">
        <ele>216.8</ele>
        <time>2022-05-17T09:33:53Z</time>
      </trkpt>
      <trkpt lat="43.66028" lon="3.404">
        <ele>216.8</ele>
        <time>2022-05-17T09:33:55Z</time>
      </trkpt>
      <trkpt lat="43.6603" lon="3.4041">
        <ele>216.6</ele>
        <time>2022-05-17T09:33:56Z</time>
      </trkpt>
      <trkpt lat="43.66035" lon="3.40426">
        <ele>216.4</ele>
        <time>2022-05-17T09:33:58Z</time>
      </trkpt>
      <trkpt lat="43.66046" lon="3.40451">
        <ele>216.2</ele>
        <time>2022-05-17T09:34:01Z</time>
      </trkpt>
      <trkpt lat="43.66055" lon="3.40464">
        <ele>216</ele>
        <time>2022-05-17T09:34:03Z</time>
      </trkpt>
      <trkpt lat="43.66067" lon="3.40473">
        <ele>216</ele>
        <time>2022-05-17T09:34:05Z</time>
      </trkpt>
      <trkpt lat="43.66078" lon="3.40476">
        <ele>215.6</ele>
        <time>2022-05-17T09:34:07Z</time>
      </trkpt>
      <trkpt lat="43.66083" lon="3.40476">
        <ele>215.4</ele>
        <time>2022-05-17T09:34:08Z</time>
      </trkpt>
      <trkpt lat="43.66088" lon="3.40474">
        <ele>215.2</ele>
        <time>2022-05-17T09:34:09Z</time>
      </trkpt>
      <trkpt lat="43.66101" lon="3.40468">
        <ele>215</ele>
        <time>2022-05-17T09:34:12Z</time>
      </trkpt>
      <trkpt lat="43.66117" lon="3.40459">
        <ele>214.6</ele>
        <time>2022-05-17T09:34:16Z</time>
      </trkpt>
      <trkpt lat="43.6612" lon="3.40456">
        <ele>214.4</ele>
        <time>2022-05-17T09:34:17Z</time>
      </trkpt>
      <trkpt lat="43.6614" lon="3.40438">
        <ele>214</ele>
        <time>2022-05-17T09:34:23Z</time>
      </trkpt>
      <trkpt lat="43.66153" lon="3.40425">
        <ele>213.4</ele>
        <time>2022-05-17T09:34:27Z</time>
      </trkpt>
      <trkpt lat="43.66156" lon="3.40421">
        <ele>213.2</ele>
        <time>2022-05-17T09:34:28Z</time>
      </trkpt>
      <trkpt lat="43.66177" lon="3.40405">
        <ele>212.4</ele>
        <time>2022-05-17T09:34:34Z</time>
      </trkpt>
      <trkpt lat="43.66181" lon="3.40406">
        <ele>212.4</ele>
        <time>2022-05-17T09:34:35Z</time>
      </trkpt>
      <trkpt lat="43.66183" lon="3.40408">
        <ele>212.4</ele>
        <time>2022-05-17T09:34:36Z</time>
      </trkpt>
      <trkpt lat="43.66186" lon="3.40411">
        <ele>212.2</ele>
        <time>2022-05-17T09:34:37Z</time>
      </trkpt>
      <trkpt lat="43.66196" lon="3.40425">
        <ele>212.6</ele>
        <time>2022-05-17T09:34:43Z</time>
      </trkpt>
      <trkpt lat="43.66204" lon="3.40444">
        <ele>213.6</ele>
        <time>2022-05-17T09:34:50Z</time>
      </trkpt>
      <trkpt lat="43.66207" lon="3.4045">
        <ele>213.8</ele>
        <time>2022-05-17T09:34:52Z</time>
      </trkpt>
      <trkpt lat="43.66224" lon="3.40468">
        <ele>214.6</ele>
        <time>2022-05-17T09:35:00Z</time>
      </trkpt>
      <trkpt lat="43.66229" lon="3.40473">
        <ele>214.6</ele>
        <time>2022-05-17T09:35:02Z</time>
      </trkpt>
      <trkpt lat="43.66252" lon="3.40492">
        <ele>215.6</ele>
        <time>2022-05-17T09:35:11Z</time>
      </trkpt>
      <trkpt lat="43.66255" lon="3.40494">
        <ele>215.6</ele>
        <time>2022-05-17T09:35:12Z</time>
      </trkpt>
      <trkpt lat="43.6627" lon="3.40506">
        <ele>216.2</ele>
        <time>2022-05-17T09:35:17Z</time>
      </trkpt>
      <trkpt lat="43.66286" lon="3.40519">
        <ele>216.8</ele>
        <time>2022-05-17T09:35:23Z</time>
      </trkpt>
      <trkpt lat="43.66289" lon="3.4052">
        <ele>217</ele>
        <time>2022-05-17T09:35:24Z</time>
      </trkpt>
      <trkpt lat="43.663" lon="3.40527">
        <ele>217.8</ele>
        <time>2022-05-17T09:35:28Z</time>
      </trkpt>
      <trkpt lat="43.66302" lon="3.40529">
        <ele>218</ele>
        <time>2022-05-17T09:35:29Z</time>
      </trkpt>
      <trkpt lat="43.66311" lon="3.40538">
        <ele>218.8</ele>
        <time>2022-05-17T09:35:34Z</time>
      </trkpt>
      <trkpt lat="43.66314" lon="3.40543">
        <ele>219</ele>
        <time>2022-05-17T09:35:36Z</time>
      </trkpt>
      <trkpt lat="43.66318" lon="3.40551">
        <ele>220</ele>
        <time>2022-05-17T09:35:39Z</time>
      </trkpt>
      <trkpt lat="43.6632" lon="3.40555">
        <ele>220.4</ele>
        <time>2022-05-17T09:35:41Z</time>
      </trkpt>
      <trkpt lat="43.66326" lon="3.40561">
        <ele>221.2</ele>
        <time>2022-05-17T09:35:45Z</time>
      </trkpt>
      <trkpt lat="43.6633" lon="3.40566">
        <ele>221.8</ele>
        <time>2022-05-17T09:35:49Z</time>
      </trkpt>
      <trkpt lat="43.66334" lon="3.40568">
        <ele>222</ele>
        <time>2022-05-17T09:35:52Z</time>
      </trkpt>
      <trkpt lat="43.66338" lon="3.4057">
        <ele>222.2</ele>
        <time>2022-05-17T09:35:56Z</time>
      </trkpt>
      <trkpt lat="43.6634" lon="3.40571">
        <ele>222.2</ele>
        <time>2022-05-17T09:35:58Z</time>
      </trkpt>
      <trkpt lat="43.66344" lon="3.40574">
        <ele>222</ele>
        <time>2022-05-17T09:36:01Z</time>
      </trkpt>
      <trkpt lat="43.66356" lon="3.40578">
        <ele>221.4</ele>
        <time>2022-05-17T09:36:08Z</time>
      </trkpt>
      <trkpt lat="43.66365" lon="3.40583">
        <ele>220.6</ele>
        <time>2022-05-17T09:36:15Z</time>
      </trkpt>
      <trkpt lat="43.66366" lon="3.40584">
        <ele>220.4</ele>
        <time>2022-05-17T09:36:16Z</time>
      </trkpt>
      <trkpt lat="43.66367" lon="3.40584">
        <ele>220.4</ele>
        <time>2022-05-17T09:36:17Z</time>
      </trkpt>
      <trkpt lat="43.66369" lon="3.40585">
        <ele>220.4</ele>
        <time>2022-05-17T09:36:18Z</time>
      </trkpt>
      <trkpt lat="43.66373" lon="3.40587">
        <ele>220.2</ele>
        <time>2022-05-17T09:36:21Z</time>
      </trkpt>
      <trkpt lat="43.66375" lon="3.40588">
        <ele>219.8</ele>
        <time>2022-05-17T09:36:26Z</time>
      </trkpt>
      <trkpt lat="43.66375" lon="3.40588">
        <ele>219.8</ele>
        <time>2022-05-17T09:37:12Z</time>
      </trkpt>
      <trkpt lat="43.66375" lon="3.40588">
        <ele>220</ele>
        <time>2022-05-17T09:38:03Z</time>
      </trkpt>
      <trkpt lat="43.66381" lon="3.40592">
        <ele>219.8</ele>
        <time>2022-05-17T09:38:06Z</time>
      </trkpt>
      <trkpt lat="43.66393" lon="3.40598">
        <ele>219.2</ele>
        <time>2022-05-17T09:38:12Z</time>
      </trkpt>
      <trkpt lat="43.66395" lon="3.40597">
        <ele>219</ele>
        <time>2022-05-17T09:38:13Z</time>
      </trkpt>
      <trkpt lat="43.66405" lon="3.406">
        <ele>218.6</ele>
        <time>2022-05-17T09:38:18Z</time>
      </trkpt>
      <trkpt lat="43.66409" lon="3.406">
        <ele>218.4</ele>
        <time>2022-05-17T09:38:19Z</time>
      </trkpt>
      <trkpt lat="43.66426" lon="3.40607">
        <ele>217.6</ele>
        <time>2022-05-17T09:38:23Z</time>
      </trkpt>
      <trkpt lat="43.66435" lon="3.40612">
        <ele>217</ele>
        <time>2022-05-17T09:38:25Z</time>
      </trkpt>
      <trkpt lat="43.66451" lon="3.40624">
        <ele>216.4</ele>
        <time>2022-05-17T09:38:29Z</time>
      </trkpt>
      <trkpt lat="43.66456" lon="3.40627">
        <ele>216</ele>
        <time>2022-05-17T09:38:30Z</time>
      </trkpt>
      <trkpt lat="43.66469" lon="3.40636">
        <ele>214.8</ele>
        <time>2022-05-17T09:38:33Z</time>
      </trkpt>
      <trkpt lat="43.66474" lon="3.4064">
        <ele>214.4</ele>
        <time>2022-05-17T09:38:34Z</time>
      </trkpt>
      <trkpt lat="43.66481" lon="3.4065">
        <ele>213.8</ele>
        <time>2022-05-17T09:38:36Z</time>
      </trkpt>
      <trkpt lat="43.66486" lon="3.40657">
        <ele>213.2</ele>
        <time>2022-05-17T09:38:37Z</time>
      </trkpt>
      <trkpt lat="43.6649" lon="3.40662">
        <ele>212.2</ele>
        <time>2022-05-17T09:38:38Z</time>
      </trkpt>
      <trkpt lat="43.66493" lon="3.40665">
        <ele>211.8</ele>
        <time>2022-05-17T09:38:39Z</time>
      </trkpt>
      <trkpt lat="43.66501" lon="3.40671">
        <ele>209.8</ele>
        <time>2022-05-17T09:38:41Z</time>
      </trkpt>
      <trkpt lat="43.66507" lon="3.40674">
        <ele>208.2</ele>
        <time>2022-05-17T09:38:43Z</time>
      </trkpt>
      <trkpt lat="43.66513" lon="3.40677">
        <ele>206.4</ele>
        <time>2022-05-17T09:38:45Z</time>
      </trkpt>
      <trkpt lat="43.6652" lon="3.40678">
        <ele>205.2</ele>
        <time>2022-05-17T09:38:47Z</time>
      </trkpt>
      <trkpt lat="43.66524" lon="3.40679">
        <ele>203.8</ele>
        <time>2022-05-17T09:38:49Z</time>
      </trkpt>
      <trkpt lat="43.66525" lon="3.4068">
        <ele>202.4</ele>
        <time>2022-05-17T09:38:52Z</time>
      </trkpt>
      <trkpt lat="43.66525" lon="3.4068">
        <ele>201.4</ele>
        <time>2022-05-17T09:38:54Z</time>
      </trkpt>
      <trkpt lat="43.66525" lon="3.4068">
        <ele>201.2</ele>
        <time>2022-05-17T09:38:55Z</time>
      </trkpt>
      <trkpt lat="43.66525" lon="3.4068">
        <ele>200.8</ele>
        <time>2022-05-17T09:39:55Z</time>
      </trkpt>
      <trkpt lat="43.66526" lon="3.40679">
        <ele>200</ele>
        <time>2022-05-17T09:40:53Z</time>
      </trkpt>
      <trkpt lat="43.66526" lon="3.40679">
        <ele>200</ele>
        <time>2022-05-17T09:40:54Z</time>
      </trkpt>
      <trkpt lat="43.66532" lon="3.40684">
        <ele>199.6</ele>
        <time>2022-05-17T09:41:04Z</time>
      </trkpt>
      <trkpt lat="43.66537" lon="3.40687">
        <ele>199.2</ele>
        <time>2022-05-17T09:41:09Z</time>
      </trkpt>
      <trkpt lat="43.66538" lon="3.40688">
        <ele>199</ele>
        <time>2022-05-17T09:41:13Z</time>
      </trkpt>
      <trkpt lat="43.66541" lon="3.40689">
        <ele>198.8</ele>
        <time>2022-05-17T09:41:18Z</time>
      </trkpt>
      <trkpt lat="43.66545" lon="3.40689">
        <ele>198.8</ele>
        <time>2022-05-17T09:41:20Z</time>
      </trkpt>
      <trkpt lat="43.66557" lon="3.40694">
        <ele>198.6</ele>
        <time>2022-05-17T09:41:23Z</time>
      </trkpt>
      <trkpt lat="43.66563" lon="3.40696">
        <ele>198.6</ele>
        <time>2022-05-17T09:41:24Z</time>
      </trkpt>
      <trkpt lat="43.66582" lon="3.40706">
        <ele>198</ele>
        <time>2022-05-17T09:41:27Z</time>
      </trkpt>
      <trkpt lat="43.66589" lon="3.40708">
        <ele>197.8</ele>
        <time>2022-05-17T09:41:28Z</time>
      </trkpt>
      <trkpt lat="43.66595" lon="3.4071">
        <ele>197</ele>
        <time>2022-05-17T09:41:29Z</time>
      </trkpt>
      <trkpt lat="43.66616" lon="3.40721">
        <ele>195.8</ele>
        <time>2022-05-17T09:41:32Z</time>
      </trkpt>
      <trkpt lat="43.66624" lon="3.40724">
        <ele>194.8</ele>
        <time>2022-05-17T09:41:33Z</time>
      </trkpt>
      <trkpt lat="43.66631" lon="3.40727">
        <ele>194</ele>
        <time>2022-05-17T09:41:34Z</time>
      </trkpt>
      <trkpt lat="43.66639" lon="3.4073">
        <ele>193.4</ele>
        <time>2022-05-17T09:41:35Z</time>
      </trkpt>
      <trkpt lat="43.66647" lon="3.40731">
        <ele>192.4</ele>
        <time>2022-05-17T09:41:36Z</time>
      </trkpt>
      <trkpt lat="43.66667" lon="3.40733">
        <ele>191</ele>
        <time>2022-05-17T09:41:38Z</time>
      </trkpt>
      <trkpt lat="43.66677" lon="3.40735">
        <ele>190.4</ele>
        <time>2022-05-17T09:41:39Z</time>
      </trkpt>
      <trkpt lat="43.66686" lon="3.40739">
        <ele>189.2</ele>
        <time>2022-05-17T09:41:40Z</time>
      </trkpt>
      <trkpt lat="43.66695" lon="3.40744">
        <ele>189</ele>
        <time>2022-05-17T09:41:41Z</time>
      </trkpt>
      <trkpt lat="43.66707" lon="3.40757">
        <ele>187.4</ele>
        <time>2022-05-17T09:41:43Z</time>
      </trkpt>
      <trkpt lat="43.66711" lon="3.40765">
        <ele>185.8</ele>
        <time>2022-05-17T09:41:44Z</time>
      </trkpt>
      <trkpt lat="43.66715" lon="3.40774">
        <ele>185.2</ele>
        <time>2022-05-17T09:41:45Z</time>
      </trkpt>
      <trkpt lat="43.66717" lon="3.40783">
        <ele>184.6</ele>
        <time>2022-05-17T09:41:46Z</time>
      </trkpt>
      <trkpt lat="43.66723" lon="3.40798">
        <ele>183.4</ele>
        <time>2022-05-17T09:41:48Z</time>
      </trkpt>
      <trkpt lat="43.66729" lon="3.40814">
        <ele>181.4</ele>
        <time>2022-05-17T09:41:51Z</time>
      </trkpt>
      <trkpt lat="43.66734" lon="3.40821">
        <ele>179.6</ele>
        <time>2022-05-17T09:41:53Z</time>
      </trkpt>
      <trkpt lat="43.66737" lon="3.40827">
        <ele>177.8</ele>
        <time>2022-05-17T09:41:55Z</time>
      </trkpt>
      <trkpt lat="43.66738" lon="3.4083">
        <ele>176.8</ele>
        <time>2022-05-17T09:41:56Z</time>
      </trkpt>
      <trkpt lat="43.66739" lon="3.40833">
        <ele>176</ele>
        <time>2022-05-17T09:41:57Z</time>
      </trkpt>
      <trkpt lat="43.66742" lon="3.40838">
        <ele>174.8</ele>
        <time>2022-05-17T09:41:59Z</time>
      </trkpt>
      <trkpt lat="43.66747" lon="3.40844">
        <ele>173</ele>
        <time>2022-05-17T09:42:02Z</time>
      </trkpt>
      <trkpt lat="43.66751" lon="3.40847">
        <ele>172.4</ele>
        <time>2022-05-17T09:42:04Z</time>
      </trkpt>
      <trkpt lat="43.66753" lon="3.40849">
        <ele>172.2</ele>
        <time>2022-05-17T09:42:05Z</time>
      </trkpt>
      <trkpt lat="43.66758" lon="3.40854">
        <ele>171</ele>
        <time>2022-05-17T09:42:08Z</time>
      </trkpt>
      <trkpt lat="43.66767" lon="3.40859">
        <ele>170</ele>
        <time>2022-05-17T09:42:13Z</time>
      </trkpt>
      <trkpt lat="43.66779" lon="3.40868">
        <ele>168.8</ele>
        <time>2022-05-17T09:42:17Z</time>
      </trkpt>
      <trkpt lat="43.66782" lon="3.40871">
        <ele>168.6</ele>
        <time>2022-05-17T09:42:18Z</time>
      </trkpt>
      <trkpt lat="43.6679" lon="3.40877">
        <ele>167.6</ele>
        <time>2022-05-17T09:42:21Z</time>
      </trkpt>
      <trkpt lat="43.66799" lon="3.40883">
        <ele>166.6</ele>
        <time>2022-05-17T09:42:24Z</time>
      </trkpt>
      <trkpt lat="43.66807" lon="3.40887">
        <ele>165.2</ele>
        <time>2022-05-17T09:42:27Z</time>
      </trkpt>
      <trkpt lat="43.66816" lon="3.4089">
        <ele>164</ele>
        <time>2022-05-17T09:42:30Z</time>
      </trkpt>
      <trkpt lat="43.66823" lon="3.40893">
        <ele>162.8</ele>
        <time>2022-05-17T09:42:32Z</time>
      </trkpt>
      <trkpt lat="43.66826" lon="3.40894">
        <ele>162.6</ele>
        <time>2022-05-17T09:42:33Z</time>
      </trkpt>
      <trkpt lat="43.66837" lon="3.40898">
        <ele>161.6</ele>
        <time>2022-05-17T09:42:36Z</time>
      </trkpt>
      <trkpt lat="43.66846" lon="3.40902">
        <ele>160.6</ele>
        <time>2022-05-17T09:42:39Z</time>
      </trkpt>
      <trkpt lat="43.6685" lon="3.40904">
        <ele>159.4</ele>
        <time>2022-05-17T09:42:41Z</time>
      </trkpt>
      <trkpt lat="43.66856" lon="3.40906">
        <ele>158.2</ele>
        <time>2022-05-17T09:42:44Z</time>
      </trkpt>
      <trkpt lat="43.66861" lon="3.40908">
        <ele>157.4</ele>
        <time>2022-05-17T09:42:47Z</time>
      </trkpt>
      <trkpt lat="43.66865" lon="3.4091">
        <ele>156.8</ele>
        <time>2022-05-17T09:42:49Z</time>
      </trkpt>
      <trkpt lat="43.66868" lon="3.4091">
        <ele>156.2</ele>
        <time>2022-05-17T09:42:52Z</time>
      </trkpt>
      <trkpt lat="43.66869" lon="3.4091">
        <ele>155.8</ele>
        <time>2022-05-17T09:42:53Z</time>
      </trkpt>
      <trkpt lat="43.66876" lon="3.40913">
        <ele>154.6</ele>
        <time>2022-05-17T09:42:58Z</time>
      </trkpt>
      <trkpt lat="43.66877" lon="3.40914">
        <ele>154.4</ele>
        <time>2022-05-17T09:42:59Z</time>
      </trkpt>
      <trkpt lat="43.66878" lon="3.40914">
        <ele>154.2</ele>
        <time>2022-05-17T09:43:00Z</time>
      </trkpt>
      <trkpt lat="43.66885" lon="3.40919">
        <ele>153.4</ele>
        <time>2022-05-17T09:43:04Z</time>
      </trkpt>
      <trkpt lat="43.66888" lon="3.40921">
        <ele>152.8</ele>
        <time>2022-05-17T09:43:06Z</time>
      </trkpt>
      <trkpt lat="43.66891" lon="3.40923">
        <ele>152.2</ele>
        <time>2022-05-17T09:43:08Z</time>
      </trkpt>
      <trkpt lat="43.66899" lon="3.40927">
        <ele>151.2</ele>
        <time>2022-05-17T09:43:12Z</time>
      </trkpt>
      <trkpt lat="43.66907" lon="3.4093">
        <ele>150.6</ele>
        <time>2022-05-17T09:43:15Z</time>
      </trkpt>
      <trkpt lat="43.66914" lon="3.40931">
        <ele>150</ele>
        <time>2022-05-17T09:43:17Z</time>
      </trkpt>
      <trkpt lat="43.66921" lon="3.40933">
        <ele>149</ele>
        <time>2022-05-17T09:43:20Z</time>
      </trkpt>
      <trkpt lat="43.66922" lon="3.40934">
        <ele>148.8</ele>
        <time>2022-05-17T09:43:21Z</time>
      </trkpt>
      <trkpt lat="43.66925" lon="3.40942">
        <ele>147.8</ele>
        <time>2022-05-17T09:43:25Z</time>
      </trkpt>
      <trkpt lat="43.66926" lon="3.40946">
        <ele>147.6</ele>
        <time>2022-05-17T09:43:26Z</time>
      </trkpt>
      <trkpt lat="43.66927" lon="3.4095">
        <ele>147.4</ele>
        <time>2022-05-17T09:43:27Z</time>
      </trkpt>
      <trkpt lat="43.66929" lon="3.40952">
        <ele>147.2</ele>
        <time>2022-05-17T09:43:28Z</time>
      </trkpt>
      <trkpt lat="43.66933" lon="3.40959">
        <ele>146.6</ele>
        <time>2022-05-17T09:43:31Z</time>
      </trkpt>
      <trkpt lat="43.66934" lon="3.40963">
        <ele>146.2</ele>
        <time>2022-05-17T09:43:33Z</time>
      </trkpt>
      <trkpt lat="43.66934" lon="3.40963">
        <ele>145.8</ele>
        <time>2022-05-17T09:43:35Z</time>
      </trkpt>
      <trkpt lat="43.66934" lon="3.40963">
        <ele>145.6</ele>
        <time>2022-05-17T09:43:36Z</time>
      </trkpt>
      <trkpt lat="43.66934" lon="3.40963">
        <ele>145.4</ele>
        <time>2022-05-17T09:43:37Z</time>
      </trkpt>
      <trkpt lat="43.66934" lon="3.40963">
        <ele>145</ele>
        <time>2022-05-17T09:44:20Z</time>
      </trkpt>
      <trkpt lat="43.66933" lon="3.40964">
        <ele>144.8</ele>
        <time>2022-05-17T09:44:56Z</time>
      </trkpt>
      <trkpt lat="43.6693" lon="3.40963">
        <ele>144.8</ele>
        <time>2022-05-17T09:44:58Z</time>
      </trkpt>
      <trkpt lat="43.6693" lon="3.40961">
        <ele>144.8</ele>
        <time>2022-05-17T09:44:59Z</time>
      </trkpt>
      <trkpt lat="43.66928" lon="3.40959">
        <ele>145</ele>
        <time>2022-05-17T09:45:01Z</time>
      </trkpt>
      <trkpt lat="43.66927" lon="3.40959">
        <ele>145</ele>
        <time>2022-05-17T09:45:02Z</time>
      </trkpt>
      <trkpt lat="43.66927" lon="3.40959">
        <ele>145.6</ele>
        <time>2022-05-17T09:45:07Z</time>
      </trkpt>
      <trkpt lat="43.66927" lon="3.40959">
        <ele>145.6</ele>
        <time>2022-05-17T09:45:47Z</time>
      </trkpt>
      <trkpt lat="43.66927" lon="3.40959">
        <ele>145.4</ele>
        <time>2022-05-17T09:46:00Z</time>
      </trkpt>
      <trkpt lat="43.66927" lon="3.40959">
        <ele>145.4</ele>
        <time>2022-05-17T09:46:05Z</time>
      </trkpt>
      <trkpt lat="43.66932" lon="3.40964">
        <ele>145.2</ele>
        <time>2022-05-17T09:46:08Z</time>
      </trkpt>
      <trkpt lat="43.66939" lon="3.4098">
        <ele>145.2</ele>
        <time>2022-05-17T09:46:15Z</time>
      </trkpt>
      <trkpt lat="43.66938" lon="3.41003">
        <ele>145.8</ele>
        <time>2022-05-17T09:46:23Z</time>
      </trkpt>
      <trkpt lat="43.66932" lon="3.41022">
        <ele>145.8</ele>
        <time>2022-05-17T09:46:28Z</time>
      </trkpt>
      <trkpt lat="43.66921" lon="3.41038">
        <ele>144.8</ele>
        <time>2022-05-17T09:46:34Z</time>
      </trkpt>
      <trkpt lat="43.66916" lon="3.41037">
        <ele>144.2</ele>
        <time>2022-05-17T09:46:36Z</time>
      </trkpt>
      <trkpt lat="43.66911" lon="3.4103">
        <ele>143.6</ele>
        <time>2022-05-17T09:46:38Z</time>
      </trkpt>
      <trkpt lat="43.66904" lon="3.41009">
        <ele>142.4</ele>
        <time>2022-05-17T09:46:43Z</time>
      </trkpt>
      <trkpt lat="43.66902" lon="3.41005">
        <ele>142.2</ele>
        <time>2022-05-17T09:46:44Z</time>
      </trkpt>
      <trkpt lat="43.66893" lon="3.4099">
        <ele>141.2</ele>
        <time>2022-05-17T09:46:48Z</time>
      </trkpt>
      <trkpt lat="43.66888" lon="3.40982">
        <ele>140.6</ele>
        <time>2022-05-17T09:46:50Z</time>
      </trkpt>
      <trkpt lat="43.66878" lon="3.40973">
        <ele>140</ele>
        <time>2022-05-17T09:46:53Z</time>
      </trkpt>
      <trkpt lat="43.66871" lon="3.40969">
        <ele>139.6</ele>
        <time>2022-05-17T09:46:55Z</time>
      </trkpt>
      <trkpt lat="43.66863" lon="3.40966">
        <ele>139.2</ele>
        <time>2022-05-17T09:46:58Z</time>
      </trkpt>
      <trkpt lat="43.66858" lon="3.40964">
        <ele>139.2</ele>
        <time>2022-05-17T09:47:00Z</time>
      </trkpt>
      <trkpt lat="43.66849" lon="3.40958">
        <ele>139</ele>
        <time>2022-05-17T09:47:05Z</time>
      </trkpt>
      <trkpt lat="43.66832" lon="3.40954">
        <ele>138.8</ele>
        <time>2022-05-17T09:47:11Z</time>
      </trkpt>
      <trkpt lat="43.66813" lon="3.40952">
        <ele>138.6</ele>
        <time>2022-05-17T09:47:17Z</time>
      </trkpt>
      <trkpt lat="43.66799" lon="3.40954">
        <ele>138</ele>
        <time>2022-05-17T09:47:21Z</time>
      </trkpt>
      <trkpt lat="43.66791" lon="3.40952">
        <ele>137.6</ele>
        <time>2022-05-17T09:47:23Z</time>
      </trkpt>
      <trkpt lat="43.66767" lon="3.40942">
        <ele>136.8</ele>
        <time>2022-05-17T09:47:29Z</time>
      </trkpt>
      <trkpt lat="43.66761" lon="3.4094">
        <ele>136.6</ele>
        <time>2022-05-17T09:47:30Z</time>
      </trkpt>
      <trkpt lat="43.66757" lon="3.40938">
        <ele>136.4</ele>
        <time>2022-05-17T09:47:31Z</time>
      </trkpt>
      <trkpt lat="43.66741" lon="3.40934">
        <ele>135.4</ele>
        <time>2022-05-17T09:47:34Z</time>
      </trkpt>
      <trkpt lat="43.66729" lon="3.40933">
        <ele>134.6</ele>
        <time>2022-05-17T09:47:36Z</time>
      </trkpt>
      <trkpt lat="43.66722" lon="3.40932">
        <ele>134.4</ele>
        <time>2022-05-17T09:47:37Z</time>
      </trkpt>
      <trkpt lat="43.66704" lon="3.40929">
        <ele>133.4</ele>
        <time>2022-05-17T09:47:40Z</time>
      </trkpt>
      <trkpt lat="43.66699" lon="3.40929">
        <ele>133</ele>
        <time>2022-05-17T09:47:41Z</time>
      </trkpt>
      <trkpt lat="43.66685" lon="3.40927">
        <ele>132</ele>
        <time>2022-05-17T09:47:44Z</time>
      </trkpt>
      <trkpt lat="43.66681" lon="3.40925">
        <ele>132</ele>
        <time>2022-05-17T09:47:45Z</time>
      </trkpt>
      <trkpt lat="43.66674" lon="3.40924">
        <ele>130.6</ele>
        <time>2022-05-17T09:47:47Z</time>
      </trkpt>
      <trkpt lat="43.66672" lon="3.40928">
        <ele>130</ele>
        <time>2022-05-17T09:47:48Z</time>
      </trkpt>
      <trkpt lat="43.66673" lon="3.40932">
        <ele>129.2</ele>
        <time>2022-05-17T09:47:49Z</time>
      </trkpt>
      <trkpt lat="43.66675" lon="3.40933">
        <ele>129</ele>
        <time>2022-05-17T09:47:50Z</time>
      </trkpt>
      <trkpt lat="43.66684" lon="3.40933">
        <ele>128</ele>
        <time>2022-05-17T09:47:53Z</time>
      </trkpt>
      <trkpt lat="43.66687" lon="3.40935">
        <ele>127.6</ele>
        <time>2022-05-17T09:47:54Z</time>
      </trkpt>
      <trkpt lat="43.66691" lon="3.40937">
        <ele>127.2</ele>
        <time>2022-05-17T09:47:55Z</time>
      </trkpt>
      <trkpt lat="43.66696" lon="3.4094">
        <ele>127</ele>
        <time>2022-05-17T09:47:56Z</time>
      </trkpt>
      <trkpt lat="43.66706" lon="3.40944">
        <ele>126.6</ele>
        <time>2022-05-17T09:47:58Z</time>
      </trkpt>
      <trkpt lat="43.66712" lon="3.40946">
        <ele>126.2</ele>
        <time>2022-05-17T09:47:59Z</time>
      </trkpt>
      <trkpt lat="43.66726" lon="3.40955">
        <ele>125.8</ele>
        <time>2022-05-17T09:48:02Z</time>
      </trkpt>
      <trkpt lat="43.66734" lon="3.40961">
        <ele>125.2</ele>
        <time>2022-05-17T09:48:04Z</time>
      </trkpt>
      <trkpt lat="43.66743" lon="3.40966">
        <ele>124.8</ele>
        <time>2022-05-17T09:48:06Z</time>
      </trkpt>
      <trkpt lat="43.66761" lon="3.40974">
        <ele>124.4</ele>
        <time>2022-05-17T09:48:10Z</time>
      </trkpt>
      <trkpt lat="43.66784" lon="3.40989">
        <ele>123.8</ele>
        <time>2022-05-17T09:48:16Z</time>
      </trkpt>
      <trkpt lat="43.66789" lon="3.40992">
        <ele>123.8</ele>
        <time>2022-05-17T09:48:17Z</time>
      </trkpt>
      <trkpt lat="43.66804" lon="3.41004">
        <ele>123.4</ele>
        <time>2022-05-17T09:48:20Z</time>
      </trkpt>
      <trkpt lat="43.66818" lon="3.41016">
        <ele>122.6</ele>
        <time>2022-05-17T09:48:24Z</time>
      </trkpt>
      <trkpt lat="43.66824" lon="3.41023">
        <ele>122.2</ele>
        <time>2022-05-17T09:48:27Z</time>
      </trkpt>
      <trkpt lat="43.66825" lon="3.41022">
        <ele>121.6</ele>
        <time>2022-05-17T09:48:29Z</time>
      </trkpt>
      <trkpt lat="43.66825" lon="3.41021">
        <ele>121.4</ele>
        <time>2022-05-17T09:48:30Z</time>
      </trkpt>
      <trkpt lat="43.66819" lon="3.41019">
        <ele>120.6</ele>
        <time>2022-05-17T09:48:35Z</time>
      </trkpt>
      <trkpt lat="43.66816" lon="3.41018">
        <ele>120.4</ele>
        <time>2022-05-17T09:48:38Z</time>
      </trkpt>
      <trkpt lat="43.66812" lon="3.41016">
        <ele>120.4</ele>
        <time>2022-05-17T09:48:42Z</time>
      </trkpt>
      <trkpt lat="43.668" lon="3.41007">
        <ele>120.4</ele>
        <time>2022-05-17T09:48:47Z</time>
      </trkpt>
      <trkpt lat="43.66781" lon="3.40994">
        <ele>120.2</ele>
        <time>2022-05-17T09:48:52Z</time>
      </trkpt>
      <trkpt lat="43.66776" lon="3.40992">
        <ele>120</ele>
        <time>2022-05-17T09:48:53Z</time>
      </trkpt>
      <trkpt lat="43.66758" lon="3.40984">
        <ele>119.2</ele>
        <time>2022-05-17T09:48:56Z</time>
      </trkpt>
      <trkpt lat="43.66745" lon="3.40976">
        <ele>118.4</ele>
        <time>2022-05-17T09:48:58Z</time>
      </trkpt>
      <trkpt lat="43.66738" lon="3.40973">
        <ele>118.2</ele>
        <time>2022-05-17T09:48:59Z</time>
      </trkpt>
      <trkpt lat="43.66714" lon="3.40964">
        <ele>117.2</ele>
        <time>2022-05-17T09:49:02Z</time>
      </trkpt>
      <trkpt lat="43.66706" lon="3.40964">
        <ele>116.8</ele>
        <time>2022-05-17T09:49:03Z</time>
      </trkpt>
      <trkpt lat="43.66675" lon="3.40963">
        <ele>115.6</ele>
        <time>2022-05-17T09:49:07Z</time>
      </trkpt>
      <trkpt lat="43.66659" lon="3.40959">
        <ele>115</ele>
        <time>2022-05-17T09:49:09Z</time>
      </trkpt>
      <trkpt lat="43.66651" lon="3.40957">
        <ele>115</ele>
        <time>2022-05-17T09:49:10Z</time>
      </trkpt>
      <trkpt lat="43.66634" lon="3.40959">
        <ele>114.6</ele>
        <time>2022-05-17T09:49:12Z</time>
      </trkpt>
      <trkpt lat="43.66625" lon="3.4096">
        <ele>114.4</ele>
        <time>2022-05-17T09:49:13Z</time>
      </trkpt>
      <trkpt lat="43.66599" lon="3.40961">
        <ele>113.2</ele>
        <time>2022-05-17T09:49:16Z</time>
      </trkpt>
      <trkpt lat="43.6659" lon="3.40958">
        <ele>113</ele>
        <time>2022-05-17T09:49:17Z</time>
      </trkpt>
      <trkpt lat="43.66564" lon="3.40951">
        <ele>112</ele>
        <time>2022-05-17T09:49:20Z</time>
      </trkpt>
      <trkpt lat="43.6654" lon="3.40945">
        <ele>111</ele>
        <time>2022-05-17T09:49:23Z</time>
      </trkpt>
      <trkpt lat="43.66532" lon="3.40943">
        <ele>110.8</ele>
        <time>2022-05-17T09:49:24Z</time>
      </trkpt>
      <trkpt lat="43.66502" lon="3.40939">
        <ele>110.2</ele>
        <time>2022-05-17T09:49:28Z</time>
      </trkpt>
      <trkpt lat="43.66487" lon="3.40939">
        <ele>109.6</ele>
        <time>2022-05-17T09:49:30Z</time>
      </trkpt>
      <trkpt lat="43.66474" lon="3.40938">
        <ele>109.4</ele>
        <time>2022-05-17T09:49:32Z</time>
      </trkpt>
      <trkpt lat="43.66461" lon="3.40936">
        <ele>109.2</ele>
        <time>2022-05-17T09:49:34Z</time>
      </trkpt>
      <trkpt lat="43.66445" lon="3.40935">
        <ele>108.4</ele>
        <time>2022-05-17T09:49:37Z</time>
      </trkpt>
      <trkpt lat="43.66434" lon="3.40939">
        <ele>108.2</ele>
        <time>2022-05-17T09:49:39Z</time>
      </trkpt>
      <trkpt lat="43.66398" lon="3.40955">
        <ele>107.6</ele>
        <time>2022-05-17T09:49:45Z</time>
      </trkpt>
      <trkpt lat="43.6639" lon="3.40958">
        <ele>107.2</ele>
        <time>2022-05-17T09:49:46Z</time>
      </trkpt>
      <trkpt lat="43.6635" lon="3.40973">
        <ele>106</ele>
        <time>2022-05-17T09:49:51Z</time>
      </trkpt>
      <trkpt lat="43.66326" lon="3.40982">
        <ele>104.8</ele>
        <time>2022-05-17T09:49:54Z</time>
      </trkpt>
      <trkpt lat="43.66304" lon="3.4099">
        <ele>103.6</ele>
        <time>2022-05-17T09:49:57Z</time>
      </trkpt>
      <trkpt lat="43.66298" lon="3.40993">
        <ele>103.4</ele>
        <time>2022-05-17T09:49:58Z</time>
      </trkpt>
      <trkpt lat="43.66286" lon="3.41">
        <ele>103</ele>
        <time>2022-05-17T09:50:00Z</time>
      </trkpt>
      <trkpt lat="43.66278" lon="3.41009">
        <ele>102.8</ele>
        <time>2022-05-17T09:50:02Z</time>
      </trkpt>
      <trkpt lat="43.66267" lon="3.41022">
        <ele>102.6</ele>
        <time>2022-05-17T09:50:05Z</time>
      </trkpt>
      <trkpt lat="43.66262" lon="3.41029">
        <ele>102.6</ele>
        <time>2022-05-17T09:50:07Z</time>
      </trkpt>
      <trkpt lat="43.66255" lon="3.4104">
        <ele>102.6</ele>
        <time>2022-05-17T09:50:10Z</time>
      </trkpt>
      <trkpt lat="43.66247" lon="3.41049">
        <ele>102.6</ele>
        <time>2022-05-17T09:50:13Z</time>
      </trkpt>
      <trkpt lat="43.66228" lon="3.41062">
        <ele>102.6</ele>
        <time>2022-05-17T09:50:19Z</time>
      </trkpt>
      <trkpt lat="43.66206" lon="3.41065">
        <ele>103</ele>
        <time>2022-05-17T09:50:25Z</time>
      </trkpt>
      <trkpt lat="43.66183" lon="3.41052">
        <ele>103.2</ele>
        <time>2022-05-17T09:50:32Z</time>
      </trkpt>
      <trkpt lat="43.66153" lon="3.41031">
        <ele>103.4</ele>
        <time>2022-05-17T09:50:40Z</time>
      </trkpt>
      <trkpt lat="43.66126" lon="3.41018">
        <ele>103.6</ele>
        <time>2022-05-17T09:50:47Z</time>
      </trkpt>
      <trkpt lat="43.66097" lon="3.41">
        <ele>103.8</ele>
        <time>2022-05-17T09:50:55Z</time>
      </trkpt>
      <trkpt lat="43.66072" lon="3.40983">
        <ele>103.8</ele>
        <time>2022-05-17T09:51:01Z</time>
      </trkpt>
      <trkpt lat="43.66052" lon="3.4098">
        <ele>103.6</ele>
        <time>2022-05-17T09:51:06Z</time>
      </trkpt>
      <trkpt lat="43.66035" lon="3.40983">
        <ele>104</ele>
        <time>2022-05-17T09:51:12Z</time>
      </trkpt>
      <trkpt lat="43.66024" lon="3.40981">
        <ele>104.6</ele>
        <time>2022-05-17T09:51:16Z</time>
      </trkpt>
      <trkpt lat="43.66012" lon="3.40976">
        <ele>105.4</ele>
        <time>2022-05-17T09:51:20Z</time>
      </trkpt>
      <trkpt lat="43.66006" lon="3.40974">
        <ele>105.8</ele>
        <time>2022-05-17T09:51:22Z</time>
      </trkpt>
      <trkpt lat="43.65991" lon="3.40964">
        <ele>106</ele>
        <time>2022-05-17T09:51:28Z</time>
      </trkpt>
      <trkpt lat="43.65971" lon="3.40951">
        <ele>106</ele>
        <time>2022-05-17T09:51:35Z</time>
      </trkpt>
      <trkpt lat="43.65954" lon="3.4094">
        <ele>106</ele>
        <time>2022-05-17T09:51:40Z</time>
      </trkpt>
      <trkpt lat="43.65936" lon="3.40928">
        <ele>105.6</ele>
        <time>2022-05-17T09:51:44Z</time>
      </trkpt>
      <trkpt lat="43.65931" lon="3.40925">
        <ele>105.4</ele>
        <time>2022-05-17T09:51:45Z</time>
      </trkpt>
      <trkpt lat="43.65913" lon="3.40918">
        <ele>105</ele>
        <time>2022-05-17T09:51:48Z</time>
      </trkpt>
      <trkpt lat="43.65902" lon="3.40915">
        <ele>104.6</ele>
        <time>2022-05-17T09:51:50Z</time>
      </trkpt>
      <trkpt lat="43.65863" lon="3.40907">
        <ele>103.6</ele>
        <time>2022-05-17T09:51:56Z</time>
      </trkpt>
      <trkpt lat="43.65856" lon="3.40905">
        <ele>103.6</ele>
        <time>2022-05-17T09:51:57Z</time>
      </trkpt>
      <trkpt lat="43.65837" lon="3.40895">
        <ele>103</ele>
        <time>2022-05-17T09:52:00Z</time>
      </trkpt>
      <trkpt lat="43.65832" lon="3.4089">
        <ele>102.4</ele>
        <time>2022-05-17T09:52:01Z</time>
      </trkpt>
      <trkpt lat="43.65815" lon="3.40872">
        <ele>101.4</ele>
        <time>2022-05-17T09:52:04Z</time>
      </trkpt>
      <trkpt lat="43.6581" lon="3.40865">
        <ele>101</ele>
        <time>2022-05-17T09:52:05Z</time>
      </trkpt>
      <trkpt lat="43.65796" lon="3.40843">
        <ele>100.2</ele>
        <time>2022-05-17T09:52:08Z</time>
      </trkpt>
      <trkpt lat="43.65785" lon="3.40817">
        <ele>99.4</ele>
        <time>2022-05-17T09:52:11Z</time>
      </trkpt>
      <trkpt lat="43.65781" lon="3.40806">
        <ele>98.8</ele>
        <time>2022-05-17T09:52:12Z</time>
      </trkpt>
      <trkpt lat="43.65772" lon="3.40771">
        <ele>98</ele>
        <time>2022-05-17T09:52:15Z</time>
      </trkpt>
      <trkpt lat="43.6577" lon="3.4076">
        <ele>97.2</ele>
        <time>2022-05-17T09:52:16Z</time>
      </trkpt>
      <trkpt lat="43.65767" lon="3.40736">
        <ele>96.2</ele>
        <time>2022-05-17T09:52:18Z</time>
      </trkpt>
      <trkpt lat="43.65764" lon="3.40714">
        <ele>94.8</ele>
        <time>2022-05-17T09:52:20Z</time>
      </trkpt>
      <trkpt lat="43.65755" lon="3.40697">
        <ele>92.8</ele>
        <time>2022-05-17T09:52:22Z</time>
      </trkpt>
      <trkpt lat="43.65742" lon="3.40687">
        <ele>91.4</ele>
        <time>2022-05-17T09:52:24Z</time>
      </trkpt>
      <trkpt lat="43.65737" lon="3.40682">
        <ele>90.4</ele>
        <time>2022-05-17T09:52:25Z</time>
      </trkpt>
      <trkpt lat="43.65731" lon="3.40669">
        <ele>89.2</ele>
        <time>2022-05-17T09:52:27Z</time>
      </trkpt>
      <trkpt lat="43.6573" lon="3.40663">
        <ele>89</ele>
        <time>2022-05-17T09:52:28Z</time>
      </trkpt>
      <trkpt lat="43.65729" lon="3.40644">
        <ele>88.8</ele>
        <time>2022-05-17T09:52:32Z</time>
      </trkpt>
      <trkpt lat="43.65729" lon="3.40639">
        <ele>88.8</ele>
        <time>2022-05-17T09:52:33Z</time>
      </trkpt>
      <trkpt lat="43.65729" lon="3.40615">
        <ele>89.2</ele>
        <time>2022-05-17T09:52:39Z</time>
      </trkpt>
      <trkpt lat="43.65729" lon="3.40597">
        <ele>90.4</ele>
        <time>2022-05-17T09:52:44Z</time>
      </trkpt>
      <trkpt lat="43.65728" lon="3.40583">
        <ele>91.2</ele>
        <time>2022-05-17T09:52:48Z</time>
      </trkpt>
      <trkpt lat="43.65728" lon="3.4058">
        <ele>91.4</ele>
        <time>2022-05-17T09:52:49Z</time>
      </trkpt>
      <trkpt lat="43.65727" lon="3.40554">
        <ele>92.4</ele>
        <time>2022-05-17T09:52:56Z</time>
      </trkpt>
      <trkpt lat="43.65727" lon="3.4055">
        <ele>92.8</ele>
        <time>2022-05-17T09:52:57Z</time>
      </trkpt>
      <trkpt lat="43.65725" lon="3.40532">
        <ele>93.4</ele>
        <time>2022-05-17T09:53:02Z</time>
      </trkpt>
      <trkpt lat="43.65725" lon="3.40524">
        <ele>93.6</ele>
        <time>2022-05-17T09:53:04Z</time>
      </trkpt>
      <trkpt lat="43.65722" lon="3.40491">
        <ele>94.4</ele>
        <time>2022-05-17T09:53:12Z</time>
      </trkpt>
      <trkpt lat="43.65721" lon="3.40487">
        <ele>94.4</ele>
        <time>2022-05-17T09:53:13Z</time>
      </trkpt>
      <trkpt lat="43.65714" lon="3.40459">
        <ele>94.8</ele>
        <time>2022-05-17T09:53:20Z</time>
      </trkpt>
      <trkpt lat="43.65709" lon="3.40424">
        <ele>95.2</ele>
        <time>2022-05-17T09:53:29Z</time>
      </trkpt>
      <trkpt lat="43.65705" lon="3.40405">
        <ele>95.6</ele>
        <time>2022-05-17T09:53:34Z</time>
      </trkpt>
      <trkpt lat="43.657" lon="3.40386">
        <ele>96</ele>
        <time>2022-05-17T09:53:39Z</time>
      </trkpt>
      <trkpt lat="43.65692" lon="3.40376">
        <ele>96.4</ele>
        <time>2022-05-17T09:53:44Z</time>
      </trkpt>
      <trkpt lat="43.65687" lon="3.40377">
        <ele>96.6</ele>
        <time>2022-05-17T09:53:47Z</time>
      </trkpt>
      <trkpt lat="43.65686" lon="3.40379">
        <ele>96.6</ele>
        <time>2022-05-17T09:53:48Z</time>
      </trkpt>
      <trkpt lat="43.65685" lon="3.4038">
        <ele>96.8</ele>
        <time>2022-05-17T09:53:49Z</time>
      </trkpt>
      <trkpt lat="43.65683" lon="3.40391">
        <ele>97.8</ele>
        <time>2022-05-17T09:53:54Z</time>
      </trkpt>
      <trkpt lat="43.65683" lon="3.40396">
        <ele>98.4</ele>
        <time>2022-05-17T09:53:56Z</time>
      </trkpt>
      <trkpt lat="43.65683" lon="3.404">
        <ele>98.8</ele>
        <time>2022-05-17T09:53:58Z</time>
      </trkpt>
      <trkpt lat="43.65684" lon="3.40413">
        <ele>100</ele>
        <time>2022-05-17T09:54:05Z</time>
      </trkpt>
      <trkpt lat="43.65684" lon="3.40425">
        <ele>101.2</ele>
        <time>2022-05-17T09:54:11Z</time>
      </trkpt>
      <trkpt lat="43.65684" lon="3.40427">
        <ele>101.4</ele>
        <time>2022-05-17T09:54:12Z</time>
      </trkpt>
      <trkpt lat="43.65684" lon="3.40439">
        <ele>102.4</ele>
        <time>2022-05-17T09:54:18Z</time>
      </trkpt>
      <trkpt lat="43.65684" lon="3.4044">
        <ele>102.4</ele>
        <time>2022-05-17T09:54:19Z</time>
      </trkpt>
      <trkpt lat="43.65686" lon="3.40444">
        <ele>102.8</ele>
        <time>2022-05-17T09:54:21Z</time>
      </trkpt>
      <trkpt lat="43.65686" lon="3.40452">
        <ele>103.4</ele>
        <time>2022-05-17T09:54:25Z</time>
      </trkpt>
      <trkpt lat="43.65684" lon="3.40458">
        <ele>103.8</ele>
        <time>2022-05-17T09:54:28Z</time>
      </trkpt>
      <trkpt lat="43.65684" lon="3.4046">
        <ele>103.8</ele>
        <time>2022-05-17T09:54:29Z</time>
      </trkpt>
      <trkpt lat="43.65683" lon="3.40466">
        <ele>104.4</ele>
        <time>2022-05-17T09:54:33Z</time>
      </trkpt>
      <trkpt lat="43.65683" lon="3.40469">
        <ele>104.6</ele>
        <time>2022-05-17T09:54:35Z</time>
      </trkpt>
      <trkpt lat="43.65681" lon="3.40478">
        <ele>105.4</ele>
        <time>2022-05-17T09:54:41Z</time>
      </trkpt>
      <trkpt lat="43.65681" lon="3.40482">
        <ele>105.8</ele>
        <time>2022-05-17T09:54:44Z</time>
      </trkpt>
      <trkpt lat="43.65681" lon="3.40488">
        <ele>106</ele>
        <time>2022-05-17T09:54:48Z</time>
      </trkpt>
      <trkpt lat="43.65679" lon="3.405">
        <ele>106.6</ele>
        <time>2022-05-17T09:54:57Z</time>
      </trkpt>
      <trkpt lat="43.65678" lon="3.40504">
        <ele>106.8</ele>
        <time>2022-05-17T09:55:00Z</time>
      </trkpt>
      <trkpt lat="43.65678" lon="3.40506">
        <ele>106.8</ele>
        <time>2022-05-17T09:55:01Z</time>
      </trkpt>
      <trkpt lat="43.65678" lon="3.40512">
        <ele>107.2</ele>
        <time>2022-05-17T09:55:05Z</time>
      </trkpt>
      <trkpt lat="43.65675" lon="3.40525">
        <ele>107.6</ele>
        <time>2022-05-17T09:55:13Z</time>
      </trkpt>
      <trkpt lat="43.65675" lon="3.40527">
        <ele>107.8</ele>
        <time>2022-05-17T09:55:14Z</time>
      </trkpt>
      <trkpt lat="43.65675" lon="3.40528">
        <ele>108</ele>
        <time>2022-05-17T09:55:15Z</time>
      </trkpt>
      <trkpt lat="43.65675" lon="3.40533">
        <ele>108.2</ele>
        <time>2022-05-17T09:55:18Z</time>
      </trkpt>
      <trkpt lat="43.65675" lon="3.40535">
        <ele>108.4</ele>
        <time>2022-05-17T09:55:19Z</time>
      </trkpt>
      <trkpt lat="43.65674" lon="3.40542">
        <ele>109</ele>
        <time>2022-05-17T09:55:23Z</time>
      </trkpt>
      <trkpt lat="43.65672" lon="3.4055">
        <ele>109.6</ele>
        <time>2022-05-17T09:55:28Z</time>
      </trkpt>
      <trkpt lat="43.65672" lon="3.40556">
        <ele>110</ele>
        <time>2022-05-17T09:55:31Z</time>
      </trkpt>
      <trkpt lat="43.6567" lon="3.40571">
        <ele>111</ele>
        <time>2022-05-17T09:55:39Z</time>
      </trkpt>
      <trkpt lat="43.6567" lon="3.40573">
        <ele>111.4</ele>
        <time>2022-05-17T09:55:40Z</time>
      </trkpt>
      <trkpt lat="43.65668" lon="3.40581">
        <ele>112.4</ele>
        <time>2022-05-17T09:55:45Z</time>
      </trkpt>
      <trkpt lat="43.65667" lon="3.4059">
        <ele>113.2</ele>
        <time>2022-05-17T09:55:50Z</time>
      </trkpt>
      <trkpt lat="43.65667" lon="3.40593">
        <ele>113.4</ele>
        <time>2022-05-17T09:55:51Z</time>
      </trkpt>
      <trkpt lat="43.65666" lon="3.40603">
        <ele>114.6</ele>
        <time>2022-05-17T09:55:57Z</time>
      </trkpt>
      <trkpt lat="43.65665" lon="3.40609">
        <ele>115</ele>
        <time>2022-05-17T09:56:00Z</time>
      </trkpt>
      <trkpt lat="43.65664" lon="3.40616">
        <ele>115.6</ele>
        <time>2022-05-17T09:56:04Z</time>
      </trkpt>
      <trkpt lat="43.65663" lon="3.40623">
        <ele>116</ele>
        <time>2022-05-17T09:56:08Z</time>
      </trkpt>
      <trkpt lat="43.65662" lon="3.4063">
        <ele>116.6</ele>
        <time>2022-05-17T09:56:12Z</time>
      </trkpt>
      <trkpt lat="43.65657" lon="3.40642">
        <ele>117.8</ele>
        <time>2022-05-17T09:56:19Z</time>
      </trkpt>
      <trkpt lat="43.65652" lon="3.40653">
        <ele>118.8</ele>
        <time>2022-05-17T09:56:26Z</time>
      </trkpt>
      <trkpt lat="43.6565" lon="3.40655">
        <ele>119</ele>
        <time>2022-05-17T09:56:28Z</time>
      </trkpt>
      <trkpt lat="43.65642" lon="3.4066">
        <ele>119.8</ele>
        <time>2022-05-17T09:56:35Z</time>
      </trkpt>
      <trkpt lat="43.6564" lon="3.4066">
        <ele>120.2</ele>
        <time>2022-05-17T09:56:37Z</time>
      </trkpt>
      <trkpt lat="43.65635" lon="3.40659">
        <ele>121</ele>
        <time>2022-05-17T09:56:41Z</time>
      </trkpt>
      <trkpt lat="43.65631" lon="3.40657">
        <ele>121.4</ele>
        <time>2022-05-17T09:56:44Z</time>
      </trkpt>
      <trkpt lat="43.65629" lon="3.40652">
        <ele>122</ele>
        <time>2022-05-17T09:56:47Z</time>
      </trkpt>
      <trkpt lat="43.65625" lon="3.40643">
        <ele>122.6</ele>
        <time>2022-05-17T09:56:52Z</time>
      </trkpt>
      <trkpt lat="43.65623" lon="3.40638">
        <ele>123</ele>
        <time>2022-05-17T09:56:55Z</time>
      </trkpt>
      <trkpt lat="43.65621" lon="3.40627">
        <ele>123.6</ele>
        <time>2022-05-17T09:57:00Z</time>
      </trkpt>
      <trkpt lat="43.65621" lon="3.40622">
        <ele>124</ele>
        <time>2022-05-17T09:57:02Z</time>
      </trkpt>
      <trkpt lat="43.6562" lon="3.40613">
        <ele>124.8</ele>
        <time>2022-05-17T09:57:06Z</time>
      </trkpt>
      <trkpt lat="43.65619" lon="3.40608">
        <ele>125</ele>
        <time>2022-05-17T09:57:09Z</time>
      </trkpt>
      <trkpt lat="43.65618" lon="3.40601">
        <ele>125.4</ele>
        <time>2022-05-17T09:57:12Z</time>
      </trkpt>
      <trkpt lat="43.65616" lon="3.40588">
        <ele>126.2</ele>
        <time>2022-05-17T09:57:18Z</time>
      </trkpt>
      <trkpt lat="43.65614" lon="3.40578">
        <ele>126.6</ele>
        <time>2022-05-17T09:57:23Z</time>
      </trkpt>
      <trkpt lat="43.65611" lon="3.40566">
        <ele>127.2</ele>
        <time>2022-05-17T09:57:28Z</time>
      </trkpt>
      <trkpt lat="43.65609" lon="3.40555">
        <ele>128.2</ele>
        <time>2022-05-17T09:57:34Z</time>
      </trkpt>
      <trkpt lat="43.65608" lon="3.40552">
        <ele>128.4</ele>
        <time>2022-05-17T09:57:36Z</time>
      </trkpt>
      <trkpt lat="43.65606" lon="3.40538">
        <ele>129.4</ele>
        <time>2022-05-17T09:57:43Z</time>
      </trkpt>
      <trkpt lat="43.65606" lon="3.40536">
        <ele>129.4</ele>
        <time>2022-05-17T09:57:44Z</time>
      </trkpt>
      <trkpt lat="43.65603" lon="3.40519">
        <ele>130.4</ele>
        <time>2022-05-17T09:57:53Z</time>
      </trkpt>
      <trkpt lat="43.65602" lon="3.40516">
        <ele>130.8</ele>
        <time>2022-05-17T09:57:55Z</time>
      </trkpt>
      <trkpt lat="43.65599" lon="3.40505">
        <ele>131.6</ele>
        <time>2022-05-17T09:58:01Z</time>
      </trkpt>
      <trkpt lat="43.65598" lon="3.40499">
        <ele>131.8</ele>
        <time>2022-05-17T09:58:04Z</time>
      </trkpt>
      <trkpt lat="43.65595" lon="3.40491">
        <ele>132.6</ele>
        <time>2022-05-17T09:58:08Z</time>
      </trkpt>
      <trkpt lat="43.65591" lon="3.40478">
        <ele>133.6</ele>
        <time>2022-05-17T09:58:15Z</time>
      </trkpt>
      <trkpt lat="43.6559" lon="3.40476">
        <ele>133.6</ele>
        <time>2022-05-17T09:58:16Z</time>
      </trkpt>
      <trkpt lat="43.6559" lon="3.40474">
        <ele>133.6</ele>
        <time>2022-05-17T09:58:17Z</time>
      </trkpt>
      <trkpt lat="43.65583" lon="3.40457">
        <ele>134.6</ele>
        <time>2022-05-17T09:58:26Z</time>
      </trkpt>
      <trkpt lat="43.65583" lon="3.40455">
        <ele>134.8</ele>
        <time>2022-05-17T09:58:27Z</time>
      </trkpt>
      <trkpt lat="43.65579" lon="3.40444">
        <ele>135.6</ele>
        <time>2022-05-17T09:58:33Z</time>
      </trkpt>
      <trkpt lat="43.65576" lon="3.40439">
        <ele>136</ele>
        <time>2022-05-17T09:58:36Z</time>
      </trkpt>
      <trkpt lat="43.65574" lon="3.40431">
        <ele>136.6</ele>
        <time>2022-05-17T09:58:40Z</time>
      </trkpt>
      <trkpt lat="43.65571" lon="3.40424">
        <ele>137</ele>
        <time>2022-05-17T09:58:44Z</time>
      </trkpt>
      <trkpt lat="43.6557" lon="3.40423">
        <ele>137.2</ele>
        <time>2022-05-17T09:58:45Z</time>
      </trkpt>
      <trkpt lat="43.65567" lon="3.40416">
        <ele>138.2</ele>
        <time>2022-05-17T09:58:49Z</time>
      </trkpt>
      <trkpt lat="43.65564" lon="3.40411">
        <ele>138.6</ele>
        <time>2022-05-17T09:58:52Z</time>
      </trkpt>
      <trkpt lat="43.65558" lon="3.40402">
        <ele>139.4</ele>
        <time>2022-05-17T09:58:58Z</time>
      </trkpt>
      <trkpt lat="43.65554" lon="3.40398">
        <ele>139.6</ele>
        <time>2022-05-17T09:59:01Z</time>
      </trkpt>
      <trkpt lat="43.65547" lon="3.4039">
        <ele>140.4</ele>
        <time>2022-05-17T09:59:08Z</time>
      </trkpt>
      <trkpt lat="43.65545" lon="3.40388">
        <ele>140.6</ele>
        <time>2022-05-17T09:59:10Z</time>
      </trkpt>
      <trkpt lat="43.65541" lon="3.40383">
        <ele>141</ele>
        <time>2022-05-17T09:59:13Z</time>
      </trkpt>
      <trkpt lat="43.65535" lon="3.40379">
        <ele>141.4</ele>
        <time>2022-05-17T09:59:17Z</time>
      </trkpt>
      <trkpt lat="43.65534" lon="3.40378">
        <ele>141.6</ele>
        <time>2022-05-17T09:59:18Z</time>
      </trkpt>
      <trkpt lat="43.65523" lon="3.40367">
        <ele>142.4</ele>
        <time>2022-05-17T09:59:26Z</time>
      </trkpt>
      <trkpt lat="43.65521" lon="3.40365">
        <ele>142.6</ele>
        <time>2022-05-17T09:59:28Z</time>
      </trkpt>
      <trkpt lat="43.65512" lon="3.40358">
        <ele>143.4</ele>
        <time>2022-05-17T09:59:35Z</time>
      </trkpt>
      <trkpt lat="43.6551" lon="3.40356">
        <ele>143.6</ele>
        <time>2022-05-17T09:59:37Z</time>
      </trkpt>
      <trkpt lat="43.65501" lon="3.40349">
        <ele>144.4</ele>
        <time>2022-05-17T09:59:44Z</time>
      </trkpt>
      <trkpt lat="43.65499" lon="3.40347">
        <ele>144.6</ele>
        <time>2022-05-17T09:59:46Z</time>
      </trkpt>
      <trkpt lat="43.65489" lon="3.40336">
        <ele>145.4</ele>
        <time>2022-05-17T09:59:54Z</time>
      </trkpt>
      <trkpt lat="43.65484" lon="3.4033">
        <ele>145.8</ele>
        <time>2022-05-17T09:59:58Z</time>
      </trkpt>
      <trkpt lat="43.65476" lon="3.40319">
        <ele>146.2</ele>
        <time>2022-05-17T10:00:05Z</time>
      </trkpt>
      <trkpt lat="43.65468" lon="3.40305">
        <ele>146.8</ele>
        <time>2022-05-17T10:00:14Z</time>
      </trkpt>
      <trkpt lat="43.65465" lon="3.403">
        <ele>147</ele>
        <time>2022-05-17T10:00:17Z</time>
      </trkpt>
      <trkpt lat="43.65452" lon="3.40283">
        <ele>147.8</ele>
        <time>2022-05-17T10:00:29Z</time>
      </trkpt>
      <trkpt lat="43.6545" lon="3.4028">
        <ele>148</ele>
        <time>2022-05-17T10:00:31Z</time>
      </trkpt>
      <trkpt lat="43.65441" lon="3.4027">
        <ele>148.6</ele>
        <time>2022-05-17T10:00:39Z</time>
      </trkpt>
      <trkpt lat="43.65438" lon="3.40268">
        <ele>148.6</ele>
        <time>2022-05-17T10:00:41Z</time>
      </trkpt>
      <trkpt lat="43.65435" lon="3.40263">
        <ele>149</ele>
        <time>2022-05-17T10:00:44Z</time>
      </trkpt>
      <trkpt lat="43.65431" lon="3.4026">
        <ele>149.2</ele>
        <time>2022-05-17T10:00:47Z</time>
      </trkpt>
      <trkpt lat="43.65424" lon="3.40253">
        <ele>150</ele>
        <time>2022-05-17T10:00:53Z</time>
      </trkpt>
      <trkpt lat="43.65422" lon="3.4025">
        <ele>150.2</ele>
        <time>2022-05-17T10:00:55Z</time>
      </trkpt>
      <trkpt lat="43.65411" lon="3.40243">
        <ele>151</ele>
        <time>2022-05-17T10:01:03Z</time>
      </trkpt>
      <trkpt lat="43.65407" lon="3.40239">
        <ele>151.2</ele>
        <time>2022-05-17T10:01:06Z</time>
      </trkpt>
      <trkpt lat="43.65395" lon="3.40232">
        <ele>152.2</ele>
        <time>2022-05-17T10:01:15Z</time>
      </trkpt>
      <trkpt lat="43.65391" lon="3.4023">
        <ele>152.4</ele>
        <time>2022-05-17T10:01:18Z</time>
      </trkpt>
      <trkpt lat="43.65376" lon="3.4022">
        <ele>153.4</ele>
        <time>2022-05-17T10:01:28Z</time>
      </trkpt>
      <trkpt lat="43.65364" lon="3.40213">
        <ele>154.2</ele>
        <time>2022-05-17T10:01:36Z</time>
      </trkpt>
      <trkpt lat="43.65362" lon="3.40212">
        <ele>154.4</ele>
        <time>2022-05-17T10:01:38Z</time>
      </trkpt>
      <trkpt lat="43.65352" lon="3.40208">
        <ele>155.2</ele>
        <time>2022-05-17T10:01:45Z</time>
      </trkpt>
      <trkpt lat="43.65346" lon="3.40205">
        <ele>155.4</ele>
        <time>2022-05-17T10:01:49Z</time>
      </trkpt>
      <trkpt lat="43.6534" lon="3.40203">
        <ele>155.6</ele>
        <time>2022-05-17T10:01:53Z</time>
      </trkpt>
      <trkpt lat="43.65339" lon="3.40202">
        <ele>156</ele>
        <time>2022-05-17T10:01:57Z</time>
      </trkpt>
      <trkpt lat="43.65339" lon="3.40202">
        <ele>156.2</ele>
        <time>2022-05-17T10:02:16Z</time>
      </trkpt>
      <trkpt lat="43.65339" lon="3.40202">
        <ele>156.4</ele>
        <time>2022-05-17T10:02:44Z</time>
      </trkpt>
      <trkpt lat="43.65339" lon="3.40202">
        <ele>156.6</ele>
        <time>2022-05-17T10:03:34Z</time>
      </trkpt>
      <trkpt lat="43.65339" lon="3.40202">
        <ele>156.6</ele>
        <time>2022-05-17T10:04:17Z</time>
      </trkpt>
      <trkpt lat="43.65339" lon="3.40202">
        <ele>156.8</ele>
        <time>2022-05-17T10:05:02Z</time>
      </trkpt>
      <trkpt lat="43.65339" lon="3.40202">
        <ele>156.8</ele>
        <time>2022-05-17T10:05:40Z</time>
      </trkpt>
      <trkpt lat="43.65339" lon="3.40202">
        <ele>156.4</ele>
        <time>2022-05-17T10:06:15Z</time>
      </trkpt>
      <trkpt lat="43.65339" lon="3.40202">
        <ele>156.4</ele>
        <time>2022-05-17T10:06:56Z</time>
      </trkpt>
      <trkpt lat="43.65339" lon="3.40202">
        <ele>156.4</ele>
        <time>2022-05-17T10:07:53Z</time>
      </trkpt>
      <trkpt lat="43.65339" lon="3.40202">
        <ele>156.6</ele>
        <time>2022-05-17T10:09:07Z</time>
      </trkpt>
      <trkpt lat="43.65339" lon="3.40202">
        <ele>156</ele>
        <time>2022-05-17T10:11:36Z</time>
      </trkpt>
      <trkpt lat="43.65339" lon="3.40202">
        <ele>156.4</ele>
        <time>2022-05-17T10:13:50Z</time>
      </trkpt>
      <trkpt lat="43.65333" lon="3.40202">
        <ele>156.2</ele>
        <time>2022-05-17T10:14:38Z</time>
      </trkpt>
      <trkpt lat="43.65322" lon="3.40203">
        <ele>156.6</ele>
        <time>2022-05-17T10:14:45Z</time>
      </trkpt>
      <trkpt lat="43.65311" lon="3.402">
        <ele>156.8</ele>
        <time>2022-05-17T10:14:52Z</time>
      </trkpt>
      <trkpt lat="43.65298" lon="3.40193">
        <ele>157.2</ele>
        <time>2022-05-17T10:15:01Z</time>
      </trkpt>
      <trkpt lat="43.65295" lon="3.40191">
        <ele>157.4</ele>
        <time>2022-05-17T10:15:03Z</time>
      </trkpt>
      <trkpt lat="43.65284" lon="3.40174">
        <ele>158.2</ele>
        <time>2022-05-17T10:15:13Z</time>
      </trkpt>
      <trkpt lat="43.65283" lon="3.40171">
        <ele>158.2</ele>
        <time>2022-05-17T10:15:15Z</time>
      </trkpt>
      <trkpt lat="43.6528" lon="3.40159">
        <ele>158.6</ele>
        <time>2022-05-17T10:15:21Z</time>
      </trkpt>
      <trkpt lat="43.65279" lon="3.40145">
        <ele>159.4</ele>
        <time>2022-05-17T10:15:27Z</time>
      </trkpt>
      <trkpt lat="43.65278" lon="3.40141">
        <ele>159.4</ele>
        <time>2022-05-17T10:15:29Z</time>
      </trkpt>
      <trkpt lat="43.65277" lon="3.40125">
        <ele>160</ele>
        <time>2022-05-17T10:15:37Z</time>
      </trkpt>
      <trkpt lat="43.65276" lon="3.40118">
        <ele>160.4</ele>
        <time>2022-05-17T10:15:40Z</time>
      </trkpt>
      <trkpt lat="43.65276" lon="3.40105">
        <ele>160.8</ele>
        <time>2022-05-17T10:15:46Z</time>
      </trkpt>
      <trkpt lat="43.65273" lon="3.4009">
        <ele>161.4</ele>
        <time>2022-05-17T10:15:53Z</time>
      </trkpt>
      <trkpt lat="43.65272" lon="3.40082">
        <ele>161.8</ele>
        <time>2022-05-17T10:15:57Z</time>
      </trkpt>
      <trkpt lat="43.65272" lon="3.4008">
        <ele>161.8</ele>
        <time>2022-05-17T10:15:58Z</time>
      </trkpt>
      <trkpt lat="43.65262" lon="3.40059">
        <ele>162.4</ele>
        <time>2022-05-17T10:16:09Z</time>
      </trkpt>
      <trkpt lat="43.65254" lon="3.40046">
        <ele>163</ele>
        <time>2022-05-17T10:16:16Z</time>
      </trkpt>
      <trkpt lat="43.65247" lon="3.40033">
        <ele>163.6</ele>
        <time>2022-05-17T10:16:22Z</time>
      </trkpt>
      <trkpt lat="43.65246" lon="3.40031">
        <ele>163.6</ele>
        <time>2022-05-17T10:16:23Z</time>
      </trkpt>
      <trkpt lat="43.65244" lon="3.4003">
        <ele>163.6</ele>
        <time>2022-05-17T10:16:24Z</time>
      </trkpt>
      <trkpt lat="43.65238" lon="3.40022">
        <ele>164.4</ele>
        <time>2022-05-17T10:16:28Z</time>
      </trkpt>
      <trkpt lat="43.65229" lon="3.40012">
        <ele>165</ele>
        <time>2022-05-17T10:16:33Z</time>
      </trkpt>
      <trkpt lat="43.65224" lon="3.40006">
        <ele>165.4</ele>
        <time>2022-05-17T10:16:36Z</time>
      </trkpt>
      <trkpt lat="43.6521" lon="3.39996">
        <ele>165.8</ele>
        <time>2022-05-17T10:16:43Z</time>
      </trkpt>
      <trkpt lat="43.65199" lon="3.3999">
        <ele>166.4</ele>
        <time>2022-05-17T10:16:49Z</time>
      </trkpt>
      <trkpt lat="43.65194" lon="3.39988">
        <ele>166.6</ele>
        <time>2022-05-17T10:16:51Z</time>
      </trkpt>
      <trkpt lat="43.6519" lon="3.39988">
        <ele>166.6</ele>
        <time>2022-05-17T10:16:53Z</time>
      </trkpt>
      <trkpt lat="43.65175" lon="3.39985">
        <ele>167.6</ele>
        <time>2022-05-17T10:17:00Z</time>
      </trkpt>
      <trkpt lat="43.6517" lon="3.39985">
        <ele>167.8</ele>
        <time>2022-05-17T10:17:02Z</time>
      </trkpt>
      <trkpt lat="43.65154" lon="3.39979">
        <ele>168.6</ele>
        <time>2022-05-17T10:17:09Z</time>
      </trkpt>
      <trkpt lat="43.65152" lon="3.39977">
        <ele>168.6</ele>
        <time>2022-05-17T10:17:10Z</time>
      </trkpt>
      <trkpt lat="43.65136" lon="3.39957">
        <ele>169.2</ele>
        <time>2022-05-17T10:17:18Z</time>
      </trkpt>
      <trkpt lat="43.65131" lon="3.39945">
        <ele>169.6</ele>
        <time>2022-05-17T10:17:22Z</time>
      </trkpt>
      <trkpt lat="43.6513" lon="3.39938">
        <ele>169.8</ele>
        <time>2022-05-17T10:17:24Z</time>
      </trkpt>
      <trkpt lat="43.65129" lon="3.39934">
        <ele>170</ele>
        <time>2022-05-17T10:17:25Z</time>
      </trkpt>
      <trkpt lat="43.65131" lon="3.39916">
        <ele>170.4</ele>
        <time>2022-05-17T10:17:31Z</time>
      </trkpt>
      <trkpt lat="43.65132" lon="3.3991">
        <ele>170.6</ele>
        <time>2022-05-17T10:17:33Z</time>
      </trkpt>
      <trkpt lat="43.6514" lon="3.39889">
        <ele>171.2</ele>
        <time>2022-05-17T10:17:39Z</time>
      </trkpt>
      <trkpt lat="43.65145" lon="3.39874">
        <ele>171.8</ele>
        <time>2022-05-17T10:17:44Z</time>
      </trkpt>
      <trkpt lat="43.65149" lon="3.3986">
        <ele>172</ele>
        <time>2022-05-17T10:17:48Z</time>
      </trkpt>
      <trkpt lat="43.65156" lon="3.3983">
        <ele>172.8</ele>
        <time>2022-05-17T10:17:56Z</time>
      </trkpt>
      <trkpt lat="43.65158" lon="3.39818">
        <ele>173</ele>
        <time>2022-05-17T10:17:59Z</time>
      </trkpt>
      <trkpt lat="43.65158" lon="3.39783">
        <ele>173.2</ele>
        <time>2022-05-17T10:18:07Z</time>
      </trkpt>
      <trkpt lat="43.65153" lon="3.39736">
        <ele>173.2</ele>
        <time>2022-05-17T10:18:18Z</time>
      </trkpt>
      <trkpt lat="43.65151" lon="3.39694">
        <ele>173.2</ele>
        <time>2022-05-17T10:18:27Z</time>
      </trkpt>
      <trkpt lat="43.65148" lon="3.39655">
        <ele>173.4</ele>
        <time>2022-05-17T10:18:35Z</time>
      </trkpt>
      <trkpt lat="43.65145" lon="3.3962">
        <ele>173.8</ele>
        <time>2022-05-17T10:18:42Z</time>
      </trkpt>
      <trkpt lat="43.65145" lon="3.39599">
        <ele>174</ele>
        <time>2022-05-17T10:18:46Z</time>
      </trkpt>
      <trkpt lat="43.65149" lon="3.3955">
        <ele>174.8</ele>
        <time>2022-05-17T10:18:56Z</time>
      </trkpt>
      <trkpt lat="43.65158" lon="3.39502">
        <ele>175.8</ele>
        <time>2022-05-17T10:19:06Z</time>
      </trkpt>
      <trkpt lat="43.65164" lon="3.39457">
        <ele>176.4</ele>
        <time>2022-05-17T10:19:15Z</time>
      </trkpt>
      <trkpt lat="43.65162" lon="3.39415">
        <ele>176.6</ele>
        <time>2022-05-17T10:19:23Z</time>
      </trkpt>
      <trkpt lat="43.65158" lon="3.39374">
        <ele>176.8</ele>
        <time>2022-05-17T10:19:31Z</time>
      </trkpt>
      <trkpt lat="43.65157" lon="3.39364">
        <ele>176.6</ele>
        <time>2022-05-17T10:19:33Z</time>
      </trkpt>
      <trkpt lat="43.65154" lon="3.39337">
        <ele>176.8</ele>
        <time>2022-05-17T10:19:38Z</time>
      </trkpt>
      <trkpt lat="43.6515" lon="3.39296">
        <ele>177</ele>
        <time>2022-05-17T10:19:46Z</time>
      </trkpt>
      <trkpt lat="43.65142" lon="3.39256">
        <ele>177.6</ele>
        <time>2022-05-17T10:19:54Z</time>
      </trkpt>
      <trkpt lat="43.65141" lon="3.3925">
        <ele>177.8</ele>
        <time>2022-05-17T10:19:55Z</time>
      </trkpt>
      <trkpt lat="43.65131" lon="3.39219">
        <ele>178</ele>
        <time>2022-05-17T10:20:01Z</time>
      </trkpt>
      <trkpt lat="43.65119" lon="3.3918">
        <ele>178.6</ele>
        <time>2022-05-17T10:20:09Z</time>
      </trkpt>
      <trkpt lat="43.65115" lon="3.39171">
        <ele>178.8</ele>
        <time>2022-05-17T10:20:11Z</time>
      </trkpt>
      <trkpt lat="43.65107" lon="3.39155">
        <ele>179.2</ele>
        <time>2022-05-17T10:20:16Z</time>
      </trkpt>
      <trkpt lat="43.65102" lon="3.39141">
        <ele>179.2</ele>
        <time>2022-05-17T10:20:21Z</time>
      </trkpt>
      <trkpt lat="43.65094" lon="3.39128">
        <ele>179.2</ele>
        <time>2022-05-17T10:20:28Z</time>
      </trkpt>
      <trkpt lat="43.65084" lon="3.39111">
        <ele>179</ele>
        <time>2022-05-17T10:20:36Z</time>
      </trkpt>
      <trkpt lat="43.65072" lon="3.39097">
        <ele>178.4</ele>
        <time>2022-05-17T10:20:42Z</time>
      </trkpt>
      <trkpt lat="43.6506" lon="3.39086">
        <ele>178</ele>
        <time>2022-05-17T10:20:47Z</time>
      </trkpt>
      <trkpt lat="43.65049" lon="3.39079">
        <ele>177.4</ele>
        <time>2022-05-17T10:20:52Z</time>
      </trkpt>
      <trkpt lat="43.65046" lon="3.39078">
        <ele>177.2</ele>
        <time>2022-05-17T10:20:53Z</time>
      </trkpt>
      <trkpt lat="43.65022" lon="3.39066">
        <ele>176.4</ele>
        <time>2022-05-17T10:21:01Z</time>
      </trkpt>
      <trkpt lat="43.6502" lon="3.39065">
        <ele>176.2</ele>
        <time>2022-05-17T10:21:02Z</time>
      </trkpt>
      <trkpt lat="43.65006" lon="3.39061">
        <ele>175.2</ele>
        <time>2022-05-17T10:21:07Z</time>
      </trkpt>
      <trkpt lat="43.65" lon="3.39059">
        <ele>175</ele>
        <time>2022-05-17T10:21:09Z</time>
      </trkpt>
      <trkpt lat="43.64976" lon="3.39057">
        <ele>174.2</ele>
        <time>2022-05-17T10:21:16Z</time>
      </trkpt>
      <trkpt lat="43.64954" lon="3.39061">
        <ele>173</ele>
        <time>2022-05-17T10:21:22Z</time>
      </trkpt>
      <trkpt lat="43.64943" lon="3.39063">
        <ele>171.8</ele>
        <time>2022-05-17T10:21:27Z</time>
      </trkpt>
      <trkpt lat="43.64941" lon="3.39064">
        <ele>171.6</ele>
        <time>2022-05-17T10:21:28Z</time>
      </trkpt>
      <trkpt lat="43.64938" lon="3.39064">
        <ele>170.6</ele>
        <time>2022-05-17T10:21:33Z</time>
      </trkpt>
      <trkpt lat="43.64938" lon="3.39064">
        <ele>169.6</ele>
        <time>2022-05-17T10:21:47Z</time>
      </trkpt>
      <trkpt lat="43.64937" lon="3.39063">
        <ele>169.6</ele>
        <time>2022-05-17T10:22:00Z</time>
      </trkpt>
      <trkpt lat="43.64924" lon="3.39058">
        <ele>169.4</ele>
        <time>2022-05-17T10:22:05Z</time>
      </trkpt>
      <trkpt lat="43.64921" lon="3.39055">
        <ele>169.4</ele>
        <time>2022-05-17T10:22:06Z</time>
      </trkpt>
      <trkpt lat="43.64912" lon="3.39043">
        <ele>168.4</ele>
        <time>2022-05-17T10:22:10Z</time>
      </trkpt>
      <trkpt lat="43.64911" lon="3.39041">
        <ele>168.2</ele>
        <time>2022-05-17T10:22:11Z</time>
      </trkpt>
      <trkpt lat="43.64911" lon="3.39034">
        <ele>167.4</ele>
        <time>2022-05-17T10:22:14Z</time>
      </trkpt>
      <trkpt lat="43.64912" lon="3.39031">
        <ele>167.4</ele>
        <time>2022-05-17T10:22:15Z</time>
      </trkpt>
      <trkpt lat="43.64912" lon="3.39017">
        <ele>166.8</ele>
        <time>2022-05-17T10:22:19Z</time>
      </trkpt>
      <trkpt lat="43.6491" lon="3.39005">
        <ele>165.8</ele>
        <time>2022-05-17T10:22:23Z</time>
      </trkpt>
      <trkpt lat="43.6491" lon="3.38999">
        <ele>164.6</ele>
        <time>2022-05-17T10:22:25Z</time>
      </trkpt>
      <trkpt lat="43.64911" lon="3.38995">
        <ele>164.4</ele>
        <time>2022-05-17T10:22:26Z</time>
      </trkpt>
      <trkpt lat="43.64912" lon="3.38983">
        <ele>163.2</ele>
        <time>2022-05-17T10:22:29Z</time>
      </trkpt>
      <trkpt lat="43.64911" lon="3.38971">
        <ele>162</ele>
        <time>2022-05-17T10:22:32Z</time>
      </trkpt>
      <trkpt lat="43.649" lon="3.38951">
        <ele>161</ele>
        <time>2022-05-17T10:22:37Z</time>
      </trkpt>
      <trkpt lat="43.64897" lon="3.38948">
        <ele>160.6</ele>
        <time>2022-05-17T10:22:38Z</time>
      </trkpt>
      <trkpt lat="43.6489" lon="3.38941">
        <ele>160.2</ele>
        <time>2022-05-17T10:22:40Z</time>
      </trkpt>
      <trkpt lat="43.64884" lon="3.38931">
        <ele>160.2</ele>
        <time>2022-05-17T10:22:42Z</time>
      </trkpt>
      <trkpt lat="43.64882" lon="3.38926">
        <ele>159.6</ele>
        <time>2022-05-17T10:22:43Z</time>
      </trkpt>
      <trkpt lat="43.64878" lon="3.38921">
        <ele>159.2</ele>
        <time>2022-05-17T10:22:44Z</time>
      </trkpt>
      <trkpt lat="43.64874" lon="3.38917">
        <ele>158.4</ele>
        <time>2022-05-17T10:22:45Z</time>
      </trkpt>
      <trkpt lat="43.64869" lon="3.38915">
        <ele>158</ele>
        <time>2022-05-17T10:22:46Z</time>
      </trkpt>
      <trkpt lat="43.64855" lon="3.3891">
        <ele>157.2</ele>
        <time>2022-05-17T10:22:49Z</time>
      </trkpt>
      <trkpt lat="43.64845" lon="3.38905">
        <ele>156.4</ele>
        <time>2022-05-17T10:22:51Z</time>
      </trkpt>
      <trkpt lat="43.6484" lon="3.389">
        <ele>156</ele>
        <time>2022-05-17T10:22:52Z</time>
      </trkpt>
      <trkpt lat="43.64826" lon="3.38886">
        <ele>154.8</ele>
        <time>2022-05-17T10:22:55Z</time>
      </trkpt>
      <trkpt lat="43.64821" lon="3.38881">
        <ele>154.2</ele>
        <time>2022-05-17T10:22:56Z</time>
      </trkpt>
      <trkpt lat="43.64813" lon="3.38875">
        <ele>153.4</ele>
        <time>2022-05-17T10:22:58Z</time>
      </trkpt>
      <trkpt lat="43.64808" lon="3.38869">
        <ele>152.2</ele>
        <time>2022-05-17T10:23:00Z</time>
      </trkpt>
      <trkpt lat="43.64807" lon="3.38866">
        <ele>151.8</ele>
        <time>2022-05-17T10:23:01Z</time>
      </trkpt>
      <trkpt lat="43.64807" lon="3.38858">
        <ele>150.8</ele>
        <time>2022-05-17T10:23:03Z</time>
      </trkpt>
      <trkpt lat="43.64806" lon="3.38855">
        <ele>150</ele>
        <time>2022-05-17T10:23:04Z</time>
      </trkpt>
      <trkpt lat="43.64804" lon="3.38854">
        <ele>149.4</ele>
        <time>2022-05-17T10:23:05Z</time>
      </trkpt>
      <trkpt lat="43.64801" lon="3.38858">
        <ele>148.6</ele>
        <time>2022-05-17T10:23:07Z</time>
      </trkpt>
      <trkpt lat="43.648" lon="3.38861">
        <ele>148.2</ele>
        <time>2022-05-17T10:23:08Z</time>
      </trkpt>
      <trkpt lat="43.64791" lon="3.38872">
        <ele>147.8</ele>
        <time>2022-05-17T10:23:12Z</time>
      </trkpt>
      <trkpt lat="43.64777" lon="3.38892">
        <ele>147.2</ele>
        <time>2022-05-17T10:23:17Z</time>
      </trkpt>
      <trkpt lat="43.64763" lon="3.3891">
        <ele>146.8</ele>
        <time>2022-05-17T10:23:21Z</time>
      </trkpt>
      <trkpt lat="43.64757" lon="3.38919">
        <ele>146.4</ele>
        <time>2022-05-17T10:23:23Z</time>
      </trkpt>
      <trkpt lat="43.64748" lon="3.38924">
        <ele>146.2</ele>
        <time>2022-05-17T10:23:25Z</time>
      </trkpt>
      <trkpt lat="43.64743" lon="3.38924">
        <ele>146</ele>
        <time>2022-05-17T10:23:26Z</time>
      </trkpt>
      <trkpt lat="43.64738" lon="3.38922">
        <ele>146</ele>
        <time>2022-05-17T10:23:27Z</time>
      </trkpt>
      <trkpt lat="43.6473" lon="3.38913">
        <ele>145.6</ele>
        <time>2022-05-17T10:23:29Z</time>
      </trkpt>
      <trkpt lat="43.64723" lon="3.38903">
        <ele>145.2</ele>
        <time>2022-05-17T10:23:31Z</time>
      </trkpt>
      <trkpt lat="43.6472" lon="3.389">
        <ele>145</ele>
        <time>2022-05-17T10:23:32Z</time>
      </trkpt>
      <trkpt lat="43.64713" lon="3.38895">
        <ele>144.8</ele>
        <time>2022-05-17T10:23:34Z</time>
      </trkpt>
      <trkpt lat="43.64691" lon="3.38893">
        <ele>144.4</ele>
        <time>2022-05-17T10:23:40Z</time>
      </trkpt>
      <trkpt lat="43.64676" lon="3.38891">
        <ele>144.6</ele>
        <time>2022-05-17T10:23:45Z</time>
      </trkpt>
      <trkpt lat="43.64657" lon="3.38885">
        <ele>144.8</ele>
        <time>2022-05-17T10:23:52Z</time>
      </trkpt>
      <trkpt lat="43.64638" lon="3.38876">
        <ele>145</ele>
        <time>2022-05-17T10:23:59Z</time>
      </trkpt>
      <trkpt lat="43.64625" lon="3.38874">
        <ele>145</ele>
        <time>2022-05-17T10:24:03Z</time>
      </trkpt>
      <trkpt lat="43.64617" lon="3.38882">
        <ele>145</ele>
        <time>2022-05-17T10:24:07Z</time>
      </trkpt>
      <trkpt lat="43.6461" lon="3.3889">
        <ele>145</ele>
        <time>2022-05-17T10:24:13Z</time>
      </trkpt>
      <trkpt lat="43.64607" lon="3.38895">
        <ele>145.2</ele>
        <time>2022-05-17T10:24:17Z</time>
      </trkpt>
      <trkpt lat="43.64607" lon="3.38898">
        <ele>145.2</ele>
        <time>2022-05-17T10:24:19Z</time>
      </trkpt>
      <trkpt lat="43.646" lon="3.38913">
        <ele>145.2</ele>
        <time>2022-05-17T10:24:28Z</time>
      </trkpt>
      <trkpt lat="43.64598" lon="3.38915">
        <ele>145.4</ele>
        <time>2022-05-17T10:24:30Z</time>
      </trkpt>
      <trkpt lat="43.64596" lon="3.38917">
        <ele>145.4</ele>
        <time>2022-05-17T10:24:32Z</time>
      </trkpt>
      <trkpt lat="43.64589" lon="3.38921">
        <ele>145.8</ele>
        <time>2022-05-17T10:24:38Z</time>
      </trkpt>
      <trkpt lat="43.64591" lon="3.38927">
        <ele>146</ele>
        <time>2022-05-17T10:24:42Z</time>
      </trkpt>
      <trkpt lat="43.64592" lon="3.38927">
        <ele>146</ele>
        <time>2022-05-17T10:24:43Z</time>
      </trkpt>
      <trkpt lat="43.64594" lon="3.38926">
        <ele>146</ele>
        <time>2022-05-17T10:24:46Z</time>
      </trkpt>
      <trkpt lat="43.64594" lon="3.38926">
        <ele>146.2</ele>
        <time>2022-05-17T10:24:47Z</time>
      </trkpt>
      <trkpt lat="43.64594" lon="3.38926">
        <ele>146</ele>
        <time>2022-05-17T10:26:02Z</time>
      </trkpt>
      <trkpt lat="43.64592" lon="3.38926">
        <ele>145.8</ele>
        <time>2022-05-17T10:26:45Z</time>
      </trkpt>
      <trkpt lat="43.6459" lon="3.38925">
        <ele>145.8</ele>
        <time>2022-05-17T10:26:51Z</time>
      </trkpt>
      <trkpt lat="43.64586" lon="3.38926">
        <ele>145.8</ele>
        <time>2022-05-17T10:26:53Z</time>
      </trkpt>
      <trkpt lat="43.64571" lon="3.38938">
        <ele>146.4</ele>
        <time>2022-05-17T10:27:00Z</time>
      </trkpt>
      <trkpt lat="43.64549" lon="3.38958">
        <ele>147.2</ele>
        <time>2022-05-17T10:27:12Z</time>
      </trkpt>
      <trkpt lat="43.64544" lon="3.38972">
        <ele>147.2</ele>
        <time>2022-05-17T10:27:18Z</time>
      </trkpt>
      <trkpt lat="43.64545" lon="3.38975">
        <ele>147.2</ele>
        <time>2022-05-17T10:27:20Z</time>
      </trkpt>
      <trkpt lat="43.64548" lon="3.38977">
        <ele>147.2</ele>
        <time>2022-05-17T10:27:23Z</time>
      </trkpt>
      <trkpt lat="43.64551" lon="3.38973">
        <ele>147.2</ele>
        <time>2022-05-17T10:27:27Z</time>
      </trkpt>
      <trkpt lat="43.6455" lon="3.38972">
        <ele>147.2</ele>
        <time>2022-05-17T10:27:28Z</time>
      </trkpt>
      <trkpt lat="43.64548" lon="3.38972">
        <ele>147.2</ele>
        <time>2022-05-17T10:27:29Z</time>
      </trkpt>
      <trkpt lat="43.64548" lon="3.38978">
        <ele>147</ele>
        <time>2022-05-17T10:27:32Z</time>
      </trkpt>
      <trkpt lat="43.64558" lon="3.38987">
        <ele>147.2</ele>
        <time>2022-05-17T10:27:37Z</time>
      </trkpt>
      <trkpt lat="43.64564" lon="3.38996">
        <ele>147.2</ele>
        <time>2022-05-17T10:27:41Z</time>
      </trkpt>
      <trkpt lat="43.64563" lon="3.39">
        <ele>147.2</ele>
        <time>2022-05-17T10:27:42Z</time>
      </trkpt>
      <trkpt lat="43.64555" lon="3.3902">
        <ele>147.4</ele>
        <time>2022-05-17T10:27:49Z</time>
      </trkpt>
      <trkpt lat="43.64553" lon="3.3903">
        <ele>147.6</ele>
        <time>2022-05-17T10:27:52Z</time>
      </trkpt>
      <trkpt lat="43.64554" lon="3.39034">
        <ele>147.4</ele>
        <time>2022-05-17T10:27:54Z</time>
      </trkpt>
      <trkpt lat="43.64554" lon="3.39035">
        <ele>147.4</ele>
        <time>2022-05-17T10:27:59Z</time>
      </trkpt>
      <trkpt lat="43.64554" lon="3.39035">
        <ele>147.4</ele>
        <time>2022-05-17T10:28:11Z</time>
      </trkpt>
      <trkpt lat="43.64554" lon="3.39035">
        <ele>147.6</ele>
        <time>2022-05-17T10:28:19Z</time>
      </trkpt>
    </trkseg>
  </trk>
</gpx>